<?xml version="1.0" encoding="UTF-8" standalone="no" ?>
<gpx xmlns="http://www.topografix.com/GPX/1/1" xmlns:xsi="http://www.w3.org/2001/XMLSchema-instance" xsi:schemaLocation="http://www.topografix.com/GPX/1/1 http://www.topografix.com/GPX/1/1/gpx.xsd" version="1.1" creator="VisuGPX - https://www.visugpx.com">
  <metadata>
    <name>Tré la Tête et Armancette, depuis les Contamines </name>
  </metadata>
  <trk>
    <name><![CDATA[2018-09-11 16:59:36-Course TT]]></name>
    <extensions>
      <line xmlns="http://www.topografix.com/GPX/gpx_style/0/2">
        <color>0000FF</color>
        <width>4</width>
      </line>
    </extensions>
    <trkseg>
      <trkpt lat="45.81" lon="6.72896">
        <ele>1164.77</ele>
        <time>2018-09-11T11:53:34Z</time>
      </trkpt>
      <trkpt lat="45.81" lon="6.72897">
        <ele>1100.37</ele>
        <time>2018-09-11T11:53:35Z</time>
      </trkpt>
      <trkpt lat="45.81001" lon="6.72898">
        <ele>1100.37</ele>
        <time>2018-09-11T11:53:36Z</time>
      </trkpt>
      <trkpt lat="45.81004" lon="6.72901">
        <ele>1164.77</ele>
        <time>2018-09-11T11:53:39Z</time>
      </trkpt>
      <trkpt lat="45.81022" lon="6.72915">
        <ele>1167.18</ele>
        <time>2018-09-11T11:53:47Z</time>
      </trkpt>
      <trkpt lat="45.81041" lon="6.72922">
        <ele>1169.58</ele>
        <time>2018-09-11T11:53:56Z</time>
      </trkpt>
      <trkpt lat="45.8106" lon="6.72928">
        <ele>1171.5</ele>
        <time>2018-09-11T11:54:06Z</time>
      </trkpt>
      <trkpt lat="45.81078" lon="6.72939">
        <ele>1173.43</ele>
        <time>2018-09-11T11:54:15Z</time>
      </trkpt>
      <trkpt lat="45.81095" lon="6.72951">
        <ele>1175.35</ele>
        <time>2018-09-11T11:54:24Z</time>
      </trkpt>
      <trkpt lat="45.81115" lon="6.72961">
        <ele>1176.79</ele>
        <time>2018-09-11T11:54:33Z</time>
      </trkpt>
      <trkpt lat="45.81132" lon="6.72974">
        <ele>1178.71</ele>
        <time>2018-09-11T11:54:42Z</time>
      </trkpt>
      <trkpt lat="45.81147" lon="6.72987">
        <ele>1181.12</ele>
        <time>2018-09-11T11:54:51Z</time>
      </trkpt>
      <trkpt lat="45.81165" lon="6.73002">
        <ele>1184</ele>
        <time>2018-09-11T11:55:01Z</time>
      </trkpt>
      <trkpt lat="45.81183" lon="6.73013">
        <ele>1186.4</ele>
        <time>2018-09-11T11:55:12Z</time>
      </trkpt>
      <trkpt lat="45.81201" lon="6.73024">
        <ele>1188.81</ele>
        <time>2018-09-11T11:55:22Z</time>
      </trkpt>
      <trkpt lat="45.81218" lon="6.73032">
        <ele>1190.25</ele>
        <time>2018-09-11T11:55:32Z</time>
      </trkpt>
      <trkpt lat="45.81237" lon="6.7305">
        <ele>1190.73</ele>
        <time>2018-09-11T11:55:43Z</time>
      </trkpt>
      <trkpt lat="45.81238" lon="6.73052">
        <ele>1191.21</ele>
        <time>2018-09-11T11:55:44Z</time>
      </trkpt>
      <trkpt lat="45.81238" lon="6.73055">
        <ele>1191.21</ele>
        <time>2018-09-11T11:55:45Z</time>
      </trkpt>
      <trkpt lat="45.81237" lon="6.73056">
        <ele>1191.69</ele>
        <time>2018-09-11T11:55:46Z</time>
      </trkpt>
      <trkpt lat="45.81237" lon="6.73058">
        <ele>1192.17</ele>
        <time>2018-09-11T11:55:47Z</time>
      </trkpt>
      <trkpt lat="45.81236" lon="6.73058">
        <ele>1192.17</ele>
        <time>2018-09-11T11:55:48Z</time>
      </trkpt>
      <trkpt lat="45.81235" lon="6.73059">
        <ele>1192.65</ele>
        <time>2018-09-11T11:55:49Z</time>
      </trkpt>
      <trkpt lat="45.81233" lon="6.73059">
        <ele>1192.65</ele>
        <time>2018-09-11T11:55:50Z</time>
      </trkpt>
      <trkpt lat="45.81232" lon="6.73059">
        <ele>1193.13</ele>
        <time>2018-09-11T11:55:51Z</time>
      </trkpt>
      <trkpt lat="45.81231" lon="6.73059">
        <ele>1193.61</ele>
        <time>2018-09-11T11:55:52Z</time>
      </trkpt>
      <trkpt lat="45.81227" lon="6.7306">
        <ele>1194.58</ele>
        <time>2018-09-11T11:55:57Z</time>
      </trkpt>
      <trkpt lat="45.81226" lon="6.7306">
        <ele>1195.06</ele>
        <time>2018-09-11T11:55:58Z</time>
      </trkpt>
      <trkpt lat="45.81217" lon="6.73059">
        <ele>1196.98</ele>
        <time>2018-09-11T11:56:04Z</time>
      </trkpt>
      <trkpt lat="45.81215" lon="6.73058">
        <ele>1196.98</ele>
        <time>2018-09-11T11:56:05Z</time>
      </trkpt>
      <trkpt lat="45.81207" lon="6.73054">
        <ele>1198.42</ele>
        <time>2018-09-11T11:56:11Z</time>
      </trkpt>
      <trkpt lat="45.81206" lon="6.73053">
        <ele>1198.9</ele>
        <time>2018-09-11T11:56:12Z</time>
      </trkpt>
      <trkpt lat="45.812" lon="6.73054">
        <ele>1200.34</ele>
        <time>2018-09-11T11:56:18Z</time>
      </trkpt>
      <trkpt lat="45.81188" lon="6.73052">
        <ele>1202.27</ele>
        <time>2018-09-11T11:56:26Z</time>
      </trkpt>
      <trkpt lat="45.81187" lon="6.73053">
        <ele>1202.75</ele>
        <time>2018-09-11T11:56:27Z</time>
      </trkpt>
      <trkpt lat="45.81185" lon="6.73054">
        <ele>1203.23</ele>
        <time>2018-09-11T11:56:28Z</time>
      </trkpt>
      <trkpt lat="45.81183" lon="6.73054">
        <ele>1203.71</ele>
        <time>2018-09-11T11:56:30Z</time>
      </trkpt>
      <trkpt lat="45.81182" lon="6.73054">
        <ele>1204.19</ele>
        <time>2018-09-11T11:56:31Z</time>
      </trkpt>
      <trkpt lat="45.81181" lon="6.73055">
        <ele>1204.67</ele>
        <time>2018-09-11T11:56:32Z</time>
      </trkpt>
      <trkpt lat="45.8118" lon="6.73055">
        <ele>1204.67</ele>
        <time>2018-09-11T11:56:33Z</time>
      </trkpt>
      <trkpt lat="45.81178" lon="6.73056">
        <ele>1205.15</ele>
        <time>2018-09-11T11:56:34Z</time>
      </trkpt>
      <trkpt lat="45.8117" lon="6.73055">
        <ele>1208.03</ele>
        <time>2018-09-11T11:56:44Z</time>
      </trkpt>
      <trkpt lat="45.81157" lon="6.73053">
        <ele>1210.44</ele>
        <time>2018-09-11T11:56:54Z</time>
      </trkpt>
      <trkpt lat="45.81156" lon="6.73053">
        <ele>1210.92</ele>
        <time>2018-09-11T11:56:55Z</time>
      </trkpt>
      <trkpt lat="45.81155" lon="6.73053">
        <ele>1211.4</ele>
        <time>2018-09-11T11:56:56Z</time>
      </trkpt>
      <trkpt lat="45.81153" lon="6.73054">
        <ele>1211.4</ele>
        <time>2018-09-11T11:56:57Z</time>
      </trkpt>
      <trkpt lat="45.81152" lon="6.73054">
        <ele>1212.36</ele>
        <time>2018-09-11T11:56:58Z</time>
      </trkpt>
      <trkpt lat="45.81151" lon="6.73053">
        <ele>1212.36</ele>
        <time>2018-09-11T11:56:59Z</time>
      </trkpt>
      <trkpt lat="45.8115" lon="6.73053">
        <ele>1212.36</ele>
        <time>2018-09-11T11:57:00Z</time>
      </trkpt>
      <trkpt lat="45.81141" lon="6.73051">
        <ele>1216.21</ele>
        <time>2018-09-11T11:57:11Z</time>
      </trkpt>
      <trkpt lat="45.81126" lon="6.7305">
        <ele>1219.09</ele>
        <time>2018-09-11T11:57:26Z</time>
      </trkpt>
      <trkpt lat="45.81112" lon="6.73051">
        <ele>1221.97</ele>
        <time>2018-09-11T11:57:41Z</time>
      </trkpt>
      <trkpt lat="45.81104" lon="6.73057">
        <ele>1224.38</ele>
        <time>2018-09-11T11:57:49Z</time>
      </trkpt>
      <trkpt lat="45.81099" lon="6.73058">
        <ele>1224.86</ele>
        <time>2018-09-11T11:57:54Z</time>
      </trkpt>
      <trkpt lat="45.81097" lon="6.73057">
        <ele>1225.34</ele>
        <time>2018-09-11T11:57:55Z</time>
      </trkpt>
      <trkpt lat="45.81094" lon="6.73058">
        <ele>1225.34</ele>
        <time>2018-09-11T11:57:57Z</time>
      </trkpt>
      <trkpt lat="45.81092" lon="6.73058">
        <ele>1225.82</ele>
        <time>2018-09-11T11:57:58Z</time>
      </trkpt>
      <trkpt lat="45.81091" lon="6.73057">
        <ele>1225.82</ele>
        <time>2018-09-11T11:57:59Z</time>
      </trkpt>
      <trkpt lat="45.81089" lon="6.73057">
        <ele>1225.82</ele>
        <time>2018-09-11T11:58:00Z</time>
      </trkpt>
      <trkpt lat="45.81088" lon="6.73057">
        <ele>1226.3</ele>
        <time>2018-09-11T11:58:01Z</time>
      </trkpt>
      <trkpt lat="45.81086" lon="6.73058">
        <ele>1226.78</ele>
        <time>2018-09-11T11:58:02Z</time>
      </trkpt>
      <trkpt lat="45.81084" lon="6.73058">
        <ele>1226.78</ele>
        <time>2018-09-11T11:58:03Z</time>
      </trkpt>
      <trkpt lat="45.81075" lon="6.73062">
        <ele>1229.18</ele>
        <time>2018-09-11T11:58:12Z</time>
      </trkpt>
      <trkpt lat="45.81071" lon="6.73064">
        <ele>1230.62</ele>
        <time>2018-09-11T11:58:17Z</time>
      </trkpt>
      <trkpt lat="45.81067" lon="6.73063">
        <ele>1231.59</ele>
        <time>2018-09-11T11:58:20Z</time>
      </trkpt>
      <trkpt lat="45.81063" lon="6.73061">
        <ele>1232.55</ele>
        <time>2018-09-11T11:58:23Z</time>
      </trkpt>
      <trkpt lat="45.81061" lon="6.7306">
        <ele>1233.03</ele>
        <time>2018-09-11T11:58:24Z</time>
      </trkpt>
      <trkpt lat="45.81059" lon="6.7306">
        <ele>1233.03</ele>
        <time>2018-09-11T11:58:25Z</time>
      </trkpt>
      <trkpt lat="45.81058" lon="6.7306">
        <ele>1233.03</ele>
        <time>2018-09-11T11:58:26Z</time>
      </trkpt>
      <trkpt lat="45.81058" lon="6.73062">
        <ele>1233.51</ele>
        <time>2018-09-11T11:58:27Z</time>
      </trkpt>
      <trkpt lat="45.81051" lon="6.73064">
        <ele>1235.43</ele>
        <time>2018-09-11T11:58:34Z</time>
      </trkpt>
      <trkpt lat="45.81049" lon="6.73064">
        <ele>1235.43</ele>
        <time>2018-09-11T11:58:35Z</time>
      </trkpt>
      <trkpt lat="45.81047" lon="6.73067">
        <ele>1235.91</ele>
        <time>2018-09-11T11:58:37Z</time>
      </trkpt>
      <trkpt lat="45.81047" lon="6.73069">
        <ele>1235.91</ele>
        <time>2018-09-11T11:58:38Z</time>
      </trkpt>
      <trkpt lat="45.81046" lon="6.73069">
        <ele>1236.39</ele>
        <time>2018-09-11T11:58:39Z</time>
      </trkpt>
      <trkpt lat="45.81045" lon="6.7307">
        <ele>1236.39</ele>
        <time>2018-09-11T11:58:40Z</time>
      </trkpt>
      <trkpt lat="45.81044" lon="6.7307">
        <ele>1236.39</ele>
        <time>2018-09-11T11:58:41Z</time>
      </trkpt>
      <trkpt lat="45.8104" lon="6.7307">
        <ele>1237.35</ele>
        <time>2018-09-11T11:58:44Z</time>
      </trkpt>
      <trkpt lat="45.81038" lon="6.7307">
        <ele>1237.83</ele>
        <time>2018-09-11T11:58:45Z</time>
      </trkpt>
      <trkpt lat="45.81035" lon="6.73068">
        <ele>1237.83</ele>
        <time>2018-09-11T11:58:47Z</time>
      </trkpt>
      <trkpt lat="45.8103" lon="6.73068">
        <ele>1239.28</ele>
        <time>2018-09-11T11:58:51Z</time>
      </trkpt>
      <trkpt lat="45.81025" lon="6.73069">
        <ele>1240.72</ele>
        <time>2018-09-11T11:58:55Z</time>
      </trkpt>
      <trkpt lat="45.81024" lon="6.73067">
        <ele>1241.2</ele>
        <time>2018-09-11T11:58:56Z</time>
      </trkpt>
      <trkpt lat="45.81022" lon="6.73066">
        <ele>1241.2</ele>
        <time>2018-09-11T11:58:57Z</time>
      </trkpt>
      <trkpt lat="45.8102" lon="6.73065">
        <ele>1241.2</ele>
        <time>2018-09-11T11:58:58Z</time>
      </trkpt>
      <trkpt lat="45.81019" lon="6.73064">
        <ele>1241.68</ele>
        <time>2018-09-11T11:58:59Z</time>
      </trkpt>
      <trkpt lat="45.81017" lon="6.73063">
        <ele>1241.68</ele>
        <time>2018-09-11T11:59:00Z</time>
      </trkpt>
      <trkpt lat="45.81016" lon="6.73062">
        <ele>1242.16</ele>
        <time>2018-09-11T11:59:01Z</time>
      </trkpt>
      <trkpt lat="45.81014" lon="6.73062">
        <ele>1242.16</ele>
        <time>2018-09-11T11:59:02Z</time>
      </trkpt>
      <trkpt lat="45.81012" lon="6.73061">
        <ele>1242.16</ele>
        <time>2018-09-11T11:59:03Z</time>
      </trkpt>
      <trkpt lat="45.81011" lon="6.73061">
        <ele>1242.16</ele>
        <time>2018-09-11T11:59:04Z</time>
      </trkpt>
      <trkpt lat="45.81004" lon="6.73062">
        <ele>1243.6</ele>
        <time>2018-09-11T11:59:09Z</time>
      </trkpt>
      <trkpt lat="45.80996" lon="6.73065">
        <ele>1246.01</ele>
        <time>2018-09-11T11:59:20Z</time>
      </trkpt>
      <trkpt lat="45.80992" lon="6.73064">
        <ele>1246.97</ele>
        <time>2018-09-11T11:59:24Z</time>
      </trkpt>
      <trkpt lat="45.80989" lon="6.73063">
        <ele>1247.45</ele>
        <time>2018-09-11T11:59:27Z</time>
      </trkpt>
      <trkpt lat="45.80988" lon="6.73062">
        <ele>1247.45</ele>
        <time>2018-09-11T11:59:28Z</time>
      </trkpt>
      <trkpt lat="45.80986" lon="6.73061">
        <ele>1247.45</ele>
        <time>2018-09-11T11:59:29Z</time>
      </trkpt>
      <trkpt lat="45.80984" lon="6.73059">
        <ele>1247.93</ele>
        <time>2018-09-11T11:59:30Z</time>
      </trkpt>
      <trkpt lat="45.80982" lon="6.73058">
        <ele>1247.93</ele>
        <time>2018-09-11T11:59:31Z</time>
      </trkpt>
      <trkpt lat="45.8098" lon="6.73054">
        <ele>1248.41</ele>
        <time>2018-09-11T11:59:33Z</time>
      </trkpt>
      <trkpt lat="45.80978" lon="6.73053">
        <ele>1249.37</ele>
        <time>2018-09-11T11:59:35Z</time>
      </trkpt>
      <trkpt lat="45.80971" lon="6.73048">
        <ele>1250.81</ele>
        <time>2018-09-11T11:59:41Z</time>
      </trkpt>
      <trkpt lat="45.8097" lon="6.73049">
        <ele>1250.81</ele>
        <time>2018-09-11T11:59:42Z</time>
      </trkpt>
      <trkpt lat="45.80964" lon="6.73048">
        <ele>1252.25</ele>
        <time>2018-09-11T11:59:46Z</time>
      </trkpt>
      <trkpt lat="45.80962" lon="6.73047">
        <ele>1253.22</ele>
        <time>2018-09-11T11:59:48Z</time>
      </trkpt>
      <trkpt lat="45.80961" lon="6.73046">
        <ele>1253.22</ele>
        <time>2018-09-11T11:59:49Z</time>
      </trkpt>
      <trkpt lat="45.80956" lon="6.73043">
        <ele>1255.14</ele>
        <time>2018-09-11T11:59:54Z</time>
      </trkpt>
      <trkpt lat="45.80955" lon="6.73043">
        <ele>1255.14</ele>
        <time>2018-09-11T11:59:55Z</time>
      </trkpt>
      <trkpt lat="45.80952" lon="6.73043">
        <ele>1258.5</ele>
        <time>2018-09-11T12:00:08Z</time>
      </trkpt>
      <trkpt lat="45.80943" lon="6.73039">
        <ele>1261.39</ele>
        <time>2018-09-11T12:00:20Z</time>
      </trkpt>
      <trkpt lat="45.80941" lon="6.73037">
        <ele>1261.39</ele>
        <time>2018-09-11T12:00:24Z</time>
      </trkpt>
      <trkpt lat="45.8094" lon="6.73036">
        <ele>1261.87</ele>
        <time>2018-09-11T12:00:25Z</time>
      </trkpt>
      <trkpt lat="45.80933" lon="6.73034">
        <ele>1265.23</ele>
        <time>2018-09-11T12:00:38Z</time>
      </trkpt>
      <trkpt lat="45.80928" lon="6.73033">
        <ele>1267.64</ele>
        <time>2018-09-11T12:00:48Z</time>
      </trkpt>
      <trkpt lat="45.80922" lon="6.73033">
        <ele>1269.56</ele>
        <time>2018-09-11T12:00:56Z</time>
      </trkpt>
      <trkpt lat="45.80915" lon="6.73035">
        <ele>1271</ele>
        <time>2018-09-11T12:01:05Z</time>
      </trkpt>
      <trkpt lat="45.80909" lon="6.73032">
        <ele>1272.92</ele>
        <time>2018-09-11T12:01:10Z</time>
      </trkpt>
      <trkpt lat="45.80902" lon="6.73033">
        <ele>1275.81</ele>
        <time>2018-09-11T12:01:23Z</time>
      </trkpt>
      <trkpt lat="45.80896" lon="6.73034">
        <ele>1278.69</ele>
        <time>2018-09-11T12:01:36Z</time>
      </trkpt>
      <trkpt lat="45.80892" lon="6.73037">
        <ele>1280.61</ele>
        <time>2018-09-11T12:01:44Z</time>
      </trkpt>
      <trkpt lat="45.80889" lon="6.73041">
        <ele>1282.06</ele>
        <time>2018-09-11T12:01:50Z</time>
      </trkpt>
      <trkpt lat="45.80887" lon="6.73041">
        <ele>1282.06</ele>
        <time>2018-09-11T12:01:51Z</time>
      </trkpt>
      <trkpt lat="45.80885" lon="6.7304">
        <ele>1282.54</ele>
        <time>2018-09-11T12:01:52Z</time>
      </trkpt>
      <trkpt lat="45.80884" lon="6.7304">
        <ele>1282.54</ele>
        <time>2018-09-11T12:01:53Z</time>
      </trkpt>
      <trkpt lat="45.80882" lon="6.73039">
        <ele>1283.02</ele>
        <time>2018-09-11T12:01:55Z</time>
      </trkpt>
      <trkpt lat="45.80881" lon="6.73039">
        <ele>1283.02</ele>
        <time>2018-09-11T12:01:56Z</time>
      </trkpt>
      <trkpt lat="45.8088" lon="6.73039">
        <ele>1283.02</ele>
        <time>2018-09-11T12:01:57Z</time>
      </trkpt>
      <trkpt lat="45.80878" lon="6.73042">
        <ele>1283.5</ele>
        <time>2018-09-11T12:01:59Z</time>
      </trkpt>
      <trkpt lat="45.80877" lon="6.73043">
        <ele>1283.5</ele>
        <time>2018-09-11T12:02:00Z</time>
      </trkpt>
      <trkpt lat="45.80877" lon="6.73045">
        <ele>1283.98</ele>
        <time>2018-09-11T12:02:01Z</time>
      </trkpt>
      <trkpt lat="45.80875" lon="6.73048">
        <ele>1285.42</ele>
        <time>2018-09-11T12:02:07Z</time>
      </trkpt>
      <trkpt lat="45.80874" lon="6.7305">
        <ele>1285.42</ele>
        <time>2018-09-11T12:02:08Z</time>
      </trkpt>
      <trkpt lat="45.80873" lon="6.73051">
        <ele>1285.9</ele>
        <time>2018-09-11T12:02:09Z</time>
      </trkpt>
      <trkpt lat="45.80872" lon="6.73053">
        <ele>1286.38</ele>
        <time>2018-09-11T12:02:10Z</time>
      </trkpt>
      <trkpt lat="45.8087" lon="6.73054">
        <ele>1286.38</ele>
        <time>2018-09-11T12:02:11Z</time>
      </trkpt>
      <trkpt lat="45.80869" lon="6.73054">
        <ele>1286.86</ele>
        <time>2018-09-11T12:02:12Z</time>
      </trkpt>
      <trkpt lat="45.80867" lon="6.73054">
        <ele>1286.86</ele>
        <time>2018-09-11T12:02:13Z</time>
      </trkpt>
      <trkpt lat="45.80866" lon="6.73054">
        <ele>1287.34</ele>
        <time>2018-09-11T12:02:14Z</time>
      </trkpt>
      <trkpt lat="45.80864" lon="6.73054">
        <ele>1287.82</ele>
        <time>2018-09-11T12:02:15Z</time>
      </trkpt>
      <trkpt lat="45.80863" lon="6.73055">
        <ele>1287.82</ele>
        <time>2018-09-11T12:02:16Z</time>
      </trkpt>
      <trkpt lat="45.80858" lon="6.73057">
        <ele>1289.27</ele>
        <time>2018-09-11T12:02:21Z</time>
      </trkpt>
      <trkpt lat="45.80856" lon="6.73059">
        <ele>1290.23</ele>
        <time>2018-09-11T12:02:24Z</time>
      </trkpt>
      <trkpt lat="45.80854" lon="6.73059">
        <ele>1290.71</ele>
        <time>2018-09-11T12:02:26Z</time>
      </trkpt>
      <trkpt lat="45.80852" lon="6.7306">
        <ele>1291.67</ele>
        <time>2018-09-11T12:02:29Z</time>
      </trkpt>
      <trkpt lat="45.80851" lon="6.73062">
        <ele>1292.15</ele>
        <time>2018-09-11T12:02:31Z</time>
      </trkpt>
      <trkpt lat="45.80851" lon="6.73062">
        <ele>1292.63</ele>
        <time>2018-09-11T12:02:32Z</time>
      </trkpt>
      <trkpt lat="45.80851" lon="6.73066">
        <ele>1293.11</ele>
        <time>2018-09-11T12:02:33Z</time>
      </trkpt>
      <trkpt lat="45.8085" lon="6.73068">
        <ele>1293.11</ele>
        <time>2018-09-11T12:02:34Z</time>
      </trkpt>
      <trkpt lat="45.80849" lon="6.7307">
        <ele>1293.59</ele>
        <time>2018-09-11T12:02:35Z</time>
      </trkpt>
      <trkpt lat="45.80848" lon="6.73072">
        <ele>1294.07</ele>
        <time>2018-09-11T12:02:36Z</time>
      </trkpt>
      <trkpt lat="45.80847" lon="6.73073">
        <ele>1294.07</ele>
        <time>2018-09-11T12:02:37Z</time>
      </trkpt>
      <trkpt lat="45.80846" lon="6.73073">
        <ele>1294.07</ele>
        <time>2018-09-11T12:02:38Z</time>
      </trkpt>
      <trkpt lat="45.80841" lon="6.73078">
        <ele>1296.96</ele>
        <time>2018-09-11T12:02:45Z</time>
      </trkpt>
      <trkpt lat="45.80837" lon="6.73077">
        <ele>1297.92</ele>
        <time>2018-09-11T12:02:50Z</time>
      </trkpt>
      <trkpt lat="45.80832" lon="6.73076">
        <ele>1299.84</ele>
        <time>2018-09-11T12:02:55Z</time>
      </trkpt>
      <trkpt lat="45.80831" lon="6.73077">
        <ele>1299.84</ele>
        <time>2018-09-11T12:02:56Z</time>
      </trkpt>
      <trkpt lat="45.8083" lon="6.73078">
        <ele>1300.32</ele>
        <time>2018-09-11T12:02:57Z</time>
      </trkpt>
      <trkpt lat="45.80825" lon="6.73077">
        <ele>1300.8</ele>
        <time>2018-09-11T12:03:01Z</time>
      </trkpt>
      <trkpt lat="45.80821" lon="6.73076">
        <ele>1302.24</ele>
        <time>2018-09-11T12:03:05Z</time>
      </trkpt>
      <trkpt lat="45.8082" lon="6.73076">
        <ele>1302.24</ele>
        <time>2018-09-11T12:03:06Z</time>
      </trkpt>
      <trkpt lat="45.80813" lon="6.73076">
        <ele>1303.69</ele>
        <time>2018-09-11T12:03:12Z</time>
      </trkpt>
      <trkpt lat="45.80812" lon="6.73075">
        <ele>1304.17</ele>
        <time>2018-09-11T12:03:13Z</time>
      </trkpt>
      <trkpt lat="45.80806" lon="6.73078">
        <ele>1305.61</ele>
        <time>2018-09-11T12:03:20Z</time>
      </trkpt>
      <trkpt lat="45.80802" lon="6.73078">
        <ele>1306.57</ele>
        <time>2018-09-11T12:03:24Z</time>
      </trkpt>
      <trkpt lat="45.80799" lon="6.73078">
        <ele>1308.01</ele>
        <time>2018-09-11T12:03:27Z</time>
      </trkpt>
      <trkpt lat="45.80798" lon="6.73078">
        <ele>1308.01</ele>
        <time>2018-09-11T12:03:28Z</time>
      </trkpt>
      <trkpt lat="45.80797" lon="6.73078">
        <ele>1308.49</ele>
        <time>2018-09-11T12:03:29Z</time>
      </trkpt>
      <trkpt lat="45.80795" lon="6.73081">
        <ele>1309.93</ele>
        <time>2018-09-11T12:03:35Z</time>
      </trkpt>
      <trkpt lat="45.80793" lon="6.73082">
        <ele>1310.41</ele>
        <time>2018-09-11T12:03:38Z</time>
      </trkpt>
      <trkpt lat="45.80792" lon="6.73083">
        <ele>1310.41</ele>
        <time>2018-09-11T12:03:40Z</time>
      </trkpt>
      <trkpt lat="45.80791" lon="6.73084">
        <ele>1310.9</ele>
        <time>2018-09-11T12:03:42Z</time>
      </trkpt>
      <trkpt lat="45.80791" lon="6.73091">
        <ele>1313.78</ele>
        <time>2018-09-11T12:03:55Z</time>
      </trkpt>
      <trkpt lat="45.80795" lon="6.73088">
        <ele>1316.18</ele>
        <time>2018-09-11T12:04:04Z</time>
      </trkpt>
      <trkpt lat="45.80796" lon="6.73089">
        <ele>1316.18</ele>
        <time>2018-09-11T12:04:05Z</time>
      </trkpt>
      <trkpt lat="45.80798" lon="6.73091">
        <ele>1316.18</ele>
        <time>2018-09-11T12:04:06Z</time>
      </trkpt>
      <trkpt lat="45.80805" lon="6.73097">
        <ele>1318.1</ele>
        <time>2018-09-11T12:04:15Z</time>
      </trkpt>
      <trkpt lat="45.80805" lon="6.73097">
        <ele>1318.59</ele>
        <time>2018-09-11T12:04:16Z</time>
      </trkpt>
      <trkpt lat="45.80806" lon="6.73098">
        <ele>1318.59</ele>
        <time>2018-09-11T12:04:17Z</time>
      </trkpt>
      <trkpt lat="45.80806" lon="6.73099">
        <ele>1319.07</ele>
        <time>2018-09-11T12:04:18Z</time>
      </trkpt>
      <trkpt lat="45.80807" lon="6.731">
        <ele>1319.55</ele>
        <time>2018-09-11T12:04:19Z</time>
      </trkpt>
      <trkpt lat="45.80803" lon="6.73105">
        <ele>1322.43</ele>
        <time>2018-09-11T12:04:34Z</time>
      </trkpt>
      <trkpt lat="45.80798" lon="6.73108">
        <ele>1325.8</ele>
        <time>2018-09-11T12:04:48Z</time>
      </trkpt>
      <trkpt lat="45.80795" lon="6.73112">
        <ele>1326.76</ele>
        <time>2018-09-11T12:04:53Z</time>
      </trkpt>
      <trkpt lat="45.80797" lon="6.73115">
        <ele>1329.64</ele>
        <time>2018-09-11T12:05:08Z</time>
      </trkpt>
      <trkpt lat="45.80799" lon="6.73116">
        <ele>1330.12</ele>
        <time>2018-09-11T12:05:11Z</time>
      </trkpt>
      <trkpt lat="45.80807" lon="6.73119">
        <ele>1333.49</ele>
        <time>2018-09-11T12:05:27Z</time>
      </trkpt>
      <trkpt lat="45.80809" lon="6.73125">
        <ele>1336.37</ele>
        <time>2018-09-11T12:05:43Z</time>
      </trkpt>
      <trkpt lat="45.80808" lon="6.73127">
        <ele>1336.85</ele>
        <time>2018-09-11T12:05:47Z</time>
      </trkpt>
      <trkpt lat="45.80796" lon="6.73133">
        <ele>1339.73</ele>
        <time>2018-09-11T12:06:01Z</time>
      </trkpt>
      <trkpt lat="45.80794" lon="6.73133">
        <ele>1340.22</ele>
        <time>2018-09-11T12:06:02Z</time>
      </trkpt>
      <trkpt lat="45.80793" lon="6.73133">
        <ele>1340.22</ele>
        <time>2018-09-11T12:06:03Z</time>
      </trkpt>
      <trkpt lat="45.80791" lon="6.73132">
        <ele>1340.22</ele>
        <time>2018-09-11T12:06:04Z</time>
      </trkpt>
      <trkpt lat="45.8079" lon="6.73133">
        <ele>1340.7</ele>
        <time>2018-09-11T12:06:05Z</time>
      </trkpt>
      <trkpt lat="45.80789" lon="6.73134">
        <ele>1341.66</ele>
        <time>2018-09-11T12:06:07Z</time>
      </trkpt>
      <trkpt lat="45.80774" lon="6.7314">
        <ele>1344.54</ele>
        <time>2018-09-11T12:06:20Z</time>
      </trkpt>
      <trkpt lat="45.80767" lon="6.73142">
        <ele>1346.46</ele>
        <time>2018-09-11T12:06:27Z</time>
      </trkpt>
      <trkpt lat="45.80767" lon="6.73144">
        <ele>1346.94</ele>
        <time>2018-09-11T12:06:28Z</time>
      </trkpt>
      <trkpt lat="45.80766" lon="6.73146">
        <ele>1347.43</ele>
        <time>2018-09-11T12:06:29Z</time>
      </trkpt>
      <trkpt lat="45.80762" lon="6.73148">
        <ele>1347.91</ele>
        <time>2018-09-11T12:06:32Z</time>
      </trkpt>
      <trkpt lat="45.8076" lon="6.73148">
        <ele>1348.39</ele>
        <time>2018-09-11T12:06:33Z</time>
      </trkpt>
      <trkpt lat="45.80759" lon="6.73148">
        <ele>1348.39</ele>
        <time>2018-09-11T12:06:34Z</time>
      </trkpt>
      <trkpt lat="45.80757" lon="6.73149">
        <ele>1348.87</ele>
        <time>2018-09-11T12:06:35Z</time>
      </trkpt>
      <trkpt lat="45.80756" lon="6.7315">
        <ele>1349.35</ele>
        <time>2018-09-11T12:06:36Z</time>
      </trkpt>
      <trkpt lat="45.80753" lon="6.7315">
        <ele>1349.83</ele>
        <time>2018-09-11T12:06:38Z</time>
      </trkpt>
      <trkpt lat="45.80752" lon="6.73151">
        <ele>1349.83</ele>
        <time>2018-09-11T12:06:39Z</time>
      </trkpt>
      <trkpt lat="45.80751" lon="6.73152">
        <ele>1349.83</ele>
        <time>2018-09-11T12:06:40Z</time>
      </trkpt>
      <trkpt lat="45.80749" lon="6.73153">
        <ele>1350.31</ele>
        <time>2018-09-11T12:06:41Z</time>
      </trkpt>
      <trkpt lat="45.80744" lon="6.73157">
        <ele>1351.75</ele>
        <time>2018-09-11T12:06:47Z</time>
      </trkpt>
      <trkpt lat="45.80743" lon="6.73158">
        <ele>1351.75</ele>
        <time>2018-09-11T12:06:48Z</time>
      </trkpt>
      <trkpt lat="45.80741" lon="6.73157">
        <ele>1351.75</ele>
        <time>2018-09-11T12:06:49Z</time>
      </trkpt>
      <trkpt lat="45.8074" lon="6.73158">
        <ele>1352.23</ele>
        <time>2018-09-11T12:06:50Z</time>
      </trkpt>
      <trkpt lat="45.80739" lon="6.73158">
        <ele>1352.23</ele>
        <time>2018-09-11T12:06:51Z</time>
      </trkpt>
      <trkpt lat="45.80738" lon="6.73156">
        <ele>1352.71</ele>
        <time>2018-09-11T12:06:52Z</time>
      </trkpt>
      <trkpt lat="45.80736" lon="6.73155">
        <ele>1353.67</ele>
        <time>2018-09-11T12:06:54Z</time>
      </trkpt>
      <trkpt lat="45.80736" lon="6.73156">
        <ele>1353.67</ele>
        <time>2018-09-11T12:06:55Z</time>
      </trkpt>
      <trkpt lat="45.80732" lon="6.73156">
        <ele>1354.63</ele>
        <time>2018-09-11T12:06:59Z</time>
      </trkpt>
      <trkpt lat="45.80726" lon="6.73156">
        <ele>1357.52</ele>
        <time>2018-09-11T12:07:11Z</time>
      </trkpt>
      <trkpt lat="45.8072" lon="6.73151">
        <ele>1358</ele>
        <time>2018-09-11T12:07:19Z</time>
      </trkpt>
      <trkpt lat="45.80718" lon="6.73149">
        <ele>1358</ele>
        <time>2018-09-11T12:07:20Z</time>
      </trkpt>
      <trkpt lat="45.80716" lon="6.73147">
        <ele>1357.52</ele>
        <time>2018-09-11T12:07:21Z</time>
      </trkpt>
      <trkpt lat="45.80713" lon="6.73144">
        <ele>1358</ele>
        <time>2018-09-11T12:07:22Z</time>
      </trkpt>
      <trkpt lat="45.80712" lon="6.73143">
        <ele>1358</ele>
        <time>2018-09-11T12:07:23Z</time>
      </trkpt>
      <trkpt lat="45.80709" lon="6.73141">
        <ele>1358</ele>
        <time>2018-09-11T12:07:25Z</time>
      </trkpt>
      <trkpt lat="45.80707" lon="6.73146">
        <ele>1358.96</ele>
        <time>2018-09-11T12:07:30Z</time>
      </trkpt>
      <trkpt lat="45.80707" lon="6.73148">
        <ele>1359.44</ele>
        <time>2018-09-11T12:07:31Z</time>
      </trkpt>
      <trkpt lat="45.80705" lon="6.7315">
        <ele>1360.4</ele>
        <time>2018-09-11T12:07:34Z</time>
      </trkpt>
      <trkpt lat="45.80704" lon="6.73151">
        <ele>1360.88</ele>
        <time>2018-09-11T12:07:35Z</time>
      </trkpt>
      <trkpt lat="45.80701" lon="6.73151">
        <ele>1361.36</ele>
        <time>2018-09-11T12:07:37Z</time>
      </trkpt>
      <trkpt lat="45.807" lon="6.73151">
        <ele>1361.36</ele>
        <time>2018-09-11T12:07:38Z</time>
      </trkpt>
      <trkpt lat="45.80694" lon="6.73154">
        <ele>1362.33</ele>
        <time>2018-09-11T12:07:44Z</time>
      </trkpt>
      <trkpt lat="45.80692" lon="6.73154">
        <ele>1362.33</ele>
        <time>2018-09-11T12:07:46Z</time>
      </trkpt>
      <trkpt lat="45.80685" lon="6.73159">
        <ele>1362.81</ele>
        <time>2018-09-11T12:07:52Z</time>
      </trkpt>
      <trkpt lat="45.80683" lon="6.7316">
        <ele>1362.81</ele>
        <time>2018-09-11T12:07:53Z</time>
      </trkpt>
      <trkpt lat="45.80679" lon="6.73159">
        <ele>1362.33</ele>
        <time>2018-09-11T12:07:55Z</time>
      </trkpt>
      <trkpt lat="45.80677" lon="6.73158">
        <ele>1362.33</ele>
        <time>2018-09-11T12:07:56Z</time>
      </trkpt>
      <trkpt lat="45.80676" lon="6.73156">
        <ele>1362.33</ele>
        <time>2018-09-11T12:07:57Z</time>
      </trkpt>
      <trkpt lat="45.80675" lon="6.73155">
        <ele>1362.33</ele>
        <time>2018-09-11T12:07:58Z</time>
      </trkpt>
      <trkpt lat="45.80674" lon="6.73155">
        <ele>1362.33</ele>
        <time>2018-09-11T12:07:59Z</time>
      </trkpt>
      <trkpt lat="45.80672" lon="6.73153">
        <ele>1361.84</ele>
        <time>2018-09-11T12:08:00Z</time>
      </trkpt>
      <trkpt lat="45.80671" lon="6.73152">
        <ele>1361.84</ele>
        <time>2018-09-11T12:08:01Z</time>
      </trkpt>
      <trkpt lat="45.8067" lon="6.73151">
        <ele>1361.84</ele>
        <time>2018-09-11T12:08:02Z</time>
      </trkpt>
      <trkpt lat="45.80668" lon="6.7315">
        <ele>1362.33</ele>
        <time>2018-09-11T12:08:03Z</time>
      </trkpt>
      <trkpt lat="45.80667" lon="6.73149">
        <ele>1362.33</ele>
        <time>2018-09-11T12:08:04Z</time>
      </trkpt>
      <trkpt lat="45.80664" lon="6.7315">
        <ele>1362.81</ele>
        <time>2018-09-11T12:08:07Z</time>
      </trkpt>
      <trkpt lat="45.80663" lon="6.73151">
        <ele>1363.29</ele>
        <time>2018-09-11T12:08:08Z</time>
      </trkpt>
      <trkpt lat="45.80659" lon="6.73149">
        <ele>1364.25</ele>
        <time>2018-09-11T12:08:12Z</time>
      </trkpt>
      <trkpt lat="45.80657" lon="6.73147">
        <ele>1364.73</ele>
        <time>2018-09-11T12:08:13Z</time>
      </trkpt>
      <trkpt lat="45.80655" lon="6.73145">
        <ele>1364.73</ele>
        <time>2018-09-11T12:08:14Z</time>
      </trkpt>
      <trkpt lat="45.80654" lon="6.73145">
        <ele>1365.21</ele>
        <time>2018-09-11T12:08:15Z</time>
      </trkpt>
      <trkpt lat="45.80642" lon="6.73138">
        <ele>1368.09</ele>
        <time>2018-09-11T12:08:30Z</time>
      </trkpt>
      <trkpt lat="45.80641" lon="6.7314">
        <ele>1369.05</ele>
        <time>2018-09-11T12:08:34Z</time>
      </trkpt>
      <trkpt lat="45.80642" lon="6.73143">
        <ele>1369.05</ele>
        <time>2018-09-11T12:08:35Z</time>
      </trkpt>
      <trkpt lat="45.80631" lon="6.73135">
        <ele>1371.46</ele>
        <time>2018-09-11T12:08:53Z</time>
      </trkpt>
      <trkpt lat="45.80628" lon="6.73133">
        <ele>1372.42</ele>
        <time>2018-09-11T12:08:56Z</time>
      </trkpt>
      <trkpt lat="45.80627" lon="6.73132">
        <ele>1372.42</ele>
        <time>2018-09-11T12:08:57Z</time>
      </trkpt>
      <trkpt lat="45.80623" lon="6.73132">
        <ele>1373.38</ele>
        <time>2018-09-11T12:09:00Z</time>
      </trkpt>
      <trkpt lat="45.80622" lon="6.73132">
        <ele>1373.38</ele>
        <time>2018-09-11T12:09:01Z</time>
      </trkpt>
      <trkpt lat="45.80619" lon="6.73133">
        <ele>1374.82</ele>
        <time>2018-09-11T12:09:06Z</time>
      </trkpt>
      <trkpt lat="45.80618" lon="6.73135">
        <ele>1374.82</ele>
        <time>2018-09-11T12:09:07Z</time>
      </trkpt>
      <trkpt lat="45.80616" lon="6.73134">
        <ele>1375.3</ele>
        <time>2018-09-11T12:09:10Z</time>
      </trkpt>
      <trkpt lat="45.80615" lon="6.73134">
        <ele>1375.78</ele>
        <time>2018-09-11T12:09:11Z</time>
      </trkpt>
      <trkpt lat="45.8061" lon="6.73135">
        <ele>1378.19</ele>
        <time>2018-09-11T12:09:22Z</time>
      </trkpt>
      <trkpt lat="45.80609" lon="6.73136">
        <ele>1378.67</ele>
        <time>2018-09-11T12:09:23Z</time>
      </trkpt>
      <trkpt lat="45.80608" lon="6.73136">
        <ele>1378.67</ele>
        <time>2018-09-11T12:09:24Z</time>
      </trkpt>
      <trkpt lat="45.80607" lon="6.73137">
        <ele>1379.15</ele>
        <time>2018-09-11T12:09:26Z</time>
      </trkpt>
      <trkpt lat="45.80606" lon="6.73139">
        <ele>1379.63</ele>
        <time>2018-09-11T12:09:28Z</time>
      </trkpt>
      <trkpt lat="45.80605" lon="6.73144">
        <ele>1380.59</ele>
        <time>2018-09-11T12:09:33Z</time>
      </trkpt>
      <trkpt lat="45.80603" lon="6.73144">
        <ele>1381.07</ele>
        <time>2018-09-11T12:09:34Z</time>
      </trkpt>
      <trkpt lat="45.80602" lon="6.73145">
        <ele>1381.55</ele>
        <time>2018-09-11T12:09:35Z</time>
      </trkpt>
      <trkpt lat="45.80601" lon="6.73147">
        <ele>1382.03</ele>
        <time>2018-09-11T12:09:37Z</time>
      </trkpt>
      <trkpt lat="45.806" lon="6.73147">
        <ele>1382.03</ele>
        <time>2018-09-11T12:09:38Z</time>
      </trkpt>
      <trkpt lat="45.806" lon="6.73149">
        <ele>1382.03</ele>
        <time>2018-09-11T12:09:39Z</time>
      </trkpt>
      <trkpt lat="45.80597" lon="6.73148">
        <ele>1382.51</ele>
        <time>2018-09-11T12:09:42Z</time>
      </trkpt>
      <trkpt lat="45.80588" lon="6.73149">
        <ele>1385.4</ele>
        <time>2018-09-11T12:09:56Z</time>
      </trkpt>
      <trkpt lat="45.80582" lon="6.73152">
        <ele>1388.76</ele>
        <time>2018-09-11T12:10:12Z</time>
      </trkpt>
      <trkpt lat="45.80578" lon="6.7315">
        <ele>1389.72</ele>
        <time>2018-09-11T12:10:17Z</time>
      </trkpt>
      <trkpt lat="45.80576" lon="6.7316">
        <ele>1391.65</ele>
        <time>2018-09-11T12:10:26Z</time>
      </trkpt>
      <trkpt lat="45.80571" lon="6.73157">
        <ele>1392.61</ele>
        <time>2018-09-11T12:10:32Z</time>
      </trkpt>
      <trkpt lat="45.80568" lon="6.73155">
        <ele>1393.57</ele>
        <time>2018-09-11T12:10:36Z</time>
      </trkpt>
      <trkpt lat="45.80567" lon="6.73156">
        <ele>1393.57</ele>
        <time>2018-09-11T12:10:37Z</time>
      </trkpt>
      <trkpt lat="45.80565" lon="6.73156">
        <ele>1394.05</ele>
        <time>2018-09-11T12:10:38Z</time>
      </trkpt>
      <trkpt lat="45.80564" lon="6.73156">
        <ele>1394.05</ele>
        <time>2018-09-11T12:10:39Z</time>
      </trkpt>
      <trkpt lat="45.80558" lon="6.73159">
        <ele>1397.41</ele>
        <time>2018-09-11T12:10:53Z</time>
      </trkpt>
      <trkpt lat="45.80557" lon="6.73158">
        <ele>1397.89</ele>
        <time>2018-09-11T12:10:55Z</time>
      </trkpt>
      <trkpt lat="45.80551" lon="6.73156">
        <ele>1399.34</ele>
        <time>2018-09-11T12:11:04Z</time>
      </trkpt>
      <trkpt lat="45.80546" lon="6.73159">
        <ele>1401.26</ele>
        <time>2018-09-11T12:11:13Z</time>
      </trkpt>
      <trkpt lat="45.80545" lon="6.73159">
        <ele>1401.74</ele>
        <time>2018-09-11T12:11:15Z</time>
      </trkpt>
      <trkpt lat="45.80543" lon="6.73158">
        <ele>1401.74</ele>
        <time>2018-09-11T12:11:16Z</time>
      </trkpt>
      <trkpt lat="45.80542" lon="6.73158">
        <ele>1402.22</ele>
        <time>2018-09-11T12:11:17Z</time>
      </trkpt>
      <trkpt lat="45.80536" lon="6.73158">
        <ele>1403.66</ele>
        <time>2018-09-11T12:11:24Z</time>
      </trkpt>
      <trkpt lat="45.80535" lon="6.73158">
        <ele>1403.66</ele>
        <time>2018-09-11T12:11:25Z</time>
      </trkpt>
      <trkpt lat="45.80533" lon="6.73157">
        <ele>1403.66</ele>
        <time>2018-09-11T12:11:26Z</time>
      </trkpt>
      <trkpt lat="45.80527" lon="6.73161">
        <ele>1406.07</ele>
        <time>2018-09-11T12:11:36Z</time>
      </trkpt>
      <trkpt lat="45.80525" lon="6.73163">
        <ele>1406.55</ele>
        <time>2018-09-11T12:11:39Z</time>
      </trkpt>
      <trkpt lat="45.80526" lon="6.73165">
        <ele>1407.03</ele>
        <time>2018-09-11T12:11:40Z</time>
      </trkpt>
      <trkpt lat="45.80526" lon="6.73165">
        <ele>1407.03</ele>
        <time>2018-09-11T12:11:42Z</time>
      </trkpt>
      <trkpt lat="45.80528" lon="6.73167">
        <ele>1407.99</ele>
        <time>2018-09-11T12:11:47Z</time>
      </trkpt>
      <trkpt lat="45.80528" lon="6.73168">
        <ele>1408.47</ele>
        <time>2018-09-11T12:11:48Z</time>
      </trkpt>
      <trkpt lat="45.80525" lon="6.73169">
        <ele>1410.39</ele>
        <time>2018-09-11T12:11:56Z</time>
      </trkpt>
      <trkpt lat="45.80518" lon="6.73172">
        <ele>1413.76</ele>
        <time>2018-09-11T12:12:11Z</time>
      </trkpt>
      <trkpt lat="45.80517" lon="6.73171">
        <ele>1413.76</ele>
        <time>2018-09-11T12:12:12Z</time>
      </trkpt>
      <trkpt lat="45.80516" lon="6.73169">
        <ele>1414.24</ele>
        <time>2018-09-11T12:12:13Z</time>
      </trkpt>
      <trkpt lat="45.8051" lon="6.73172">
        <ele>1417.12</ele>
        <time>2018-09-11T12:12:28Z</time>
      </trkpt>
      <trkpt lat="45.8051" lon="6.73174">
        <ele>1419.04</ele>
        <time>2018-09-11T12:12:36Z</time>
      </trkpt>
      <trkpt lat="45.805" lon="6.73176">
        <ele>1422.41</ele>
        <time>2018-09-11T12:12:52Z</time>
      </trkpt>
      <trkpt lat="45.80497" lon="6.7319">
        <ele>1424.33</ele>
        <time>2018-09-11T12:13:05Z</time>
      </trkpt>
      <trkpt lat="45.80487" lon="6.73187">
        <ele>1424.33</ele>
        <time>2018-09-11T12:13:55Z</time>
      </trkpt>
      <trkpt lat="45.80486" lon="6.73186">
        <ele>1424.33</ele>
        <time>2018-09-11T12:13:56Z</time>
      </trkpt>
      <trkpt lat="45.80485" lon="6.73185">
        <ele>1423.85</ele>
        <time>2018-09-11T12:13:57Z</time>
      </trkpt>
      <trkpt lat="45.80484" lon="6.73185">
        <ele>1423.37</ele>
        <time>2018-09-11T12:13:58Z</time>
      </trkpt>
      <trkpt lat="45.80482" lon="6.73184">
        <ele>1423.37</ele>
        <time>2018-09-11T12:13:59Z</time>
      </trkpt>
      <trkpt lat="45.80481" lon="6.73184">
        <ele>1422.89</ele>
        <time>2018-09-11T12:14:00Z</time>
      </trkpt>
      <trkpt lat="45.80479" lon="6.73184">
        <ele>1422.89</ele>
        <time>2018-09-11T12:14:01Z</time>
      </trkpt>
      <trkpt lat="45.80477" lon="6.73185">
        <ele>1422.41</ele>
        <time>2018-09-11T12:14:02Z</time>
      </trkpt>
      <trkpt lat="45.80476" lon="6.73186">
        <ele>1422.41</ele>
        <time>2018-09-11T12:14:03Z</time>
      </trkpt>
      <trkpt lat="45.80475" lon="6.73187">
        <ele>1422.41</ele>
        <time>2018-09-11T12:14:04Z</time>
      </trkpt>
      <trkpt lat="45.80474" lon="6.73188">
        <ele>1421.93</ele>
        <time>2018-09-11T12:14:05Z</time>
      </trkpt>
      <trkpt lat="45.80472" lon="6.7319">
        <ele>1421.93</ele>
        <time>2018-09-11T12:14:06Z</time>
      </trkpt>
      <trkpt lat="45.80471" lon="6.73192">
        <ele>1421.45</ele>
        <time>2018-09-11T12:14:07Z</time>
      </trkpt>
      <trkpt lat="45.80468" lon="6.73197">
        <ele>1420</ele>
        <time>2018-09-11T12:14:10Z</time>
      </trkpt>
      <trkpt lat="45.80468" lon="6.732">
        <ele>1420</ele>
        <time>2018-09-11T12:14:11Z</time>
      </trkpt>
      <trkpt lat="45.80468" lon="6.73203">
        <ele>1419.52</ele>
        <time>2018-09-11T12:14:12Z</time>
      </trkpt>
      <trkpt lat="45.80468" lon="6.73205">
        <ele>1419.52</ele>
        <time>2018-09-11T12:14:13Z</time>
      </trkpt>
      <trkpt lat="45.80467" lon="6.73206">
        <ele>1419.04</ele>
        <time>2018-09-11T12:14:14Z</time>
      </trkpt>
      <trkpt lat="45.80465" lon="6.73207">
        <ele>1418.56</ele>
        <time>2018-09-11T12:14:15Z</time>
      </trkpt>
      <trkpt lat="45.80464" lon="6.73208">
        <ele>1418.56</ele>
        <time>2018-09-11T12:14:16Z</time>
      </trkpt>
      <trkpt lat="45.80463" lon="6.73209">
        <ele>1418.08</ele>
        <time>2018-09-11T12:14:17Z</time>
      </trkpt>
      <trkpt lat="45.8046" lon="6.73219">
        <ele>1417.6</ele>
        <time>2018-09-11T12:14:49Z</time>
      </trkpt>
      <trkpt lat="45.80458" lon="6.7322">
        <ele>1417.6</ele>
        <time>2018-09-11T12:15:59Z</time>
      </trkpt>
      <trkpt lat="45.80457" lon="6.73215">
        <ele>1417.6</ele>
        <time>2018-09-11T12:16:25Z</time>
      </trkpt>
      <trkpt lat="45.80456" lon="6.73214">
        <ele>1417.6</ele>
        <time>2018-09-11T12:16:26Z</time>
      </trkpt>
      <trkpt lat="45.80445" lon="6.73198">
        <ele>1414.24</ele>
        <time>2018-09-11T12:16:34Z</time>
      </trkpt>
      <trkpt lat="45.80435" lon="6.73179">
        <ele>1410.87</ele>
        <time>2018-09-11T12:16:42Z</time>
      </trkpt>
      <trkpt lat="45.80428" lon="6.73168">
        <ele>1409.91</ele>
        <time>2018-09-11T12:16:46Z</time>
      </trkpt>
      <trkpt lat="45.80426" lon="6.73166">
        <ele>1409.91</ele>
        <time>2018-09-11T12:16:47Z</time>
      </trkpt>
      <trkpt lat="45.80417" lon="6.73152">
        <ele>1410.39</ele>
        <time>2018-09-11T12:16:53Z</time>
      </trkpt>
      <trkpt lat="45.8041" lon="6.73147">
        <ele>1411.35</ele>
        <time>2018-09-11T12:16:57Z</time>
      </trkpt>
      <trkpt lat="45.80409" lon="6.73146">
        <ele>1411.83</ele>
        <time>2018-09-11T12:16:58Z</time>
      </trkpt>
      <trkpt lat="45.80406" lon="6.73146">
        <ele>1412.31</ele>
        <time>2018-09-11T12:17:01Z</time>
      </trkpt>
      <trkpt lat="45.80405" lon="6.73145">
        <ele>1412.79</ele>
        <time>2018-09-11T12:17:02Z</time>
      </trkpt>
      <trkpt lat="45.80403" lon="6.73145">
        <ele>1412.79</ele>
        <time>2018-09-11T12:17:03Z</time>
      </trkpt>
      <trkpt lat="45.80401" lon="6.73144">
        <ele>1413.28</ele>
        <time>2018-09-11T12:17:04Z</time>
      </trkpt>
      <trkpt lat="45.804" lon="6.73144">
        <ele>1413.76</ele>
        <time>2018-09-11T12:17:05Z</time>
      </trkpt>
      <trkpt lat="45.80398" lon="6.73144">
        <ele>1413.76</ele>
        <time>2018-09-11T12:17:06Z</time>
      </trkpt>
      <trkpt lat="45.80397" lon="6.73144">
        <ele>1414.24</ele>
        <time>2018-09-11T12:17:07Z</time>
      </trkpt>
      <trkpt lat="45.8039" lon="6.7314">
        <ele>1416.16</ele>
        <time>2018-09-11T12:17:14Z</time>
      </trkpt>
      <trkpt lat="45.80389" lon="6.73141">
        <ele>1416.64</ele>
        <time>2018-09-11T12:17:15Z</time>
      </trkpt>
      <trkpt lat="45.80363" lon="6.73149">
        <ele>1416.64</ele>
        <time>2018-09-11T12:17:32Z</time>
      </trkpt>
      <trkpt lat="45.80356" lon="6.73153">
        <ele>1416.64</ele>
        <time>2018-09-11T12:17:35Z</time>
      </trkpt>
      <trkpt lat="45.80354" lon="6.73155">
        <ele>1416.16</ele>
        <time>2018-09-11T12:17:36Z</time>
      </trkpt>
      <trkpt lat="45.80351" lon="6.73157">
        <ele>1415.68</ele>
        <time>2018-09-11T12:17:37Z</time>
      </trkpt>
      <trkpt lat="45.80348" lon="6.73158">
        <ele>1415.2</ele>
        <time>2018-09-11T12:17:38Z</time>
      </trkpt>
      <trkpt lat="45.80346" lon="6.73159">
        <ele>1415.2</ele>
        <time>2018-09-11T12:17:39Z</time>
      </trkpt>
      <trkpt lat="45.80344" lon="6.7316">
        <ele>1415.2</ele>
        <time>2018-09-11T12:17:40Z</time>
      </trkpt>
      <trkpt lat="45.80341" lon="6.7316">
        <ele>1414.72</ele>
        <time>2018-09-11T12:17:41Z</time>
      </trkpt>
      <trkpt lat="45.80338" lon="6.73161">
        <ele>1414.24</ele>
        <time>2018-09-11T12:17:42Z</time>
      </trkpt>
      <trkpt lat="45.80335" lon="6.73161">
        <ele>1414.24</ele>
        <time>2018-09-11T12:17:43Z</time>
      </trkpt>
      <trkpt lat="45.80333" lon="6.73162">
        <ele>1413.76</ele>
        <time>2018-09-11T12:17:44Z</time>
      </trkpt>
      <trkpt lat="45.80331" lon="6.73163">
        <ele>1413.28</ele>
        <time>2018-09-11T12:17:45Z</time>
      </trkpt>
      <trkpt lat="45.80328" lon="6.73164">
        <ele>1412.79</ele>
        <time>2018-09-11T12:17:46Z</time>
      </trkpt>
      <trkpt lat="45.80325" lon="6.73164">
        <ele>1412.31</ele>
        <time>2018-09-11T12:17:47Z</time>
      </trkpt>
      <trkpt lat="45.80322" lon="6.73163">
        <ele>1411.83</ele>
        <time>2018-09-11T12:17:48Z</time>
      </trkpt>
      <trkpt lat="45.8032" lon="6.73162">
        <ele>1410.87</ele>
        <time>2018-09-11T12:17:49Z</time>
      </trkpt>
      <trkpt lat="45.80317" lon="6.73161">
        <ele>1410.39</ele>
        <time>2018-09-11T12:17:50Z</time>
      </trkpt>
      <trkpt lat="45.80315" lon="6.7316">
        <ele>1409.43</ele>
        <time>2018-09-11T12:17:51Z</time>
      </trkpt>
      <trkpt lat="45.80313" lon="6.7316">
        <ele>1409.43</ele>
        <time>2018-09-11T12:17:52Z</time>
      </trkpt>
      <trkpt lat="45.8031" lon="6.73158">
        <ele>1409.43</ele>
        <time>2018-09-11T12:17:53Z</time>
      </trkpt>
      <trkpt lat="45.80306" lon="6.73156">
        <ele>1409.43</ele>
        <time>2018-09-11T12:17:55Z</time>
      </trkpt>
      <trkpt lat="45.80304" lon="6.73156">
        <ele>1409.43</ele>
        <time>2018-09-11T12:17:56Z</time>
      </trkpt>
      <trkpt lat="45.80303" lon="6.73156">
        <ele>1409.91</ele>
        <time>2018-09-11T12:17:57Z</time>
      </trkpt>
      <trkpt lat="45.80294" lon="6.73147">
        <ele>1411.35</ele>
        <time>2018-09-11T12:18:04Z</time>
      </trkpt>
      <trkpt lat="45.80292" lon="6.73145">
        <ele>1411.35</ele>
        <time>2018-09-11T12:18:05Z</time>
      </trkpt>
      <trkpt lat="45.80291" lon="6.73142">
        <ele>1411.35</ele>
        <time>2018-09-11T12:18:06Z</time>
      </trkpt>
      <trkpt lat="45.80274" lon="6.73117">
        <ele>1409.43</ele>
        <time>2018-09-11T12:18:17Z</time>
      </trkpt>
      <trkpt lat="45.80264" lon="6.73102">
        <ele>1408.95</ele>
        <time>2018-09-11T12:18:25Z</time>
      </trkpt>
      <trkpt lat="45.80263" lon="6.73101">
        <ele>1408.95</ele>
        <time>2018-09-11T12:18:26Z</time>
      </trkpt>
      <trkpt lat="45.80262" lon="6.73099">
        <ele>1408.95</ele>
        <time>2018-09-11T12:18:27Z</time>
      </trkpt>
      <trkpt lat="45.80262" lon="6.73098">
        <ele>1408.95</ele>
        <time>2018-09-11T12:18:28Z</time>
      </trkpt>
      <trkpt lat="45.8026" lon="6.73096">
        <ele>1408.47</ele>
        <time>2018-09-11T12:18:30Z</time>
      </trkpt>
      <trkpt lat="45.80258" lon="6.73094">
        <ele>1407.99</ele>
        <time>2018-09-11T12:18:31Z</time>
      </trkpt>
      <trkpt lat="45.80256" lon="6.73092">
        <ele>1407.99</ele>
        <time>2018-09-11T12:18:32Z</time>
      </trkpt>
      <trkpt lat="45.80247" lon="6.73081">
        <ele>1407.03</ele>
        <time>2018-09-11T12:18:38Z</time>
      </trkpt>
      <trkpt lat="45.80246" lon="6.73081">
        <ele>1406.55</ele>
        <time>2018-09-11T12:18:39Z</time>
      </trkpt>
      <trkpt lat="45.80241" lon="6.73081">
        <ele>1404.62</ele>
        <time>2018-09-11T12:18:44Z</time>
      </trkpt>
      <trkpt lat="45.8024" lon="6.7308">
        <ele>1404.62</ele>
        <time>2018-09-11T12:18:45Z</time>
      </trkpt>
      <trkpt lat="45.80238" lon="6.7308">
        <ele>1404.14</ele>
        <time>2018-09-11T12:18:46Z</time>
      </trkpt>
      <trkpt lat="45.8022" lon="6.7307">
        <ele>1400.78</ele>
        <time>2018-09-11T12:18:54Z</time>
      </trkpt>
      <trkpt lat="45.8021" lon="6.73059">
        <ele>1398.37</ele>
        <time>2018-09-11T12:18:59Z</time>
      </trkpt>
      <trkpt lat="45.80209" lon="6.73057">
        <ele>1398.37</ele>
        <time>2018-09-11T12:19:00Z</time>
      </trkpt>
      <trkpt lat="45.80207" lon="6.73053">
        <ele>1397.41</ele>
        <time>2018-09-11T12:19:02Z</time>
      </trkpt>
      <trkpt lat="45.80206" lon="6.73052">
        <ele>1396.45</ele>
        <time>2018-09-11T12:19:04Z</time>
      </trkpt>
      <trkpt lat="45.80204" lon="6.7305">
        <ele>1396.45</ele>
        <time>2018-09-11T12:19:05Z</time>
      </trkpt>
      <trkpt lat="45.80194" lon="6.73041">
        <ele>1395.97</ele>
        <time>2018-09-11T12:19:11Z</time>
      </trkpt>
      <trkpt lat="45.80193" lon="6.73039">
        <ele>1395.97</ele>
        <time>2018-09-11T12:19:12Z</time>
      </trkpt>
      <trkpt lat="45.80192" lon="6.73037">
        <ele>1395.97</ele>
        <time>2018-09-11T12:19:13Z</time>
      </trkpt>
      <trkpt lat="45.8019" lon="6.73035">
        <ele>1395.97</ele>
        <time>2018-09-11T12:19:14Z</time>
      </trkpt>
      <trkpt lat="45.80189" lon="6.73034">
        <ele>1395.49</ele>
        <time>2018-09-11T12:19:15Z</time>
      </trkpt>
      <trkpt lat="45.80188" lon="6.73034">
        <ele>1395.49</ele>
        <time>2018-09-11T12:19:16Z</time>
      </trkpt>
      <trkpt lat="45.80186" lon="6.73034">
        <ele>1395.97</ele>
        <time>2018-09-11T12:19:19Z</time>
      </trkpt>
      <trkpt lat="45.80183" lon="6.73031">
        <ele>1395.97</ele>
        <time>2018-09-11T12:19:20Z</time>
      </trkpt>
      <trkpt lat="45.80181" lon="6.73029">
        <ele>1395.97</ele>
        <time>2018-09-11T12:19:22Z</time>
      </trkpt>
      <trkpt lat="45.8018" lon="6.73027">
        <ele>1395.97</ele>
        <time>2018-09-11T12:19:23Z</time>
      </trkpt>
      <trkpt lat="45.80179" lon="6.73026">
        <ele>1395.49</ele>
        <time>2018-09-11T12:19:24Z</time>
      </trkpt>
      <trkpt lat="45.80155" lon="6.73012">
        <ele>1394.05</ele>
        <time>2018-09-11T12:19:36Z</time>
      </trkpt>
      <trkpt lat="45.80132" lon="6.72991">
        <ele>1394.05</ele>
        <time>2018-09-11T12:19:45Z</time>
      </trkpt>
      <trkpt lat="45.80115" lon="6.72978">
        <ele>1394.53</ele>
        <time>2018-09-11T12:19:54Z</time>
      </trkpt>
      <trkpt lat="45.80108" lon="6.72971">
        <ele>1394.53</ele>
        <time>2018-09-11T12:19:58Z</time>
      </trkpt>
      <trkpt lat="45.80105" lon="6.72969">
        <ele>1394.53</ele>
        <time>2018-09-11T12:20:00Z</time>
      </trkpt>
      <trkpt lat="45.80103" lon="6.72968">
        <ele>1394.05</ele>
        <time>2018-09-11T12:20:01Z</time>
      </trkpt>
      <trkpt lat="45.801" lon="6.72965">
        <ele>1392.61</ele>
        <time>2018-09-11T12:20:04Z</time>
      </trkpt>
      <trkpt lat="45.80099" lon="6.72964">
        <ele>1392.13</ele>
        <time>2018-09-11T12:20:05Z</time>
      </trkpt>
      <trkpt lat="45.80098" lon="6.72963">
        <ele>1391.17</ele>
        <time>2018-09-11T12:20:06Z</time>
      </trkpt>
      <trkpt lat="45.80096" lon="6.72962">
        <ele>1391.17</ele>
        <time>2018-09-11T12:20:07Z</time>
      </trkpt>
      <trkpt lat="45.80094" lon="6.72962">
        <ele>1390.68</ele>
        <time>2018-09-11T12:20:08Z</time>
      </trkpt>
      <trkpt lat="45.80091" lon="6.72962">
        <ele>1390.68</ele>
        <time>2018-09-11T12:20:09Z</time>
      </trkpt>
      <trkpt lat="45.80089" lon="6.72961">
        <ele>1390.68</ele>
        <time>2018-09-11T12:20:10Z</time>
      </trkpt>
      <trkpt lat="45.80087" lon="6.7296">
        <ele>1390.68</ele>
        <time>2018-09-11T12:20:11Z</time>
      </trkpt>
      <trkpt lat="45.80085" lon="6.72959">
        <ele>1390.2</ele>
        <time>2018-09-11T12:20:12Z</time>
      </trkpt>
      <trkpt lat="45.80084" lon="6.72958">
        <ele>1390.2</ele>
        <time>2018-09-11T12:20:13Z</time>
      </trkpt>
      <trkpt lat="45.80082" lon="6.72956">
        <ele>1390.2</ele>
        <time>2018-09-11T12:20:14Z</time>
      </trkpt>
      <trkpt lat="45.80081" lon="6.72954">
        <ele>1389.72</ele>
        <time>2018-09-11T12:20:15Z</time>
      </trkpt>
      <trkpt lat="45.80067" lon="6.72954">
        <ele>1388.28</ele>
        <time>2018-09-11T12:20:22Z</time>
      </trkpt>
      <trkpt lat="45.80065" lon="6.72955">
        <ele>1388.28</ele>
        <time>2018-09-11T12:20:23Z</time>
      </trkpt>
      <trkpt lat="45.80063" lon="6.72956">
        <ele>1388.28</ele>
        <time>2018-09-11T12:20:24Z</time>
      </trkpt>
      <trkpt lat="45.80061" lon="6.72955">
        <ele>1387.8</ele>
        <time>2018-09-11T12:20:25Z</time>
      </trkpt>
      <trkpt lat="45.80059" lon="6.72955">
        <ele>1387.8</ele>
        <time>2018-09-11T12:20:26Z</time>
      </trkpt>
      <trkpt lat="45.80057" lon="6.72953">
        <ele>1387.32</ele>
        <time>2018-09-11T12:20:27Z</time>
      </trkpt>
      <trkpt lat="45.80055" lon="6.72953">
        <ele>1386.84</ele>
        <time>2018-09-11T12:20:28Z</time>
      </trkpt>
      <trkpt lat="45.80052" lon="6.72951">
        <ele>1386.84</ele>
        <time>2018-09-11T12:20:29Z</time>
      </trkpt>
      <trkpt lat="45.80049" lon="6.72949">
        <ele>1386.36</ele>
        <time>2018-09-11T12:20:30Z</time>
      </trkpt>
      <trkpt lat="45.80034" lon="6.72938">
        <ele>1383.96</ele>
        <time>2018-09-11T12:20:37Z</time>
      </trkpt>
      <trkpt lat="45.80028" lon="6.72938">
        <ele>1384.92</ele>
        <time>2018-09-11T12:20:41Z</time>
      </trkpt>
      <trkpt lat="45.80027" lon="6.72939">
        <ele>1384.92</ele>
        <time>2018-09-11T12:20:42Z</time>
      </trkpt>
      <trkpt lat="45.80025" lon="6.72937">
        <ele>1385.4</ele>
        <time>2018-09-11T12:20:43Z</time>
      </trkpt>
      <trkpt lat="45.80009" lon="6.72929">
        <ele>1386.84</ele>
        <time>2018-09-11T12:20:56Z</time>
      </trkpt>
      <trkpt lat="45.80006" lon="6.72922">
        <ele>1385.4</ele>
        <time>2018-09-11T12:20:59Z</time>
      </trkpt>
      <trkpt lat="45.80005" lon="6.7292">
        <ele>1384.92</ele>
        <time>2018-09-11T12:21:00Z</time>
      </trkpt>
      <trkpt lat="45.80003" lon="6.72918">
        <ele>1384.44</ele>
        <time>2018-09-11T12:21:01Z</time>
      </trkpt>
      <trkpt lat="45.80001" lon="6.72916">
        <ele>1384.44</ele>
        <time>2018-09-11T12:21:02Z</time>
      </trkpt>
      <trkpt lat="45.79999" lon="6.72914">
        <ele>1383.96</ele>
        <time>2018-09-11T12:21:03Z</time>
      </trkpt>
      <trkpt lat="45.79998" lon="6.72913">
        <ele>1383.47</ele>
        <time>2018-09-11T12:21:04Z</time>
      </trkpt>
      <trkpt lat="45.79996" lon="6.72912">
        <ele>1382.99</ele>
        <time>2018-09-11T12:21:05Z</time>
      </trkpt>
      <trkpt lat="45.79989" lon="6.72909">
        <ele>1382.51</ele>
        <time>2018-09-11T12:21:10Z</time>
      </trkpt>
      <trkpt lat="45.79988" lon="6.72909">
        <ele>1382.51</ele>
        <time>2018-09-11T12:21:11Z</time>
      </trkpt>
      <trkpt lat="45.79987" lon="6.72908">
        <ele>1382.51</ele>
        <time>2018-09-11T12:21:12Z</time>
      </trkpt>
      <trkpt lat="45.79986" lon="6.72908">
        <ele>1382.51</ele>
        <time>2018-09-11T12:21:13Z</time>
      </trkpt>
      <trkpt lat="45.79985" lon="6.72908">
        <ele>1382.99</ele>
        <time>2018-09-11T12:21:14Z</time>
      </trkpt>
      <trkpt lat="45.79982" lon="6.7291">
        <ele>1383.47</ele>
        <time>2018-09-11T12:21:17Z</time>
      </trkpt>
      <trkpt lat="45.7998" lon="6.7291">
        <ele>1383.96</ele>
        <time>2018-09-11T12:21:18Z</time>
      </trkpt>
      <trkpt lat="45.79979" lon="6.72911">
        <ele>1384.44</ele>
        <time>2018-09-11T12:21:19Z</time>
      </trkpt>
      <trkpt lat="45.79978" lon="6.72913">
        <ele>1384.44</ele>
        <time>2018-09-11T12:21:20Z</time>
      </trkpt>
      <trkpt lat="45.79978" lon="6.72914">
        <ele>1384.92</ele>
        <time>2018-09-11T12:21:21Z</time>
      </trkpt>
      <trkpt lat="45.79977" lon="6.72913">
        <ele>1385.88</ele>
        <time>2018-09-11T12:21:24Z</time>
      </trkpt>
      <trkpt lat="45.79976" lon="6.72911">
        <ele>1385.88</ele>
        <time>2018-09-11T12:21:25Z</time>
      </trkpt>
      <trkpt lat="45.79974" lon="6.7291">
        <ele>1386.36</ele>
        <time>2018-09-11T12:21:26Z</time>
      </trkpt>
      <trkpt lat="45.79973" lon="6.7291">
        <ele>1386.36</ele>
        <time>2018-09-11T12:21:27Z</time>
      </trkpt>
      <trkpt lat="45.79972" lon="6.72909">
        <ele>1386.36</ele>
        <time>2018-09-11T12:21:28Z</time>
      </trkpt>
      <trkpt lat="45.7997" lon="6.72908">
        <ele>1386.36</ele>
        <time>2018-09-11T12:21:29Z</time>
      </trkpt>
      <trkpt lat="45.79969" lon="6.72907">
        <ele>1386.36</ele>
        <time>2018-09-11T12:21:30Z</time>
      </trkpt>
      <trkpt lat="45.79968" lon="6.72906">
        <ele>1386.36</ele>
        <time>2018-09-11T12:21:31Z</time>
      </trkpt>
      <trkpt lat="45.79967" lon="6.72906">
        <ele>1385.88</ele>
        <time>2018-09-11T12:21:32Z</time>
      </trkpt>
      <trkpt lat="45.79964" lon="6.72904">
        <ele>1385.4</ele>
        <time>2018-09-11T12:21:34Z</time>
      </trkpt>
      <trkpt lat="45.79959" lon="6.72902">
        <ele>1384.44</ele>
        <time>2018-09-11T12:21:38Z</time>
      </trkpt>
      <trkpt lat="45.79956" lon="6.72901">
        <ele>1384.44</ele>
        <time>2018-09-11T12:21:39Z</time>
      </trkpt>
      <trkpt lat="45.79953" lon="6.729">
        <ele>1383.47</ele>
        <time>2018-09-11T12:21:40Z</time>
      </trkpt>
      <trkpt lat="45.79946" lon="6.72896">
        <ele>1382.51</ele>
        <time>2018-09-11T12:21:43Z</time>
      </trkpt>
      <trkpt lat="45.79921" lon="6.72875">
        <ele>1380.59</ele>
        <time>2018-09-11T12:21:52Z</time>
      </trkpt>
      <trkpt lat="45.7992" lon="6.72873">
        <ele>1380.59</ele>
        <time>2018-09-11T12:21:53Z</time>
      </trkpt>
      <trkpt lat="45.79918" lon="6.7287">
        <ele>1380.59</ele>
        <time>2018-09-11T12:21:54Z</time>
      </trkpt>
      <trkpt lat="45.79914" lon="6.72865">
        <ele>1379.63</ele>
        <time>2018-09-11T12:21:57Z</time>
      </trkpt>
      <trkpt lat="45.79907" lon="6.72858">
        <ele>1376.75</ele>
        <time>2018-09-11T12:22:03Z</time>
      </trkpt>
      <trkpt lat="45.79897" lon="6.72852">
        <ele>1374.34</ele>
        <time>2018-09-11T12:22:08Z</time>
      </trkpt>
      <trkpt lat="45.79893" lon="6.72851">
        <ele>1373.86</ele>
        <time>2018-09-11T12:22:10Z</time>
      </trkpt>
      <trkpt lat="45.79892" lon="6.72849">
        <ele>1373.86</ele>
        <time>2018-09-11T12:22:11Z</time>
      </trkpt>
      <trkpt lat="45.7989" lon="6.72847">
        <ele>1373.38</ele>
        <time>2018-09-11T12:22:12Z</time>
      </trkpt>
      <trkpt lat="45.79887" lon="6.72845">
        <ele>1372.9</ele>
        <time>2018-09-11T12:22:13Z</time>
      </trkpt>
      <trkpt lat="45.79884" lon="6.72844">
        <ele>1372.42</ele>
        <time>2018-09-11T12:22:14Z</time>
      </trkpt>
      <trkpt lat="45.79881" lon="6.72843">
        <ele>1372.42</ele>
        <time>2018-09-11T12:22:15Z</time>
      </trkpt>
      <trkpt lat="45.7987" lon="6.72841">
        <ele>1372.9</ele>
        <time>2018-09-11T12:22:21Z</time>
      </trkpt>
      <trkpt lat="45.79861" lon="6.72843">
        <ele>1373.38</ele>
        <time>2018-09-11T12:22:28Z</time>
      </trkpt>
      <trkpt lat="45.79859" lon="6.72843">
        <ele>1373.38</ele>
        <time>2018-09-11T12:22:29Z</time>
      </trkpt>
      <trkpt lat="45.79858" lon="6.72842">
        <ele>1373.86</ele>
        <time>2018-09-11T12:22:30Z</time>
      </trkpt>
      <trkpt lat="45.79855" lon="6.7284">
        <ele>1373.86</ele>
        <time>2018-09-11T12:22:31Z</time>
      </trkpt>
      <trkpt lat="45.79852" lon="6.72838">
        <ele>1373.86</ele>
        <time>2018-09-11T12:22:32Z</time>
      </trkpt>
      <trkpt lat="45.7983" lon="6.7282">
        <ele>1372.42</ele>
        <time>2018-09-11T12:22:40Z</time>
      </trkpt>
      <trkpt lat="45.79822" lon="6.72814">
        <ele>1372.42</ele>
        <time>2018-09-11T12:22:48Z</time>
      </trkpt>
      <trkpt lat="45.79821" lon="6.72812">
        <ele>1372.42</ele>
        <time>2018-09-11T12:22:49Z</time>
      </trkpt>
      <trkpt lat="45.79819" lon="6.72811">
        <ele>1372.42</ele>
        <time>2018-09-11T12:22:50Z</time>
      </trkpt>
      <trkpt lat="45.79818" lon="6.72811">
        <ele>1372.42</ele>
        <time>2018-09-11T12:22:51Z</time>
      </trkpt>
      <trkpt lat="45.79817" lon="6.72812">
        <ele>1372.42</ele>
        <time>2018-09-11T12:22:52Z</time>
      </trkpt>
      <trkpt lat="45.79816" lon="6.72812">
        <ele>1372.9</ele>
        <time>2018-09-11T12:22:53Z</time>
      </trkpt>
      <trkpt lat="45.79815" lon="6.72813">
        <ele>1373.38</ele>
        <time>2018-09-11T12:22:54Z</time>
      </trkpt>
      <trkpt lat="45.79798" lon="6.72818">
        <ele>1376.26</ele>
        <time>2018-09-11T12:23:06Z</time>
      </trkpt>
      <trkpt lat="45.79774" lon="6.72824">
        <ele>1375.78</ele>
        <time>2018-09-11T12:23:19Z</time>
      </trkpt>
      <trkpt lat="45.79752" lon="6.72832">
        <ele>1377.23</ele>
        <time>2018-09-11T12:23:30Z</time>
      </trkpt>
      <trkpt lat="45.79746" lon="6.72833">
        <ele>1378.19</ele>
        <time>2018-09-11T12:23:33Z</time>
      </trkpt>
      <trkpt lat="45.79738" lon="6.72833">
        <ele>1379.63</ele>
        <time>2018-09-11T12:23:39Z</time>
      </trkpt>
      <trkpt lat="45.79733" lon="6.72833">
        <ele>1380.59</ele>
        <time>2018-09-11T12:23:42Z</time>
      </trkpt>
      <trkpt lat="45.79732" lon="6.72831">
        <ele>1381.07</ele>
        <time>2018-09-11T12:23:44Z</time>
      </trkpt>
      <trkpt lat="45.79726" lon="6.72826">
        <ele>1383.47</ele>
        <time>2018-09-11T12:23:52Z</time>
      </trkpt>
      <trkpt lat="45.79725" lon="6.72825">
        <ele>1383.96</ele>
        <time>2018-09-11T12:23:53Z</time>
      </trkpt>
      <trkpt lat="45.7972" lon="6.72821">
        <ele>1384.44</ele>
        <time>2018-09-11T12:23:58Z</time>
      </trkpt>
      <trkpt lat="45.79719" lon="6.7282">
        <ele>1384.44</ele>
        <time>2018-09-11T12:23:59Z</time>
      </trkpt>
      <trkpt lat="45.79718" lon="6.72819">
        <ele>1384.92</ele>
        <time>2018-09-11T12:24:00Z</time>
      </trkpt>
      <trkpt lat="45.79716" lon="6.72818">
        <ele>1385.4</ele>
        <time>2018-09-11T12:24:01Z</time>
      </trkpt>
      <trkpt lat="45.79715" lon="6.72816">
        <ele>1385.4</ele>
        <time>2018-09-11T12:24:02Z</time>
      </trkpt>
      <trkpt lat="45.79707" lon="6.72808">
        <ele>1388.28</ele>
        <time>2018-09-11T12:24:11Z</time>
      </trkpt>
      <trkpt lat="45.79706" lon="6.72807">
        <ele>1388.76</ele>
        <time>2018-09-11T12:24:12Z</time>
      </trkpt>
      <trkpt lat="45.79705" lon="6.72807">
        <ele>1388.76</ele>
        <time>2018-09-11T12:24:13Z</time>
      </trkpt>
      <trkpt lat="45.79702" lon="6.72802">
        <ele>1390.2</ele>
        <time>2018-09-11T12:24:17Z</time>
      </trkpt>
      <trkpt lat="45.797" lon="6.72802">
        <ele>1390.2</ele>
        <time>2018-09-11T12:24:18Z</time>
      </trkpt>
      <trkpt lat="45.7968" lon="6.72784">
        <ele>1392.61</ele>
        <time>2018-09-11T12:24:38Z</time>
      </trkpt>
      <trkpt lat="45.79677" lon="6.72782">
        <ele>1393.09</ele>
        <time>2018-09-11T12:24:40Z</time>
      </trkpt>
      <trkpt lat="45.79673" lon="6.72779">
        <ele>1393.57</ele>
        <time>2018-09-11T12:24:43Z</time>
      </trkpt>
      <trkpt lat="45.79672" lon="6.72777">
        <ele>1393.57</ele>
        <time>2018-09-11T12:24:44Z</time>
      </trkpt>
      <trkpt lat="45.79671" lon="6.72775">
        <ele>1393.57</ele>
        <time>2018-09-11T12:24:45Z</time>
      </trkpt>
      <trkpt lat="45.79669" lon="6.72774">
        <ele>1394.05</ele>
        <time>2018-09-11T12:24:46Z</time>
      </trkpt>
      <trkpt lat="45.79668" lon="6.72773">
        <ele>1394.53</ele>
        <time>2018-09-11T12:24:47Z</time>
      </trkpt>
      <trkpt lat="45.79663" lon="6.72768">
        <ele>1394.53</ele>
        <time>2018-09-11T12:24:50Z</time>
      </trkpt>
      <trkpt lat="45.79645" lon="6.72748">
        <ele>1395.97</ele>
        <time>2018-09-11T12:25:03Z</time>
      </trkpt>
      <trkpt lat="45.79638" lon="6.72737">
        <ele>1396.93</ele>
        <time>2018-09-11T12:25:09Z</time>
      </trkpt>
      <trkpt lat="45.79636" lon="6.72737">
        <ele>1396.93</ele>
        <time>2018-09-11T12:25:10Z</time>
      </trkpt>
      <trkpt lat="45.79635" lon="6.72734">
        <ele>1397.41</ele>
        <time>2018-09-11T12:25:11Z</time>
      </trkpt>
      <trkpt lat="45.79631" lon="6.72729">
        <ele>1398.37</ele>
        <time>2018-09-11T12:25:15Z</time>
      </trkpt>
      <trkpt lat="45.79629" lon="6.72723">
        <ele>1401.26</ele>
        <time>2018-09-11T12:25:24Z</time>
      </trkpt>
      <trkpt lat="45.79614" lon="6.72693">
        <ele>1404.62</ele>
        <time>2018-09-11T12:25:45Z</time>
      </trkpt>
      <trkpt lat="45.79613" lon="6.72692">
        <ele>1405.1</ele>
        <time>2018-09-11T12:25:47Z</time>
      </trkpt>
      <trkpt lat="45.79612" lon="6.72691">
        <ele>1405.58</ele>
        <time>2018-09-11T12:25:48Z</time>
      </trkpt>
      <trkpt lat="45.79608" lon="6.72681">
        <ele>1407.03</ele>
        <time>2018-09-11T12:25:55Z</time>
      </trkpt>
      <trkpt lat="45.79608" lon="6.7268">
        <ele>1407.51</ele>
        <time>2018-09-11T12:25:56Z</time>
      </trkpt>
      <trkpt lat="45.79607" lon="6.72678">
        <ele>1407.51</ele>
        <time>2018-09-11T12:25:57Z</time>
      </trkpt>
      <trkpt lat="45.79605" lon="6.72674">
        <ele>1408.47</ele>
        <time>2018-09-11T12:26:01Z</time>
      </trkpt>
      <trkpt lat="45.79592" lon="6.72657">
        <ele>1409.91</ele>
        <time>2018-09-11T12:26:15Z</time>
      </trkpt>
      <trkpt lat="45.79591" lon="6.72657">
        <ele>1409.91</ele>
        <time>2018-09-11T12:26:16Z</time>
      </trkpt>
      <trkpt lat="45.7959" lon="6.72655">
        <ele>1410.39</ele>
        <time>2018-09-11T12:26:18Z</time>
      </trkpt>
      <trkpt lat="45.79588" lon="6.72653">
        <ele>1411.35</ele>
        <time>2018-09-11T12:26:21Z</time>
      </trkpt>
      <trkpt lat="45.79586" lon="6.7265">
        <ele>1412.31</ele>
        <time>2018-09-11T12:26:25Z</time>
      </trkpt>
      <trkpt lat="45.79584" lon="6.72648">
        <ele>1412.31</ele>
        <time>2018-09-11T12:26:26Z</time>
      </trkpt>
      <trkpt lat="45.79584" lon="6.72647">
        <ele>1412.31</ele>
        <time>2018-09-11T12:26:27Z</time>
      </trkpt>
      <trkpt lat="45.7958" lon="6.72641">
        <ele>1413.28</ele>
        <time>2018-09-11T12:26:32Z</time>
      </trkpt>
      <trkpt lat="45.79579" lon="6.72638">
        <ele>1413.76</ele>
        <time>2018-09-11T12:26:33Z</time>
      </trkpt>
      <trkpt lat="45.79571" lon="6.72615">
        <ele>1415.2</ele>
        <time>2018-09-11T12:26:42Z</time>
      </trkpt>
      <trkpt lat="45.7957" lon="6.72612">
        <ele>1416.16</ele>
        <time>2018-09-11T12:26:44Z</time>
      </trkpt>
      <trkpt lat="45.79569" lon="6.72608">
        <ele>1417.6</ele>
        <time>2018-09-11T12:26:48Z</time>
      </trkpt>
      <trkpt lat="45.79568" lon="6.72605">
        <ele>1418.08</ele>
        <time>2018-09-11T12:26:50Z</time>
      </trkpt>
      <trkpt lat="45.79568" lon="6.72604">
        <ele>1418.08</ele>
        <time>2018-09-11T12:26:51Z</time>
      </trkpt>
      <trkpt lat="45.79555" lon="6.72583">
        <ele>1421.45</ele>
        <time>2018-09-11T12:27:07Z</time>
      </trkpt>
      <trkpt lat="45.79554" lon="6.72579">
        <ele>1421.45</ele>
        <time>2018-09-11T12:27:09Z</time>
      </trkpt>
      <trkpt lat="45.79553" lon="6.72578">
        <ele>1421.45</ele>
        <time>2018-09-11T12:27:10Z</time>
      </trkpt>
      <trkpt lat="45.79547" lon="6.72568">
        <ele>1421.93</ele>
        <time>2018-09-11T12:27:18Z</time>
      </trkpt>
      <trkpt lat="45.79545" lon="6.72567">
        <ele>1421.93</ele>
        <time>2018-09-11T12:27:20Z</time>
      </trkpt>
      <trkpt lat="45.79544" lon="6.72566">
        <ele>1421.93</ele>
        <time>2018-09-11T12:27:21Z</time>
      </trkpt>
      <trkpt lat="45.79544" lon="6.72565">
        <ele>1421.93</ele>
        <time>2018-09-11T12:27:22Z</time>
      </trkpt>
      <trkpt lat="45.79531" lon="6.7254">
        <ele>1420.97</ele>
        <time>2018-09-11T12:27:49Z</time>
      </trkpt>
      <trkpt lat="45.79529" lon="6.72534">
        <ele>1421.93</ele>
        <time>2018-09-11T12:27:53Z</time>
      </trkpt>
      <trkpt lat="45.79529" lon="6.72533">
        <ele>1421.93</ele>
        <time>2018-09-11T12:27:54Z</time>
      </trkpt>
      <trkpt lat="45.79515" lon="6.72503">
        <ele>1423.85</ele>
        <time>2018-09-11T12:28:10Z</time>
      </trkpt>
      <trkpt lat="45.79503" lon="6.72485">
        <ele>1423.85</ele>
        <time>2018-09-11T12:28:21Z</time>
      </trkpt>
      <trkpt lat="45.795" lon="6.72481">
        <ele>1423.85</ele>
        <time>2018-09-11T12:28:23Z</time>
      </trkpt>
      <trkpt lat="45.79494" lon="6.72472">
        <ele>1423.37</ele>
        <time>2018-09-11T12:28:27Z</time>
      </trkpt>
      <trkpt lat="45.79494" lon="6.7247">
        <ele>1423.37</ele>
        <time>2018-09-11T12:28:28Z</time>
      </trkpt>
      <trkpt lat="45.79493" lon="6.72468">
        <ele>1423.85</ele>
        <time>2018-09-11T12:28:29Z</time>
      </trkpt>
      <trkpt lat="45.79493" lon="6.72466">
        <ele>1423.85</ele>
        <time>2018-09-11T12:28:30Z</time>
      </trkpt>
      <trkpt lat="45.79492" lon="6.72464">
        <ele>1423.85</ele>
        <time>2018-09-11T12:28:31Z</time>
      </trkpt>
      <trkpt lat="45.79491" lon="6.72461">
        <ele>1423.85</ele>
        <time>2018-09-11T12:28:32Z</time>
      </trkpt>
      <trkpt lat="45.7949" lon="6.72459">
        <ele>1424.33</ele>
        <time>2018-09-11T12:28:33Z</time>
      </trkpt>
      <trkpt lat="45.79489" lon="6.72456">
        <ele>1424.33</ele>
        <time>2018-09-11T12:28:34Z</time>
      </trkpt>
      <trkpt lat="45.79488" lon="6.72453">
        <ele>1424.33</ele>
        <time>2018-09-11T12:28:35Z</time>
      </trkpt>
      <trkpt lat="45.79487" lon="6.72452">
        <ele>1424.81</ele>
        <time>2018-09-11T12:28:36Z</time>
      </trkpt>
      <trkpt lat="45.79473" lon="6.72426">
        <ele>1425.77</ele>
        <time>2018-09-11T12:28:47Z</time>
      </trkpt>
      <trkpt lat="45.7946" lon="6.72401">
        <ele>1425.29</ele>
        <time>2018-09-11T12:29:00Z</time>
      </trkpt>
      <trkpt lat="45.79443" lon="6.72385">
        <ele>1428.66</ele>
        <time>2018-09-11T12:29:15Z</time>
      </trkpt>
      <trkpt lat="45.79438" lon="6.72382">
        <ele>1432.02</ele>
        <time>2018-09-11T12:29:28Z</time>
      </trkpt>
      <trkpt lat="45.79436" lon="6.7238">
        <ele>1434.91</ele>
        <time>2018-09-11T12:29:40Z</time>
      </trkpt>
      <trkpt lat="45.79435" lon="6.72379">
        <ele>1435.39</ele>
        <time>2018-09-11T12:29:42Z</time>
      </trkpt>
      <trkpt lat="45.79432" lon="6.72378">
        <ele>1438.27</ele>
        <time>2018-09-11T12:29:53Z</time>
      </trkpt>
      <trkpt lat="45.79432" lon="6.72377">
        <ele>1438.27</ele>
        <time>2018-09-11T12:29:54Z</time>
      </trkpt>
      <trkpt lat="45.79427" lon="6.72375">
        <ele>1440.19</ele>
        <time>2018-09-11T12:30:03Z</time>
      </trkpt>
      <trkpt lat="45.79424" lon="6.72372">
        <ele>1441.63</ele>
        <time>2018-09-11T12:30:09Z</time>
      </trkpt>
      <trkpt lat="45.79423" lon="6.72367">
        <ele>1443.08</ele>
        <time>2018-09-11T12:30:15Z</time>
      </trkpt>
      <trkpt lat="45.7942" lon="6.72364">
        <ele>1444.04</ele>
        <time>2018-09-11T12:30:22Z</time>
      </trkpt>
      <trkpt lat="45.79416" lon="6.72363">
        <ele>1445.48</ele>
        <time>2018-09-11T12:30:28Z</time>
      </trkpt>
      <trkpt lat="45.79413" lon="6.72355">
        <ele>1448.36</ele>
        <time>2018-09-11T12:30:40Z</time>
      </trkpt>
      <trkpt lat="45.7941" lon="6.72345">
        <ele>1450.77</ele>
        <time>2018-09-11T12:30:52Z</time>
      </trkpt>
      <trkpt lat="45.79407" lon="6.72332">
        <ele>1452.69</ele>
        <time>2018-09-11T12:31:04Z</time>
      </trkpt>
      <trkpt lat="45.79406" lon="6.7233">
        <ele>1452.69</ele>
        <time>2018-09-11T12:31:05Z</time>
      </trkpt>
      <trkpt lat="45.79405" lon="6.72328">
        <ele>1452.69</ele>
        <time>2018-09-11T12:31:06Z</time>
      </trkpt>
      <trkpt lat="45.79404" lon="6.72326">
        <ele>1452.69</ele>
        <time>2018-09-11T12:31:07Z</time>
      </trkpt>
      <trkpt lat="45.79403" lon="6.72324">
        <ele>1452.69</ele>
        <time>2018-09-11T12:31:08Z</time>
      </trkpt>
      <trkpt lat="45.79402" lon="6.72322">
        <ele>1452.69</ele>
        <time>2018-09-11T12:31:09Z</time>
      </trkpt>
      <trkpt lat="45.794" lon="6.72321">
        <ele>1453.17</ele>
        <time>2018-09-11T12:31:10Z</time>
      </trkpt>
      <trkpt lat="45.79399" lon="6.72321">
        <ele>1453.17</ele>
        <time>2018-09-11T12:31:11Z</time>
      </trkpt>
      <trkpt lat="45.79399" lon="6.72321">
        <ele>1453.17</ele>
        <time>2018-09-11T12:31:12Z</time>
      </trkpt>
      <trkpt lat="45.79396" lon="6.7232">
        <ele>1454.13</ele>
        <time>2018-09-11T12:31:15Z</time>
      </trkpt>
      <trkpt lat="45.79395" lon="6.7232">
        <ele>1454.61</ele>
        <time>2018-09-11T12:31:16Z</time>
      </trkpt>
      <trkpt lat="45.79394" lon="6.72319">
        <ele>1455.09</ele>
        <time>2018-09-11T12:31:17Z</time>
      </trkpt>
      <trkpt lat="45.79393" lon="6.72318">
        <ele>1455.57</ele>
        <time>2018-09-11T12:31:18Z</time>
      </trkpt>
      <trkpt lat="45.79384" lon="6.72313">
        <ele>1458.46</ele>
        <time>2018-09-11T12:31:28Z</time>
      </trkpt>
      <trkpt lat="45.79375" lon="6.72307">
        <ele>1461.82</ele>
        <time>2018-09-11T12:31:39Z</time>
      </trkpt>
      <trkpt lat="45.79366" lon="6.72302">
        <ele>1465.19</ele>
        <time>2018-09-11T12:31:48Z</time>
      </trkpt>
      <trkpt lat="45.79353" lon="6.72303">
        <ele>1468.55</ele>
        <time>2018-09-11T12:32:01Z</time>
      </trkpt>
      <trkpt lat="45.79329" lon="6.72287">
        <ele>1470.95</ele>
        <time>2018-09-11T12:32:19Z</time>
      </trkpt>
      <trkpt lat="45.79328" lon="6.72286">
        <ele>1470.47</ele>
        <time>2018-09-11T12:32:33Z</time>
      </trkpt>
      <trkpt lat="45.79326" lon="6.72283">
        <ele>1470.95</ele>
        <time>2018-09-11T12:32:39Z</time>
      </trkpt>
      <trkpt lat="45.79322" lon="6.72278">
        <ele>1470.47</ele>
        <time>2018-09-11T12:32:43Z</time>
      </trkpt>
      <trkpt lat="45.79319" lon="6.72276">
        <ele>1470.47</ele>
        <time>2018-09-11T12:32:44Z</time>
      </trkpt>
      <trkpt lat="45.79317" lon="6.72274">
        <ele>1470.47</ele>
        <time>2018-09-11T12:32:45Z</time>
      </trkpt>
      <trkpt lat="45.79315" lon="6.72272">
        <ele>1469.99</ele>
        <time>2018-09-11T12:32:46Z</time>
      </trkpt>
      <trkpt lat="45.79314" lon="6.7227">
        <ele>1469.99</ele>
        <time>2018-09-11T12:32:47Z</time>
      </trkpt>
      <trkpt lat="45.79312" lon="6.72267">
        <ele>1469.99</ele>
        <time>2018-09-11T12:32:48Z</time>
      </trkpt>
      <trkpt lat="45.79311" lon="6.72265">
        <ele>1469.51</ele>
        <time>2018-09-11T12:32:49Z</time>
      </trkpt>
      <trkpt lat="45.79309" lon="6.72263">
        <ele>1469.51</ele>
        <time>2018-09-11T12:32:50Z</time>
      </trkpt>
      <trkpt lat="45.79307" lon="6.72262">
        <ele>1469.03</ele>
        <time>2018-09-11T12:32:51Z</time>
      </trkpt>
      <trkpt lat="45.79306" lon="6.72261">
        <ele>1469.03</ele>
        <time>2018-09-11T12:32:52Z</time>
      </trkpt>
      <trkpt lat="45.79304" lon="6.72261">
        <ele>1468.55</ele>
        <time>2018-09-11T12:32:53Z</time>
      </trkpt>
      <trkpt lat="45.79303" lon="6.7226">
        <ele>1468.07</ele>
        <time>2018-09-11T12:32:54Z</time>
      </trkpt>
      <trkpt lat="45.79301" lon="6.7226">
        <ele>1468.07</ele>
        <time>2018-09-11T12:32:55Z</time>
      </trkpt>
      <trkpt lat="45.793" lon="6.7226">
        <ele>1468.07</ele>
        <time>2018-09-11T12:32:56Z</time>
      </trkpt>
      <trkpt lat="45.79291" lon="6.72262">
        <ele>1466.15</ele>
        <time>2018-09-11T12:33:01Z</time>
      </trkpt>
      <trkpt lat="45.79289" lon="6.72261">
        <ele>1465.67</ele>
        <time>2018-09-11T12:33:02Z</time>
      </trkpt>
      <trkpt lat="45.79287" lon="6.7226">
        <ele>1465.19</ele>
        <time>2018-09-11T12:33:03Z</time>
      </trkpt>
      <trkpt lat="45.79285" lon="6.72258">
        <ele>1465.19</ele>
        <time>2018-09-11T12:33:04Z</time>
      </trkpt>
      <trkpt lat="45.79282" lon="6.72257">
        <ele>1464.71</ele>
        <time>2018-09-11T12:33:05Z</time>
      </trkpt>
      <trkpt lat="45.7928" lon="6.72255">
        <ele>1464.23</ele>
        <time>2018-09-11T12:33:06Z</time>
      </trkpt>
      <trkpt lat="45.79279" lon="6.72253">
        <ele>1463.26</ele>
        <time>2018-09-11T12:33:07Z</time>
      </trkpt>
      <trkpt lat="45.79277" lon="6.72252">
        <ele>1462.78</ele>
        <time>2018-09-11T12:33:08Z</time>
      </trkpt>
      <trkpt lat="45.79276" lon="6.72251">
        <ele>1462.78</ele>
        <time>2018-09-11T12:33:09Z</time>
      </trkpt>
      <trkpt lat="45.79266" lon="6.7225">
        <ele>1460.86</ele>
        <time>2018-09-11T12:33:13Z</time>
      </trkpt>
      <trkpt lat="45.79264" lon="6.72251">
        <ele>1460.38</ele>
        <time>2018-09-11T12:33:14Z</time>
      </trkpt>
      <trkpt lat="45.79262" lon="6.72252">
        <ele>1460.38</ele>
        <time>2018-09-11T12:33:15Z</time>
      </trkpt>
      <trkpt lat="45.79259" lon="6.72252">
        <ele>1459.9</ele>
        <time>2018-09-11T12:33:16Z</time>
      </trkpt>
      <trkpt lat="45.79257" lon="6.72253">
        <ele>1459.42</ele>
        <time>2018-09-11T12:33:17Z</time>
      </trkpt>
      <trkpt lat="45.79255" lon="6.72253">
        <ele>1458.94</ele>
        <time>2018-09-11T12:33:18Z</time>
      </trkpt>
      <trkpt lat="45.79243" lon="6.72252">
        <ele>1455.57</ele>
        <time>2018-09-11T12:33:25Z</time>
      </trkpt>
      <trkpt lat="45.79222" lon="6.72255">
        <ele>1452.69</ele>
        <time>2018-09-11T12:33:36Z</time>
      </trkpt>
      <trkpt lat="45.79221" lon="6.72256">
        <ele>1452.69</ele>
        <time>2018-09-11T12:33:37Z</time>
      </trkpt>
      <trkpt lat="45.79219" lon="6.72256">
        <ele>1452.21</ele>
        <time>2018-09-11T12:33:38Z</time>
      </trkpt>
      <trkpt lat="45.79217" lon="6.72257">
        <ele>1451.25</ele>
        <time>2018-09-11T12:33:39Z</time>
      </trkpt>
      <trkpt lat="45.79215" lon="6.72258">
        <ele>1450.77</ele>
        <time>2018-09-11T12:33:40Z</time>
      </trkpt>
      <trkpt lat="45.79212" lon="6.72259">
        <ele>1450.29</ele>
        <time>2018-09-11T12:33:41Z</time>
      </trkpt>
      <trkpt lat="45.7921" lon="6.72258">
        <ele>1449.81</ele>
        <time>2018-09-11T12:33:42Z</time>
      </trkpt>
      <trkpt lat="45.79206" lon="6.72257">
        <ele>1448.84</ele>
        <time>2018-09-11T12:33:43Z</time>
      </trkpt>
      <trkpt lat="45.79204" lon="6.72255">
        <ele>1448.84</ele>
        <time>2018-09-11T12:33:44Z</time>
      </trkpt>
      <trkpt lat="45.79201" lon="6.72253">
        <ele>1448.36</ele>
        <time>2018-09-11T12:33:45Z</time>
      </trkpt>
      <trkpt lat="45.79196" lon="6.72251">
        <ele>1447.4</ele>
        <time>2018-09-11T12:33:47Z</time>
      </trkpt>
      <trkpt lat="45.79172" lon="6.72248">
        <ele>1444.52</ele>
        <time>2018-09-11T12:33:55Z</time>
      </trkpt>
      <trkpt lat="45.79169" lon="6.72248">
        <ele>1444.04</ele>
        <time>2018-09-11T12:33:56Z</time>
      </trkpt>
      <trkpt lat="45.79152" lon="6.72253">
        <ele>1440.67</ele>
        <time>2018-09-11T12:34:03Z</time>
      </trkpt>
      <trkpt lat="45.79137" lon="6.72258">
        <ele>1437.79</ele>
        <time>2018-09-11T12:34:10Z</time>
      </trkpt>
      <trkpt lat="45.79117" lon="6.72257">
        <ele>1434.91</ele>
        <time>2018-09-11T12:34:19Z</time>
      </trkpt>
      <trkpt lat="45.7911" lon="6.72253">
        <ele>1434.42</ele>
        <time>2018-09-11T12:34:22Z</time>
      </trkpt>
      <trkpt lat="45.79109" lon="6.72252">
        <ele>1434.42</ele>
        <time>2018-09-11T12:34:23Z</time>
      </trkpt>
      <trkpt lat="45.79105" lon="6.72251">
        <ele>1434.42</ele>
        <time>2018-09-11T12:34:25Z</time>
      </trkpt>
      <trkpt lat="45.79104" lon="6.7225">
        <ele>1434.42</ele>
        <time>2018-09-11T12:34:26Z</time>
      </trkpt>
      <trkpt lat="45.79102" lon="6.72251">
        <ele>1433.94</ele>
        <time>2018-09-11T12:34:27Z</time>
      </trkpt>
      <trkpt lat="45.791" lon="6.72251">
        <ele>1433.46</ele>
        <time>2018-09-11T12:34:28Z</time>
      </trkpt>
      <trkpt lat="45.79099" lon="6.72252">
        <ele>1432.98</ele>
        <time>2018-09-11T12:34:29Z</time>
      </trkpt>
      <trkpt lat="45.79098" lon="6.72252">
        <ele>1432.98</ele>
        <time>2018-09-11T12:34:30Z</time>
      </trkpt>
      <trkpt lat="45.79096" lon="6.72252">
        <ele>1432.98</ele>
        <time>2018-09-11T12:34:31Z</time>
      </trkpt>
      <trkpt lat="45.79094" lon="6.72252">
        <ele>1432.5</ele>
        <time>2018-09-11T12:34:32Z</time>
      </trkpt>
      <trkpt lat="45.79092" lon="6.72253">
        <ele>1432.02</ele>
        <time>2018-09-11T12:34:33Z</time>
      </trkpt>
      <trkpt lat="45.7909" lon="6.72253">
        <ele>1431.54</ele>
        <time>2018-09-11T12:34:34Z</time>
      </trkpt>
      <trkpt lat="45.79067" lon="6.72249">
        <ele>1430.1</ele>
        <time>2018-09-11T12:34:46Z</time>
      </trkpt>
      <trkpt lat="45.79056" lon="6.72242">
        <ele>1430.1</ele>
        <time>2018-09-11T12:34:52Z</time>
      </trkpt>
      <trkpt lat="45.79054" lon="6.72242">
        <ele>1430.1</ele>
        <time>2018-09-11T12:34:53Z</time>
      </trkpt>
      <trkpt lat="45.79052" lon="6.72243">
        <ele>1430.1</ele>
        <time>2018-09-11T12:34:54Z</time>
      </trkpt>
      <trkpt lat="45.79047" lon="6.72242">
        <ele>1430.58</ele>
        <time>2018-09-11T12:35:00Z</time>
      </trkpt>
      <trkpt lat="45.79045" lon="6.72241">
        <ele>1430.1</ele>
        <time>2018-09-11T12:35:01Z</time>
      </trkpt>
      <trkpt lat="45.79043" lon="6.72241">
        <ele>1430.1</ele>
        <time>2018-09-11T12:35:02Z</time>
      </trkpt>
      <trkpt lat="45.79041" lon="6.72241">
        <ele>1429.62</ele>
        <time>2018-09-11T12:35:03Z</time>
      </trkpt>
      <trkpt lat="45.79038" lon="6.72239">
        <ele>1429.62</ele>
        <time>2018-09-11T12:35:04Z</time>
      </trkpt>
      <trkpt lat="45.79036" lon="6.72238">
        <ele>1429.62</ele>
        <time>2018-09-11T12:35:05Z</time>
      </trkpt>
      <trkpt lat="45.79034" lon="6.72238">
        <ele>1429.62</ele>
        <time>2018-09-11T12:35:06Z</time>
      </trkpt>
      <trkpt lat="45.79033" lon="6.72237">
        <ele>1429.62</ele>
        <time>2018-09-11T12:35:07Z</time>
      </trkpt>
      <trkpt lat="45.79031" lon="6.72236">
        <ele>1429.62</ele>
        <time>2018-09-11T12:35:08Z</time>
      </trkpt>
      <trkpt lat="45.79028" lon="6.72235">
        <ele>1429.62</ele>
        <time>2018-09-11T12:35:09Z</time>
      </trkpt>
      <trkpt lat="45.79009" lon="6.72215">
        <ele>1428.18</ele>
        <time>2018-09-11T12:35:19Z</time>
      </trkpt>
      <trkpt lat="45.78999" lon="6.72207">
        <ele>1427.21</ele>
        <time>2018-09-11T12:35:24Z</time>
      </trkpt>
      <trkpt lat="45.78998" lon="6.72204">
        <ele>1427.21</ele>
        <time>2018-09-11T12:35:25Z</time>
      </trkpt>
      <trkpt lat="45.78997" lon="6.72201">
        <ele>1426.73</ele>
        <time>2018-09-11T12:35:26Z</time>
      </trkpt>
      <trkpt lat="45.78997" lon="6.72198">
        <ele>1426.73</ele>
        <time>2018-09-11T12:35:27Z</time>
      </trkpt>
      <trkpt lat="45.78998" lon="6.72195">
        <ele>1426.73</ele>
        <time>2018-09-11T12:35:28Z</time>
      </trkpt>
      <trkpt lat="45.78997" lon="6.72191">
        <ele>1426.73</ele>
        <time>2018-09-11T12:35:29Z</time>
      </trkpt>
      <trkpt lat="45.78997" lon="6.72188">
        <ele>1426.25</ele>
        <time>2018-09-11T12:35:30Z</time>
      </trkpt>
      <trkpt lat="45.78996" lon="6.72184">
        <ele>1426.25</ele>
        <time>2018-09-11T12:35:31Z</time>
      </trkpt>
      <trkpt lat="45.78995" lon="6.72181">
        <ele>1425.77</ele>
        <time>2018-09-11T12:35:32Z</time>
      </trkpt>
      <trkpt lat="45.78993" lon="6.72177">
        <ele>1425.77</ele>
        <time>2018-09-11T12:35:33Z</time>
      </trkpt>
      <trkpt lat="45.78992" lon="6.72173">
        <ele>1425.29</ele>
        <time>2018-09-11T12:35:34Z</time>
      </trkpt>
      <trkpt lat="45.78989" lon="6.7217">
        <ele>1425.29</ele>
        <time>2018-09-11T12:35:35Z</time>
      </trkpt>
      <trkpt lat="45.78987" lon="6.72167">
        <ele>1424.81</ele>
        <time>2018-09-11T12:35:36Z</time>
      </trkpt>
      <trkpt lat="45.78984" lon="6.72165">
        <ele>1424.33</ele>
        <time>2018-09-11T12:35:37Z</time>
      </trkpt>
      <trkpt lat="45.78976" lon="6.72158">
        <ele>1423.37</ele>
        <time>2018-09-11T12:35:41Z</time>
      </trkpt>
      <trkpt lat="45.78974" lon="6.72156">
        <ele>1423.37</ele>
        <time>2018-09-11T12:35:42Z</time>
      </trkpt>
      <trkpt lat="45.78972" lon="6.72153">
        <ele>1423.37</ele>
        <time>2018-09-11T12:35:43Z</time>
      </trkpt>
      <trkpt lat="45.78953" lon="6.72133">
        <ele>1420.97</ele>
        <time>2018-09-11T12:35:52Z</time>
      </trkpt>
      <trkpt lat="45.78937" lon="6.72117">
        <ele>1417.6</ele>
        <time>2018-09-11T12:35:59Z</time>
      </trkpt>
      <trkpt lat="45.78913" lon="6.72103">
        <ele>1415.68</ele>
        <time>2018-09-11T12:36:08Z</time>
      </trkpt>
      <trkpt lat="45.7889" lon="6.721">
        <ele>1415.2</ele>
        <time>2018-09-11T12:36:17Z</time>
      </trkpt>
      <trkpt lat="45.78888" lon="6.72102">
        <ele>1415.68</ele>
        <time>2018-09-11T12:36:19Z</time>
      </trkpt>
      <trkpt lat="45.78883" lon="6.72106">
        <ele>1417.12</ele>
        <time>2018-09-11T12:36:23Z</time>
      </trkpt>
      <trkpt lat="45.78882" lon="6.72108">
        <ele>1417.6</ele>
        <time>2018-09-11T12:36:24Z</time>
      </trkpt>
      <trkpt lat="45.7888" lon="6.72109">
        <ele>1417.6</ele>
        <time>2018-09-11T12:36:25Z</time>
      </trkpt>
      <trkpt lat="45.78862" lon="6.72118">
        <ele>1420.97</ele>
        <time>2018-09-11T12:36:36Z</time>
      </trkpt>
      <trkpt lat="45.78842" lon="6.72131">
        <ele>1422.41</ele>
        <time>2018-09-11T12:36:48Z</time>
      </trkpt>
      <trkpt lat="45.78826" lon="6.72143">
        <ele>1424.81</ele>
        <time>2018-09-11T12:36:57Z</time>
      </trkpt>
      <trkpt lat="45.78807" lon="6.72149">
        <ele>1426.73</ele>
        <time>2018-09-11T12:37:06Z</time>
      </trkpt>
      <trkpt lat="45.78806" lon="6.7215">
        <ele>1426.73</ele>
        <time>2018-09-11T12:37:07Z</time>
      </trkpt>
      <trkpt lat="45.78804" lon="6.7215">
        <ele>1426.73</ele>
        <time>2018-09-11T12:37:08Z</time>
      </trkpt>
      <trkpt lat="45.78778" lon="6.72151">
        <ele>1427.21</ele>
        <time>2018-09-11T12:37:21Z</time>
      </trkpt>
      <trkpt lat="45.78758" lon="6.72137">
        <ele>1428.18</ele>
        <time>2018-09-11T12:37:29Z</time>
      </trkpt>
      <trkpt lat="45.78756" lon="6.72136">
        <ele>1428.18</ele>
        <time>2018-09-11T12:37:30Z</time>
      </trkpt>
      <trkpt lat="45.78738" lon="6.72125">
        <ele>1431.54</ele>
        <time>2018-09-11T12:37:40Z</time>
      </trkpt>
      <trkpt lat="45.78712" lon="6.72116">
        <ele>1433.94</ele>
        <time>2018-09-11T12:37:53Z</time>
      </trkpt>
      <trkpt lat="45.7869" lon="6.72107">
        <ele>1434.42</ele>
        <time>2018-09-11T12:38:04Z</time>
      </trkpt>
      <trkpt lat="45.78688" lon="6.72105">
        <ele>1434.42</ele>
        <time>2018-09-11T12:38:05Z</time>
      </trkpt>
      <trkpt lat="45.78668" lon="6.72076">
        <ele>1436.35</ele>
        <time>2018-09-11T12:38:17Z</time>
      </trkpt>
      <trkpt lat="45.78659" lon="6.72067">
        <ele>1436.83</ele>
        <time>2018-09-11T12:38:22Z</time>
      </trkpt>
      <trkpt lat="45.78657" lon="6.72064">
        <ele>1436.83</ele>
        <time>2018-09-11T12:38:23Z</time>
      </trkpt>
      <trkpt lat="45.78656" lon="6.72064">
        <ele>1436.83</ele>
        <time>2018-09-11T12:38:24Z</time>
      </trkpt>
      <trkpt lat="45.78634" lon="6.72054">
        <ele>1435.39</ele>
        <time>2018-09-11T12:38:46Z</time>
      </trkpt>
      <trkpt lat="45.78611" lon="6.72046">
        <ele>1434.42</ele>
        <time>2018-09-11T12:39:00Z</time>
      </trkpt>
      <trkpt lat="45.78588" lon="6.72043">
        <ele>1431.06</ele>
        <time>2018-09-11T12:39:10Z</time>
      </trkpt>
      <trkpt lat="45.78571" lon="6.7204">
        <ele>1430.58</ele>
        <time>2018-09-11T12:39:18Z</time>
      </trkpt>
      <trkpt lat="45.78568" lon="6.72039">
        <ele>1430.58</ele>
        <time>2018-09-11T12:39:19Z</time>
      </trkpt>
      <trkpt lat="45.78566" lon="6.72038">
        <ele>1430.1</ele>
        <time>2018-09-11T12:39:20Z</time>
      </trkpt>
      <trkpt lat="45.78563" lon="6.72037">
        <ele>1430.1</ele>
        <time>2018-09-11T12:39:21Z</time>
      </trkpt>
      <trkpt lat="45.7856" lon="6.72036">
        <ele>1430.1</ele>
        <time>2018-09-11T12:39:22Z</time>
      </trkpt>
      <trkpt lat="45.7854" lon="6.72032">
        <ele>1430.58</ele>
        <time>2018-09-11T12:39:30Z</time>
      </trkpt>
      <trkpt lat="45.78537" lon="6.72031">
        <ele>1430.58</ele>
        <time>2018-09-11T12:39:31Z</time>
      </trkpt>
      <trkpt lat="45.78535" lon="6.7203">
        <ele>1430.58</ele>
        <time>2018-09-11T12:39:32Z</time>
      </trkpt>
      <trkpt lat="45.78533" lon="6.72029">
        <ele>1431.06</ele>
        <time>2018-09-11T12:39:33Z</time>
      </trkpt>
      <trkpt lat="45.78531" lon="6.72028">
        <ele>1431.06</ele>
        <time>2018-09-11T12:39:34Z</time>
      </trkpt>
      <trkpt lat="45.78528" lon="6.72027">
        <ele>1430.58</ele>
        <time>2018-09-11T12:39:35Z</time>
      </trkpt>
      <trkpt lat="45.78526" lon="6.72025">
        <ele>1430.58</ele>
        <time>2018-09-11T12:39:36Z</time>
      </trkpt>
      <trkpt lat="45.78523" lon="6.72021">
        <ele>1430.1</ele>
        <time>2018-09-11T12:39:37Z</time>
      </trkpt>
      <trkpt lat="45.78521" lon="6.72019">
        <ele>1429.62</ele>
        <time>2018-09-11T12:39:38Z</time>
      </trkpt>
      <trkpt lat="45.78519" lon="6.72016">
        <ele>1429.62</ele>
        <time>2018-09-11T12:39:39Z</time>
      </trkpt>
      <trkpt lat="45.78516" lon="6.72013">
        <ele>1429.62</ele>
        <time>2018-09-11T12:39:40Z</time>
      </trkpt>
      <trkpt lat="45.78514" lon="6.72011">
        <ele>1429.62</ele>
        <time>2018-09-11T12:39:41Z</time>
      </trkpt>
      <trkpt lat="45.78513" lon="6.72009">
        <ele>1429.62</ele>
        <time>2018-09-11T12:39:42Z</time>
      </trkpt>
      <trkpt lat="45.7851" lon="6.72006">
        <ele>1429.62</ele>
        <time>2018-09-11T12:39:43Z</time>
      </trkpt>
      <trkpt lat="45.78502" lon="6.72001">
        <ele>1429.62</ele>
        <time>2018-09-11T12:39:47Z</time>
      </trkpt>
      <trkpt lat="45.785" lon="6.72">
        <ele>1430.1</ele>
        <time>2018-09-11T12:39:48Z</time>
      </trkpt>
      <trkpt lat="45.78498" lon="6.72">
        <ele>1430.1</ele>
        <time>2018-09-11T12:39:49Z</time>
      </trkpt>
      <trkpt lat="45.78496" lon="6.72">
        <ele>1430.1</ele>
        <time>2018-09-11T12:39:50Z</time>
      </trkpt>
      <trkpt lat="45.78494" lon="6.72">
        <ele>1430.1</ele>
        <time>2018-09-11T12:39:51Z</time>
      </trkpt>
      <trkpt lat="45.7847" lon="6.71992">
        <ele>1428.66</ele>
        <time>2018-09-11T12:40:01Z</time>
      </trkpt>
      <trkpt lat="45.78459" lon="6.71985">
        <ele>1428.66</ele>
        <time>2018-09-11T12:40:06Z</time>
      </trkpt>
      <trkpt lat="45.78455" lon="6.71982">
        <ele>1428.66</ele>
        <time>2018-09-11T12:40:08Z</time>
      </trkpt>
      <trkpt lat="45.78453" lon="6.7198">
        <ele>1428.66</ele>
        <time>2018-09-11T12:40:09Z</time>
      </trkpt>
      <trkpt lat="45.78451" lon="6.71978">
        <ele>1429.14</ele>
        <time>2018-09-11T12:40:10Z</time>
      </trkpt>
      <trkpt lat="45.78449" lon="6.71976">
        <ele>1429.14</ele>
        <time>2018-09-11T12:40:11Z</time>
      </trkpt>
      <trkpt lat="45.78447" lon="6.71974">
        <ele>1429.14</ele>
        <time>2018-09-11T12:40:12Z</time>
      </trkpt>
      <trkpt lat="45.78445" lon="6.71972">
        <ele>1429.14</ele>
        <time>2018-09-11T12:40:13Z</time>
      </trkpt>
      <trkpt lat="45.78424" lon="6.7195">
        <ele>1426.73</ele>
        <time>2018-09-11T12:40:23Z</time>
      </trkpt>
      <trkpt lat="45.7841" lon="6.71936">
        <ele>1424.81</ele>
        <time>2018-09-11T12:40:31Z</time>
      </trkpt>
      <trkpt lat="45.78408" lon="6.71934">
        <ele>1424.33</ele>
        <time>2018-09-11T12:40:32Z</time>
      </trkpt>
      <trkpt lat="45.78407" lon="6.71931">
        <ele>1424.33</ele>
        <time>2018-09-11T12:40:33Z</time>
      </trkpt>
      <trkpt lat="45.78405" lon="6.71926">
        <ele>1423.37</ele>
        <time>2018-09-11T12:40:35Z</time>
      </trkpt>
      <trkpt lat="45.78403" lon="6.71923">
        <ele>1423.37</ele>
        <time>2018-09-11T12:40:36Z</time>
      </trkpt>
      <trkpt lat="45.78386" lon="6.71901">
        <ele>1420</ele>
        <time>2018-09-11T12:40:45Z</time>
      </trkpt>
      <trkpt lat="45.78366" lon="6.71887">
        <ele>1417.12</ele>
        <time>2018-09-11T12:40:55Z</time>
      </trkpt>
      <trkpt lat="45.78361" lon="6.71885">
        <ele>1416.64</ele>
        <time>2018-09-11T12:40:57Z</time>
      </trkpt>
      <trkpt lat="45.78356" lon="6.71879">
        <ele>1415.2</ele>
        <time>2018-09-11T12:41:00Z</time>
      </trkpt>
      <trkpt lat="45.7835" lon="6.71874">
        <ele>1414.24</ele>
        <time>2018-09-11T12:41:03Z</time>
      </trkpt>
      <trkpt lat="45.78349" lon="6.71873">
        <ele>1414.24</ele>
        <time>2018-09-11T12:41:04Z</time>
      </trkpt>
      <trkpt lat="45.78331" lon="6.7186">
        <ele>1410.87</ele>
        <time>2018-09-11T12:41:14Z</time>
      </trkpt>
      <trkpt lat="45.78326" lon="6.71855">
        <ele>1409.91</ele>
        <time>2018-09-11T12:41:17Z</time>
      </trkpt>
      <trkpt lat="45.78324" lon="6.71854">
        <ele>1409.43</ele>
        <time>2018-09-11T12:41:18Z</time>
      </trkpt>
      <trkpt lat="45.78321" lon="6.71851">
        <ele>1409.43</ele>
        <time>2018-09-11T12:41:19Z</time>
      </trkpt>
      <trkpt lat="45.78319" lon="6.71849">
        <ele>1409.43</ele>
        <time>2018-09-11T12:41:20Z</time>
      </trkpt>
      <trkpt lat="45.78318" lon="6.71848">
        <ele>1408.95</ele>
        <time>2018-09-11T12:41:21Z</time>
      </trkpt>
      <trkpt lat="45.78315" lon="6.71846">
        <ele>1408.47</ele>
        <time>2018-09-11T12:41:22Z</time>
      </trkpt>
      <trkpt lat="45.78313" lon="6.71845">
        <ele>1408.47</ele>
        <time>2018-09-11T12:41:23Z</time>
      </trkpt>
      <trkpt lat="45.78311" lon="6.71843">
        <ele>1408.47</ele>
        <time>2018-09-11T12:41:24Z</time>
      </trkpt>
      <trkpt lat="45.78309" lon="6.71842">
        <ele>1408.47</ele>
        <time>2018-09-11T12:41:25Z</time>
      </trkpt>
      <trkpt lat="45.78307" lon="6.71842">
        <ele>1408.95</ele>
        <time>2018-09-11T12:41:26Z</time>
      </trkpt>
      <trkpt lat="45.78286" lon="6.71828">
        <ele>1405.58</ele>
        <time>2018-09-11T12:41:37Z</time>
      </trkpt>
      <trkpt lat="45.78275" lon="6.71814">
        <ele>1402.22</ele>
        <time>2018-09-11T12:41:43Z</time>
      </trkpt>
      <trkpt lat="45.78267" lon="6.71792">
        <ele>1399.82</ele>
        <time>2018-09-11T12:41:49Z</time>
      </trkpt>
      <trkpt lat="45.78267" lon="6.71788">
        <ele>1399.34</ele>
        <time>2018-09-11T12:41:50Z</time>
      </trkpt>
      <trkpt lat="45.7827" lon="6.71756">
        <ele>1398.37</ele>
        <time>2018-09-11T12:42:00Z</time>
      </trkpt>
      <trkpt lat="45.78273" lon="6.71726">
        <ele>1396.93</ele>
        <time>2018-09-11T12:42:08Z</time>
      </trkpt>
      <trkpt lat="45.78272" lon="6.71722">
        <ele>1396.93</ele>
        <time>2018-09-11T12:42:09Z</time>
      </trkpt>
      <trkpt lat="45.78259" lon="6.71699">
        <ele>1396.93</ele>
        <time>2018-09-11T12:42:17Z</time>
      </trkpt>
      <trkpt lat="45.78243" lon="6.71679">
        <ele>1395.97</ele>
        <time>2018-09-11T12:42:25Z</time>
      </trkpt>
      <trkpt lat="45.78227" lon="6.71658">
        <ele>1395.49</ele>
        <time>2018-09-11T12:42:33Z</time>
      </trkpt>
      <trkpt lat="45.7821" lon="6.71645">
        <ele>1395.01</ele>
        <time>2018-09-11T12:43:01Z</time>
      </trkpt>
      <trkpt lat="45.78188" lon="6.71633">
        <ele>1393.09</ele>
        <time>2018-09-11T12:43:11Z</time>
      </trkpt>
      <trkpt lat="45.78168" lon="6.71621">
        <ele>1389.72</ele>
        <time>2018-09-11T12:43:25Z</time>
      </trkpt>
      <trkpt lat="45.78166" lon="6.71619">
        <ele>1389.24</ele>
        <time>2018-09-11T12:43:26Z</time>
      </trkpt>
      <trkpt lat="45.78165" lon="6.71618">
        <ele>1388.76</ele>
        <time>2018-09-11T12:43:27Z</time>
      </trkpt>
      <trkpt lat="45.78163" lon="6.71617">
        <ele>1388.76</ele>
        <time>2018-09-11T12:43:28Z</time>
      </trkpt>
      <trkpt lat="45.78161" lon="6.71615">
        <ele>1388.28</ele>
        <time>2018-09-11T12:43:29Z</time>
      </trkpt>
      <trkpt lat="45.78159" lon="6.71612">
        <ele>1387.8</ele>
        <time>2018-09-11T12:43:30Z</time>
      </trkpt>
      <trkpt lat="45.78158" lon="6.71609">
        <ele>1387.8</ele>
        <time>2018-09-11T12:43:31Z</time>
      </trkpt>
      <trkpt lat="45.78158" lon="6.71605">
        <ele>1387.32</ele>
        <time>2018-09-11T12:43:32Z</time>
      </trkpt>
      <trkpt lat="45.78158" lon="6.71602">
        <ele>1387.32</ele>
        <time>2018-09-11T12:43:33Z</time>
      </trkpt>
      <trkpt lat="45.78157" lon="6.71598">
        <ele>1386.84</ele>
        <time>2018-09-11T12:43:34Z</time>
      </trkpt>
      <trkpt lat="45.78157" lon="6.71594">
        <ele>1386.36</ele>
        <time>2018-09-11T12:43:35Z</time>
      </trkpt>
      <trkpt lat="45.78157" lon="6.7159">
        <ele>1386.36</ele>
        <time>2018-09-11T12:43:36Z</time>
      </trkpt>
      <trkpt lat="45.78173" lon="6.71565">
        <ele>1384.44</ele>
        <time>2018-09-11T12:43:46Z</time>
      </trkpt>
      <trkpt lat="45.78177" lon="6.71552">
        <ele>1382.99</ele>
        <time>2018-09-11T12:43:51Z</time>
      </trkpt>
      <trkpt lat="45.78175" lon="6.71551">
        <ele>1382.51</ele>
        <time>2018-09-11T12:43:52Z</time>
      </trkpt>
      <trkpt lat="45.78173" lon="6.71551">
        <ele>1382.51</ele>
        <time>2018-09-11T12:43:53Z</time>
      </trkpt>
      <trkpt lat="45.78157" lon="6.71552">
        <ele>1382.99</ele>
        <time>2018-09-11T12:44:01Z</time>
      </trkpt>
      <trkpt lat="45.78155" lon="6.71551">
        <ele>1382.99</ele>
        <time>2018-09-11T12:44:02Z</time>
      </trkpt>
      <trkpt lat="45.78154" lon="6.71551">
        <ele>1383.47</ele>
        <time>2018-09-11T12:44:03Z</time>
      </trkpt>
      <trkpt lat="45.78152" lon="6.71551">
        <ele>1383.47</ele>
        <time>2018-09-11T12:44:04Z</time>
      </trkpt>
      <trkpt lat="45.7815" lon="6.71551">
        <ele>1383.47</ele>
        <time>2018-09-11T12:44:05Z</time>
      </trkpt>
      <trkpt lat="45.78148" lon="6.71551">
        <ele>1383.96</ele>
        <time>2018-09-11T12:44:06Z</time>
      </trkpt>
      <trkpt lat="45.78146" lon="6.71551">
        <ele>1383.96</ele>
        <time>2018-09-11T12:44:07Z</time>
      </trkpt>
      <trkpt lat="45.78144" lon="6.71549">
        <ele>1384.44</ele>
        <time>2018-09-11T12:44:08Z</time>
      </trkpt>
      <trkpt lat="45.78143" lon="6.71549">
        <ele>1384.44</ele>
        <time>2018-09-11T12:44:09Z</time>
      </trkpt>
      <trkpt lat="45.78141" lon="6.71548">
        <ele>1384.44</ele>
        <time>2018-09-11T12:44:10Z</time>
      </trkpt>
      <trkpt lat="45.78139" lon="6.71547">
        <ele>1384.92</ele>
        <time>2018-09-11T12:44:11Z</time>
      </trkpt>
      <trkpt lat="45.78126" lon="6.71539">
        <ele>1387.8</ele>
        <time>2018-09-11T12:44:20Z</time>
      </trkpt>
      <trkpt lat="45.78125" lon="6.71539">
        <ele>1388.28</ele>
        <time>2018-09-11T12:44:21Z</time>
      </trkpt>
      <trkpt lat="45.78124" lon="6.71538">
        <ele>1388.76</ele>
        <time>2018-09-11T12:44:22Z</time>
      </trkpt>
      <trkpt lat="45.78123" lon="6.71537">
        <ele>1388.76</ele>
        <time>2018-09-11T12:44:23Z</time>
      </trkpt>
      <trkpt lat="45.78122" lon="6.71536">
        <ele>1389.24</ele>
        <time>2018-09-11T12:44:24Z</time>
      </trkpt>
      <trkpt lat="45.78121" lon="6.71535">
        <ele>1389.24</ele>
        <time>2018-09-11T12:44:25Z</time>
      </trkpt>
      <trkpt lat="45.7812" lon="6.71533">
        <ele>1389.72</ele>
        <time>2018-09-11T12:44:26Z</time>
      </trkpt>
      <trkpt lat="45.78119" lon="6.71531">
        <ele>1390.2</ele>
        <time>2018-09-11T12:44:27Z</time>
      </trkpt>
      <trkpt lat="45.78118" lon="6.71529">
        <ele>1390.2</ele>
        <time>2018-09-11T12:44:28Z</time>
      </trkpt>
      <trkpt lat="45.78103" lon="6.71519">
        <ele>1393.57</ele>
        <time>2018-09-11T12:44:38Z</time>
      </trkpt>
      <trkpt lat="45.7809" lon="6.71517">
        <ele>1395.49</ele>
        <time>2018-09-11T12:44:46Z</time>
      </trkpt>
      <trkpt lat="45.78089" lon="6.71517">
        <ele>1395.97</ele>
        <time>2018-09-11T12:44:47Z</time>
      </trkpt>
      <trkpt lat="45.78077" lon="6.71516">
        <ele>1397.41</ele>
        <time>2018-09-11T12:44:54Z</time>
      </trkpt>
      <trkpt lat="45.78061" lon="6.71508">
        <ele>1400.78</ele>
        <time>2018-09-11T12:45:07Z</time>
      </trkpt>
      <trkpt lat="45.7806" lon="6.71509">
        <ele>1401.26</ele>
        <time>2018-09-11T12:45:08Z</time>
      </trkpt>
      <trkpt lat="45.78051" lon="6.71526">
        <ele>1403.66</ele>
        <time>2018-09-11T12:45:34Z</time>
      </trkpt>
      <trkpt lat="45.78049" lon="6.71526">
        <ele>1403.66</ele>
        <time>2018-09-11T12:45:35Z</time>
      </trkpt>
      <trkpt lat="45.78048" lon="6.71528">
        <ele>1404.14</ele>
        <time>2018-09-11T12:45:36Z</time>
      </trkpt>
      <trkpt lat="45.78031" lon="6.71545">
        <ele>1407.03</ele>
        <time>2018-09-11T12:45:50Z</time>
      </trkpt>
      <trkpt lat="45.7802" lon="6.7157">
        <ele>1407.99</ele>
        <time>2018-09-11T12:46:00Z</time>
      </trkpt>
      <trkpt lat="45.78005" lon="6.7159">
        <ele>1408.95</ele>
        <time>2018-09-11T12:46:08Z</time>
      </trkpt>
      <trkpt lat="45.77988" lon="6.7161">
        <ele>1408.47</ele>
        <time>2018-09-11T12:46:16Z</time>
      </trkpt>
      <trkpt lat="45.77969" lon="6.71625">
        <ele>1408.95</ele>
        <time>2018-09-11T12:46:24Z</time>
      </trkpt>
      <trkpt lat="45.7796" lon="6.71634">
        <ele>1409.43</ele>
        <time>2018-09-11T12:46:29Z</time>
      </trkpt>
      <trkpt lat="45.77958" lon="6.71636">
        <ele>1409.43</ele>
        <time>2018-09-11T12:46:30Z</time>
      </trkpt>
      <trkpt lat="45.77955" lon="6.71638">
        <ele>1409.43</ele>
        <time>2018-09-11T12:46:31Z</time>
      </trkpt>
      <trkpt lat="45.77953" lon="6.71639">
        <ele>1409.43</ele>
        <time>2018-09-11T12:46:32Z</time>
      </trkpt>
      <trkpt lat="45.77951" lon="6.7164">
        <ele>1409.43</ele>
        <time>2018-09-11T12:46:33Z</time>
      </trkpt>
      <trkpt lat="45.77949" lon="6.71642">
        <ele>1409.91</ele>
        <time>2018-09-11T12:46:34Z</time>
      </trkpt>
      <trkpt lat="45.77947" lon="6.71643">
        <ele>1409.91</ele>
        <time>2018-09-11T12:46:35Z</time>
      </trkpt>
      <trkpt lat="45.77945" lon="6.71645">
        <ele>1409.91</ele>
        <time>2018-09-11T12:46:36Z</time>
      </trkpt>
      <trkpt lat="45.77943" lon="6.71646">
        <ele>1409.91</ele>
        <time>2018-09-11T12:46:37Z</time>
      </trkpt>
      <trkpt lat="45.77941" lon="6.71648">
        <ele>1409.91</ele>
        <time>2018-09-11T12:46:38Z</time>
      </trkpt>
      <trkpt lat="45.77939" lon="6.7165">
        <ele>1409.91</ele>
        <time>2018-09-11T12:46:39Z</time>
      </trkpt>
      <trkpt lat="45.7792" lon="6.71661">
        <ele>1409.43</ele>
        <time>2018-09-11T12:46:48Z</time>
      </trkpt>
      <trkpt lat="45.77897" lon="6.71658">
        <ele>1409.43</ele>
        <time>2018-09-11T12:46:57Z</time>
      </trkpt>
      <trkpt lat="45.7789" lon="6.7166">
        <ele>1409.91</ele>
        <time>2018-09-11T12:47:01Z</time>
      </trkpt>
      <trkpt lat="45.77889" lon="6.71663">
        <ele>1410.39</ele>
        <time>2018-09-11T12:47:02Z</time>
      </trkpt>
      <trkpt lat="45.77887" lon="6.71665">
        <ele>1410.39</ele>
        <time>2018-09-11T12:47:03Z</time>
      </trkpt>
      <trkpt lat="45.77887" lon="6.71668">
        <ele>1410.87</ele>
        <time>2018-09-11T12:47:04Z</time>
      </trkpt>
      <trkpt lat="45.77886" lon="6.7167">
        <ele>1410.87</ele>
        <time>2018-09-11T12:47:05Z</time>
      </trkpt>
      <trkpt lat="45.77885" lon="6.71673">
        <ele>1411.35</ele>
        <time>2018-09-11T12:47:06Z</time>
      </trkpt>
      <trkpt lat="45.77881" lon="6.71694">
        <ele>1411.35</ele>
        <time>2018-09-11T12:47:13Z</time>
      </trkpt>
      <trkpt lat="45.77881" lon="6.71696">
        <ele>1411.35</ele>
        <time>2018-09-11T12:47:14Z</time>
      </trkpt>
      <trkpt lat="45.77883" lon="6.71699">
        <ele>1411.35</ele>
        <time>2018-09-11T12:47:15Z</time>
      </trkpt>
      <trkpt lat="45.77884" lon="6.71701">
        <ele>1411.35</ele>
        <time>2018-09-11T12:47:16Z</time>
      </trkpt>
      <trkpt lat="45.77885" lon="6.71702">
        <ele>1411.83</ele>
        <time>2018-09-11T12:47:17Z</time>
      </trkpt>
      <trkpt lat="45.77886" lon="6.71704">
        <ele>1411.83</ele>
        <time>2018-09-11T12:47:18Z</time>
      </trkpt>
      <trkpt lat="45.77888" lon="6.71706">
        <ele>1412.31</ele>
        <time>2018-09-11T12:47:19Z</time>
      </trkpt>
      <trkpt lat="45.77889" lon="6.71707">
        <ele>1412.31</ele>
        <time>2018-09-11T12:47:20Z</time>
      </trkpt>
      <trkpt lat="45.7789" lon="6.71708">
        <ele>1412.79</ele>
        <time>2018-09-11T12:47:21Z</time>
      </trkpt>
      <trkpt lat="45.77891" lon="6.7171">
        <ele>1412.79</ele>
        <time>2018-09-11T12:47:22Z</time>
      </trkpt>
      <trkpt lat="45.77892" lon="6.71712">
        <ele>1413.28</ele>
        <time>2018-09-11T12:47:23Z</time>
      </trkpt>
      <trkpt lat="45.77893" lon="6.71713">
        <ele>1413.76</ele>
        <time>2018-09-11T12:47:24Z</time>
      </trkpt>
      <trkpt lat="45.77894" lon="6.71717">
        <ele>1414.24</ele>
        <time>2018-09-11T12:47:26Z</time>
      </trkpt>
      <trkpt lat="45.77895" lon="6.71718">
        <ele>1414.24</ele>
        <time>2018-09-11T12:47:27Z</time>
      </trkpt>
      <trkpt lat="45.77897" lon="6.7172">
        <ele>1414.72</ele>
        <time>2018-09-11T12:47:28Z</time>
      </trkpt>
      <trkpt lat="45.77899" lon="6.71723">
        <ele>1415.2</ele>
        <time>2018-09-11T12:47:29Z</time>
      </trkpt>
      <trkpt lat="45.779" lon="6.71724">
        <ele>1415.2</ele>
        <time>2018-09-11T12:47:30Z</time>
      </trkpt>
      <trkpt lat="45.77902" lon="6.71726">
        <ele>1415.68</ele>
        <time>2018-09-11T12:47:31Z</time>
      </trkpt>
      <trkpt lat="45.77903" lon="6.71729">
        <ele>1416.16</ele>
        <time>2018-09-11T12:47:32Z</time>
      </trkpt>
      <trkpt lat="45.77903" lon="6.71731">
        <ele>1416.16</ele>
        <time>2018-09-11T12:47:33Z</time>
      </trkpt>
      <trkpt lat="45.77903" lon="6.71733">
        <ele>1416.64</ele>
        <time>2018-09-11T12:47:34Z</time>
      </trkpt>
      <trkpt lat="45.77903" lon="6.71735">
        <ele>1417.12</ele>
        <time>2018-09-11T12:47:35Z</time>
      </trkpt>
      <trkpt lat="45.77903" lon="6.71736">
        <ele>1417.12</ele>
        <time>2018-09-11T12:47:36Z</time>
      </trkpt>
      <trkpt lat="45.77902" lon="6.71739">
        <ele>1417.6</ele>
        <time>2018-09-11T12:47:37Z</time>
      </trkpt>
      <trkpt lat="45.77902" lon="6.71742">
        <ele>1417.6</ele>
        <time>2018-09-11T12:47:38Z</time>
      </trkpt>
      <trkpt lat="45.77902" lon="6.71745">
        <ele>1417.6</ele>
        <time>2018-09-11T12:47:39Z</time>
      </trkpt>
      <trkpt lat="45.77902" lon="6.71748">
        <ele>1417.6</ele>
        <time>2018-09-11T12:47:40Z</time>
      </trkpt>
      <trkpt lat="45.77902" lon="6.71751">
        <ele>1417.6</ele>
        <time>2018-09-11T12:47:41Z</time>
      </trkpt>
      <trkpt lat="45.77902" lon="6.71753">
        <ele>1418.08</ele>
        <time>2018-09-11T12:47:42Z</time>
      </trkpt>
      <trkpt lat="45.77903" lon="6.71755">
        <ele>1418.08</ele>
        <time>2018-09-11T12:47:43Z</time>
      </trkpt>
      <trkpt lat="45.77903" lon="6.71757">
        <ele>1418.56</ele>
        <time>2018-09-11T12:47:44Z</time>
      </trkpt>
      <trkpt lat="45.77904" lon="6.71759">
        <ele>1418.56</ele>
        <time>2018-09-11T12:47:45Z</time>
      </trkpt>
      <trkpt lat="45.77904" lon="6.71761">
        <ele>1419.04</ele>
        <time>2018-09-11T12:47:46Z</time>
      </trkpt>
      <trkpt lat="45.77905" lon="6.71762">
        <ele>1419.52</ele>
        <time>2018-09-11T12:47:47Z</time>
      </trkpt>
      <trkpt lat="45.77906" lon="6.71764">
        <ele>1420</ele>
        <time>2018-09-11T12:47:48Z</time>
      </trkpt>
      <trkpt lat="45.77905" lon="6.71766">
        <ele>1420</ele>
        <time>2018-09-11T12:47:49Z</time>
      </trkpt>
      <trkpt lat="45.77905" lon="6.71768">
        <ele>1420.49</ele>
        <time>2018-09-11T12:47:51Z</time>
      </trkpt>
      <trkpt lat="45.77911" lon="6.71783">
        <ele>1423.85</ele>
        <time>2018-09-11T12:48:03Z</time>
      </trkpt>
      <trkpt lat="45.77911" lon="6.71787">
        <ele>1423.85</ele>
        <time>2018-09-11T12:48:05Z</time>
      </trkpt>
      <trkpt lat="45.77912" lon="6.71789">
        <ele>1423.85</ele>
        <time>2018-09-11T12:48:06Z</time>
      </trkpt>
      <trkpt lat="45.77913" lon="6.71809">
        <ele>1427.21</ele>
        <time>2018-09-11T12:48:23Z</time>
      </trkpt>
      <trkpt lat="45.77913" lon="6.71811">
        <ele>1427.7</ele>
        <time>2018-09-11T12:48:24Z</time>
      </trkpt>
      <trkpt lat="45.77912" lon="6.71819">
        <ele>1428.66</ele>
        <time>2018-09-11T12:48:30Z</time>
      </trkpt>
      <trkpt lat="45.77914" lon="6.71835">
        <ele>1432.02</ele>
        <time>2018-09-11T12:48:50Z</time>
      </trkpt>
      <trkpt lat="45.77919" lon="6.71842">
        <ele>1433.94</ele>
        <time>2018-09-11T12:48:59Z</time>
      </trkpt>
      <trkpt lat="45.77921" lon="6.71843">
        <ele>1434.42</ele>
        <time>2018-09-11T12:49:00Z</time>
      </trkpt>
      <trkpt lat="45.77922" lon="6.71843">
        <ele>1434.42</ele>
        <time>2018-09-11T12:49:01Z</time>
      </trkpt>
      <trkpt lat="45.77922" lon="6.71845">
        <ele>1434.42</ele>
        <time>2018-09-11T12:49:02Z</time>
      </trkpt>
      <trkpt lat="45.77923" lon="6.71846">
        <ele>1434.91</ele>
        <time>2018-09-11T12:49:03Z</time>
      </trkpt>
      <trkpt lat="45.77935" lon="6.71867">
        <ele>1437.79</ele>
        <time>2018-09-11T12:49:23Z</time>
      </trkpt>
      <trkpt lat="45.77955" lon="6.71879">
        <ele>1439.71</ele>
        <time>2018-09-11T12:49:41Z</time>
      </trkpt>
      <trkpt lat="45.77972" lon="6.71897">
        <ele>1442.6</ele>
        <time>2018-09-11T12:49:54Z</time>
      </trkpt>
      <trkpt lat="45.77991" lon="6.71912">
        <ele>1445</ele>
        <time>2018-09-11T12:50:05Z</time>
      </trkpt>
      <trkpt lat="45.77999" lon="6.71939">
        <ele>1446.92</ele>
        <time>2018-09-11T12:50:16Z</time>
      </trkpt>
      <trkpt lat="45.77992" lon="6.71964">
        <ele>1450.29</ele>
        <time>2018-09-11T12:50:28Z</time>
      </trkpt>
      <trkpt lat="45.77981" lon="6.71975">
        <ele>1453.17</ele>
        <time>2018-09-11T12:50:38Z</time>
      </trkpt>
      <trkpt lat="45.7798" lon="6.71976">
        <ele>1453.17</ele>
        <time>2018-09-11T12:50:39Z</time>
      </trkpt>
      <trkpt lat="45.77979" lon="6.71977">
        <ele>1453.17</ele>
        <time>2018-09-11T12:50:40Z</time>
      </trkpt>
      <trkpt lat="45.77968" lon="6.71985">
        <ele>1456.53</ele>
        <time>2018-09-11T12:50:51Z</time>
      </trkpt>
      <trkpt lat="45.77957" lon="6.7199">
        <ele>1459.9</ele>
        <time>2018-09-11T12:51:04Z</time>
      </trkpt>
      <trkpt lat="45.77956" lon="6.71991">
        <ele>1459.9</ele>
        <time>2018-09-11T12:51:05Z</time>
      </trkpt>
      <trkpt lat="45.77955" lon="6.71991">
        <ele>1459.9</ele>
        <time>2018-09-11T12:51:06Z</time>
      </trkpt>
      <trkpt lat="45.77952" lon="6.71995">
        <ele>1461.34</ele>
        <time>2018-09-11T12:51:12Z</time>
      </trkpt>
      <trkpt lat="45.77946" lon="6.72001">
        <ele>1462.3</ele>
        <time>2018-09-11T12:51:19Z</time>
      </trkpt>
      <trkpt lat="45.77946" lon="6.72003">
        <ele>1462.78</ele>
        <time>2018-09-11T12:51:20Z</time>
      </trkpt>
      <trkpt lat="45.77936" lon="6.72021">
        <ele>1465.67</ele>
        <time>2018-09-11T12:51:36Z</time>
      </trkpt>
      <trkpt lat="45.77932" lon="6.72036">
        <ele>1466.63</ele>
        <time>2018-09-11T12:51:43Z</time>
      </trkpt>
      <trkpt lat="45.77924" lon="6.72051">
        <ele>1467.59</ele>
        <time>2018-09-11T12:51:49Z</time>
      </trkpt>
      <trkpt lat="45.77923" lon="6.72053">
        <ele>1467.59</ele>
        <time>2018-09-11T12:51:50Z</time>
      </trkpt>
      <trkpt lat="45.77922" lon="6.72056">
        <ele>1467.59</ele>
        <time>2018-09-11T12:51:51Z</time>
      </trkpt>
      <trkpt lat="45.7792" lon="6.72058">
        <ele>1467.59</ele>
        <time>2018-09-11T12:51:52Z</time>
      </trkpt>
      <trkpt lat="45.77919" lon="6.7206">
        <ele>1467.11</ele>
        <time>2018-09-11T12:51:53Z</time>
      </trkpt>
      <trkpt lat="45.77918" lon="6.72063">
        <ele>1467.11</ele>
        <time>2018-09-11T12:51:54Z</time>
      </trkpt>
      <trkpt lat="45.77918" lon="6.72065">
        <ele>1466.63</ele>
        <time>2018-09-11T12:51:55Z</time>
      </trkpt>
      <trkpt lat="45.77918" lon="6.72067">
        <ele>1466.63</ele>
        <time>2018-09-11T12:51:56Z</time>
      </trkpt>
      <trkpt lat="45.7792" lon="6.72069">
        <ele>1466.63</ele>
        <time>2018-09-11T12:51:57Z</time>
      </trkpt>
      <trkpt lat="45.77921" lon="6.72071">
        <ele>1466.63</ele>
        <time>2018-09-11T12:51:58Z</time>
      </trkpt>
      <trkpt lat="45.77922" lon="6.72074">
        <ele>1466.63</ele>
        <time>2018-09-11T12:51:59Z</time>
      </trkpt>
      <trkpt lat="45.77926" lon="6.72083">
        <ele>1466.63</ele>
        <time>2018-09-11T12:52:02Z</time>
      </trkpt>
      <trkpt lat="45.77927" lon="6.72088">
        <ele>1466.63</ele>
        <time>2018-09-11T12:52:03Z</time>
      </trkpt>
      <trkpt lat="45.77927" lon="6.72091">
        <ele>1466.63</ele>
        <time>2018-09-11T12:52:04Z</time>
      </trkpt>
      <trkpt lat="45.77928" lon="6.72095">
        <ele>1466.63</ele>
        <time>2018-09-11T12:52:05Z</time>
      </trkpt>
      <trkpt lat="45.77929" lon="6.72098">
        <ele>1466.63</ele>
        <time>2018-09-11T12:52:06Z</time>
      </trkpt>
      <trkpt lat="45.7793" lon="6.72102">
        <ele>1466.63</ele>
        <time>2018-09-11T12:52:07Z</time>
      </trkpt>
      <trkpt lat="45.77932" lon="6.72106">
        <ele>1467.11</ele>
        <time>2018-09-11T12:52:08Z</time>
      </trkpt>
      <trkpt lat="45.77933" lon="6.72109">
        <ele>1467.11</ele>
        <time>2018-09-11T12:52:09Z</time>
      </trkpt>
      <trkpt lat="45.77935" lon="6.72113">
        <ele>1467.11</ele>
        <time>2018-09-11T12:52:10Z</time>
      </trkpt>
      <trkpt lat="45.77936" lon="6.72116">
        <ele>1467.59</ele>
        <time>2018-09-11T12:52:11Z</time>
      </trkpt>
      <trkpt lat="45.77938" lon="6.72119">
        <ele>1467.59</ele>
        <time>2018-09-11T12:52:12Z</time>
      </trkpt>
      <trkpt lat="45.77939" lon="6.72121">
        <ele>1467.59</ele>
        <time>2018-09-11T12:52:13Z</time>
      </trkpt>
      <trkpt lat="45.7794" lon="6.72124">
        <ele>1467.59</ele>
        <time>2018-09-11T12:52:14Z</time>
      </trkpt>
      <trkpt lat="45.77941" lon="6.72127">
        <ele>1467.59</ele>
        <time>2018-09-11T12:52:15Z</time>
      </trkpt>
      <trkpt lat="45.77943" lon="6.7213">
        <ele>1468.07</ele>
        <time>2018-09-11T12:52:16Z</time>
      </trkpt>
      <trkpt lat="45.77944" lon="6.72133">
        <ele>1468.07</ele>
        <time>2018-09-11T12:52:17Z</time>
      </trkpt>
      <trkpt lat="45.77946" lon="6.72135">
        <ele>1468.07</ele>
        <time>2018-09-11T12:52:18Z</time>
      </trkpt>
      <trkpt lat="45.77947" lon="6.72139">
        <ele>1468.07</ele>
        <time>2018-09-11T12:52:19Z</time>
      </trkpt>
      <trkpt lat="45.77947" lon="6.72142">
        <ele>1468.55</ele>
        <time>2018-09-11T12:52:20Z</time>
      </trkpt>
      <trkpt lat="45.77947" lon="6.72146">
        <ele>1468.55</ele>
        <time>2018-09-11T12:52:21Z</time>
      </trkpt>
      <trkpt lat="45.77948" lon="6.72149">
        <ele>1468.55</ele>
        <time>2018-09-11T12:52:22Z</time>
      </trkpt>
      <trkpt lat="45.77954" lon="6.72176">
        <ele>1468.55</ele>
        <time>2018-09-11T12:52:31Z</time>
      </trkpt>
      <trkpt lat="45.77969" lon="6.72201">
        <ele>1466.63</ele>
        <time>2018-09-11T12:52:40Z</time>
      </trkpt>
      <trkpt lat="45.77972" lon="6.72207">
        <ele>1465.67</ele>
        <time>2018-09-11T12:52:43Z</time>
      </trkpt>
      <trkpt lat="45.77973" lon="6.7221">
        <ele>1465.19</ele>
        <time>2018-09-11T12:52:44Z</time>
      </trkpt>
      <trkpt lat="45.77975" lon="6.72213">
        <ele>1464.71</ele>
        <time>2018-09-11T12:52:45Z</time>
      </trkpt>
      <trkpt lat="45.77978" lon="6.72216">
        <ele>1464.23</ele>
        <time>2018-09-11T12:52:46Z</time>
      </trkpt>
      <trkpt lat="45.77981" lon="6.72218">
        <ele>1464.23</ele>
        <time>2018-09-11T12:52:47Z</time>
      </trkpt>
      <trkpt lat="45.77983" lon="6.7222">
        <ele>1463.26</ele>
        <time>2018-09-11T12:52:48Z</time>
      </trkpt>
      <trkpt lat="45.77986" lon="6.72221">
        <ele>1462.78</ele>
        <time>2018-09-11T12:52:49Z</time>
      </trkpt>
      <trkpt lat="45.77987" lon="6.72223">
        <ele>1462.78</ele>
        <time>2018-09-11T12:52:50Z</time>
      </trkpt>
      <trkpt lat="45.77989" lon="6.72224">
        <ele>1463.26</ele>
        <time>2018-09-11T12:52:51Z</time>
      </trkpt>
      <trkpt lat="45.77991" lon="6.72224">
        <ele>1463.26</ele>
        <time>2018-09-11T12:52:52Z</time>
      </trkpt>
      <trkpt lat="45.77993" lon="6.72225">
        <ele>1462.78</ele>
        <time>2018-09-11T12:52:53Z</time>
      </trkpt>
      <trkpt lat="45.77997" lon="6.72226">
        <ele>1462.78</ele>
        <time>2018-09-11T12:52:54Z</time>
      </trkpt>
      <trkpt lat="45.78002" lon="6.72228">
        <ele>1462.3</ele>
        <time>2018-09-11T12:52:55Z</time>
      </trkpt>
      <trkpt lat="45.78006" lon="6.72231">
        <ele>1461.82</ele>
        <time>2018-09-11T12:52:56Z</time>
      </trkpt>
      <trkpt lat="45.78008" lon="6.72233">
        <ele>1461.82</ele>
        <time>2018-09-11T12:52:57Z</time>
      </trkpt>
      <trkpt lat="45.78011" lon="6.72234">
        <ele>1461.82</ele>
        <time>2018-09-11T12:52:58Z</time>
      </trkpt>
      <trkpt lat="45.7802" lon="6.72238">
        <ele>1462.3</ele>
        <time>2018-09-11T12:53:03Z</time>
      </trkpt>
      <trkpt lat="45.78021" lon="6.72239">
        <ele>1462.78</ele>
        <time>2018-09-11T12:53:04Z</time>
      </trkpt>
      <trkpt lat="45.78022" lon="6.72241">
        <ele>1462.78</ele>
        <time>2018-09-11T12:53:05Z</time>
      </trkpt>
      <trkpt lat="45.78023" lon="6.72244">
        <ele>1462.78</ele>
        <time>2018-09-11T12:53:06Z</time>
      </trkpt>
      <trkpt lat="45.78023" lon="6.72247">
        <ele>1462.78</ele>
        <time>2018-09-11T12:53:07Z</time>
      </trkpt>
      <trkpt lat="45.78023" lon="6.72248">
        <ele>1463.74</ele>
        <time>2018-09-11T12:53:08Z</time>
      </trkpt>
      <trkpt lat="45.78023" lon="6.72257">
        <ele>1466.63</ele>
        <time>2018-09-11T12:53:14Z</time>
      </trkpt>
      <trkpt lat="45.78024" lon="6.72258">
        <ele>1467.11</ele>
        <time>2018-09-11T12:53:15Z</time>
      </trkpt>
      <trkpt lat="45.78025" lon="6.72259">
        <ele>1467.59</ele>
        <time>2018-09-11T12:53:16Z</time>
      </trkpt>
      <trkpt lat="45.78026" lon="6.72261">
        <ele>1468.07</ele>
        <time>2018-09-11T12:53:17Z</time>
      </trkpt>
      <trkpt lat="45.78026" lon="6.72263">
        <ele>1468.55</ele>
        <time>2018-09-11T12:53:18Z</time>
      </trkpt>
      <trkpt lat="45.78026" lon="6.72265">
        <ele>1469.03</ele>
        <time>2018-09-11T12:53:19Z</time>
      </trkpt>
      <trkpt lat="45.78025" lon="6.72266">
        <ele>1469.51</ele>
        <time>2018-09-11T12:53:20Z</time>
      </trkpt>
      <trkpt lat="45.78024" lon="6.72269">
        <ele>1469.99</ele>
        <time>2018-09-11T12:53:21Z</time>
      </trkpt>
      <trkpt lat="45.78024" lon="6.72271">
        <ele>1470.47</ele>
        <time>2018-09-11T12:53:22Z</time>
      </trkpt>
      <trkpt lat="45.78024" lon="6.72273">
        <ele>1470.95</ele>
        <time>2018-09-11T12:53:23Z</time>
      </trkpt>
      <trkpt lat="45.78025" lon="6.72275">
        <ele>1470.95</ele>
        <time>2018-09-11T12:53:24Z</time>
      </trkpt>
      <trkpt lat="45.78026" lon="6.72277">
        <ele>1471.44</ele>
        <time>2018-09-11T12:53:25Z</time>
      </trkpt>
      <trkpt lat="45.78027" lon="6.72279">
        <ele>1471.92</ele>
        <time>2018-09-11T12:53:26Z</time>
      </trkpt>
      <trkpt lat="45.78028" lon="6.7228">
        <ele>1471.92</ele>
        <time>2018-09-11T12:53:27Z</time>
      </trkpt>
      <trkpt lat="45.78029" lon="6.72281">
        <ele>1472.4</ele>
        <time>2018-09-11T12:53:28Z</time>
      </trkpt>
      <trkpt lat="45.7803" lon="6.72283">
        <ele>1472.4</ele>
        <time>2018-09-11T12:53:29Z</time>
      </trkpt>
      <trkpt lat="45.78036" lon="6.72284">
        <ele>1474.32</ele>
        <time>2018-09-11T12:53:34Z</time>
      </trkpt>
      <trkpt lat="45.78037" lon="6.72284">
        <ele>1474.8</ele>
        <time>2018-09-11T12:53:35Z</time>
      </trkpt>
      <trkpt lat="45.78038" lon="6.72285">
        <ele>1475.28</ele>
        <time>2018-09-11T12:53:36Z</time>
      </trkpt>
      <trkpt lat="45.7804" lon="6.72286">
        <ele>1475.76</ele>
        <time>2018-09-11T12:53:38Z</time>
      </trkpt>
      <trkpt lat="45.78041" lon="6.72286">
        <ele>1476.24</ele>
        <time>2018-09-11T12:53:39Z</time>
      </trkpt>
      <trkpt lat="45.78044" lon="6.72293">
        <ele>1479.13</ele>
        <time>2018-09-11T12:53:47Z</time>
      </trkpt>
      <trkpt lat="45.78043" lon="6.72305">
        <ele>1481.05</ele>
        <time>2018-09-11T12:53:59Z</time>
      </trkpt>
      <trkpt lat="45.78047" lon="6.72317">
        <ele>1483.93</ele>
        <time>2018-09-11T12:54:13Z</time>
      </trkpt>
      <trkpt lat="45.78048" lon="6.72323">
        <ele>1485.37</ele>
        <time>2018-09-11T12:54:17Z</time>
      </trkpt>
      <trkpt lat="45.78056" lon="6.72333">
        <ele>1488.74</ele>
        <time>2018-09-11T12:54:32Z</time>
      </trkpt>
      <trkpt lat="45.78056" lon="6.72335">
        <ele>1489.22</ele>
        <time>2018-09-11T12:54:33Z</time>
      </trkpt>
      <trkpt lat="45.78056" lon="6.72336">
        <ele>1489.22</ele>
        <time>2018-09-11T12:54:34Z</time>
      </trkpt>
      <trkpt lat="45.78063" lon="6.72346">
        <ele>1492.58</ele>
        <time>2018-09-11T12:54:50Z</time>
      </trkpt>
      <trkpt lat="45.78066" lon="6.72351">
        <ele>1494.51</ele>
        <time>2018-09-11T12:54:59Z</time>
      </trkpt>
      <trkpt lat="45.78074" lon="6.72357">
        <ele>1497.39</ele>
        <time>2018-09-11T12:55:11Z</time>
      </trkpt>
      <trkpt lat="45.7808" lon="6.72364">
        <ele>1500.76</ele>
        <time>2018-09-11T12:55:23Z</time>
      </trkpt>
      <trkpt lat="45.78083" lon="6.72374">
        <ele>1503.64</ele>
        <time>2018-09-11T12:55:37Z</time>
      </trkpt>
      <trkpt lat="45.78089" lon="6.72372">
        <ele>1507</ele>
        <time>2018-09-11T12:55:51Z</time>
      </trkpt>
      <trkpt lat="45.7809" lon="6.72376">
        <ele>1508.93</ele>
        <time>2018-09-11T12:55:58Z</time>
      </trkpt>
      <trkpt lat="45.78096" lon="6.72374">
        <ele>1510.85</ele>
        <time>2018-09-11T12:56:07Z</time>
      </trkpt>
      <trkpt lat="45.78105" lon="6.72371">
        <ele>1511.33</ele>
        <time>2018-09-11T12:56:12Z</time>
      </trkpt>
      <trkpt lat="45.78107" lon="6.72372">
        <ele>1511.81</ele>
        <time>2018-09-11T12:56:13Z</time>
      </trkpt>
      <trkpt lat="45.78108" lon="6.72373">
        <ele>1511.81</ele>
        <time>2018-09-11T12:56:14Z</time>
      </trkpt>
      <trkpt lat="45.78109" lon="6.72374">
        <ele>1511.81</ele>
        <time>2018-09-11T12:56:15Z</time>
      </trkpt>
      <trkpt lat="45.7811" lon="6.72375">
        <ele>1511.81</ele>
        <time>2018-09-11T12:56:16Z</time>
      </trkpt>
      <trkpt lat="45.7811" lon="6.72376">
        <ele>1512.29</ele>
        <time>2018-09-11T12:56:17Z</time>
      </trkpt>
      <trkpt lat="45.78111" lon="6.72378">
        <ele>1512.29</ele>
        <time>2018-09-11T12:56:18Z</time>
      </trkpt>
      <trkpt lat="45.78113" lon="6.72378">
        <ele>1512.77</ele>
        <time>2018-09-11T12:56:19Z</time>
      </trkpt>
      <trkpt lat="45.78115" lon="6.72378">
        <ele>1512.77</ele>
        <time>2018-09-11T12:56:20Z</time>
      </trkpt>
      <trkpt lat="45.78116" lon="6.72377">
        <ele>1512.77</ele>
        <time>2018-09-11T12:56:21Z</time>
      </trkpt>
      <trkpt lat="45.78117" lon="6.72376">
        <ele>1513.25</ele>
        <time>2018-09-11T12:56:22Z</time>
      </trkpt>
      <trkpt lat="45.78119" lon="6.72376">
        <ele>1513.25</ele>
        <time>2018-09-11T12:56:23Z</time>
      </trkpt>
      <trkpt lat="45.7812" lon="6.72376">
        <ele>1513.73</ele>
        <time>2018-09-11T12:56:24Z</time>
      </trkpt>
      <trkpt lat="45.78121" lon="6.72376">
        <ele>1513.73</ele>
        <time>2018-09-11T12:56:25Z</time>
      </trkpt>
      <trkpt lat="45.78122" lon="6.72376">
        <ele>1513.73</ele>
        <time>2018-09-11T12:56:26Z</time>
      </trkpt>
      <trkpt lat="45.78123" lon="6.72378">
        <ele>1514.21</ele>
        <time>2018-09-11T12:56:27Z</time>
      </trkpt>
      <trkpt lat="45.78125" lon="6.72379">
        <ele>1514.21</ele>
        <time>2018-09-11T12:56:28Z</time>
      </trkpt>
      <trkpt lat="45.78126" lon="6.7238">
        <ele>1514.21</ele>
        <time>2018-09-11T12:56:29Z</time>
      </trkpt>
      <trkpt lat="45.78127" lon="6.72381">
        <ele>1514.69</ele>
        <time>2018-09-11T12:56:30Z</time>
      </trkpt>
      <trkpt lat="45.78128" lon="6.72382">
        <ele>1515.18</ele>
        <time>2018-09-11T12:56:31Z</time>
      </trkpt>
      <trkpt lat="45.78131" lon="6.72383">
        <ele>1516.14</ele>
        <time>2018-09-11T12:56:34Z</time>
      </trkpt>
      <trkpt lat="45.78133" lon="6.72382">
        <ele>1516.14</ele>
        <time>2018-09-11T12:56:35Z</time>
      </trkpt>
      <trkpt lat="45.78133" lon="6.72381">
        <ele>1516.62</ele>
        <time>2018-09-11T12:56:36Z</time>
      </trkpt>
      <trkpt lat="45.78135" lon="6.72381">
        <ele>1517.58</ele>
        <time>2018-09-11T12:56:38Z</time>
      </trkpt>
      <trkpt lat="45.78137" lon="6.72381">
        <ele>1518.06</ele>
        <time>2018-09-11T12:56:39Z</time>
      </trkpt>
      <trkpt lat="45.78137" lon="6.7238">
        <ele>1518.06</ele>
        <time>2018-09-11T12:56:40Z</time>
      </trkpt>
      <trkpt lat="45.78139" lon="6.72381">
        <ele>1518.54</ele>
        <time>2018-09-11T12:56:42Z</time>
      </trkpt>
      <trkpt lat="45.7814" lon="6.72381">
        <ele>1519.02</ele>
        <time>2018-09-11T12:56:43Z</time>
      </trkpt>
      <trkpt lat="45.78144" lon="6.72383">
        <ele>1519.98</ele>
        <time>2018-09-11T12:56:48Z</time>
      </trkpt>
      <trkpt lat="45.7816" lon="6.72381">
        <ele>1520.94</ele>
        <time>2018-09-11T12:57:04Z</time>
      </trkpt>
      <trkpt lat="45.78166" lon="6.72383">
        <ele>1523.83</ele>
        <time>2018-09-11T12:57:16Z</time>
      </trkpt>
      <trkpt lat="45.78168" lon="6.72395">
        <ele>1526.23</ele>
        <time>2018-09-11T12:57:26Z</time>
      </trkpt>
      <trkpt lat="45.78169" lon="6.72398">
        <ele>1527.19</ele>
        <time>2018-09-11T12:57:29Z</time>
      </trkpt>
      <trkpt lat="45.78168" lon="6.72401">
        <ele>1530.08</ele>
        <time>2018-09-11T12:57:44Z</time>
      </trkpt>
      <trkpt lat="45.78175" lon="6.72405">
        <ele>1533.44</ele>
        <time>2018-09-11T12:57:58Z</time>
      </trkpt>
      <trkpt lat="45.78179" lon="6.72413">
        <ele>1536.8</ele>
        <time>2018-09-11T12:58:11Z</time>
      </trkpt>
      <trkpt lat="45.78182" lon="6.72425">
        <ele>1539.69</ele>
        <time>2018-09-11T12:58:26Z</time>
      </trkpt>
      <trkpt lat="45.78188" lon="6.7243">
        <ele>1541.13</ele>
        <time>2018-09-11T12:58:36Z</time>
      </trkpt>
      <trkpt lat="45.78189" lon="6.7243">
        <ele>1541.61</ele>
        <time>2018-09-11T12:58:37Z</time>
      </trkpt>
      <trkpt lat="45.78194" lon="6.72429">
        <ele>1542.09</ele>
        <time>2018-09-11T12:58:40Z</time>
      </trkpt>
      <trkpt lat="45.78194" lon="6.7243">
        <ele>1542.09</ele>
        <time>2018-09-11T12:58:41Z</time>
      </trkpt>
      <trkpt lat="45.78195" lon="6.7243">
        <ele>1542.09</ele>
        <time>2018-09-11T12:58:42Z</time>
      </trkpt>
      <trkpt lat="45.78201" lon="6.72434">
        <ele>1543.53</ele>
        <time>2018-09-11T12:58:50Z</time>
      </trkpt>
      <trkpt lat="45.78202" lon="6.72435">
        <ele>1543.53</ele>
        <time>2018-09-11T12:58:51Z</time>
      </trkpt>
      <trkpt lat="45.78203" lon="6.72435">
        <ele>1543.53</ele>
        <time>2018-09-11T12:58:52Z</time>
      </trkpt>
      <trkpt lat="45.78214" lon="6.72449">
        <ele>1546.9</ele>
        <time>2018-09-11T12:59:11Z</time>
      </trkpt>
      <trkpt lat="45.78225" lon="6.72455">
        <ele>1549.78</ele>
        <time>2018-09-11T12:59:25Z</time>
      </trkpt>
      <trkpt lat="45.78239" lon="6.72464">
        <ele>1550.26</ele>
        <time>2018-09-11T12:59:50Z</time>
      </trkpt>
      <trkpt lat="45.7824" lon="6.72464">
        <ele>1550.74</ele>
        <time>2018-09-11T12:59:51Z</time>
      </trkpt>
      <trkpt lat="45.78263" lon="6.7248">
        <ele>1552.67</ele>
        <time>2018-09-11T13:00:05Z</time>
      </trkpt>
      <trkpt lat="45.78264" lon="6.72481">
        <ele>1553.15</ele>
        <time>2018-09-11T13:00:06Z</time>
      </trkpt>
      <trkpt lat="45.78266" lon="6.72482">
        <ele>1553.63</ele>
        <time>2018-09-11T13:00:07Z</time>
      </trkpt>
      <trkpt lat="45.78267" lon="6.72483">
        <ele>1553.63</ele>
        <time>2018-09-11T13:00:08Z</time>
      </trkpt>
      <trkpt lat="45.78269" lon="6.72483">
        <ele>1554.11</ele>
        <time>2018-09-11T13:00:09Z</time>
      </trkpt>
      <trkpt lat="45.7827" lon="6.72483">
        <ele>1554.59</ele>
        <time>2018-09-11T13:00:10Z</time>
      </trkpt>
      <trkpt lat="45.78271" lon="6.72484">
        <ele>1554.59</ele>
        <time>2018-09-11T13:00:11Z</time>
      </trkpt>
      <trkpt lat="45.78272" lon="6.72484">
        <ele>1555.07</ele>
        <time>2018-09-11T13:00:12Z</time>
      </trkpt>
      <trkpt lat="45.78274" lon="6.72485">
        <ele>1555.07</ele>
        <time>2018-09-11T13:00:13Z</time>
      </trkpt>
      <trkpt lat="45.78275" lon="6.72485">
        <ele>1555.07</ele>
        <time>2018-09-11T13:00:14Z</time>
      </trkpt>
      <trkpt lat="45.78276" lon="6.72486">
        <ele>1555.55</ele>
        <time>2018-09-11T13:00:15Z</time>
      </trkpt>
      <trkpt lat="45.78277" lon="6.72489">
        <ele>1556.99</ele>
        <time>2018-09-11T13:00:18Z</time>
      </trkpt>
      <trkpt lat="45.78287" lon="6.72496">
        <ele>1559.88</ele>
        <time>2018-09-11T13:00:32Z</time>
      </trkpt>
      <trkpt lat="45.78289" lon="6.72497">
        <ele>1560.36</ele>
        <time>2018-09-11T13:00:34Z</time>
      </trkpt>
      <trkpt lat="45.78286" lon="6.72508">
        <ele>1563.24</ele>
        <time>2018-09-11T13:00:52Z</time>
      </trkpt>
      <trkpt lat="45.78281" lon="6.72517">
        <ele>1566.12</ele>
        <time>2018-09-11T13:01:04Z</time>
      </trkpt>
      <trkpt lat="45.78286" lon="6.7253">
        <ele>1568.05</ele>
        <time>2018-09-11T13:01:20Z</time>
      </trkpt>
      <trkpt lat="45.78287" lon="6.72529">
        <ele>1568.05</ele>
        <time>2018-09-11T13:01:21Z</time>
      </trkpt>
      <trkpt lat="45.78304" lon="6.72535">
        <ele>1570.93</ele>
        <time>2018-09-11T13:01:40Z</time>
      </trkpt>
      <trkpt lat="45.78316" lon="6.72554">
        <ele>1573.33</ele>
        <time>2018-09-11T13:01:54Z</time>
      </trkpt>
      <trkpt lat="45.78318" lon="6.72554">
        <ele>1573.82</ele>
        <time>2018-09-11T13:01:56Z</time>
      </trkpt>
      <trkpt lat="45.78331" lon="6.72558">
        <ele>1577.18</ele>
        <time>2018-09-11T13:02:07Z</time>
      </trkpt>
      <trkpt lat="45.78332" lon="6.72557">
        <ele>1577.18</ele>
        <time>2018-09-11T13:02:08Z</time>
      </trkpt>
      <trkpt lat="45.78333" lon="6.72556">
        <ele>1577.66</ele>
        <time>2018-09-11T13:02:09Z</time>
      </trkpt>
      <trkpt lat="45.78334" lon="6.72555">
        <ele>1577.66</ele>
        <time>2018-09-11T13:02:10Z</time>
      </trkpt>
      <trkpt lat="45.78336" lon="6.72552">
        <ele>1578.62</ele>
        <time>2018-09-11T13:02:13Z</time>
      </trkpt>
      <trkpt lat="45.78345" lon="6.72561">
        <ele>1581.51</ele>
        <time>2018-09-11T13:02:26Z</time>
      </trkpt>
      <trkpt lat="45.78354" lon="6.72553">
        <ele>1584.87</ele>
        <time>2018-09-11T13:02:44Z</time>
      </trkpt>
      <trkpt lat="45.7836" lon="6.72557">
        <ele>1587.75</ele>
        <time>2018-09-11T13:03:00Z</time>
      </trkpt>
      <trkpt lat="45.78367" lon="6.72561">
        <ele>1590.64</ele>
        <time>2018-09-11T13:03:17Z</time>
      </trkpt>
      <trkpt lat="45.78372" lon="6.72561">
        <ele>1594</ele>
        <time>2018-09-11T13:03:33Z</time>
      </trkpt>
      <trkpt lat="45.78377" lon="6.72562">
        <ele>1595.45</ele>
        <time>2018-09-11T13:03:42Z</time>
      </trkpt>
      <trkpt lat="45.78383" lon="6.72565">
        <ele>1598.81</ele>
        <time>2018-09-11T13:03:54Z</time>
      </trkpt>
      <trkpt lat="45.78391" lon="6.72561">
        <ele>1601.69</ele>
        <time>2018-09-11T13:04:08Z</time>
      </trkpt>
      <trkpt lat="45.78395" lon="6.72565">
        <ele>1605.06</ele>
        <time>2018-09-11T13:04:22Z</time>
      </trkpt>
      <trkpt lat="45.78403" lon="6.72565">
        <ele>1607.94</ele>
        <time>2018-09-11T13:04:42Z</time>
      </trkpt>
      <trkpt lat="45.7841" lon="6.72564">
        <ele>1611.31</ele>
        <time>2018-09-11T13:04:59Z</time>
      </trkpt>
      <trkpt lat="45.78412" lon="6.7257">
        <ele>1614.19</ele>
        <time>2018-09-11T13:05:11Z</time>
      </trkpt>
      <trkpt lat="45.78419" lon="6.72569">
        <ele>1617.56</ele>
        <time>2018-09-11T13:05:27Z</time>
      </trkpt>
      <trkpt lat="45.78424" lon="6.72565">
        <ele>1619.96</ele>
        <time>2018-09-11T13:05:41Z</time>
      </trkpt>
      <trkpt lat="45.78422" lon="6.72583">
        <ele>1622.84</ele>
        <time>2018-09-11T13:06:31Z</time>
      </trkpt>
      <trkpt lat="45.7842" lon="6.72595">
        <ele>1626.21</ele>
        <time>2018-09-11T13:06:45Z</time>
      </trkpt>
      <trkpt lat="45.78422" lon="6.72597">
        <ele>1626.21</ele>
        <time>2018-09-11T13:06:48Z</time>
      </trkpt>
      <trkpt lat="45.78426" lon="6.72602">
        <ele>1629.09</ele>
        <time>2018-09-11T13:06:57Z</time>
      </trkpt>
      <trkpt lat="45.78431" lon="6.72604">
        <ele>1631.49</ele>
        <time>2018-09-11T13:07:04Z</time>
      </trkpt>
      <trkpt lat="45.78432" lon="6.72605">
        <ele>1631.49</ele>
        <time>2018-09-11T13:07:05Z</time>
      </trkpt>
      <trkpt lat="45.78431" lon="6.72608">
        <ele>1633.42</ele>
        <time>2018-09-11T13:07:12Z</time>
      </trkpt>
      <trkpt lat="45.78426" lon="6.7261">
        <ele>1634.86</ele>
        <time>2018-09-11T13:07:19Z</time>
      </trkpt>
      <trkpt lat="45.78416" lon="6.72625">
        <ele>1637.74</ele>
        <time>2018-09-11T13:07:32Z</time>
      </trkpt>
      <trkpt lat="45.78414" lon="6.72632">
        <ele>1639.67</ele>
        <time>2018-09-11T13:07:39Z</time>
      </trkpt>
      <trkpt lat="45.78413" lon="6.72634">
        <ele>1640.15</ele>
        <time>2018-09-11T13:07:40Z</time>
      </trkpt>
      <trkpt lat="45.78414" lon="6.72635">
        <ele>1640.15</ele>
        <time>2018-09-11T13:07:41Z</time>
      </trkpt>
      <trkpt lat="45.78418" lon="6.72653">
        <ele>1643.51</ele>
        <time>2018-09-11T13:07:56Z</time>
      </trkpt>
      <trkpt lat="45.78427" lon="6.7266">
        <ele>1645.91</ele>
        <time>2018-09-11T13:08:10Z</time>
      </trkpt>
      <trkpt lat="45.78429" lon="6.7266">
        <ele>1646.4</ele>
        <time>2018-09-11T13:08:11Z</time>
      </trkpt>
      <trkpt lat="45.78433" lon="6.72663">
        <ele>1649.28</ele>
        <time>2018-09-11T13:08:25Z</time>
      </trkpt>
      <trkpt lat="45.78428" lon="6.72671">
        <ele>1651.2</ele>
        <time>2018-09-11T13:08:35Z</time>
      </trkpt>
      <trkpt lat="45.78424" lon="6.72687">
        <ele>1654.09</ele>
        <time>2018-09-11T13:08:51Z</time>
      </trkpt>
      <trkpt lat="45.78424" lon="6.72699">
        <ele>1656.97</ele>
        <time>2018-09-11T13:09:07Z</time>
      </trkpt>
      <trkpt lat="45.78419" lon="6.72714">
        <ele>1659.85</ele>
        <time>2018-09-11T13:09:21Z</time>
      </trkpt>
      <trkpt lat="45.78418" lon="6.72715">
        <ele>1660.33</ele>
        <time>2018-09-11T13:09:22Z</time>
      </trkpt>
      <trkpt lat="45.78417" lon="6.72716">
        <ele>1660.33</ele>
        <time>2018-09-11T13:09:23Z</time>
      </trkpt>
      <trkpt lat="45.78417" lon="6.72717">
        <ele>1660.81</ele>
        <time>2018-09-11T13:09:24Z</time>
      </trkpt>
      <trkpt lat="45.78417" lon="6.72728">
        <ele>1662.26</ele>
        <time>2018-09-11T13:09:32Z</time>
      </trkpt>
      <trkpt lat="45.78414" lon="6.7274">
        <ele>1665.62</ele>
        <time>2018-09-11T13:09:48Z</time>
      </trkpt>
      <trkpt lat="45.7841" lon="6.72747">
        <ele>1667.54</ele>
        <time>2018-09-11T13:09:58Z</time>
      </trkpt>
      <trkpt lat="45.7841" lon="6.72749">
        <ele>1667.54</ele>
        <time>2018-09-11T13:09:59Z</time>
      </trkpt>
      <trkpt lat="45.78417" lon="6.72752">
        <ele>1670.91</ele>
        <time>2018-09-11T13:10:13Z</time>
      </trkpt>
      <trkpt lat="45.78418" lon="6.72752">
        <ele>1670.91</ele>
        <time>2018-09-11T13:10:14Z</time>
      </trkpt>
      <trkpt lat="45.78422" lon="6.72761">
        <ele>1673.79</ele>
        <time>2018-09-11T13:10:28Z</time>
      </trkpt>
      <trkpt lat="45.78421" lon="6.72766">
        <ele>1675.23</ele>
        <time>2018-09-11T13:10:33Z</time>
      </trkpt>
      <trkpt lat="45.78425" lon="6.7277">
        <ele>1678.6</ele>
        <time>2018-09-11T13:10:43Z</time>
      </trkpt>
      <trkpt lat="45.78426" lon="6.72769">
        <ele>1678.6</ele>
        <time>2018-09-11T13:10:44Z</time>
      </trkpt>
      <trkpt lat="45.78434" lon="6.72769">
        <ele>1681.48</ele>
        <time>2018-09-11T13:10:58Z</time>
      </trkpt>
      <trkpt lat="45.78432" lon="6.72779">
        <ele>1684.85</ele>
        <time>2018-09-11T13:11:12Z</time>
      </trkpt>
      <trkpt lat="45.78432" lon="6.7278">
        <ele>1684.85</ele>
        <time>2018-09-11T13:11:13Z</time>
      </trkpt>
      <trkpt lat="45.78435" lon="6.72785">
        <ele>1688.21</ele>
        <time>2018-09-11T13:11:27Z</time>
      </trkpt>
      <trkpt lat="45.78438" lon="6.72785">
        <ele>1688.69</ele>
        <time>2018-09-11T13:11:30Z</time>
      </trkpt>
      <trkpt lat="45.78439" lon="6.72785">
        <ele>1689.17</ele>
        <time>2018-09-11T13:11:31Z</time>
      </trkpt>
      <trkpt lat="45.78442" lon="6.72781">
        <ele>1692.06</ele>
        <time>2018-09-11T13:11:44Z</time>
      </trkpt>
      <trkpt lat="45.78446" lon="6.72789">
        <ele>1695.42</ele>
        <time>2018-09-11T13:11:57Z</time>
      </trkpt>
      <trkpt lat="45.78452" lon="6.72798">
        <ele>1698.79</ele>
        <time>2018-09-11T13:12:09Z</time>
      </trkpt>
      <trkpt lat="45.7846" lon="6.72793">
        <ele>1701.67</ele>
        <time>2018-09-11T13:12:22Z</time>
      </trkpt>
      <trkpt lat="45.78465" lon="6.72795">
        <ele>1705.04</ele>
        <time>2018-09-11T13:12:32Z</time>
      </trkpt>
      <trkpt lat="45.78465" lon="6.72797">
        <ele>1706</ele>
        <time>2018-09-11T13:12:34Z</time>
      </trkpt>
      <trkpt lat="45.78469" lon="6.72803">
        <ele>1708.4</ele>
        <time>2018-09-11T13:12:40Z</time>
      </trkpt>
      <trkpt lat="45.78472" lon="6.72807">
        <ele>1711.28</ele>
        <time>2018-09-11T13:12:48Z</time>
      </trkpt>
      <trkpt lat="45.78476" lon="6.72814">
        <ele>1714.17</ele>
        <time>2018-09-11T13:12:57Z</time>
      </trkpt>
      <trkpt lat="45.78481" lon="6.72816">
        <ele>1717.53</ele>
        <time>2018-09-11T13:13:08Z</time>
      </trkpt>
      <trkpt lat="45.78486" lon="6.72821">
        <ele>1720.9</ele>
        <time>2018-09-11T13:13:19Z</time>
      </trkpt>
      <trkpt lat="45.78495" lon="6.72822">
        <ele>1724.26</ele>
        <time>2018-09-11T13:13:33Z</time>
      </trkpt>
      <trkpt lat="45.78497" lon="6.72821">
        <ele>1725.22</ele>
        <time>2018-09-11T13:13:39Z</time>
      </trkpt>
      <trkpt lat="45.78498" lon="6.72824">
        <ele>1726.18</ele>
        <time>2018-09-11T13:13:41Z</time>
      </trkpt>
      <trkpt lat="45.78499" lon="6.72826">
        <ele>1727.15</ele>
        <time>2018-09-11T13:13:44Z</time>
      </trkpt>
      <trkpt lat="45.78499" lon="6.72828">
        <ele>1727.63</ele>
        <time>2018-09-11T13:13:45Z</time>
      </trkpt>
      <trkpt lat="45.78499" lon="6.7283">
        <ele>1727.63</ele>
        <time>2018-09-11T13:13:46Z</time>
      </trkpt>
      <trkpt lat="45.78501" lon="6.72832">
        <ele>1728.59</ele>
        <time>2018-09-11T13:13:49Z</time>
      </trkpt>
      <trkpt lat="45.78509" lon="6.72827">
        <ele>1731.95</ele>
        <time>2018-09-11T13:13:58Z</time>
      </trkpt>
      <trkpt lat="45.7851" lon="6.72825">
        <ele>1732.43</ele>
        <time>2018-09-11T13:14:00Z</time>
      </trkpt>
      <trkpt lat="45.78511" lon="6.72825">
        <ele>1732.43</ele>
        <time>2018-09-11T13:14:01Z</time>
      </trkpt>
      <trkpt lat="45.78512" lon="6.72824">
        <ele>1732.43</ele>
        <time>2018-09-11T13:14:03Z</time>
      </trkpt>
      <trkpt lat="45.78513" lon="6.72826">
        <ele>1735.8</ele>
        <time>2018-09-11T13:14:18Z</time>
      </trkpt>
      <trkpt lat="45.78516" lon="6.72819">
        <ele>1738.68</ele>
        <time>2018-09-11T13:14:32Z</time>
      </trkpt>
      <trkpt lat="45.78522" lon="6.72822">
        <ele>1742.05</ele>
        <time>2018-09-11T13:14:44Z</time>
      </trkpt>
      <trkpt lat="45.78528" lon="6.72821">
        <ele>1744.93</ele>
        <time>2018-09-11T13:14:58Z</time>
      </trkpt>
      <trkpt lat="45.78539" lon="6.72824">
        <ele>1748.29</ele>
        <time>2018-09-11T13:15:13Z</time>
      </trkpt>
      <trkpt lat="45.78544" lon="6.72827">
        <ele>1751.18</ele>
        <time>2018-09-11T13:15:26Z</time>
      </trkpt>
      <trkpt lat="45.7855" lon="6.72825">
        <ele>1754.54</ele>
        <time>2018-09-11T13:15:38Z</time>
      </trkpt>
      <trkpt lat="45.78558" lon="6.72822">
        <ele>1757.43</ele>
        <time>2018-09-11T13:15:53Z</time>
      </trkpt>
      <trkpt lat="45.78564" lon="6.72834">
        <ele>1760.79</ele>
        <time>2018-09-11T13:16:11Z</time>
      </trkpt>
      <trkpt lat="45.78563" lon="6.72846">
        <ele>1763.68</ele>
        <time>2018-09-11T13:16:26Z</time>
      </trkpt>
      <trkpt lat="45.78573" lon="6.7285">
        <ele>1767.04</ele>
        <time>2018-09-11T13:16:41Z</time>
      </trkpt>
      <trkpt lat="45.78578" lon="6.72852">
        <ele>1769.92</ele>
        <time>2018-09-11T13:16:56Z</time>
      </trkpt>
      <trkpt lat="45.78586" lon="6.72854">
        <ele>1772.81</ele>
        <time>2018-09-11T13:17:10Z</time>
      </trkpt>
      <trkpt lat="45.7859" lon="6.72855">
        <ele>1774.25</ele>
        <time>2018-09-11T13:17:18Z</time>
      </trkpt>
      <trkpt lat="45.78594" lon="6.72865">
        <ele>1777.13</ele>
        <time>2018-09-11T13:17:33Z</time>
      </trkpt>
      <trkpt lat="45.78598" lon="6.72866">
        <ele>1778.1</ele>
        <time>2018-09-11T13:17:38Z</time>
      </trkpt>
      <trkpt lat="45.78599" lon="6.72866">
        <ele>1778.1</ele>
        <time>2018-09-11T13:17:39Z</time>
      </trkpt>
      <trkpt lat="45.786" lon="6.72865">
        <ele>1778.1</ele>
        <time>2018-09-11T13:17:40Z</time>
      </trkpt>
      <trkpt lat="45.78601" lon="6.72865">
        <ele>1778.58</ele>
        <time>2018-09-11T13:17:41Z</time>
      </trkpt>
      <trkpt lat="45.78602" lon="6.72865">
        <ele>1779.06</ele>
        <time>2018-09-11T13:17:42Z</time>
      </trkpt>
      <trkpt lat="45.78606" lon="6.72865">
        <ele>1780.5</ele>
        <time>2018-09-11T13:17:49Z</time>
      </trkpt>
      <trkpt lat="45.78607" lon="6.7287">
        <ele>1783.38</ele>
        <time>2018-09-11T13:18:04Z</time>
      </trkpt>
      <trkpt lat="45.78612" lon="6.72876">
        <ele>1786.75</ele>
        <time>2018-09-11T13:18:17Z</time>
      </trkpt>
      <trkpt lat="45.78617" lon="6.72878">
        <ele>1787.71</ele>
        <time>2018-09-11T13:18:24Z</time>
      </trkpt>
      <trkpt lat="45.78622" lon="6.72887">
        <ele>1789.63</ele>
        <time>2018-09-11T13:18:35Z</time>
      </trkpt>
      <trkpt lat="45.7863" lon="6.72894">
        <ele>1792.52</ele>
        <time>2018-09-11T13:18:47Z</time>
      </trkpt>
      <trkpt lat="45.78639" lon="6.729">
        <ele>1795.4</ele>
        <time>2018-09-11T13:19:02Z</time>
      </trkpt>
      <trkpt lat="45.78644" lon="6.72911">
        <ele>1798.76</ele>
        <time>2018-09-11T13:19:18Z</time>
      </trkpt>
      <trkpt lat="45.78643" lon="6.72922">
        <ele>1800.69</ele>
        <time>2018-09-11T13:19:29Z</time>
      </trkpt>
      <trkpt lat="45.78642" lon="6.72924">
        <ele>1800.69</ele>
        <time>2018-09-11T13:19:30Z</time>
      </trkpt>
      <trkpt lat="45.78641" lon="6.72926">
        <ele>1800.69</ele>
        <time>2018-09-11T13:19:31Z</time>
      </trkpt>
      <trkpt lat="45.78641" lon="6.72929">
        <ele>1800.69</ele>
        <time>2018-09-11T13:19:32Z</time>
      </trkpt>
      <trkpt lat="45.78641" lon="6.72931">
        <ele>1800.69</ele>
        <time>2018-09-11T13:19:33Z</time>
      </trkpt>
      <trkpt lat="45.78644" lon="6.72964">
        <ele>1803.57</ele>
        <time>2018-09-11T13:19:45Z</time>
      </trkpt>
      <trkpt lat="45.78645" lon="6.72966">
        <ele>1803.57</ele>
        <time>2018-09-11T13:19:46Z</time>
      </trkpt>
      <trkpt lat="45.78645" lon="6.72968">
        <ele>1804.05</ele>
        <time>2018-09-11T13:19:47Z</time>
      </trkpt>
      <trkpt lat="45.78645" lon="6.7297">
        <ele>1804.53</ele>
        <time>2018-09-11T13:19:48Z</time>
      </trkpt>
      <trkpt lat="45.78645" lon="6.72972">
        <ele>1805.01</ele>
        <time>2018-09-11T13:19:49Z</time>
      </trkpt>
      <trkpt lat="45.78645" lon="6.72974">
        <ele>1805.01</ele>
        <time>2018-09-11T13:19:50Z</time>
      </trkpt>
      <trkpt lat="45.78646" lon="6.72976">
        <ele>1805.49</ele>
        <time>2018-09-11T13:19:51Z</time>
      </trkpt>
      <trkpt lat="45.78647" lon="6.72978">
        <ele>1805.97</ele>
        <time>2018-09-11T13:19:52Z</time>
      </trkpt>
      <trkpt lat="45.78648" lon="6.72979">
        <ele>1805.97</ele>
        <time>2018-09-11T13:19:53Z</time>
      </trkpt>
      <trkpt lat="45.78649" lon="6.7298">
        <ele>1805.97</ele>
        <time>2018-09-11T13:19:54Z</time>
      </trkpt>
      <trkpt lat="45.78655" lon="6.72987">
        <ele>1809.34</ele>
        <time>2018-09-11T13:20:05Z</time>
      </trkpt>
      <trkpt lat="45.78662" lon="6.72997">
        <ele>1812.22</ele>
        <time>2018-09-11T13:20:22Z</time>
      </trkpt>
      <trkpt lat="45.7867" lon="6.72998">
        <ele>1815.59</ele>
        <time>2018-09-11T13:20:37Z</time>
      </trkpt>
      <trkpt lat="45.78676" lon="6.72997">
        <ele>1817.99</ele>
        <time>2018-09-11T13:20:50Z</time>
      </trkpt>
      <trkpt lat="45.78685" lon="6.72999">
        <ele>1821.35</ele>
        <time>2018-09-11T13:21:07Z</time>
      </trkpt>
      <trkpt lat="45.78688" lon="6.73003">
        <ele>1823.76</ele>
        <time>2018-09-11T13:21:17Z</time>
      </trkpt>
      <trkpt lat="45.78691" lon="6.73015">
        <ele>1826.64</ele>
        <time>2018-09-11T13:21:32Z</time>
      </trkpt>
      <trkpt lat="45.787" lon="6.73014">
        <ele>1830.01</ele>
        <time>2018-09-11T13:21:50Z</time>
      </trkpt>
      <trkpt lat="45.78707" lon="6.73017">
        <ele>1832.89</ele>
        <time>2018-09-11T13:22:05Z</time>
      </trkpt>
      <trkpt lat="45.78714" lon="6.73022">
        <ele>1835.77</ele>
        <time>2018-09-11T13:22:19Z</time>
      </trkpt>
      <trkpt lat="45.78721" lon="6.73021">
        <ele>1837.7</ele>
        <time>2018-09-11T13:22:27Z</time>
      </trkpt>
      <trkpt lat="45.78731" lon="6.73024">
        <ele>1840.58</ele>
        <time>2018-09-11T13:22:41Z</time>
      </trkpt>
      <trkpt lat="45.78737" lon="6.73028">
        <ele>1843.95</ele>
        <time>2018-09-11T13:22:57Z</time>
      </trkpt>
      <trkpt lat="45.78748" lon="6.73029">
        <ele>1846.83</ele>
        <time>2018-09-11T13:23:14Z</time>
      </trkpt>
      <trkpt lat="45.7875" lon="6.73027">
        <ele>1847.79</ele>
        <time>2018-09-11T13:23:17Z</time>
      </trkpt>
      <trkpt lat="45.78752" lon="6.73027">
        <ele>1847.79</ele>
        <time>2018-09-11T13:23:18Z</time>
      </trkpt>
      <trkpt lat="45.78752" lon="6.73028">
        <ele>1847.79</ele>
        <time>2018-09-11T13:23:19Z</time>
      </trkpt>
      <trkpt lat="45.78754" lon="6.73029">
        <ele>1848.27</ele>
        <time>2018-09-11T13:23:22Z</time>
      </trkpt>
      <trkpt lat="45.78766" lon="6.73034">
        <ele>1851.64</ele>
        <time>2018-09-11T13:23:39Z</time>
      </trkpt>
      <trkpt lat="45.78772" lon="6.73038">
        <ele>1855</ele>
        <time>2018-09-11T13:23:53Z</time>
      </trkpt>
      <trkpt lat="45.78777" lon="6.73032">
        <ele>1858.37</ele>
        <time>2018-09-11T13:24:08Z</time>
      </trkpt>
      <trkpt lat="45.78787" lon="6.73025">
        <ele>1861.25</ele>
        <time>2018-09-11T13:24:26Z</time>
      </trkpt>
      <trkpt lat="45.78809" lon="6.73039">
        <ele>1863.65</ele>
        <time>2018-09-11T13:24:45Z</time>
      </trkpt>
      <trkpt lat="45.78816" lon="6.73054">
        <ele>1865.58</ele>
        <time>2018-09-11T13:24:53Z</time>
      </trkpt>
      <trkpt lat="45.78818" lon="6.73056">
        <ele>1866.06</ele>
        <time>2018-09-11T13:24:54Z</time>
      </trkpt>
      <trkpt lat="45.78819" lon="6.73057">
        <ele>1866.54</ele>
        <time>2018-09-11T13:24:55Z</time>
      </trkpt>
      <trkpt lat="45.7882" lon="6.73058">
        <ele>1866.54</ele>
        <time>2018-09-11T13:24:56Z</time>
      </trkpt>
      <trkpt lat="45.78821" lon="6.7306">
        <ele>1867.02</ele>
        <time>2018-09-11T13:24:57Z</time>
      </trkpt>
      <trkpt lat="45.78822" lon="6.73061">
        <ele>1867.02</ele>
        <time>2018-09-11T13:24:58Z</time>
      </trkpt>
      <trkpt lat="45.78823" lon="6.73063">
        <ele>1867.5</ele>
        <time>2018-09-11T13:24:59Z</time>
      </trkpt>
      <trkpt lat="45.78823" lon="6.73065">
        <ele>1867.98</ele>
        <time>2018-09-11T13:25:00Z</time>
      </trkpt>
      <trkpt lat="45.78824" lon="6.73066">
        <ele>1867.98</ele>
        <time>2018-09-11T13:25:01Z</time>
      </trkpt>
      <trkpt lat="45.78824" lon="6.73068">
        <ele>1868.46</ele>
        <time>2018-09-11T13:25:02Z</time>
      </trkpt>
      <trkpt lat="45.78825" lon="6.73069">
        <ele>1868.46</ele>
        <time>2018-09-11T13:25:03Z</time>
      </trkpt>
      <trkpt lat="45.78826" lon="6.7307">
        <ele>1868.94</ele>
        <time>2018-09-11T13:25:04Z</time>
      </trkpt>
      <trkpt lat="45.78826" lon="6.73072">
        <ele>1869.42</ele>
        <time>2018-09-11T13:25:05Z</time>
      </trkpt>
      <trkpt lat="45.78827" lon="6.73073">
        <ele>1869.42</ele>
        <time>2018-09-11T13:25:06Z</time>
      </trkpt>
      <trkpt lat="45.78832" lon="6.73078">
        <ele>1871.82</ele>
        <time>2018-09-11T13:25:13Z</time>
      </trkpt>
      <trkpt lat="45.78833" lon="6.73078">
        <ele>1871.82</ele>
        <time>2018-09-11T13:25:14Z</time>
      </trkpt>
      <trkpt lat="45.78834" lon="6.73079">
        <ele>1871.82</ele>
        <time>2018-09-11T13:25:15Z</time>
      </trkpt>
      <trkpt lat="45.78835" lon="6.73081">
        <ele>1872.3</ele>
        <time>2018-09-11T13:25:16Z</time>
      </trkpt>
      <trkpt lat="45.78837" lon="6.73082">
        <ele>1872.3</ele>
        <time>2018-09-11T13:25:17Z</time>
      </trkpt>
      <trkpt lat="45.78838" lon="6.73084">
        <ele>1872.79</ele>
        <time>2018-09-11T13:25:18Z</time>
      </trkpt>
      <trkpt lat="45.78838" lon="6.73086">
        <ele>1872.79</ele>
        <time>2018-09-11T13:25:19Z</time>
      </trkpt>
      <trkpt lat="45.78838" lon="6.73087">
        <ele>1873.27</ele>
        <time>2018-09-11T13:25:20Z</time>
      </trkpt>
      <trkpt lat="45.78839" lon="6.73089">
        <ele>1873.27</ele>
        <time>2018-09-11T13:25:21Z</time>
      </trkpt>
      <trkpt lat="45.7884" lon="6.7309">
        <ele>1873.75</ele>
        <time>2018-09-11T13:25:22Z</time>
      </trkpt>
      <trkpt lat="45.78841" lon="6.73091">
        <ele>1874.23</ele>
        <time>2018-09-11T13:25:23Z</time>
      </trkpt>
      <trkpt lat="45.78842" lon="6.73092">
        <ele>1874.23</ele>
        <time>2018-09-11T13:25:24Z</time>
      </trkpt>
      <trkpt lat="45.78843" lon="6.73092">
        <ele>1874.23</ele>
        <time>2018-09-11T13:25:25Z</time>
      </trkpt>
      <trkpt lat="45.78846" lon="6.73093">
        <ele>1875.19</ele>
        <time>2018-09-11T13:25:28Z</time>
      </trkpt>
      <trkpt lat="45.78847" lon="6.73094">
        <ele>1875.19</ele>
        <time>2018-09-11T13:25:29Z</time>
      </trkpt>
      <trkpt lat="45.78849" lon="6.73094">
        <ele>1875.67</ele>
        <time>2018-09-11T13:25:30Z</time>
      </trkpt>
      <trkpt lat="45.78853" lon="6.73094">
        <ele>1876.63</ele>
        <time>2018-09-11T13:25:35Z</time>
      </trkpt>
      <trkpt lat="45.78858" lon="6.73098">
        <ele>1880</ele>
        <time>2018-09-11T13:25:51Z</time>
      </trkpt>
      <trkpt lat="45.78867" lon="6.73097">
        <ele>1882.88</ele>
        <time>2018-09-11T13:26:07Z</time>
      </trkpt>
      <trkpt lat="45.78879" lon="6.7309">
        <ele>1885.76</ele>
        <time>2018-09-11T13:26:26Z</time>
      </trkpt>
      <trkpt lat="45.78891" lon="6.731">
        <ele>1889.13</ele>
        <time>2018-09-11T13:26:44Z</time>
      </trkpt>
      <trkpt lat="45.78906" lon="6.73121">
        <ele>1892.01</ele>
        <time>2018-09-11T13:27:06Z</time>
      </trkpt>
      <trkpt lat="45.78916" lon="6.7314">
        <ele>1894.9</ele>
        <time>2018-09-11T13:27:31Z</time>
      </trkpt>
      <trkpt lat="45.78923" lon="6.73145">
        <ele>1895.38</ele>
        <time>2018-09-11T13:28:25Z</time>
      </trkpt>
      <trkpt lat="45.78934" lon="6.73158">
        <ele>1895.38</ele>
        <time>2018-09-11T13:28:52Z</time>
      </trkpt>
      <trkpt lat="45.7895" lon="6.73177">
        <ele>1894.9</ele>
        <time>2018-09-11T13:29:10Z</time>
      </trkpt>
      <trkpt lat="45.78952" lon="6.73179">
        <ele>1894.9</ele>
        <time>2018-09-11T13:29:11Z</time>
      </trkpt>
      <trkpt lat="45.78966" lon="6.73205">
        <ele>1893.45</ele>
        <time>2018-09-11T13:29:20Z</time>
      </trkpt>
      <trkpt lat="45.78981" lon="6.73231">
        <ele>1892.97</ele>
        <time>2018-09-11T13:29:29Z</time>
      </trkpt>
      <trkpt lat="45.78998" lon="6.73251">
        <ele>1892.97</ele>
        <time>2018-09-11T13:29:38Z</time>
      </trkpt>
      <trkpt lat="45.79004" lon="6.7326">
        <ele>1892.01</ele>
        <time>2018-09-11T13:29:42Z</time>
      </trkpt>
      <trkpt lat="45.79005" lon="6.73262">
        <ele>1892.01</ele>
        <time>2018-09-11T13:29:43Z</time>
      </trkpt>
      <trkpt lat="45.79007" lon="6.73264">
        <ele>1892.01</ele>
        <time>2018-09-11T13:29:44Z</time>
      </trkpt>
      <trkpt lat="45.79023" lon="6.7328">
        <ele>1894.42</ele>
        <time>2018-09-11T13:29:55Z</time>
      </trkpt>
      <trkpt lat="45.79025" lon="6.73283">
        <ele>1894.42</ele>
        <time>2018-09-11T13:29:57Z</time>
      </trkpt>
      <trkpt lat="45.79025" lon="6.73285">
        <ele>1894.9</ele>
        <time>2018-09-11T13:29:58Z</time>
      </trkpt>
      <trkpt lat="45.79028" lon="6.73286">
        <ele>1895.38</ele>
        <time>2018-09-11T13:30:00Z</time>
      </trkpt>
      <trkpt lat="45.79033" lon="6.73292">
        <ele>1896.34</ele>
        <time>2018-09-11T13:30:04Z</time>
      </trkpt>
      <trkpt lat="45.79034" lon="6.73294">
        <ele>1896.34</ele>
        <time>2018-09-11T13:30:05Z</time>
      </trkpt>
      <trkpt lat="45.79035" lon="6.73296">
        <ele>1896.82</ele>
        <time>2018-09-11T13:30:06Z</time>
      </trkpt>
      <trkpt lat="45.79037" lon="6.73297">
        <ele>1896.82</ele>
        <time>2018-09-11T13:30:07Z</time>
      </trkpt>
      <trkpt lat="45.79038" lon="6.73299">
        <ele>1897.78</ele>
        <time>2018-09-11T13:30:09Z</time>
      </trkpt>
      <trkpt lat="45.79039" lon="6.733">
        <ele>1897.78</ele>
        <time>2018-09-11T13:30:10Z</time>
      </trkpt>
      <trkpt lat="45.7904" lon="6.73301">
        <ele>1898.26</ele>
        <time>2018-09-11T13:30:11Z</time>
      </trkpt>
      <trkpt lat="45.79041" lon="6.73302">
        <ele>1898.74</ele>
        <time>2018-09-11T13:30:12Z</time>
      </trkpt>
      <trkpt lat="45.79042" lon="6.73302">
        <ele>1899.22</ele>
        <time>2018-09-11T13:30:13Z</time>
      </trkpt>
      <trkpt lat="45.7905" lon="6.73303">
        <ele>1902.11</ele>
        <time>2018-09-11T13:30:22Z</time>
      </trkpt>
      <trkpt lat="45.79052" lon="6.73307">
        <ele>1902.59</ele>
        <time>2018-09-11T13:30:26Z</time>
      </trkpt>
      <trkpt lat="45.79053" lon="6.73308">
        <ele>1902.59</ele>
        <time>2018-09-11T13:30:27Z</time>
      </trkpt>
      <trkpt lat="45.79063" lon="6.73321">
        <ele>1904.99</ele>
        <time>2018-09-11T13:30:41Z</time>
      </trkpt>
      <trkpt lat="45.79073" lon="6.73346">
        <ele>1906.91</ele>
        <time>2018-09-11T13:30:59Z</time>
      </trkpt>
      <trkpt lat="45.79085" lon="6.73366">
        <ele>1909.8</ele>
        <time>2018-09-11T13:31:18Z</time>
      </trkpt>
      <trkpt lat="45.79086" lon="6.73372">
        <ele>1911.24</ele>
        <time>2018-09-11T13:31:22Z</time>
      </trkpt>
      <trkpt lat="45.7909" lon="6.73384">
        <ele>1912.2</ele>
        <time>2018-09-11T13:31:32Z</time>
      </trkpt>
      <trkpt lat="45.791" lon="6.7341">
        <ele>1914.6</ele>
        <time>2018-09-11T13:31:44Z</time>
      </trkpt>
      <trkpt lat="45.79102" lon="6.73413">
        <ele>1915.08</ele>
        <time>2018-09-11T13:31:46Z</time>
      </trkpt>
      <trkpt lat="45.79103" lon="6.73414">
        <ele>1915.08</ele>
        <time>2018-09-11T13:31:47Z</time>
      </trkpt>
      <trkpt lat="45.79105" lon="6.73414">
        <ele>1915.08</ele>
        <time>2018-09-11T13:31:48Z</time>
      </trkpt>
      <trkpt lat="45.79106" lon="6.73415">
        <ele>1915.56</ele>
        <time>2018-09-11T13:31:49Z</time>
      </trkpt>
      <trkpt lat="45.79107" lon="6.73416">
        <ele>1915.56</ele>
        <time>2018-09-11T13:31:50Z</time>
      </trkpt>
      <trkpt lat="45.79108" lon="6.73416">
        <ele>1916.04</ele>
        <time>2018-09-11T13:31:51Z</time>
      </trkpt>
      <trkpt lat="45.79109" lon="6.73417">
        <ele>1916.53</ele>
        <time>2018-09-11T13:31:52Z</time>
      </trkpt>
      <trkpt lat="45.79115" lon="6.73421">
        <ele>1918.45</ele>
        <time>2018-09-11T13:31:58Z</time>
      </trkpt>
      <trkpt lat="45.79116" lon="6.73421">
        <ele>1918.93</ele>
        <time>2018-09-11T13:31:59Z</time>
      </trkpt>
      <trkpt lat="45.79118" lon="6.73421">
        <ele>1918.93</ele>
        <time>2018-09-11T13:32:00Z</time>
      </trkpt>
      <trkpt lat="45.79119" lon="6.73421">
        <ele>1919.41</ele>
        <time>2018-09-11T13:32:01Z</time>
      </trkpt>
      <trkpt lat="45.7912" lon="6.73422">
        <ele>1919.41</ele>
        <time>2018-09-11T13:32:02Z</time>
      </trkpt>
      <trkpt lat="45.79121" lon="6.73423">
        <ele>1919.89</ele>
        <time>2018-09-11T13:32:03Z</time>
      </trkpt>
      <trkpt lat="45.79129" lon="6.73429">
        <ele>1921.81</ele>
        <time>2018-09-11T13:32:11Z</time>
      </trkpt>
      <trkpt lat="45.7913" lon="6.73428">
        <ele>1922.29</ele>
        <time>2018-09-11T13:32:12Z</time>
      </trkpt>
      <trkpt lat="45.79131" lon="6.73428">
        <ele>1922.29</ele>
        <time>2018-09-11T13:32:13Z</time>
      </trkpt>
      <trkpt lat="45.79133" lon="6.73429">
        <ele>1922.77</ele>
        <time>2018-09-11T13:32:14Z</time>
      </trkpt>
      <trkpt lat="45.79134" lon="6.73429">
        <ele>1922.77</ele>
        <time>2018-09-11T13:32:15Z</time>
      </trkpt>
      <trkpt lat="45.79135" lon="6.7343">
        <ele>1922.77</ele>
        <time>2018-09-11T13:32:16Z</time>
      </trkpt>
      <trkpt lat="45.79135" lon="6.73432">
        <ele>1923.25</ele>
        <time>2018-09-11T13:32:17Z</time>
      </trkpt>
      <trkpt lat="45.79135" lon="6.73433">
        <ele>1923.25</ele>
        <time>2018-09-11T13:32:18Z</time>
      </trkpt>
      <trkpt lat="45.79135" lon="6.73434">
        <ele>1923.74</ele>
        <time>2018-09-11T13:32:19Z</time>
      </trkpt>
      <trkpt lat="45.79134" lon="6.73436">
        <ele>1924.22</ele>
        <time>2018-09-11T13:32:20Z</time>
      </trkpt>
      <trkpt lat="45.79134" lon="6.73437">
        <ele>1924.22</ele>
        <time>2018-09-11T13:32:21Z</time>
      </trkpt>
      <trkpt lat="45.79134" lon="6.73439">
        <ele>1924.22</ele>
        <time>2018-09-11T13:32:22Z</time>
      </trkpt>
      <trkpt lat="45.79135" lon="6.7344">
        <ele>1924.7</ele>
        <time>2018-09-11T13:32:23Z</time>
      </trkpt>
      <trkpt lat="45.79135" lon="6.73442">
        <ele>1925.66</ele>
        <time>2018-09-11T13:32:25Z</time>
      </trkpt>
      <trkpt lat="45.79136" lon="6.73444">
        <ele>1925.66</ele>
        <time>2018-09-11T13:32:26Z</time>
      </trkpt>
      <trkpt lat="45.79136" lon="6.73445">
        <ele>1926.14</ele>
        <time>2018-09-11T13:32:27Z</time>
      </trkpt>
      <trkpt lat="45.79137" lon="6.73446">
        <ele>1926.62</ele>
        <time>2018-09-11T13:32:28Z</time>
      </trkpt>
      <trkpt lat="45.79138" lon="6.73447">
        <ele>1926.62</ele>
        <time>2018-09-11T13:32:29Z</time>
      </trkpt>
      <trkpt lat="45.79139" lon="6.73448">
        <ele>1927.1</ele>
        <time>2018-09-11T13:32:30Z</time>
      </trkpt>
      <trkpt lat="45.7914" lon="6.73449">
        <ele>1927.58</ele>
        <time>2018-09-11T13:32:31Z</time>
      </trkpt>
      <trkpt lat="45.79141" lon="6.73449">
        <ele>1927.58</ele>
        <time>2018-09-11T13:32:32Z</time>
      </trkpt>
      <trkpt lat="45.79142" lon="6.7345">
        <ele>1928.54</ele>
        <time>2018-09-11T13:32:33Z</time>
      </trkpt>
      <trkpt lat="45.79143" lon="6.73451">
        <ele>1928.54</ele>
        <time>2018-09-11T13:32:34Z</time>
      </trkpt>
      <trkpt lat="45.79144" lon="6.73453">
        <ele>1929.02</ele>
        <time>2018-09-11T13:32:35Z</time>
      </trkpt>
      <trkpt lat="45.79145" lon="6.73454">
        <ele>1929.02</ele>
        <time>2018-09-11T13:32:36Z</time>
      </trkpt>
      <trkpt lat="45.79145" lon="6.73456">
        <ele>1929.5</ele>
        <time>2018-09-11T13:32:37Z</time>
      </trkpt>
      <trkpt lat="45.79146" lon="6.73456">
        <ele>1929.5</ele>
        <time>2018-09-11T13:32:38Z</time>
      </trkpt>
      <trkpt lat="45.79147" lon="6.73457">
        <ele>1929.98</ele>
        <time>2018-09-11T13:32:39Z</time>
      </trkpt>
      <trkpt lat="45.79148" lon="6.73457">
        <ele>1929.98</ele>
        <time>2018-09-11T13:32:40Z</time>
      </trkpt>
      <trkpt lat="45.7915" lon="6.73458">
        <ele>1930.46</ele>
        <time>2018-09-11T13:32:41Z</time>
      </trkpt>
      <trkpt lat="45.7915" lon="6.73461">
        <ele>1930.46</ele>
        <time>2018-09-11T13:32:42Z</time>
      </trkpt>
      <trkpt lat="45.79151" lon="6.73463">
        <ele>1930.95</ele>
        <time>2018-09-11T13:32:43Z</time>
      </trkpt>
      <trkpt lat="45.79151" lon="6.73465">
        <ele>1930.95</ele>
        <time>2018-09-11T13:32:44Z</time>
      </trkpt>
      <trkpt lat="45.79153" lon="6.73467">
        <ele>1930.95</ele>
        <time>2018-09-11T13:32:45Z</time>
      </trkpt>
      <trkpt lat="45.79154" lon="6.7347">
        <ele>1930.95</ele>
        <time>2018-09-11T13:32:46Z</time>
      </trkpt>
      <trkpt lat="45.79156" lon="6.73472">
        <ele>1930.95</ele>
        <time>2018-09-11T13:32:47Z</time>
      </trkpt>
      <trkpt lat="45.79167" lon="6.73488">
        <ele>1932.39</ele>
        <time>2018-09-11T13:32:55Z</time>
      </trkpt>
      <trkpt lat="45.79167" lon="6.73489">
        <ele>1932.39</ele>
        <time>2018-09-11T13:32:56Z</time>
      </trkpt>
      <trkpt lat="45.79165" lon="6.73493">
        <ele>1932.87</ele>
        <time>2018-09-11T13:33:53Z</time>
      </trkpt>
      <trkpt lat="45.79171" lon="6.73498">
        <ele>1932.87</ele>
        <time>2018-09-11T13:35:54Z</time>
      </trkpt>
      <trkpt lat="45.79188" lon="6.73515">
        <ele>1930.95</ele>
        <time>2018-09-11T13:36:04Z</time>
      </trkpt>
      <trkpt lat="45.79194" lon="6.73534">
        <ele>1929.5</ele>
        <time>2018-09-11T13:36:10Z</time>
      </trkpt>
      <trkpt lat="45.79196" lon="6.73535">
        <ele>1929.5</ele>
        <time>2018-09-11T13:36:11Z</time>
      </trkpt>
      <trkpt lat="45.79197" lon="6.73536">
        <ele>1929.02</ele>
        <time>2018-09-11T13:36:12Z</time>
      </trkpt>
      <trkpt lat="45.79199" lon="6.73538">
        <ele>1928.54</ele>
        <time>2018-09-11T13:36:13Z</time>
      </trkpt>
      <trkpt lat="45.792" lon="6.7354">
        <ele>1928.06</ele>
        <time>2018-09-11T13:36:14Z</time>
      </trkpt>
      <trkpt lat="45.79203" lon="6.73541">
        <ele>1928.06</ele>
        <time>2018-09-11T13:36:15Z</time>
      </trkpt>
      <trkpt lat="45.79222" lon="6.73553">
        <ele>1925.18</ele>
        <time>2018-09-11T13:36:23Z</time>
      </trkpt>
      <trkpt lat="45.79226" lon="6.73558">
        <ele>1925.18</ele>
        <time>2018-09-11T13:36:28Z</time>
      </trkpt>
      <trkpt lat="45.79227" lon="6.73559">
        <ele>1925.18</ele>
        <time>2018-09-11T13:36:29Z</time>
      </trkpt>
      <trkpt lat="45.79236" lon="6.73583">
        <ele>1924.7</ele>
        <time>2018-09-11T13:36:37Z</time>
      </trkpt>
      <trkpt lat="45.79246" lon="6.73598">
        <ele>1924.7</ele>
        <time>2018-09-11T13:36:43Z</time>
      </trkpt>
      <trkpt lat="45.79262" lon="6.73615">
        <ele>1924.22</ele>
        <time>2018-09-11T13:36:51Z</time>
      </trkpt>
      <trkpt lat="45.79268" lon="6.73627">
        <ele>1924.22</ele>
        <time>2018-09-11T13:36:55Z</time>
      </trkpt>
      <trkpt lat="45.79269" lon="6.73629">
        <ele>1924.22</ele>
        <time>2018-09-11T13:36:56Z</time>
      </trkpt>
      <trkpt lat="45.79271" lon="6.7363">
        <ele>1924.22</ele>
        <time>2018-09-11T13:36:57Z</time>
      </trkpt>
      <trkpt lat="45.79273" lon="6.73633">
        <ele>1924.22</ele>
        <time>2018-09-11T13:36:58Z</time>
      </trkpt>
      <trkpt lat="45.79275" lon="6.73634">
        <ele>1923.74</ele>
        <time>2018-09-11T13:36:59Z</time>
      </trkpt>
      <trkpt lat="45.79277" lon="6.73636">
        <ele>1923.74</ele>
        <time>2018-09-11T13:37:00Z</time>
      </trkpt>
      <trkpt lat="45.79278" lon="6.73638">
        <ele>1923.74</ele>
        <time>2018-09-11T13:37:01Z</time>
      </trkpt>
      <trkpt lat="45.79297" lon="6.73652">
        <ele>1922.77</ele>
        <time>2018-09-11T13:37:10Z</time>
      </trkpt>
      <trkpt lat="45.79316" lon="6.73663">
        <ele>1921.81</ele>
        <time>2018-09-11T13:37:19Z</time>
      </trkpt>
      <trkpt lat="45.79334" lon="6.7368">
        <ele>1920.37</ele>
        <time>2018-09-11T13:37:28Z</time>
      </trkpt>
      <trkpt lat="45.79347" lon="6.73681">
        <ele>1919.89</ele>
        <time>2018-09-11T13:37:33Z</time>
      </trkpt>
      <trkpt lat="45.79349" lon="6.73683">
        <ele>1919.89</ele>
        <time>2018-09-11T13:37:34Z</time>
      </trkpt>
      <trkpt lat="45.79351" lon="6.73685">
        <ele>1919.41</ele>
        <time>2018-09-11T13:37:35Z</time>
      </trkpt>
      <trkpt lat="45.7937" lon="6.73698">
        <ele>1917.49</ele>
        <time>2018-09-11T13:37:44Z</time>
      </trkpt>
      <trkpt lat="45.79389" lon="6.73706">
        <ele>1915.08</ele>
        <time>2018-09-11T13:37:53Z</time>
      </trkpt>
      <trkpt lat="45.7941" lon="6.73714">
        <ele>1913.64</ele>
        <time>2018-09-11T13:38:02Z</time>
      </trkpt>
      <trkpt lat="45.79428" lon="6.73711">
        <ele>1911.24</ele>
        <time>2018-09-11T13:38:11Z</time>
      </trkpt>
      <trkpt lat="45.7943" lon="6.73711">
        <ele>1910.76</ele>
        <time>2018-09-11T13:38:12Z</time>
      </trkpt>
      <trkpt lat="45.79432" lon="6.73711">
        <ele>1910.28</ele>
        <time>2018-09-11T13:38:13Z</time>
      </trkpt>
      <trkpt lat="45.7945" lon="6.73713">
        <ele>1908.83</ele>
        <time>2018-09-11T13:38:20Z</time>
      </trkpt>
      <trkpt lat="45.79451" lon="6.73715">
        <ele>1908.83</ele>
        <time>2018-09-11T13:38:21Z</time>
      </trkpt>
      <trkpt lat="45.79453" lon="6.73717">
        <ele>1908.83</ele>
        <time>2018-09-11T13:38:22Z</time>
      </trkpt>
      <trkpt lat="45.79454" lon="6.73719">
        <ele>1908.83</ele>
        <time>2018-09-11T13:38:23Z</time>
      </trkpt>
      <trkpt lat="45.79456" lon="6.73722">
        <ele>1908.35</ele>
        <time>2018-09-11T13:38:24Z</time>
      </trkpt>
      <trkpt lat="45.79456" lon="6.73724">
        <ele>1907.87</ele>
        <time>2018-09-11T13:38:25Z</time>
      </trkpt>
      <trkpt lat="45.79457" lon="6.73726">
        <ele>1907.39</ele>
        <time>2018-09-11T13:38:26Z</time>
      </trkpt>
      <trkpt lat="45.79459" lon="6.73727">
        <ele>1907.39</ele>
        <time>2018-09-11T13:38:27Z</time>
      </trkpt>
      <trkpt lat="45.79461" lon="6.73729">
        <ele>1906.91</ele>
        <time>2018-09-11T13:38:28Z</time>
      </trkpt>
      <trkpt lat="45.79466" lon="6.73733">
        <ele>1906.43</ele>
        <time>2018-09-11T13:38:31Z</time>
      </trkpt>
      <trkpt lat="45.79469" lon="6.73735">
        <ele>1906.43</ele>
        <time>2018-09-11T13:38:32Z</time>
      </trkpt>
      <trkpt lat="45.79471" lon="6.73736">
        <ele>1905.95</ele>
        <time>2018-09-11T13:38:33Z</time>
      </trkpt>
      <trkpt lat="45.79473" lon="6.73738">
        <ele>1904.99</ele>
        <time>2018-09-11T13:38:34Z</time>
      </trkpt>
      <trkpt lat="45.79475" lon="6.73739">
        <ele>1904.99</ele>
        <time>2018-09-11T13:38:35Z</time>
      </trkpt>
      <trkpt lat="45.79477" lon="6.73739">
        <ele>1904.51</ele>
        <time>2018-09-11T13:38:36Z</time>
      </trkpt>
      <trkpt lat="45.79479" lon="6.73739">
        <ele>1904.03</ele>
        <time>2018-09-11T13:38:37Z</time>
      </trkpt>
      <trkpt lat="45.79481" lon="6.7374">
        <ele>1904.03</ele>
        <time>2018-09-11T13:38:38Z</time>
      </trkpt>
      <trkpt lat="45.79483" lon="6.7374">
        <ele>1904.03</ele>
        <time>2018-09-11T13:38:39Z</time>
      </trkpt>
      <trkpt lat="45.79485" lon="6.73741">
        <ele>1904.03</ele>
        <time>2018-09-11T13:38:40Z</time>
      </trkpt>
      <trkpt lat="45.79487" lon="6.73741">
        <ele>1903.55</ele>
        <time>2018-09-11T13:38:41Z</time>
      </trkpt>
      <trkpt lat="45.79489" lon="6.73741">
        <ele>1903.55</ele>
        <time>2018-09-11T13:38:42Z</time>
      </trkpt>
      <trkpt lat="45.79492" lon="6.73741">
        <ele>1902.59</ele>
        <time>2018-09-11T13:38:43Z</time>
      </trkpt>
      <trkpt lat="45.79494" lon="6.73741">
        <ele>1902.59</ele>
        <time>2018-09-11T13:38:44Z</time>
      </trkpt>
      <trkpt lat="45.79513" lon="6.73749">
        <ele>1900.66</ele>
        <time>2018-09-11T13:38:53Z</time>
      </trkpt>
      <trkpt lat="45.79526" lon="6.73757">
        <ele>1897.78</ele>
        <time>2018-09-11T13:39:01Z</time>
      </trkpt>
      <trkpt lat="45.79527" lon="6.73759">
        <ele>1897.78</ele>
        <time>2018-09-11T13:39:02Z</time>
      </trkpt>
      <trkpt lat="45.79529" lon="6.7376">
        <ele>1897.3</ele>
        <time>2018-09-11T13:39:03Z</time>
      </trkpt>
      <trkpt lat="45.79531" lon="6.73762">
        <ele>1897.3</ele>
        <time>2018-09-11T13:39:04Z</time>
      </trkpt>
      <trkpt lat="45.79533" lon="6.73763">
        <ele>1896.82</ele>
        <time>2018-09-11T13:39:05Z</time>
      </trkpt>
      <trkpt lat="45.79534" lon="6.73764">
        <ele>1896.34</ele>
        <time>2018-09-11T13:39:06Z</time>
      </trkpt>
      <trkpt lat="45.79536" lon="6.73766">
        <ele>1895.86</ele>
        <time>2018-09-11T13:39:07Z</time>
      </trkpt>
      <trkpt lat="45.79538" lon="6.73767">
        <ele>1895.86</ele>
        <time>2018-09-11T13:39:08Z</time>
      </trkpt>
      <trkpt lat="45.79539" lon="6.73769">
        <ele>1895.38</ele>
        <time>2018-09-11T13:39:09Z</time>
      </trkpt>
      <trkpt lat="45.79541" lon="6.73769">
        <ele>1895.38</ele>
        <time>2018-09-11T13:39:10Z</time>
      </trkpt>
      <trkpt lat="45.79543" lon="6.73771">
        <ele>1895.38</ele>
        <time>2018-09-11T13:39:11Z</time>
      </trkpt>
      <trkpt lat="45.79545" lon="6.73773">
        <ele>1894.9</ele>
        <time>2018-09-11T13:39:12Z</time>
      </trkpt>
      <trkpt lat="45.79546" lon="6.73775">
        <ele>1894.9</ele>
        <time>2018-09-11T13:39:13Z</time>
      </trkpt>
      <trkpt lat="45.79548" lon="6.73776">
        <ele>1894.9</ele>
        <time>2018-09-11T13:39:14Z</time>
      </trkpt>
      <trkpt lat="45.7955" lon="6.73777">
        <ele>1894.9</ele>
        <time>2018-09-11T13:39:15Z</time>
      </trkpt>
      <trkpt lat="45.79552" lon="6.7378">
        <ele>1894.42</ele>
        <time>2018-09-11T13:39:16Z</time>
      </trkpt>
      <trkpt lat="45.79553" lon="6.73783">
        <ele>1893.45</ele>
        <time>2018-09-11T13:39:17Z</time>
      </trkpt>
      <trkpt lat="45.79555" lon="6.73785">
        <ele>1892.97</ele>
        <time>2018-09-11T13:39:18Z</time>
      </trkpt>
      <trkpt lat="45.79557" lon="6.73788">
        <ele>1892.49</ele>
        <time>2018-09-11T13:39:19Z</time>
      </trkpt>
      <trkpt lat="45.79558" lon="6.73789">
        <ele>1892.49</ele>
        <time>2018-09-11T13:39:20Z</time>
      </trkpt>
      <trkpt lat="45.79559" lon="6.7379">
        <ele>1892.49</ele>
        <time>2018-09-11T13:39:21Z</time>
      </trkpt>
      <trkpt lat="45.79561" lon="6.7379">
        <ele>1892.49</ele>
        <time>2018-09-11T13:39:22Z</time>
      </trkpt>
      <trkpt lat="45.79563" lon="6.7379">
        <ele>1892.49</ele>
        <time>2018-09-11T13:39:23Z</time>
      </trkpt>
      <trkpt lat="45.7958" lon="6.73801">
        <ele>1889.13</ele>
        <time>2018-09-11T13:39:31Z</time>
      </trkpt>
      <trkpt lat="45.79596" lon="6.73819">
        <ele>1886.72</ele>
        <time>2018-09-11T13:39:40Z</time>
      </trkpt>
      <trkpt lat="45.79609" lon="6.73829">
        <ele>1884.32</ele>
        <time>2018-09-11T13:39:46Z</time>
      </trkpt>
      <trkpt lat="45.79611" lon="6.73831">
        <ele>1884.32</ele>
        <time>2018-09-11T13:39:47Z</time>
      </trkpt>
      <trkpt lat="45.79612" lon="6.73835">
        <ele>1883.84</ele>
        <time>2018-09-11T13:39:48Z</time>
      </trkpt>
      <trkpt lat="45.79614" lon="6.73837">
        <ele>1883.36</ele>
        <time>2018-09-11T13:39:49Z</time>
      </trkpt>
      <trkpt lat="45.79615" lon="6.7384">
        <ele>1883.36</ele>
        <time>2018-09-11T13:39:50Z</time>
      </trkpt>
      <trkpt lat="45.79617" lon="6.73842">
        <ele>1883.36</ele>
        <time>2018-09-11T13:39:51Z</time>
      </trkpt>
      <trkpt lat="45.79619" lon="6.73845">
        <ele>1882.4</ele>
        <time>2018-09-11T13:39:52Z</time>
      </trkpt>
      <trkpt lat="45.79622" lon="6.73848">
        <ele>1881.44</ele>
        <time>2018-09-11T13:39:53Z</time>
      </trkpt>
      <trkpt lat="45.79625" lon="6.73851">
        <ele>1880.96</ele>
        <time>2018-09-11T13:39:54Z</time>
      </trkpt>
      <trkpt lat="45.79627" lon="6.73853">
        <ele>1880.48</ele>
        <time>2018-09-11T13:39:55Z</time>
      </trkpt>
      <trkpt lat="45.79632" lon="6.73856">
        <ele>1880</ele>
        <time>2018-09-11T13:39:57Z</time>
      </trkpt>
      <trkpt lat="45.79634" lon="6.73859">
        <ele>1880</ele>
        <time>2018-09-11T13:39:58Z</time>
      </trkpt>
      <trkpt lat="45.79635" lon="6.73862">
        <ele>1880</ele>
        <time>2018-09-11T13:39:59Z</time>
      </trkpt>
      <trkpt lat="45.79636" lon="6.73865">
        <ele>1880</ele>
        <time>2018-09-11T13:40:00Z</time>
      </trkpt>
      <trkpt lat="45.79637" lon="6.73869">
        <ele>1879.51</ele>
        <time>2018-09-11T13:40:01Z</time>
      </trkpt>
      <trkpt lat="45.7964" lon="6.73874">
        <ele>1879.03</ele>
        <time>2018-09-11T13:40:03Z</time>
      </trkpt>
      <trkpt lat="45.79642" lon="6.73875">
        <ele>1878.55</ele>
        <time>2018-09-11T13:40:04Z</time>
      </trkpt>
      <trkpt lat="45.79658" lon="6.73892">
        <ele>1875.19</ele>
        <time>2018-09-11T13:40:13Z</time>
      </trkpt>
      <trkpt lat="45.79661" lon="6.73899">
        <ele>1874.71</ele>
        <time>2018-09-11T13:40:16Z</time>
      </trkpt>
      <trkpt lat="45.79679" lon="6.73915">
        <ele>1872.79</ele>
        <time>2018-09-11T13:40:27Z</time>
      </trkpt>
      <trkpt lat="45.79698" lon="6.73925">
        <ele>1870.38</ele>
        <time>2018-09-11T13:40:35Z</time>
      </trkpt>
      <trkpt lat="45.79713" lon="6.73941">
        <ele>1867.02</ele>
        <time>2018-09-11T13:40:42Z</time>
      </trkpt>
      <trkpt lat="45.79725" lon="6.73955">
        <ele>1865.09</ele>
        <time>2018-09-11T13:40:48Z</time>
      </trkpt>
      <trkpt lat="45.79727" lon="6.73956">
        <ele>1865.09</ele>
        <time>2018-09-11T13:40:49Z</time>
      </trkpt>
      <trkpt lat="45.79751" lon="6.73955">
        <ele>1862.21</ele>
        <time>2018-09-11T13:40:57Z</time>
      </trkpt>
      <trkpt lat="45.79772" lon="6.73957">
        <ele>1859.81</ele>
        <time>2018-09-11T13:41:04Z</time>
      </trkpt>
      <trkpt lat="45.7979" lon="6.73966">
        <ele>1856.92</ele>
        <time>2018-09-11T13:41:12Z</time>
      </trkpt>
      <trkpt lat="45.79802" lon="6.73963">
        <ele>1855</ele>
        <time>2018-09-11T13:41:17Z</time>
      </trkpt>
      <trkpt lat="45.79804" lon="6.7396">
        <ele>1854.52</ele>
        <time>2018-09-11T13:41:18Z</time>
      </trkpt>
      <trkpt lat="45.79809" lon="6.73932">
        <ele>1852.12</ele>
        <time>2018-09-11T13:41:26Z</time>
      </trkpt>
      <trkpt lat="45.79808" lon="6.73925">
        <ele>1851.64</ele>
        <time>2018-09-11T13:41:28Z</time>
      </trkpt>
      <trkpt lat="45.79805" lon="6.73906">
        <ele>1850.19</ele>
        <time>2018-09-11T13:41:34Z</time>
      </trkpt>
      <trkpt lat="45.79807" lon="6.73903">
        <ele>1849.23</ele>
        <time>2018-09-11T13:41:35Z</time>
      </trkpt>
      <trkpt lat="45.79809" lon="6.73901">
        <ele>1848.75</ele>
        <time>2018-09-11T13:41:36Z</time>
      </trkpt>
      <trkpt lat="45.79811" lon="6.73899">
        <ele>1848.75</ele>
        <time>2018-09-11T13:41:37Z</time>
      </trkpt>
      <trkpt lat="45.79814" lon="6.73897">
        <ele>1847.79</ele>
        <time>2018-09-11T13:41:38Z</time>
      </trkpt>
      <trkpt lat="45.79815" lon="6.73894">
        <ele>1847.79</ele>
        <time>2018-09-11T13:41:39Z</time>
      </trkpt>
      <trkpt lat="45.79816" lon="6.73891">
        <ele>1847.31</ele>
        <time>2018-09-11T13:41:40Z</time>
      </trkpt>
      <trkpt lat="45.79817" lon="6.73888">
        <ele>1846.83</ele>
        <time>2018-09-11T13:41:41Z</time>
      </trkpt>
      <trkpt lat="45.79819" lon="6.73885">
        <ele>1846.83</ele>
        <time>2018-09-11T13:41:42Z</time>
      </trkpt>
      <trkpt lat="45.7982" lon="6.73883">
        <ele>1846.83</ele>
        <time>2018-09-11T13:41:43Z</time>
      </trkpt>
      <trkpt lat="45.79823" lon="6.73882">
        <ele>1846.83</ele>
        <time>2018-09-11T13:41:44Z</time>
      </trkpt>
      <trkpt lat="45.79826" lon="6.73881">
        <ele>1845.87</ele>
        <time>2018-09-11T13:41:45Z</time>
      </trkpt>
      <trkpt lat="45.79845" lon="6.73874">
        <ele>1842.5</ele>
        <time>2018-09-11T13:41:53Z</time>
      </trkpt>
      <trkpt lat="45.79848" lon="6.73874">
        <ele>1842.02</ele>
        <time>2018-09-11T13:41:54Z</time>
      </trkpt>
      <trkpt lat="45.79853" lon="6.73873">
        <ele>1842.02</ele>
        <time>2018-09-11T13:41:57Z</time>
      </trkpt>
      <trkpt lat="45.79853" lon="6.73871">
        <ele>1842.02</ele>
        <time>2018-09-11T13:41:58Z</time>
      </trkpt>
      <trkpt lat="45.79852" lon="6.7387">
        <ele>1841.54</ele>
        <time>2018-09-11T13:41:59Z</time>
      </trkpt>
      <trkpt lat="45.7985" lon="6.7387">
        <ele>1841.06</ele>
        <time>2018-09-11T13:42:00Z</time>
      </trkpt>
      <trkpt lat="45.79848" lon="6.7387">
        <ele>1840.58</ele>
        <time>2018-09-11T13:42:01Z</time>
      </trkpt>
      <trkpt lat="45.79825" lon="6.73868">
        <ele>1838.66</ele>
        <time>2018-09-11T13:42:11Z</time>
      </trkpt>
      <trkpt lat="45.79801" lon="6.73874">
        <ele>1836.74</ele>
        <time>2018-09-11T13:42:20Z</time>
      </trkpt>
      <trkpt lat="45.79794" lon="6.73873">
        <ele>1836.26</ele>
        <time>2018-09-11T13:42:23Z</time>
      </trkpt>
      <trkpt lat="45.79792" lon="6.73872">
        <ele>1835.77</ele>
        <time>2018-09-11T13:42:24Z</time>
      </trkpt>
      <trkpt lat="45.7977" lon="6.73875">
        <ele>1833.37</ele>
        <time>2018-09-11T13:42:33Z</time>
      </trkpt>
      <trkpt lat="45.79746" lon="6.73869">
        <ele>1831.93</ele>
        <time>2018-09-11T13:42:40Z</time>
      </trkpt>
      <trkpt lat="45.79738" lon="6.73862">
        <ele>1830.01</ele>
        <time>2018-09-11T13:42:44Z</time>
      </trkpt>
      <trkpt lat="45.79739" lon="6.7386">
        <ele>1829.53</ele>
        <time>2018-09-11T13:42:45Z</time>
      </trkpt>
      <trkpt lat="45.79742" lon="6.73858">
        <ele>1829.05</ele>
        <time>2018-09-11T13:42:46Z</time>
      </trkpt>
      <trkpt lat="45.79763" lon="6.73846">
        <ele>1826.64</ele>
        <time>2018-09-11T13:42:53Z</time>
      </trkpt>
      <trkpt lat="45.79778" lon="6.73831">
        <ele>1825.2</ele>
        <time>2018-09-11T13:43:00Z</time>
      </trkpt>
      <trkpt lat="45.79781" lon="6.7383">
        <ele>1824.72</ele>
        <time>2018-09-11T13:43:01Z</time>
      </trkpt>
      <trkpt lat="45.79783" lon="6.73831">
        <ele>1824.24</ele>
        <time>2018-09-11T13:43:02Z</time>
      </trkpt>
      <trkpt lat="45.79785" lon="6.73833">
        <ele>1824.24</ele>
        <time>2018-09-11T13:43:03Z</time>
      </trkpt>
      <trkpt lat="45.79787" lon="6.73835">
        <ele>1823.76</ele>
        <time>2018-09-11T13:43:04Z</time>
      </trkpt>
      <trkpt lat="45.79789" lon="6.73836">
        <ele>1823.76</ele>
        <time>2018-09-11T13:43:05Z</time>
      </trkpt>
      <trkpt lat="45.79791" lon="6.73835">
        <ele>1823.28</ele>
        <time>2018-09-11T13:43:06Z</time>
      </trkpt>
      <trkpt lat="45.79793" lon="6.73834">
        <ele>1822.8</ele>
        <time>2018-09-11T13:43:07Z</time>
      </trkpt>
      <trkpt lat="45.79796" lon="6.73834">
        <ele>1822.8</ele>
        <time>2018-09-11T13:43:08Z</time>
      </trkpt>
      <trkpt lat="45.79798" lon="6.73833">
        <ele>1822.32</ele>
        <time>2018-09-11T13:43:09Z</time>
      </trkpt>
      <trkpt lat="45.798" lon="6.73832">
        <ele>1822.32</ele>
        <time>2018-09-11T13:43:10Z</time>
      </trkpt>
      <trkpt lat="45.79802" lon="6.73831">
        <ele>1821.84</ele>
        <time>2018-09-11T13:43:11Z</time>
      </trkpt>
      <trkpt lat="45.79805" lon="6.73829">
        <ele>1821.84</ele>
        <time>2018-09-11T13:43:12Z</time>
      </trkpt>
      <trkpt lat="45.79807" lon="6.73828">
        <ele>1821.35</ele>
        <time>2018-09-11T13:43:13Z</time>
      </trkpt>
      <trkpt lat="45.79826" lon="6.7382">
        <ele>1819.43</ele>
        <time>2018-09-11T13:43:22Z</time>
      </trkpt>
      <trkpt lat="45.79829" lon="6.73818">
        <ele>1819.43</ele>
        <time>2018-09-11T13:43:24Z</time>
      </trkpt>
      <trkpt lat="45.79831" lon="6.73817">
        <ele>1818.95</ele>
        <time>2018-09-11T13:43:25Z</time>
      </trkpt>
      <trkpt lat="45.79846" lon="6.7381">
        <ele>1817.03</ele>
        <time>2018-09-11T13:43:32Z</time>
      </trkpt>
      <trkpt lat="45.79848" lon="6.7381">
        <ele>1816.55</ele>
        <time>2018-09-11T13:43:33Z</time>
      </trkpt>
      <trkpt lat="45.7985" lon="6.7381">
        <ele>1816.55</ele>
        <time>2018-09-11T13:43:34Z</time>
      </trkpt>
      <trkpt lat="45.79852" lon="6.7381">
        <ele>1816.07</ele>
        <time>2018-09-11T13:43:35Z</time>
      </trkpt>
      <trkpt lat="45.79855" lon="6.73811">
        <ele>1816.07</ele>
        <time>2018-09-11T13:43:36Z</time>
      </trkpt>
      <trkpt lat="45.79856" lon="6.73811">
        <ele>1816.07</ele>
        <time>2018-09-11T13:43:37Z</time>
      </trkpt>
      <trkpt lat="45.79858" lon="6.73811">
        <ele>1815.59</ele>
        <time>2018-09-11T13:43:38Z</time>
      </trkpt>
      <trkpt lat="45.79875" lon="6.73816">
        <ele>1813.66</ele>
        <time>2018-09-11T13:43:47Z</time>
      </trkpt>
      <trkpt lat="45.79876" lon="6.73816">
        <ele>1813.66</ele>
        <time>2018-09-11T13:43:48Z</time>
      </trkpt>
      <trkpt lat="45.79878" lon="6.73816">
        <ele>1813.18</ele>
        <time>2018-09-11T13:43:49Z</time>
      </trkpt>
      <trkpt lat="45.79883" lon="6.73817">
        <ele>1812.7</ele>
        <time>2018-09-11T13:43:51Z</time>
      </trkpt>
      <trkpt lat="45.79886" lon="6.73817">
        <ele>1812.22</ele>
        <time>2018-09-11T13:43:52Z</time>
      </trkpt>
      <trkpt lat="45.79888" lon="6.73817">
        <ele>1812.7</ele>
        <time>2018-09-11T13:43:53Z</time>
      </trkpt>
      <trkpt lat="45.7989" lon="6.73818">
        <ele>1812.7</ele>
        <time>2018-09-11T13:43:54Z</time>
      </trkpt>
      <trkpt lat="45.79892" lon="6.73818">
        <ele>1812.22</ele>
        <time>2018-09-11T13:43:55Z</time>
      </trkpt>
      <trkpt lat="45.79894" lon="6.73818">
        <ele>1812.22</ele>
        <time>2018-09-11T13:43:56Z</time>
      </trkpt>
      <trkpt lat="45.79896" lon="6.73817">
        <ele>1812.22</ele>
        <time>2018-09-11T13:43:57Z</time>
      </trkpt>
      <trkpt lat="45.79897" lon="6.73818">
        <ele>1812.22</ele>
        <time>2018-09-11T13:43:58Z</time>
      </trkpt>
      <trkpt lat="45.79899" lon="6.73818">
        <ele>1811.74</ele>
        <time>2018-09-11T13:43:59Z</time>
      </trkpt>
      <trkpt lat="45.79901" lon="6.73819">
        <ele>1811.74</ele>
        <time>2018-09-11T13:44:00Z</time>
      </trkpt>
      <trkpt lat="45.79921" lon="6.73822">
        <ele>1809.34</ele>
        <time>2018-09-11T13:44:10Z</time>
      </trkpt>
      <trkpt lat="45.79943" lon="6.73822">
        <ele>1807.42</ele>
        <time>2018-09-11T13:44:20Z</time>
      </trkpt>
      <trkpt lat="45.79947" lon="6.73821">
        <ele>1806.45</ele>
        <time>2018-09-11T13:44:22Z</time>
      </trkpt>
      <trkpt lat="45.7995" lon="6.73821">
        <ele>1805.97</ele>
        <time>2018-09-11T13:44:23Z</time>
      </trkpt>
      <trkpt lat="45.79973" lon="6.73815">
        <ele>1803.57</ele>
        <time>2018-09-11T13:44:32Z</time>
      </trkpt>
      <trkpt lat="45.79995" lon="6.73811">
        <ele>1801.65</ele>
        <time>2018-09-11T13:44:42Z</time>
      </trkpt>
      <trkpt lat="45.80013" lon="6.73828">
        <ele>1799.24</ele>
        <time>2018-09-11T13:44:52Z</time>
      </trkpt>
      <trkpt lat="45.80026" lon="6.73856">
        <ele>1797.32</ele>
        <time>2018-09-11T13:45:05Z</time>
      </trkpt>
      <trkpt lat="45.80033" lon="6.73884">
        <ele>1795.88</ele>
        <time>2018-09-11T13:45:13Z</time>
      </trkpt>
      <trkpt lat="45.80033" lon="6.73889">
        <ele>1796.36</ele>
        <time>2018-09-11T13:45:15Z</time>
      </trkpt>
      <trkpt lat="45.80034" lon="6.73893">
        <ele>1796.36</ele>
        <time>2018-09-11T13:45:16Z</time>
      </trkpt>
      <trkpt lat="45.80039" lon="6.73921">
        <ele>1796.36</ele>
        <time>2018-09-11T13:45:24Z</time>
      </trkpt>
      <trkpt lat="45.80046" lon="6.73948">
        <ele>1795.88</ele>
        <time>2018-09-11T13:45:32Z</time>
      </trkpt>
      <trkpt lat="45.80046" lon="6.7397">
        <ele>1795.4</ele>
        <time>2018-09-11T13:45:39Z</time>
      </trkpt>
      <trkpt lat="45.80048" lon="6.73973">
        <ele>1795.4</ele>
        <time>2018-09-11T13:45:40Z</time>
      </trkpt>
      <trkpt lat="45.80049" lon="6.73975">
        <ele>1795.4</ele>
        <time>2018-09-11T13:45:41Z</time>
      </trkpt>
      <trkpt lat="45.80067" lon="6.73992">
        <ele>1793.48</ele>
        <time>2018-09-11T13:45:51Z</time>
      </trkpt>
      <trkpt lat="45.80069" lon="6.73993">
        <ele>1793</ele>
        <time>2018-09-11T13:45:52Z</time>
      </trkpt>
      <trkpt lat="45.80071" lon="6.73994">
        <ele>1793</ele>
        <time>2018-09-11T13:45:53Z</time>
      </trkpt>
      <trkpt lat="45.80073" lon="6.73995">
        <ele>1792.52</ele>
        <time>2018-09-11T13:45:54Z</time>
      </trkpt>
      <trkpt lat="45.80088" lon="6.73999">
        <ele>1790.11</ele>
        <time>2018-09-11T13:46:01Z</time>
      </trkpt>
      <trkpt lat="45.80108" lon="6.74006">
        <ele>1787.23</ele>
        <time>2018-09-11T13:46:12Z</time>
      </trkpt>
      <trkpt lat="45.80127" lon="6.74013">
        <ele>1784.34</ele>
        <time>2018-09-11T13:46:21Z</time>
      </trkpt>
      <trkpt lat="45.80143" lon="6.74022">
        <ele>1781.46</ele>
        <time>2018-09-11T13:46:29Z</time>
      </trkpt>
      <trkpt lat="45.80153" lon="6.74026">
        <ele>1780.98</ele>
        <time>2018-09-11T13:46:34Z</time>
      </trkpt>
      <trkpt lat="45.80155" lon="6.74027">
        <ele>1780.5</ele>
        <time>2018-09-11T13:46:35Z</time>
      </trkpt>
      <trkpt lat="45.80156" lon="6.74027">
        <ele>1780.02</ele>
        <time>2018-09-11T13:46:36Z</time>
      </trkpt>
      <trkpt lat="45.80157" lon="6.74027">
        <ele>1779.54</ele>
        <time>2018-09-11T13:46:37Z</time>
      </trkpt>
      <trkpt lat="45.80158" lon="6.74027">
        <ele>1779.06</ele>
        <time>2018-09-11T13:46:38Z</time>
      </trkpt>
      <trkpt lat="45.80158" lon="6.74025">
        <ele>1778.58</ele>
        <time>2018-09-11T13:46:39Z</time>
      </trkpt>
      <trkpt lat="45.80157" lon="6.74024">
        <ele>1778.58</ele>
        <time>2018-09-11T13:46:40Z</time>
      </trkpt>
      <trkpt lat="45.80156" lon="6.74022">
        <ele>1778.1</ele>
        <time>2018-09-11T13:46:41Z</time>
      </trkpt>
      <trkpt lat="45.80154" lon="6.74019">
        <ele>1777.61</ele>
        <time>2018-09-11T13:46:42Z</time>
      </trkpt>
      <trkpt lat="45.80153" lon="6.74017">
        <ele>1777.61</ele>
        <time>2018-09-11T13:46:43Z</time>
      </trkpt>
      <trkpt lat="45.80151" lon="6.74015">
        <ele>1777.61</ele>
        <time>2018-09-11T13:46:44Z</time>
      </trkpt>
      <trkpt lat="45.80138" lon="6.73993">
        <ele>1774.73</ele>
        <time>2018-09-11T13:46:53Z</time>
      </trkpt>
      <trkpt lat="45.80125" lon="6.7397">
        <ele>1771.85</ele>
        <time>2018-09-11T13:47:01Z</time>
      </trkpt>
      <trkpt lat="45.80114" lon="6.73944">
        <ele>1768.96</ele>
        <time>2018-09-11T13:47:10Z</time>
      </trkpt>
      <trkpt lat="45.80105" lon="6.73928">
        <ele>1767.04</ele>
        <time>2018-09-11T13:47:18Z</time>
      </trkpt>
      <trkpt lat="45.80104" lon="6.73926">
        <ele>1767.04</ele>
        <time>2018-09-11T13:47:19Z</time>
      </trkpt>
      <trkpt lat="45.80104" lon="6.73923">
        <ele>1767.04</ele>
        <time>2018-09-11T13:47:20Z</time>
      </trkpt>
      <trkpt lat="45.80103" lon="6.73921">
        <ele>1766.56</ele>
        <time>2018-09-11T13:47:21Z</time>
      </trkpt>
      <trkpt lat="45.80103" lon="6.73919">
        <ele>1766.08</ele>
        <time>2018-09-11T13:47:22Z</time>
      </trkpt>
      <trkpt lat="45.80103" lon="6.73917">
        <ele>1765.6</ele>
        <time>2018-09-11T13:47:23Z</time>
      </trkpt>
      <trkpt lat="45.80105" lon="6.73916">
        <ele>1764.64</ele>
        <time>2018-09-11T13:47:24Z</time>
      </trkpt>
      <trkpt lat="45.80107" lon="6.73915">
        <ele>1764.64</ele>
        <time>2018-09-11T13:47:25Z</time>
      </trkpt>
      <trkpt lat="45.80108" lon="6.73916">
        <ele>1764.16</ele>
        <time>2018-09-11T13:47:26Z</time>
      </trkpt>
      <trkpt lat="45.80127" lon="6.73921">
        <ele>1760.79</ele>
        <time>2018-09-11T13:47:37Z</time>
      </trkpt>
      <trkpt lat="45.8013" lon="6.73924">
        <ele>1760.79</ele>
        <time>2018-09-11T13:47:39Z</time>
      </trkpt>
      <trkpt lat="45.80131" lon="6.73925">
        <ele>1760.31</ele>
        <time>2018-09-11T13:47:40Z</time>
      </trkpt>
      <trkpt lat="45.80133" lon="6.73925">
        <ele>1760.31</ele>
        <time>2018-09-11T13:47:41Z</time>
      </trkpt>
      <trkpt lat="45.80135" lon="6.73926">
        <ele>1760.31</ele>
        <time>2018-09-11T13:47:42Z</time>
      </trkpt>
      <trkpt lat="45.80137" lon="6.73927">
        <ele>1759.83</ele>
        <time>2018-09-11T13:47:43Z</time>
      </trkpt>
      <trkpt lat="45.80139" lon="6.73929">
        <ele>1759.35</ele>
        <time>2018-09-11T13:47:44Z</time>
      </trkpt>
      <trkpt lat="45.80141" lon="6.7393">
        <ele>1759.35</ele>
        <time>2018-09-11T13:47:45Z</time>
      </trkpt>
      <trkpt lat="45.80143" lon="6.73931">
        <ele>1758.87</ele>
        <time>2018-09-11T13:47:46Z</time>
      </trkpt>
      <trkpt lat="45.80145" lon="6.73931">
        <ele>1758.39</ele>
        <time>2018-09-11T13:47:47Z</time>
      </trkpt>
      <trkpt lat="45.80146" lon="6.73931">
        <ele>1758.39</ele>
        <time>2018-09-11T13:47:48Z</time>
      </trkpt>
      <trkpt lat="45.80166" lon="6.73942">
        <ele>1755.5</ele>
        <time>2018-09-11T13:47:57Z</time>
      </trkpt>
      <trkpt lat="45.80172" lon="6.73945">
        <ele>1754.06</ele>
        <time>2018-09-11T13:48:00Z</time>
      </trkpt>
      <trkpt lat="45.80174" lon="6.73943">
        <ele>1753.58</ele>
        <time>2018-09-11T13:48:01Z</time>
      </trkpt>
      <trkpt lat="45.80176" lon="6.73942">
        <ele>1753.58</ele>
        <time>2018-09-11T13:48:02Z</time>
      </trkpt>
      <trkpt lat="45.80178" lon="6.73941">
        <ele>1753.58</ele>
        <time>2018-09-11T13:48:03Z</time>
      </trkpt>
      <trkpt lat="45.80179" lon="6.73942">
        <ele>1753.58</ele>
        <time>2018-09-11T13:48:04Z</time>
      </trkpt>
      <trkpt lat="45.80181" lon="6.73944">
        <ele>1753.1</ele>
        <time>2018-09-11T13:48:05Z</time>
      </trkpt>
      <trkpt lat="45.80183" lon="6.73944">
        <ele>1752.62</ele>
        <time>2018-09-11T13:48:06Z</time>
      </trkpt>
      <trkpt lat="45.80185" lon="6.73945">
        <ele>1752.14</ele>
        <time>2018-09-11T13:48:07Z</time>
      </trkpt>
      <trkpt lat="45.80187" lon="6.73946">
        <ele>1751.66</ele>
        <time>2018-09-11T13:48:08Z</time>
      </trkpt>
      <trkpt lat="45.80189" lon="6.73947">
        <ele>1751.66</ele>
        <time>2018-09-11T13:48:09Z</time>
      </trkpt>
      <trkpt lat="45.80191" lon="6.73947">
        <ele>1751.18</ele>
        <time>2018-09-11T13:48:10Z</time>
      </trkpt>
      <trkpt lat="45.80194" lon="6.73948">
        <ele>1751.18</ele>
        <time>2018-09-11T13:48:11Z</time>
      </trkpt>
      <trkpt lat="45.80196" lon="6.7395">
        <ele>1750.7</ele>
        <time>2018-09-11T13:48:12Z</time>
      </trkpt>
      <trkpt lat="45.80198" lon="6.73952">
        <ele>1750.22</ele>
        <time>2018-09-11T13:48:13Z</time>
      </trkpt>
      <trkpt lat="45.80208" lon="6.73962">
        <ele>1749.26</ele>
        <time>2018-09-11T13:48:19Z</time>
      </trkpt>
      <trkpt lat="45.80212" lon="6.73964">
        <ele>1748.78</ele>
        <time>2018-09-11T13:48:22Z</time>
      </trkpt>
      <trkpt lat="45.80213" lon="6.73966">
        <ele>1748.29</ele>
        <time>2018-09-11T13:48:23Z</time>
      </trkpt>
      <trkpt lat="45.80217" lon="6.73972">
        <ele>1747.33</ele>
        <time>2018-09-11T13:48:26Z</time>
      </trkpt>
      <trkpt lat="45.80219" lon="6.73973">
        <ele>1747.33</ele>
        <time>2018-09-11T13:48:27Z</time>
      </trkpt>
      <trkpt lat="45.80221" lon="6.73975">
        <ele>1746.85</ele>
        <time>2018-09-11T13:48:28Z</time>
      </trkpt>
      <trkpt lat="45.80223" lon="6.73976">
        <ele>1746.37</ele>
        <time>2018-09-11T13:48:29Z</time>
      </trkpt>
      <trkpt lat="45.80225" lon="6.73977">
        <ele>1746.37</ele>
        <time>2018-09-11T13:48:30Z</time>
      </trkpt>
      <trkpt lat="45.80227" lon="6.73979">
        <ele>1745.89</ele>
        <time>2018-09-11T13:48:31Z</time>
      </trkpt>
      <trkpt lat="45.80228" lon="6.73981">
        <ele>1745.89</ele>
        <time>2018-09-11T13:48:32Z</time>
      </trkpt>
      <trkpt lat="45.80229" lon="6.73983">
        <ele>1745.41</ele>
        <time>2018-09-11T13:48:33Z</time>
      </trkpt>
      <trkpt lat="45.80231" lon="6.73986">
        <ele>1745.41</ele>
        <time>2018-09-11T13:48:34Z</time>
      </trkpt>
      <trkpt lat="45.80233" lon="6.73987">
        <ele>1744.93</ele>
        <time>2018-09-11T13:48:35Z</time>
      </trkpt>
      <trkpt lat="45.80234" lon="6.7399">
        <ele>1744.93</ele>
        <time>2018-09-11T13:48:36Z</time>
      </trkpt>
      <trkpt lat="45.80236" lon="6.73992">
        <ele>1744.45</ele>
        <time>2018-09-11T13:48:37Z</time>
      </trkpt>
      <trkpt lat="45.80237" lon="6.73995">
        <ele>1743.97</ele>
        <time>2018-09-11T13:48:38Z</time>
      </trkpt>
      <trkpt lat="45.8025" lon="6.74014">
        <ele>1741.57</ele>
        <time>2018-09-11T13:48:51Z</time>
      </trkpt>
      <trkpt lat="45.80249" lon="6.74016">
        <ele>1741.57</ele>
        <time>2018-09-11T13:48:52Z</time>
      </trkpt>
      <trkpt lat="45.8025" lon="6.74018">
        <ele>1741.57</ele>
        <time>2018-09-11T13:48:53Z</time>
      </trkpt>
      <trkpt lat="45.80249" lon="6.74021">
        <ele>1741.57</ele>
        <time>2018-09-11T13:48:54Z</time>
      </trkpt>
      <trkpt lat="45.80249" lon="6.74024">
        <ele>1741.57</ele>
        <time>2018-09-11T13:48:55Z</time>
      </trkpt>
      <trkpt lat="45.80248" lon="6.74026">
        <ele>1741.57</ele>
        <time>2018-09-11T13:48:56Z</time>
      </trkpt>
      <trkpt lat="45.80247" lon="6.74028">
        <ele>1741.57</ele>
        <time>2018-09-11T13:48:57Z</time>
      </trkpt>
      <trkpt lat="45.80247" lon="6.7403">
        <ele>1742.05</ele>
        <time>2018-09-11T13:48:58Z</time>
      </trkpt>
      <trkpt lat="45.80247" lon="6.74032">
        <ele>1742.05</ele>
        <time>2018-09-11T13:48:59Z</time>
      </trkpt>
      <trkpt lat="45.80248" lon="6.74033">
        <ele>1742.05</ele>
        <time>2018-09-11T13:49:00Z</time>
      </trkpt>
      <trkpt lat="45.8025" lon="6.74034">
        <ele>1742.05</ele>
        <time>2018-09-11T13:49:01Z</time>
      </trkpt>
      <trkpt lat="45.80251" lon="6.74035">
        <ele>1742.05</ele>
        <time>2018-09-11T13:49:02Z</time>
      </trkpt>
      <trkpt lat="45.80253" lon="6.74036">
        <ele>1742.53</ele>
        <time>2018-09-11T13:49:03Z</time>
      </trkpt>
      <trkpt lat="45.80253" lon="6.74038">
        <ele>1743.01</ele>
        <time>2018-09-11T13:49:04Z</time>
      </trkpt>
      <trkpt lat="45.80253" lon="6.7404">
        <ele>1743.01</ele>
        <time>2018-09-11T13:49:05Z</time>
      </trkpt>
      <trkpt lat="45.80253" lon="6.74042">
        <ele>1743.49</ele>
        <time>2018-09-11T13:49:06Z</time>
      </trkpt>
      <trkpt lat="45.80253" lon="6.74043">
        <ele>1743.49</ele>
        <time>2018-09-11T13:49:07Z</time>
      </trkpt>
      <trkpt lat="45.80253" lon="6.74045">
        <ele>1743.97</ele>
        <time>2018-09-11T13:49:08Z</time>
      </trkpt>
      <trkpt lat="45.80253" lon="6.74048">
        <ele>1743.97</ele>
        <time>2018-09-11T13:49:09Z</time>
      </trkpt>
      <trkpt lat="45.80253" lon="6.74049">
        <ele>1744.45</ele>
        <time>2018-09-11T13:49:10Z</time>
      </trkpt>
      <trkpt lat="45.80252" lon="6.74051">
        <ele>1744.45</ele>
        <time>2018-09-11T13:49:11Z</time>
      </trkpt>
      <trkpt lat="45.80252" lon="6.74053">
        <ele>1744.93</ele>
        <time>2018-09-11T13:49:12Z</time>
      </trkpt>
      <trkpt lat="45.80253" lon="6.74055">
        <ele>1745.41</ele>
        <time>2018-09-11T13:49:13Z</time>
      </trkpt>
      <trkpt lat="45.80253" lon="6.74057">
        <ele>1745.41</ele>
        <time>2018-09-11T13:49:14Z</time>
      </trkpt>
      <trkpt lat="45.80254" lon="6.74059">
        <ele>1745.41</ele>
        <time>2018-09-11T13:49:15Z</time>
      </trkpt>
      <trkpt lat="45.80265" lon="6.74085">
        <ele>1747.81</ele>
        <time>2018-09-11T13:49:28Z</time>
      </trkpt>
      <trkpt lat="45.80267" lon="6.74088">
        <ele>1748.29</ele>
        <time>2018-09-11T13:49:30Z</time>
      </trkpt>
      <trkpt lat="45.80269" lon="6.74095">
        <ele>1750.22</ele>
        <time>2018-09-11T13:49:37Z</time>
      </trkpt>
      <trkpt lat="45.80269" lon="6.74096">
        <ele>1750.22</ele>
        <time>2018-09-11T13:49:38Z</time>
      </trkpt>
      <trkpt lat="45.80283" lon="6.74114">
        <ele>1753.1</ele>
        <time>2018-09-11T13:49:57Z</time>
      </trkpt>
      <trkpt lat="45.80299" lon="6.74131">
        <ele>1755.5</ele>
        <time>2018-09-11T13:50:14Z</time>
      </trkpt>
      <trkpt lat="45.80317" lon="6.74139">
        <ele>1758.39</ele>
        <time>2018-09-11T13:50:29Z</time>
      </trkpt>
      <trkpt lat="45.80335" lon="6.74149">
        <ele>1760.79</ele>
        <time>2018-09-11T13:50:45Z</time>
      </trkpt>
      <trkpt lat="45.80348" lon="6.74151">
        <ele>1763.2</ele>
        <time>2018-09-11T13:50:56Z</time>
      </trkpt>
      <trkpt lat="45.80349" lon="6.74149">
        <ele>1763.2</ele>
        <time>2018-09-11T13:50:57Z</time>
      </trkpt>
      <trkpt lat="45.8035" lon="6.74149">
        <ele>1763.2</ele>
        <time>2018-09-11T13:50:58Z</time>
      </trkpt>
      <trkpt lat="45.80351" lon="6.74149">
        <ele>1763.2</ele>
        <time>2018-09-11T13:50:59Z</time>
      </trkpt>
      <trkpt lat="45.80353" lon="6.74149">
        <ele>1763.2</ele>
        <time>2018-09-11T13:51:00Z</time>
      </trkpt>
      <trkpt lat="45.80354" lon="6.7415">
        <ele>1763.2</ele>
        <time>2018-09-11T13:51:01Z</time>
      </trkpt>
      <trkpt lat="45.80367" lon="6.74147">
        <ele>1765.12</ele>
        <time>2018-09-11T13:51:14Z</time>
      </trkpt>
      <trkpt lat="45.80368" lon="6.74146">
        <ele>1765.6</ele>
        <time>2018-09-11T13:51:15Z</time>
      </trkpt>
      <trkpt lat="45.80369" lon="6.74146">
        <ele>1765.6</ele>
        <time>2018-09-11T13:51:16Z</time>
      </trkpt>
      <trkpt lat="45.80375" lon="6.74142">
        <ele>1767.04</ele>
        <time>2018-09-11T13:51:24Z</time>
      </trkpt>
      <trkpt lat="45.80376" lon="6.74141">
        <ele>1767.04</ele>
        <time>2018-09-11T13:51:25Z</time>
      </trkpt>
      <trkpt lat="45.80377" lon="6.74141">
        <ele>1767.04</ele>
        <time>2018-09-11T13:51:26Z</time>
      </trkpt>
      <trkpt lat="45.80378" lon="6.7414">
        <ele>1767.04</ele>
        <time>2018-09-11T13:51:27Z</time>
      </trkpt>
      <trkpt lat="45.8038" lon="6.7414">
        <ele>1767.04</ele>
        <time>2018-09-11T13:51:28Z</time>
      </trkpt>
      <trkpt lat="45.80382" lon="6.74139">
        <ele>1767.04</ele>
        <time>2018-09-11T13:51:29Z</time>
      </trkpt>
      <trkpt lat="45.80402" lon="6.74132">
        <ele>1768</ele>
        <time>2018-09-11T13:51:39Z</time>
      </trkpt>
      <trkpt lat="45.80422" lon="6.74129">
        <ele>1768.96</ele>
        <time>2018-09-11T13:51:48Z</time>
      </trkpt>
      <trkpt lat="45.80442" lon="6.74135">
        <ele>1770.89</ele>
        <time>2018-09-11T13:52:00Z</time>
      </trkpt>
      <trkpt lat="45.80462" lon="6.7414">
        <ele>1773.29</ele>
        <time>2018-09-11T13:52:12Z</time>
      </trkpt>
      <trkpt lat="45.80482" lon="6.74136">
        <ele>1775.21</ele>
        <time>2018-09-11T13:52:23Z</time>
      </trkpt>
      <trkpt lat="45.80496" lon="6.74132">
        <ele>1776.17</ele>
        <time>2018-09-11T13:52:32Z</time>
      </trkpt>
      <trkpt lat="45.80498" lon="6.74132">
        <ele>1776.17</ele>
        <time>2018-09-11T13:52:33Z</time>
      </trkpt>
      <trkpt lat="45.805" lon="6.74131">
        <ele>1776.65</ele>
        <time>2018-09-11T13:52:34Z</time>
      </trkpt>
      <trkpt lat="45.80502" lon="6.74131">
        <ele>1776.65</ele>
        <time>2018-09-11T13:52:35Z</time>
      </trkpt>
      <trkpt lat="45.80504" lon="6.74131">
        <ele>1776.65</ele>
        <time>2018-09-11T13:52:36Z</time>
      </trkpt>
      <trkpt lat="45.80511" lon="6.74133">
        <ele>1777.61</ele>
        <time>2018-09-11T13:52:41Z</time>
      </trkpt>
      <trkpt lat="45.80521" lon="6.74132">
        <ele>1778.58</ele>
        <time>2018-09-11T13:52:48Z</time>
      </trkpt>
      <trkpt lat="45.80522" lon="6.74132">
        <ele>1778.58</ele>
        <time>2018-09-11T13:52:49Z</time>
      </trkpt>
      <trkpt lat="45.80548" lon="6.74128">
        <ele>1780.98</ele>
        <time>2018-09-11T13:53:09Z</time>
      </trkpt>
      <trkpt lat="45.80571" lon="6.74128">
        <ele>1783.38</ele>
        <time>2018-09-11T13:53:22Z</time>
      </trkpt>
      <trkpt lat="45.80595" lon="6.74131">
        <ele>1785.79</ele>
        <time>2018-09-11T13:53:36Z</time>
      </trkpt>
      <trkpt lat="45.80618" lon="6.74134">
        <ele>1787.23</ele>
        <time>2018-09-11T13:53:47Z</time>
      </trkpt>
      <trkpt lat="45.80626" lon="6.74135">
        <ele>1787.71</ele>
        <time>2018-09-11T13:53:51Z</time>
      </trkpt>
      <trkpt lat="45.80628" lon="6.74135">
        <ele>1788.19</ele>
        <time>2018-09-11T13:53:52Z</time>
      </trkpt>
      <trkpt lat="45.8063" lon="6.74135">
        <ele>1788.19</ele>
        <time>2018-09-11T13:53:53Z</time>
      </trkpt>
      <trkpt lat="45.80631" lon="6.74135">
        <ele>1788.19</ele>
        <time>2018-09-11T13:53:54Z</time>
      </trkpt>
      <trkpt lat="45.80633" lon="6.74135">
        <ele>1788.67</ele>
        <time>2018-09-11T13:53:55Z</time>
      </trkpt>
      <trkpt lat="45.80635" lon="6.74134">
        <ele>1788.67</ele>
        <time>2018-09-11T13:53:56Z</time>
      </trkpt>
      <trkpt lat="45.80637" lon="6.74134">
        <ele>1788.67</ele>
        <time>2018-09-11T13:53:57Z</time>
      </trkpt>
      <trkpt lat="45.80639" lon="6.74135">
        <ele>1788.67</ele>
        <time>2018-09-11T13:53:58Z</time>
      </trkpt>
      <trkpt lat="45.8064" lon="6.74135">
        <ele>1789.15</ele>
        <time>2018-09-11T13:53:59Z</time>
      </trkpt>
      <trkpt lat="45.80642" lon="6.74135">
        <ele>1789.15</ele>
        <time>2018-09-11T13:54:00Z</time>
      </trkpt>
      <trkpt lat="45.80648" lon="6.74133">
        <ele>1789.63</ele>
        <time>2018-09-11T13:54:04Z</time>
      </trkpt>
      <trkpt lat="45.80649" lon="6.74133">
        <ele>1789.63</ele>
        <time>2018-09-11T13:54:05Z</time>
      </trkpt>
      <trkpt lat="45.8065" lon="6.74133">
        <ele>1790.11</ele>
        <time>2018-09-11T13:54:06Z</time>
      </trkpt>
      <trkpt lat="45.80654" lon="6.74134">
        <ele>1790.59</ele>
        <time>2018-09-11T13:54:08Z</time>
      </trkpt>
      <trkpt lat="45.80655" lon="6.74134">
        <ele>1790.59</ele>
        <time>2018-09-11T13:54:09Z</time>
      </trkpt>
      <trkpt lat="45.80657" lon="6.74136">
        <ele>1791.07</ele>
        <time>2018-09-11T13:54:10Z</time>
      </trkpt>
      <trkpt lat="45.80659" lon="6.74137">
        <ele>1791.07</ele>
        <time>2018-09-11T13:54:11Z</time>
      </trkpt>
      <trkpt lat="45.8066" lon="6.74137">
        <ele>1791.07</ele>
        <time>2018-09-11T13:54:12Z</time>
      </trkpt>
      <trkpt lat="45.80662" lon="6.74137">
        <ele>1791.55</ele>
        <time>2018-09-11T13:54:13Z</time>
      </trkpt>
      <trkpt lat="45.80663" lon="6.74138">
        <ele>1791.55</ele>
        <time>2018-09-11T13:54:14Z</time>
      </trkpt>
      <trkpt lat="45.80665" lon="6.74137">
        <ele>1792.03</ele>
        <time>2018-09-11T13:54:15Z</time>
      </trkpt>
      <trkpt lat="45.80666" lon="6.74138">
        <ele>1792.03</ele>
        <time>2018-09-11T13:54:16Z</time>
      </trkpt>
      <trkpt lat="45.80668" lon="6.74137">
        <ele>1792.03</ele>
        <time>2018-09-11T13:54:17Z</time>
      </trkpt>
      <trkpt lat="45.80669" lon="6.74138">
        <ele>1792.52</ele>
        <time>2018-09-11T13:54:18Z</time>
      </trkpt>
      <trkpt lat="45.80671" lon="6.74139">
        <ele>1792.52</ele>
        <time>2018-09-11T13:54:19Z</time>
      </trkpt>
      <trkpt lat="45.80673" lon="6.7414">
        <ele>1792.52</ele>
        <time>2018-09-11T13:54:20Z</time>
      </trkpt>
      <trkpt lat="45.8069" lon="6.74147">
        <ele>1794.44</ele>
        <time>2018-09-11T13:54:33Z</time>
      </trkpt>
      <trkpt lat="45.80691" lon="6.74148">
        <ele>1794.44</ele>
        <time>2018-09-11T13:54:34Z</time>
      </trkpt>
      <trkpt lat="45.80693" lon="6.7415">
        <ele>1794.92</ele>
        <time>2018-09-11T13:54:35Z</time>
      </trkpt>
      <trkpt lat="45.80695" lon="6.74151">
        <ele>1795.4</ele>
        <time>2018-09-11T13:54:36Z</time>
      </trkpt>
      <trkpt lat="45.80697" lon="6.74151">
        <ele>1795.4</ele>
        <time>2018-09-11T13:54:37Z</time>
      </trkpt>
      <trkpt lat="45.80699" lon="6.74151">
        <ele>1795.88</ele>
        <time>2018-09-11T13:54:38Z</time>
      </trkpt>
      <trkpt lat="45.80701" lon="6.74152">
        <ele>1795.88</ele>
        <time>2018-09-11T13:54:39Z</time>
      </trkpt>
      <trkpt lat="45.80703" lon="6.74153">
        <ele>1795.88</ele>
        <time>2018-09-11T13:54:40Z</time>
      </trkpt>
      <trkpt lat="45.80704" lon="6.74155">
        <ele>1796.36</ele>
        <time>2018-09-11T13:54:41Z</time>
      </trkpt>
      <trkpt lat="45.80705" lon="6.74155">
        <ele>1796.36</ele>
        <time>2018-09-11T13:54:42Z</time>
      </trkpt>
      <trkpt lat="45.80707" lon="6.74157">
        <ele>1796.84</ele>
        <time>2018-09-11T13:54:43Z</time>
      </trkpt>
      <trkpt lat="45.8071" lon="6.74158">
        <ele>1796.84</ele>
        <time>2018-09-11T13:54:46Z</time>
      </trkpt>
      <trkpt lat="45.80712" lon="6.74158">
        <ele>1797.32</ele>
        <time>2018-09-11T13:54:47Z</time>
      </trkpt>
      <trkpt lat="45.80714" lon="6.74158">
        <ele>1797.32</ele>
        <time>2018-09-11T13:54:48Z</time>
      </trkpt>
      <trkpt lat="45.80715" lon="6.74157">
        <ele>1797.8</ele>
        <time>2018-09-11T13:54:49Z</time>
      </trkpt>
      <trkpt lat="45.80717" lon="6.74157">
        <ele>1797.8</ele>
        <time>2018-09-11T13:54:51Z</time>
      </trkpt>
      <trkpt lat="45.80718" lon="6.74158">
        <ele>1797.8</ele>
        <time>2018-09-11T13:54:52Z</time>
      </trkpt>
      <trkpt lat="45.80719" lon="6.74158">
        <ele>1798.28</ele>
        <time>2018-09-11T13:54:53Z</time>
      </trkpt>
      <trkpt lat="45.8072" lon="6.74158">
        <ele>1798.28</ele>
        <time>2018-09-11T13:54:54Z</time>
      </trkpt>
      <trkpt lat="45.80723" lon="6.74159">
        <ele>1798.76</ele>
        <time>2018-09-11T13:54:57Z</time>
      </trkpt>
      <trkpt lat="45.80724" lon="6.7416">
        <ele>1798.76</ele>
        <time>2018-09-11T13:54:58Z</time>
      </trkpt>
      <trkpt lat="45.80735" lon="6.74162">
        <ele>1800.21</ele>
        <time>2018-09-11T13:55:13Z</time>
      </trkpt>
      <trkpt lat="45.80737" lon="6.74164">
        <ele>1800.69</ele>
        <time>2018-09-11T13:55:15Z</time>
      </trkpt>
      <trkpt lat="45.80739" lon="6.74165">
        <ele>1800.69</ele>
        <time>2018-09-11T13:55:16Z</time>
      </trkpt>
      <trkpt lat="45.8074" lon="6.74166">
        <ele>1800.69</ele>
        <time>2018-09-11T13:55:17Z</time>
      </trkpt>
      <trkpt lat="45.80756" lon="6.74173">
        <ele>1803.09</ele>
        <time>2018-09-11T13:55:33Z</time>
      </trkpt>
      <trkpt lat="45.80776" lon="6.74173">
        <ele>1805.97</ele>
        <time>2018-09-11T13:55:55Z</time>
      </trkpt>
      <trkpt lat="45.80793" lon="6.74185">
        <ele>1808.38</ele>
        <time>2018-09-11T13:56:16Z</time>
      </trkpt>
      <trkpt lat="45.8081" lon="6.74191">
        <ele>1808.38</ele>
        <time>2018-09-11T13:56:46Z</time>
      </trkpt>
      <trkpt lat="45.80827" lon="6.74204">
        <ele>1808.86</ele>
        <time>2018-09-11T13:57:40Z</time>
      </trkpt>
      <trkpt lat="45.80827" lon="6.74205">
        <ele>1808.86</ele>
        <time>2018-09-11T13:57:41Z</time>
      </trkpt>
      <trkpt lat="45.80829" lon="6.74207">
        <ele>1808.86</ele>
        <time>2018-09-11T13:57:44Z</time>
      </trkpt>
      <trkpt lat="45.8083" lon="6.74207">
        <ele>1808.86</ele>
        <time>2018-09-11T13:57:45Z</time>
      </trkpt>
      <trkpt lat="45.80834" lon="6.7421">
        <ele>1808.86</ele>
        <time>2018-09-11T13:57:57Z</time>
      </trkpt>
      <trkpt lat="45.80838" lon="6.74211">
        <ele>1808.86</ele>
        <time>2018-09-11T13:58:01Z</time>
      </trkpt>
      <trkpt lat="45.8084" lon="6.74217">
        <ele>1809.34</ele>
        <time>2018-09-11T13:58:06Z</time>
      </trkpt>
      <trkpt lat="45.80838" lon="6.74211">
        <ele>1808.38</ele>
        <time>2018-09-11T13:59:31Z</time>
      </trkpt>
      <trkpt lat="45.80837" lon="6.74211">
        <ele>1808.38</ele>
        <time>2018-09-11T13:59:55Z</time>
      </trkpt>
      <trkpt lat="45.80838" lon="6.74221">
        <ele>1808.86</ele>
        <time>2018-09-11T14:00:16Z</time>
      </trkpt>
      <trkpt lat="45.80839" lon="6.74224">
        <ele>1808.86</ele>
        <time>2018-09-11T14:00:17Z</time>
      </trkpt>
      <trkpt lat="45.80839" lon="6.74227">
        <ele>1808.86</ele>
        <time>2018-09-11T14:00:18Z</time>
      </trkpt>
      <trkpt lat="45.80839" lon="6.74229">
        <ele>1808.86</ele>
        <time>2018-09-11T14:00:19Z</time>
      </trkpt>
      <trkpt lat="45.8084" lon="6.74232">
        <ele>1809.34</ele>
        <time>2018-09-11T14:00:20Z</time>
      </trkpt>
      <trkpt lat="45.80841" lon="6.74235">
        <ele>1809.34</ele>
        <time>2018-09-11T14:00:21Z</time>
      </trkpt>
      <trkpt lat="45.80841" lon="6.74255">
        <ele>1808.86</ele>
        <time>2018-09-11T14:00:29Z</time>
      </trkpt>
      <trkpt lat="45.80832" lon="6.74281">
        <ele>1808.38</ele>
        <time>2018-09-11T14:00:41Z</time>
      </trkpt>
      <trkpt lat="45.80827" lon="6.7431">
        <ele>1806.45</ele>
        <time>2018-09-11T14:00:53Z</time>
      </trkpt>
      <trkpt lat="45.80826" lon="6.74318">
        <ele>1806.94</ele>
        <time>2018-09-11T14:00:59Z</time>
      </trkpt>
      <trkpt lat="45.80827" lon="6.74319">
        <ele>1806.94</ele>
        <time>2018-09-11T14:01:00Z</time>
      </trkpt>
      <trkpt lat="45.80827" lon="6.7432">
        <ele>1806.94</ele>
        <time>2018-09-11T14:01:01Z</time>
      </trkpt>
      <trkpt lat="45.80828" lon="6.74322">
        <ele>1806.94</ele>
        <time>2018-09-11T14:01:02Z</time>
      </trkpt>
      <trkpt lat="45.8083" lon="6.74324">
        <ele>1806.94</ele>
        <time>2018-09-11T14:01:03Z</time>
      </trkpt>
      <trkpt lat="45.80831" lon="6.74327">
        <ele>1806.45</ele>
        <time>2018-09-11T14:01:04Z</time>
      </trkpt>
      <trkpt lat="45.80831" lon="6.74329">
        <ele>1806.45</ele>
        <time>2018-09-11T14:01:05Z</time>
      </trkpt>
      <trkpt lat="45.80833" lon="6.74332">
        <ele>1806.45</ele>
        <time>2018-09-11T14:01:06Z</time>
      </trkpt>
      <trkpt lat="45.80834" lon="6.74334">
        <ele>1806.45</ele>
        <time>2018-09-11T14:01:07Z</time>
      </trkpt>
      <trkpt lat="45.80835" lon="6.74337">
        <ele>1806.45</ele>
        <time>2018-09-11T14:01:08Z</time>
      </trkpt>
      <trkpt lat="45.80836" lon="6.7434">
        <ele>1806.45</ele>
        <time>2018-09-11T14:01:09Z</time>
      </trkpt>
      <trkpt lat="45.80837" lon="6.74342">
        <ele>1806.45</ele>
        <time>2018-09-11T14:01:10Z</time>
      </trkpt>
      <trkpt lat="45.80838" lon="6.74344">
        <ele>1806.45</ele>
        <time>2018-09-11T14:01:11Z</time>
      </trkpt>
      <trkpt lat="45.80839" lon="6.74347">
        <ele>1806.45</ele>
        <time>2018-09-11T14:01:12Z</time>
      </trkpt>
      <trkpt lat="45.80839" lon="6.74349">
        <ele>1806.94</ele>
        <time>2018-09-11T14:01:13Z</time>
      </trkpt>
      <trkpt lat="45.8084" lon="6.74352">
        <ele>1806.94</ele>
        <time>2018-09-11T14:01:14Z</time>
      </trkpt>
      <trkpt lat="45.8084" lon="6.74354">
        <ele>1806.94</ele>
        <time>2018-09-11T14:01:15Z</time>
      </trkpt>
      <trkpt lat="45.8084" lon="6.74357">
        <ele>1806.94</ele>
        <time>2018-09-11T14:01:16Z</time>
      </trkpt>
      <trkpt lat="45.8084" lon="6.7436">
        <ele>1807.42</ele>
        <time>2018-09-11T14:01:17Z</time>
      </trkpt>
      <trkpt lat="45.8084" lon="6.74362">
        <ele>1807.42</ele>
        <time>2018-09-11T14:01:18Z</time>
      </trkpt>
      <trkpt lat="45.8084" lon="6.74364">
        <ele>1807.42</ele>
        <time>2018-09-11T14:01:19Z</time>
      </trkpt>
      <trkpt lat="45.80839" lon="6.74367">
        <ele>1807.42</ele>
        <time>2018-09-11T14:01:20Z</time>
      </trkpt>
      <trkpt lat="45.80837" lon="6.7437">
        <ele>1807.42</ele>
        <time>2018-09-11T14:01:21Z</time>
      </trkpt>
      <trkpt lat="45.80837" lon="6.74371">
        <ele>1807.42</ele>
        <time>2018-09-11T14:01:22Z</time>
      </trkpt>
      <trkpt lat="45.80837" lon="6.74374">
        <ele>1807.9</ele>
        <time>2018-09-11T14:01:23Z</time>
      </trkpt>
      <trkpt lat="45.80838" lon="6.74401">
        <ele>1808.38</ele>
        <time>2018-09-11T14:01:34Z</time>
      </trkpt>
      <trkpt lat="45.80837" lon="6.74413">
        <ele>1810.3</ele>
        <time>2018-09-11T14:01:41Z</time>
      </trkpt>
      <trkpt lat="45.80836" lon="6.74414">
        <ele>1810.3</ele>
        <time>2018-09-11T14:01:42Z</time>
      </trkpt>
      <trkpt lat="45.80835" lon="6.74416">
        <ele>1809.82</ele>
        <time>2018-09-11T14:01:43Z</time>
      </trkpt>
      <trkpt lat="45.80834" lon="6.74418">
        <ele>1809.82</ele>
        <time>2018-09-11T14:01:44Z</time>
      </trkpt>
      <trkpt lat="45.80833" lon="6.7442">
        <ele>1809.82</ele>
        <time>2018-09-11T14:01:45Z</time>
      </trkpt>
      <trkpt lat="45.80832" lon="6.74423">
        <ele>1809.82</ele>
        <time>2018-09-11T14:01:46Z</time>
      </trkpt>
      <trkpt lat="45.80832" lon="6.74426">
        <ele>1809.82</ele>
        <time>2018-09-11T14:01:47Z</time>
      </trkpt>
      <trkpt lat="45.80832" lon="6.74429">
        <ele>1809.82</ele>
        <time>2018-09-11T14:01:48Z</time>
      </trkpt>
      <trkpt lat="45.80832" lon="6.74435">
        <ele>1810.3</ele>
        <time>2018-09-11T14:01:50Z</time>
      </trkpt>
      <trkpt lat="45.80832" lon="6.74436">
        <ele>1810.3</ele>
        <time>2018-09-11T14:01:51Z</time>
      </trkpt>
      <trkpt lat="45.80834" lon="6.74438">
        <ele>1810.3</ele>
        <time>2018-09-11T14:01:52Z</time>
      </trkpt>
      <trkpt lat="45.80835" lon="6.7444">
        <ele>1810.3</ele>
        <time>2018-09-11T14:01:53Z</time>
      </trkpt>
      <trkpt lat="45.80836" lon="6.74442">
        <ele>1810.78</ele>
        <time>2018-09-11T14:01:54Z</time>
      </trkpt>
      <trkpt lat="45.80838" lon="6.74445">
        <ele>1810.78</ele>
        <time>2018-09-11T14:01:55Z</time>
      </trkpt>
      <trkpt lat="45.80839" lon="6.74447">
        <ele>1810.78</ele>
        <time>2018-09-11T14:01:56Z</time>
      </trkpt>
      <trkpt lat="45.8084" lon="6.74449">
        <ele>1810.78</ele>
        <time>2018-09-11T14:01:57Z</time>
      </trkpt>
      <trkpt lat="45.80841" lon="6.74451">
        <ele>1810.78</ele>
        <time>2018-09-11T14:01:58Z</time>
      </trkpt>
      <trkpt lat="45.80842" lon="6.74453">
        <ele>1810.78</ele>
        <time>2018-09-11T14:01:59Z</time>
      </trkpt>
      <trkpt lat="45.80843" lon="6.74455">
        <ele>1810.78</ele>
        <time>2018-09-11T14:02:00Z</time>
      </trkpt>
      <trkpt lat="45.80843" lon="6.74458">
        <ele>1810.78</ele>
        <time>2018-09-11T14:02:01Z</time>
      </trkpt>
      <trkpt lat="45.80843" lon="6.7446">
        <ele>1810.78</ele>
        <time>2018-09-11T14:02:02Z</time>
      </trkpt>
      <trkpt lat="45.80841" lon="6.74462">
        <ele>1811.26</ele>
        <time>2018-09-11T14:02:03Z</time>
      </trkpt>
      <trkpt lat="45.8084" lon="6.74464">
        <ele>1811.26</ele>
        <time>2018-09-11T14:02:04Z</time>
      </trkpt>
      <trkpt lat="45.8084" lon="6.74466">
        <ele>1811.26</ele>
        <time>2018-09-11T14:02:05Z</time>
      </trkpt>
      <trkpt lat="45.80837" lon="6.74472">
        <ele>1811.74</ele>
        <time>2018-09-11T14:02:08Z</time>
      </trkpt>
      <trkpt lat="45.80837" lon="6.74475">
        <ele>1811.74</ele>
        <time>2018-09-11T14:02:09Z</time>
      </trkpt>
      <trkpt lat="45.80837" lon="6.74478">
        <ele>1812.22</ele>
        <time>2018-09-11T14:02:10Z</time>
      </trkpt>
      <trkpt lat="45.80837" lon="6.7448">
        <ele>1812.22</ele>
        <time>2018-09-11T14:02:11Z</time>
      </trkpt>
      <trkpt lat="45.80836" lon="6.74482">
        <ele>1812.22</ele>
        <time>2018-09-11T14:02:12Z</time>
      </trkpt>
      <trkpt lat="45.80836" lon="6.74485">
        <ele>1812.22</ele>
        <time>2018-09-11T14:02:13Z</time>
      </trkpt>
      <trkpt lat="45.80836" lon="6.74487">
        <ele>1812.22</ele>
        <time>2018-09-11T14:02:14Z</time>
      </trkpt>
      <trkpt lat="45.80836" lon="6.7449">
        <ele>1812.22</ele>
        <time>2018-09-11T14:02:15Z</time>
      </trkpt>
      <trkpt lat="45.80836" lon="6.74492">
        <ele>1812.7</ele>
        <time>2018-09-11T14:02:16Z</time>
      </trkpt>
      <trkpt lat="45.80836" lon="6.74495">
        <ele>1812.7</ele>
        <time>2018-09-11T14:02:17Z</time>
      </trkpt>
      <trkpt lat="45.80844" lon="6.7452">
        <ele>1814.15</ele>
        <time>2018-09-11T14:02:28Z</time>
      </trkpt>
      <trkpt lat="45.80859" lon="6.74539">
        <ele>1815.59</ele>
        <time>2018-09-11T14:02:39Z</time>
      </trkpt>
      <trkpt lat="45.80875" lon="6.74554">
        <ele>1816.07</ele>
        <time>2018-09-11T14:02:49Z</time>
      </trkpt>
      <trkpt lat="45.80885" lon="6.74571">
        <ele>1816.55</ele>
        <time>2018-09-11T14:02:57Z</time>
      </trkpt>
      <trkpt lat="45.80886" lon="6.74574">
        <ele>1817.03</ele>
        <time>2018-09-11T14:02:58Z</time>
      </trkpt>
      <trkpt lat="45.80894" lon="6.74603">
        <ele>1817.51</ele>
        <time>2018-09-11T14:03:08Z</time>
      </trkpt>
      <trkpt lat="45.80902" lon="6.74623">
        <ele>1818.47</ele>
        <time>2018-09-11T14:03:17Z</time>
      </trkpt>
      <trkpt lat="45.80902" lon="6.74626">
        <ele>1818.47</ele>
        <time>2018-09-11T14:03:18Z</time>
      </trkpt>
      <trkpt lat="45.80903" lon="6.74635">
        <ele>1818.95</ele>
        <time>2018-09-11T14:03:22Z</time>
      </trkpt>
      <trkpt lat="45.80904" lon="6.74637">
        <ele>1818.95</ele>
        <time>2018-09-11T14:03:23Z</time>
      </trkpt>
      <trkpt lat="45.80907" lon="6.74653">
        <ele>1820.39</ele>
        <time>2018-09-11T14:03:31Z</time>
      </trkpt>
      <trkpt lat="45.80908" lon="6.74656">
        <ele>1820.39</ele>
        <time>2018-09-11T14:03:32Z</time>
      </trkpt>
      <trkpt lat="45.80908" lon="6.74658">
        <ele>1820.87</ele>
        <time>2018-09-11T14:03:33Z</time>
      </trkpt>
      <trkpt lat="45.80909" lon="6.74661">
        <ele>1820.87</ele>
        <time>2018-09-11T14:03:34Z</time>
      </trkpt>
      <trkpt lat="45.80909" lon="6.74663">
        <ele>1820.87</ele>
        <time>2018-09-11T14:03:35Z</time>
      </trkpt>
      <trkpt lat="45.8091" lon="6.74671">
        <ele>1821.35</ele>
        <time>2018-09-11T14:03:39Z</time>
      </trkpt>
      <trkpt lat="45.80911" lon="6.74673">
        <ele>1821.84</ele>
        <time>2018-09-11T14:03:40Z</time>
      </trkpt>
      <trkpt lat="45.80912" lon="6.74674">
        <ele>1821.84</ele>
        <time>2018-09-11T14:03:41Z</time>
      </trkpt>
      <trkpt lat="45.80913" lon="6.74675">
        <ele>1821.84</ele>
        <time>2018-09-11T14:03:42Z</time>
      </trkpt>
      <trkpt lat="45.80914" lon="6.74675">
        <ele>1822.32</ele>
        <time>2018-09-11T14:03:43Z</time>
      </trkpt>
      <trkpt lat="45.80916" lon="6.74675">
        <ele>1822.32</ele>
        <time>2018-09-11T14:03:44Z</time>
      </trkpt>
      <trkpt lat="45.80917" lon="6.74675">
        <ele>1822.32</ele>
        <time>2018-09-11T14:03:45Z</time>
      </trkpt>
      <trkpt lat="45.80935" lon="6.74683">
        <ele>1824.72</ele>
        <time>2018-09-11T14:03:58Z</time>
      </trkpt>
      <trkpt lat="45.80936" lon="6.74685">
        <ele>1825.68</ele>
        <time>2018-09-11T14:04:00Z</time>
      </trkpt>
      <trkpt lat="45.80937" lon="6.74687">
        <ele>1826.16</ele>
        <time>2018-09-11T14:04:01Z</time>
      </trkpt>
      <trkpt lat="45.80938" lon="6.7469">
        <ele>1826.64</ele>
        <time>2018-09-11T14:04:02Z</time>
      </trkpt>
      <trkpt lat="45.8094" lon="6.74694">
        <ele>1827.12</ele>
        <time>2018-09-11T14:04:04Z</time>
      </trkpt>
      <trkpt lat="45.80941" lon="6.74696">
        <ele>1827.12</ele>
        <time>2018-09-11T14:04:05Z</time>
      </trkpt>
      <trkpt lat="45.80953" lon="6.74718">
        <ele>1829.53</ele>
        <time>2018-09-11T14:04:16Z</time>
      </trkpt>
      <trkpt lat="45.80956" lon="6.74746">
        <ele>1831.93</ele>
        <time>2018-09-11T14:04:29Z</time>
      </trkpt>
      <trkpt lat="45.80957" lon="6.74747">
        <ele>1832.41</ele>
        <time>2018-09-11T14:04:30Z</time>
      </trkpt>
      <trkpt lat="45.80957" lon="6.74747">
        <ele>1832.41</ele>
        <time>2018-09-11T14:04:31Z</time>
      </trkpt>
      <trkpt lat="45.80958" lon="6.74748">
        <ele>1832.89</ele>
        <time>2018-09-11T14:04:32Z</time>
      </trkpt>
      <trkpt lat="45.80959" lon="6.74749">
        <ele>1833.37</ele>
        <time>2018-09-11T14:04:33Z</time>
      </trkpt>
      <trkpt lat="45.8096" lon="6.74751">
        <ele>1833.37</ele>
        <time>2018-09-11T14:04:34Z</time>
      </trkpt>
      <trkpt lat="45.80959" lon="6.74754">
        <ele>1833.37</ele>
        <time>2018-09-11T14:04:35Z</time>
      </trkpt>
      <trkpt lat="45.80959" lon="6.74756">
        <ele>1833.37</ele>
        <time>2018-09-11T14:04:36Z</time>
      </trkpt>
      <trkpt lat="45.80959" lon="6.74758">
        <ele>1833.85</ele>
        <time>2018-09-11T14:04:37Z</time>
      </trkpt>
      <trkpt lat="45.8096" lon="6.7476">
        <ele>1833.85</ele>
        <time>2018-09-11T14:04:38Z</time>
      </trkpt>
      <trkpt lat="45.8096" lon="6.74762">
        <ele>1834.33</ele>
        <time>2018-09-11T14:04:39Z</time>
      </trkpt>
      <trkpt lat="45.80963" lon="6.7477">
        <ele>1835.77</ele>
        <time>2018-09-11T14:04:45Z</time>
      </trkpt>
      <trkpt lat="45.80964" lon="6.74771">
        <ele>1835.77</ele>
        <time>2018-09-11T14:04:46Z</time>
      </trkpt>
      <trkpt lat="45.80965" lon="6.74772">
        <ele>1836.26</ele>
        <time>2018-09-11T14:04:47Z</time>
      </trkpt>
      <trkpt lat="45.80965" lon="6.74774">
        <ele>1836.74</ele>
        <time>2018-09-11T14:04:48Z</time>
      </trkpt>
      <trkpt lat="45.80965" lon="6.74775">
        <ele>1836.74</ele>
        <time>2018-09-11T14:04:49Z</time>
      </trkpt>
      <trkpt lat="45.80964" lon="6.74777">
        <ele>1837.22</ele>
        <time>2018-09-11T14:04:50Z</time>
      </trkpt>
      <trkpt lat="45.80963" lon="6.74778">
        <ele>1837.22</ele>
        <time>2018-09-11T14:04:51Z</time>
      </trkpt>
      <trkpt lat="45.80962" lon="6.7478">
        <ele>1837.7</ele>
        <time>2018-09-11T14:04:53Z</time>
      </trkpt>
      <trkpt lat="45.8096" lon="6.74784">
        <ele>1838.18</ele>
        <time>2018-09-11T14:04:56Z</time>
      </trkpt>
      <trkpt lat="45.8096" lon="6.74786">
        <ele>1838.66</ele>
        <time>2018-09-11T14:04:57Z</time>
      </trkpt>
      <trkpt lat="45.8096" lon="6.74787">
        <ele>1839.14</ele>
        <time>2018-09-11T14:04:58Z</time>
      </trkpt>
      <trkpt lat="45.8096" lon="6.74789">
        <ele>1839.62</ele>
        <time>2018-09-11T14:04:59Z</time>
      </trkpt>
      <trkpt lat="45.8096" lon="6.7479">
        <ele>1839.62</ele>
        <time>2018-09-11T14:05:00Z</time>
      </trkpt>
      <trkpt lat="45.8096" lon="6.74791">
        <ele>1839.62</ele>
        <time>2018-09-11T14:05:01Z</time>
      </trkpt>
      <trkpt lat="45.80961" lon="6.74793">
        <ele>1840.1</ele>
        <time>2018-09-11T14:05:02Z</time>
      </trkpt>
      <trkpt lat="45.8096" lon="6.74794">
        <ele>1840.1</ele>
        <time>2018-09-11T14:05:03Z</time>
      </trkpt>
      <trkpt lat="45.8096" lon="6.74795">
        <ele>1840.1</ele>
        <time>2018-09-11T14:05:04Z</time>
      </trkpt>
      <trkpt lat="45.80961" lon="6.74797">
        <ele>1840.1</ele>
        <time>2018-09-11T14:05:05Z</time>
      </trkpt>
      <trkpt lat="45.80962" lon="6.74799">
        <ele>1840.1</ele>
        <time>2018-09-11T14:05:06Z</time>
      </trkpt>
      <trkpt lat="45.80963" lon="6.748">
        <ele>1840.1</ele>
        <time>2018-09-11T14:05:07Z</time>
      </trkpt>
      <trkpt lat="45.80963" lon="6.74801">
        <ele>1840.1</ele>
        <time>2018-09-11T14:05:08Z</time>
      </trkpt>
      <trkpt lat="45.80964" lon="6.74803">
        <ele>1840.1</ele>
        <time>2018-09-11T14:05:09Z</time>
      </trkpt>
      <trkpt lat="45.80965" lon="6.74805">
        <ele>1840.1</ele>
        <time>2018-09-11T14:05:10Z</time>
      </trkpt>
      <trkpt lat="45.80966" lon="6.74806">
        <ele>1840.1</ele>
        <time>2018-09-11T14:05:11Z</time>
      </trkpt>
      <trkpt lat="45.80967" lon="6.74817">
        <ele>1841.06</ele>
        <time>2018-09-11T14:05:18Z</time>
      </trkpt>
      <trkpt lat="45.80966" lon="6.74819">
        <ele>1841.06</ele>
        <time>2018-09-11T14:05:19Z</time>
      </trkpt>
      <trkpt lat="45.80959" lon="6.7483">
        <ele>1842.98</ele>
        <time>2018-09-11T14:05:29Z</time>
      </trkpt>
      <trkpt lat="45.80955" lon="6.74831">
        <ele>1843.95</ele>
        <time>2018-09-11T14:05:32Z</time>
      </trkpt>
      <trkpt lat="45.80944" lon="6.74845">
        <ele>1846.83</ele>
        <time>2018-09-11T14:05:48Z</time>
      </trkpt>
      <trkpt lat="45.80944" lon="6.74866">
        <ele>1850.19</ele>
        <time>2018-09-11T14:06:03Z</time>
      </trkpt>
      <trkpt lat="45.80945" lon="6.74869">
        <ele>1850.68</ele>
        <time>2018-09-11T14:06:05Z</time>
      </trkpt>
      <trkpt lat="45.80944" lon="6.74885">
        <ele>1853.56</ele>
        <time>2018-09-11T14:06:20Z</time>
      </trkpt>
      <trkpt lat="45.80935" lon="6.74897">
        <ele>1856.92</ele>
        <time>2018-09-11T14:06:43Z</time>
      </trkpt>
      <trkpt lat="45.80922" lon="6.74918">
        <ele>1858.37</ele>
        <time>2018-09-11T14:07:03Z</time>
      </trkpt>
      <trkpt lat="45.80913" lon="6.74943">
        <ele>1860.77</ele>
        <time>2018-09-11T14:07:23Z</time>
      </trkpt>
      <trkpt lat="45.80899" lon="6.74965">
        <ele>1863.17</ele>
        <time>2018-09-11T14:07:44Z</time>
      </trkpt>
      <trkpt lat="45.80904" lon="6.74994">
        <ele>1864.13</ele>
        <time>2018-09-11T14:08:01Z</time>
      </trkpt>
      <trkpt lat="45.80903" lon="6.74996">
        <ele>1864.13</ele>
        <time>2018-09-11T14:08:02Z</time>
      </trkpt>
      <trkpt lat="45.80902" lon="6.75009">
        <ele>1864.13</ele>
        <time>2018-09-11T14:08:10Z</time>
      </trkpt>
      <trkpt lat="45.80902" lon="6.7501">
        <ele>1864.13</ele>
        <time>2018-09-11T14:08:11Z</time>
      </trkpt>
      <trkpt lat="45.80902" lon="6.75012">
        <ele>1863.65</ele>
        <time>2018-09-11T14:08:12Z</time>
      </trkpt>
      <trkpt lat="45.80901" lon="6.75013">
        <ele>1863.65</ele>
        <time>2018-09-11T14:08:13Z</time>
      </trkpt>
      <trkpt lat="45.80901" lon="6.75014">
        <ele>1863.65</ele>
        <time>2018-09-11T14:08:14Z</time>
      </trkpt>
      <trkpt lat="45.809" lon="6.75016">
        <ele>1863.65</ele>
        <time>2018-09-11T14:08:15Z</time>
      </trkpt>
      <trkpt lat="45.809" lon="6.75018">
        <ele>1863.65</ele>
        <time>2018-09-11T14:08:16Z</time>
      </trkpt>
      <trkpt lat="45.80896" lon="6.75048">
        <ele>1863.17</ele>
        <time>2018-09-11T14:08:29Z</time>
      </trkpt>
      <trkpt lat="45.80895" lon="6.75052">
        <ele>1863.17</ele>
        <time>2018-09-11T14:08:30Z</time>
      </trkpt>
      <trkpt lat="45.80894" lon="6.75055">
        <ele>1862.69</ele>
        <time>2018-09-11T14:08:31Z</time>
      </trkpt>
      <trkpt lat="45.80894" lon="6.75057">
        <ele>1862.69</ele>
        <time>2018-09-11T14:08:32Z</time>
      </trkpt>
      <trkpt lat="45.80893" lon="6.7506">
        <ele>1863.17</ele>
        <time>2018-09-11T14:08:33Z</time>
      </trkpt>
      <trkpt lat="45.80893" lon="6.75063">
        <ele>1863.17</ele>
        <time>2018-09-11T14:08:34Z</time>
      </trkpt>
      <trkpt lat="45.80887" lon="6.7509">
        <ele>1863.65</ele>
        <time>2018-09-11T14:08:44Z</time>
      </trkpt>
      <trkpt lat="45.80875" lon="6.75115">
        <ele>1863.17</ele>
        <time>2018-09-11T14:08:53Z</time>
      </trkpt>
      <trkpt lat="45.80871" lon="6.75124">
        <ele>1862.69</ele>
        <time>2018-09-11T14:08:57Z</time>
      </trkpt>
      <trkpt lat="45.80871" lon="6.75126">
        <ele>1862.69</ele>
        <time>2018-09-11T14:08:58Z</time>
      </trkpt>
      <trkpt lat="45.80872" lon="6.75128">
        <ele>1862.69</ele>
        <time>2018-09-11T14:08:59Z</time>
      </trkpt>
      <trkpt lat="45.80873" lon="6.75131">
        <ele>1862.69</ele>
        <time>2018-09-11T14:09:00Z</time>
      </trkpt>
      <trkpt lat="45.80873" lon="6.75134">
        <ele>1863.17</ele>
        <time>2018-09-11T14:09:01Z</time>
      </trkpt>
      <trkpt lat="45.80872" lon="6.75137">
        <ele>1863.17</ele>
        <time>2018-09-11T14:09:02Z</time>
      </trkpt>
      <trkpt lat="45.80872" lon="6.7514">
        <ele>1863.17</ele>
        <time>2018-09-11T14:09:03Z</time>
      </trkpt>
      <trkpt lat="45.80871" lon="6.75142">
        <ele>1863.17</ele>
        <time>2018-09-11T14:09:04Z</time>
      </trkpt>
      <trkpt lat="45.80871" lon="6.75144">
        <ele>1863.17</ele>
        <time>2018-09-11T14:09:05Z</time>
      </trkpt>
      <trkpt lat="45.80863" lon="6.75156">
        <ele>1863.17</ele>
        <time>2018-09-11T14:09:12Z</time>
      </trkpt>
      <trkpt lat="45.80862" lon="6.75159">
        <ele>1863.65</ele>
        <time>2018-09-11T14:09:13Z</time>
      </trkpt>
      <trkpt lat="45.80862" lon="6.75161">
        <ele>1863.65</ele>
        <time>2018-09-11T14:09:14Z</time>
      </trkpt>
      <trkpt lat="45.80852" lon="6.75179">
        <ele>1864.61</ele>
        <time>2018-09-11T14:09:22Z</time>
      </trkpt>
      <trkpt lat="45.80848" lon="6.75183">
        <ele>1865.09</ele>
        <time>2018-09-11T14:09:27Z</time>
      </trkpt>
      <trkpt lat="45.80836" lon="6.75206">
        <ele>1867.5</ele>
        <time>2018-09-11T14:09:45Z</time>
      </trkpt>
      <trkpt lat="45.80824" lon="6.75222">
        <ele>1868.46</ele>
        <time>2018-09-11T14:09:55Z</time>
      </trkpt>
      <trkpt lat="45.80823" lon="6.75225">
        <ele>1868.94</ele>
        <time>2018-09-11T14:09:56Z</time>
      </trkpt>
      <trkpt lat="45.80823" lon="6.75227">
        <ele>1868.94</ele>
        <time>2018-09-11T14:09:57Z</time>
      </trkpt>
      <trkpt lat="45.80818" lon="6.75245">
        <ele>1869.42</ele>
        <time>2018-09-11T14:10:04Z</time>
      </trkpt>
      <trkpt lat="45.80817" lon="6.75245">
        <ele>1869.42</ele>
        <time>2018-09-11T14:10:05Z</time>
      </trkpt>
      <trkpt lat="45.80815" lon="6.75246">
        <ele>1869.42</ele>
        <time>2018-09-11T14:10:06Z</time>
      </trkpt>
      <trkpt lat="45.80814" lon="6.75247">
        <ele>1869.42</ele>
        <time>2018-09-11T14:10:07Z</time>
      </trkpt>
      <trkpt lat="45.80813" lon="6.75249">
        <ele>1869.9</ele>
        <time>2018-09-11T14:10:08Z</time>
      </trkpt>
      <trkpt lat="45.80812" lon="6.75251">
        <ele>1870.38</ele>
        <time>2018-09-11T14:10:09Z</time>
      </trkpt>
      <trkpt lat="45.80811" lon="6.75254">
        <ele>1869.9</ele>
        <time>2018-09-11T14:10:10Z</time>
      </trkpt>
      <trkpt lat="45.80798" lon="6.75269">
        <ele>1870.38</ele>
        <time>2018-09-11T14:10:19Z</time>
      </trkpt>
      <trkpt lat="45.80796" lon="6.7527">
        <ele>1870.38</ele>
        <time>2018-09-11T14:10:20Z</time>
      </trkpt>
      <trkpt lat="45.80795" lon="6.7527">
        <ele>1870.38</ele>
        <time>2018-09-11T14:10:21Z</time>
      </trkpt>
      <trkpt lat="45.80794" lon="6.75271">
        <ele>1870.38</ele>
        <time>2018-09-11T14:10:22Z</time>
      </trkpt>
      <trkpt lat="45.80792" lon="6.75273">
        <ele>1870.38</ele>
        <time>2018-09-11T14:10:23Z</time>
      </trkpt>
      <trkpt lat="45.80792" lon="6.75274">
        <ele>1870.38</ele>
        <time>2018-09-11T14:10:24Z</time>
      </trkpt>
      <trkpt lat="45.8079" lon="6.75276">
        <ele>1869.9</ele>
        <time>2018-09-11T14:10:25Z</time>
      </trkpt>
      <trkpt lat="45.80789" lon="6.75278">
        <ele>1869.42</ele>
        <time>2018-09-11T14:10:26Z</time>
      </trkpt>
      <trkpt lat="45.80788" lon="6.7528">
        <ele>1869.42</ele>
        <time>2018-09-11T14:10:27Z</time>
      </trkpt>
      <trkpt lat="45.80788" lon="6.75283">
        <ele>1868.94</ele>
        <time>2018-09-11T14:10:28Z</time>
      </trkpt>
      <trkpt lat="45.80789" lon="6.75285">
        <ele>1868.94</ele>
        <time>2018-09-11T14:10:29Z</time>
      </trkpt>
      <trkpt lat="45.80789" lon="6.75287">
        <ele>1868.46</ele>
        <time>2018-09-11T14:10:30Z</time>
      </trkpt>
      <trkpt lat="45.80789" lon="6.75289">
        <ele>1867.98</ele>
        <time>2018-09-11T14:10:31Z</time>
      </trkpt>
      <trkpt lat="45.80791" lon="6.753">
        <ele>1867.5</ele>
        <time>2018-09-11T14:10:36Z</time>
      </trkpt>
      <trkpt lat="45.8079" lon="6.75303">
        <ele>1867.02</ele>
        <time>2018-09-11T14:10:37Z</time>
      </trkpt>
      <trkpt lat="45.8079" lon="6.75305">
        <ele>1867.02</ele>
        <time>2018-09-11T14:10:38Z</time>
      </trkpt>
      <trkpt lat="45.8079" lon="6.75308">
        <ele>1866.54</ele>
        <time>2018-09-11T14:10:39Z</time>
      </trkpt>
      <trkpt lat="45.80789" lon="6.75311">
        <ele>1866.06</ele>
        <time>2018-09-11T14:10:40Z</time>
      </trkpt>
      <trkpt lat="45.8079" lon="6.75314">
        <ele>1866.06</ele>
        <time>2018-09-11T14:10:41Z</time>
      </trkpt>
      <trkpt lat="45.8079" lon="6.75316">
        <ele>1866.06</ele>
        <time>2018-09-11T14:10:42Z</time>
      </trkpt>
      <trkpt lat="45.80794" lon="6.7534">
        <ele>1863.17</ele>
        <time>2018-09-11T14:10:52Z</time>
      </trkpt>
      <trkpt lat="45.80799" lon="6.75367">
        <ele>1860.29</ele>
        <time>2018-09-11T14:11:04Z</time>
      </trkpt>
      <trkpt lat="45.80807" lon="6.7539">
        <ele>1856.92</ele>
        <time>2018-09-11T14:11:14Z</time>
      </trkpt>
      <trkpt lat="45.80807" lon="6.75392">
        <ele>1856.44</ele>
        <time>2018-09-11T14:11:15Z</time>
      </trkpt>
      <trkpt lat="45.80805" lon="6.75407">
        <ele>1855</ele>
        <time>2018-09-11T14:11:21Z</time>
      </trkpt>
      <trkpt lat="45.80806" lon="6.75408">
        <ele>1855</ele>
        <time>2018-09-11T14:11:22Z</time>
      </trkpt>
      <trkpt lat="45.80817" lon="6.75423">
        <ele>1851.64</ele>
        <time>2018-09-11T14:11:32Z</time>
      </trkpt>
      <trkpt lat="45.80825" lon="6.75438">
        <ele>1849.71</ele>
        <time>2018-09-11T14:11:41Z</time>
      </trkpt>
      <trkpt lat="45.80826" lon="6.75438">
        <ele>1849.71</ele>
        <time>2018-09-11T14:11:42Z</time>
      </trkpt>
      <trkpt lat="45.80825" lon="6.75443">
        <ele>1848.75</ele>
        <time>2018-09-11T14:12:24Z</time>
      </trkpt>
      <trkpt lat="45.80828" lon="6.75448">
        <ele>1849.23</ele>
        <time>2018-09-11T14:12:55Z</time>
      </trkpt>
      <trkpt lat="45.80829" lon="6.75458">
        <ele>1848.75</ele>
        <time>2018-09-11T14:13:07Z</time>
      </trkpt>
      <trkpt lat="45.8083" lon="6.75459">
        <ele>1848.27</ele>
        <time>2018-09-11T14:13:08Z</time>
      </trkpt>
      <trkpt lat="45.80831" lon="6.7546">
        <ele>1848.27</ele>
        <time>2018-09-11T14:13:09Z</time>
      </trkpt>
      <trkpt lat="45.80832" lon="6.75461">
        <ele>1847.79</ele>
        <time>2018-09-11T14:13:10Z</time>
      </trkpt>
      <trkpt lat="45.80832" lon="6.75465">
        <ele>1847.31</ele>
        <time>2018-09-11T14:13:15Z</time>
      </trkpt>
      <trkpt lat="45.80832" lon="6.75472">
        <ele>1845.87</ele>
        <time>2018-09-11T14:13:18Z</time>
      </trkpt>
      <trkpt lat="45.80834" lon="6.75474">
        <ele>1845.39</ele>
        <time>2018-09-11T14:13:19Z</time>
      </trkpt>
      <trkpt lat="45.80846" lon="6.75498">
        <ele>1842.5</ele>
        <time>2018-09-11T14:13:29Z</time>
      </trkpt>
      <trkpt lat="45.80849" lon="6.75502">
        <ele>1842.02</ele>
        <time>2018-09-11T14:13:32Z</time>
      </trkpt>
      <trkpt lat="45.80851" lon="6.75504">
        <ele>1841.54</ele>
        <time>2018-09-11T14:13:33Z</time>
      </trkpt>
      <trkpt lat="45.80852" lon="6.75507">
        <ele>1841.06</ele>
        <time>2018-09-11T14:13:34Z</time>
      </trkpt>
      <trkpt lat="45.80852" lon="6.75509">
        <ele>1841.06</ele>
        <time>2018-09-11T14:13:35Z</time>
      </trkpt>
      <trkpt lat="45.80852" lon="6.75511">
        <ele>1841.06</ele>
        <time>2018-09-11T14:13:36Z</time>
      </trkpt>
      <trkpt lat="45.80851" lon="6.7552">
        <ele>1844.43</ele>
        <time>2018-09-11T14:13:49Z</time>
      </trkpt>
      <trkpt lat="45.80855" lon="6.75535">
        <ele>1847.31</ele>
        <time>2018-09-11T14:14:05Z</time>
      </trkpt>
      <trkpt lat="45.80859" lon="6.75559">
        <ele>1850.19</ele>
        <time>2018-09-11T14:14:24Z</time>
      </trkpt>
      <trkpt lat="45.80862" lon="6.75583">
        <ele>1853.08</ele>
        <time>2018-09-11T14:14:53Z</time>
      </trkpt>
      <trkpt lat="45.80865" lon="6.75587">
        <ele>1853.56</ele>
        <time>2018-09-11T14:14:58Z</time>
      </trkpt>
      <trkpt lat="45.80864" lon="6.75588">
        <ele>1853.56</ele>
        <time>2018-09-11T14:14:59Z</time>
      </trkpt>
      <trkpt lat="45.80864" lon="6.75589">
        <ele>1853.56</ele>
        <time>2018-09-11T14:15:00Z</time>
      </trkpt>
      <trkpt lat="45.80864" lon="6.75591">
        <ele>1853.56</ele>
        <time>2018-09-11T14:15:01Z</time>
      </trkpt>
      <trkpt lat="45.80864" lon="6.75592">
        <ele>1853.56</ele>
        <time>2018-09-11T14:15:02Z</time>
      </trkpt>
      <trkpt lat="45.80864" lon="6.75593">
        <ele>1853.56</ele>
        <time>2018-09-11T14:15:03Z</time>
      </trkpt>
      <trkpt lat="45.80868" lon="6.75599">
        <ele>1854.04</ele>
        <time>2018-09-11T14:15:08Z</time>
      </trkpt>
      <trkpt lat="45.80869" lon="6.756">
        <ele>1854.04</ele>
        <time>2018-09-11T14:15:09Z</time>
      </trkpt>
      <trkpt lat="45.80873" lon="6.75602">
        <ele>1854.04</ele>
        <time>2018-09-11T14:15:13Z</time>
      </trkpt>
      <trkpt lat="45.80875" lon="6.75602">
        <ele>1853.56</ele>
        <time>2018-09-11T14:15:14Z</time>
      </trkpt>
      <trkpt lat="45.80876" lon="6.75603">
        <ele>1853.56</ele>
        <time>2018-09-11T14:15:15Z</time>
      </trkpt>
      <trkpt lat="45.80877" lon="6.75604">
        <ele>1853.08</ele>
        <time>2018-09-11T14:15:16Z</time>
      </trkpt>
      <trkpt lat="45.8088" lon="6.75611">
        <ele>1851.64</ele>
        <time>2018-09-11T14:15:21Z</time>
      </trkpt>
      <trkpt lat="45.80881" lon="6.75613">
        <ele>1851.16</ele>
        <time>2018-09-11T14:15:22Z</time>
      </trkpt>
      <trkpt lat="45.80881" lon="6.75615">
        <ele>1851.16</ele>
        <time>2018-09-11T14:15:23Z</time>
      </trkpt>
      <trkpt lat="45.80882" lon="6.75617">
        <ele>1850.68</ele>
        <time>2018-09-11T14:15:24Z</time>
      </trkpt>
      <trkpt lat="45.80883" lon="6.75618">
        <ele>1851.16</ele>
        <time>2018-09-11T14:15:25Z</time>
      </trkpt>
      <trkpt lat="45.80885" lon="6.7562">
        <ele>1851.16</ele>
        <time>2018-09-11T14:15:26Z</time>
      </trkpt>
      <trkpt lat="45.80885" lon="6.75621">
        <ele>1850.68</ele>
        <time>2018-09-11T14:15:27Z</time>
      </trkpt>
      <trkpt lat="45.80885" lon="6.75622">
        <ele>1850.68</ele>
        <time>2018-09-11T14:15:28Z</time>
      </trkpt>
      <trkpt lat="45.80884" lon="6.75624">
        <ele>1850.19</ele>
        <time>2018-09-11T14:15:29Z</time>
      </trkpt>
      <trkpt lat="45.80883" lon="6.75625">
        <ele>1850.68</ele>
        <time>2018-09-11T14:15:30Z</time>
      </trkpt>
      <trkpt lat="45.80879" lon="6.75635">
        <ele>1853.08</ele>
        <time>2018-09-11T14:15:41Z</time>
      </trkpt>
      <trkpt lat="45.80879" lon="6.75636">
        <ele>1853.08</ele>
        <time>2018-09-11T14:15:42Z</time>
      </trkpt>
      <trkpt lat="45.80871" lon="6.75643">
        <ele>1855.48</ele>
        <time>2018-09-11T14:16:23Z</time>
      </trkpt>
      <trkpt lat="45.80871" lon="6.7564">
        <ele>1855.96</ele>
        <time>2018-09-11T14:16:47Z</time>
      </trkpt>
      <trkpt lat="45.80872" lon="6.75639">
        <ele>1855.96</ele>
        <time>2018-09-11T14:16:49Z</time>
      </trkpt>
      <trkpt lat="45.80879" lon="6.75635">
        <ele>1853.08</ele>
        <time>2018-09-11T14:17:04Z</time>
      </trkpt>
      <trkpt lat="45.80884" lon="6.75634">
        <ele>1851.64</ele>
        <time>2018-09-11T14:17:16Z</time>
      </trkpt>
      <trkpt lat="45.80886" lon="6.75635">
        <ele>1850.68</ele>
        <time>2018-09-11T14:17:18Z</time>
      </trkpt>
      <trkpt lat="45.80889" lon="6.7564">
        <ele>1850.68</ele>
        <time>2018-09-11T14:17:30Z</time>
      </trkpt>
      <trkpt lat="45.80891" lon="6.75641">
        <ele>1851.16</ele>
        <time>2018-09-11T14:17:31Z</time>
      </trkpt>
      <trkpt lat="45.80892" lon="6.75642">
        <ele>1851.64</ele>
        <time>2018-09-11T14:17:32Z</time>
      </trkpt>
      <trkpt lat="45.80894" lon="6.75642">
        <ele>1852.12</ele>
        <time>2018-09-11T14:17:33Z</time>
      </trkpt>
      <trkpt lat="45.80899" lon="6.75642">
        <ele>1853.56</ele>
        <time>2018-09-11T14:17:40Z</time>
      </trkpt>
      <trkpt lat="45.809" lon="6.75642">
        <ele>1853.56</ele>
        <time>2018-09-11T14:17:41Z</time>
      </trkpt>
      <trkpt lat="45.80901" lon="6.75642">
        <ele>1853.08</ele>
        <time>2018-09-11T14:17:42Z</time>
      </trkpt>
      <trkpt lat="45.80902" lon="6.75642">
        <ele>1853.08</ele>
        <time>2018-09-11T14:17:43Z</time>
      </trkpt>
      <trkpt lat="45.80903" lon="6.75642">
        <ele>1852.6</ele>
        <time>2018-09-11T14:17:44Z</time>
      </trkpt>
      <trkpt lat="45.80904" lon="6.75641">
        <ele>1852.12</ele>
        <time>2018-09-11T14:17:45Z</time>
      </trkpt>
      <trkpt lat="45.80905" lon="6.7564">
        <ele>1852.12</ele>
        <time>2018-09-11T14:17:46Z</time>
      </trkpt>
      <trkpt lat="45.80905" lon="6.75639">
        <ele>1851.64</ele>
        <time>2018-09-11T14:17:47Z</time>
      </trkpt>
      <trkpt lat="45.80907" lon="6.75639">
        <ele>1851.16</ele>
        <time>2018-09-11T14:17:48Z</time>
      </trkpt>
      <trkpt lat="45.80907" lon="6.75638">
        <ele>1850.68</ele>
        <time>2018-09-11T14:17:49Z</time>
      </trkpt>
      <trkpt lat="45.80908" lon="6.75636">
        <ele>1850.19</ele>
        <time>2018-09-11T14:17:50Z</time>
      </trkpt>
      <trkpt lat="45.80908" lon="6.75635">
        <ele>1850.19</ele>
        <time>2018-09-11T14:17:51Z</time>
      </trkpt>
      <trkpt lat="45.8091" lon="6.75635">
        <ele>1849.71</ele>
        <time>2018-09-11T14:17:52Z</time>
      </trkpt>
      <trkpt lat="45.80911" lon="6.75635">
        <ele>1849.23</ele>
        <time>2018-09-11T14:17:53Z</time>
      </trkpt>
      <trkpt lat="45.80913" lon="6.75636">
        <ele>1849.23</ele>
        <time>2018-09-11T14:17:54Z</time>
      </trkpt>
      <trkpt lat="45.80914" lon="6.75636">
        <ele>1848.27</ele>
        <time>2018-09-11T14:17:55Z</time>
      </trkpt>
      <trkpt lat="45.80915" lon="6.75635">
        <ele>1847.79</ele>
        <time>2018-09-11T14:17:56Z</time>
      </trkpt>
      <trkpt lat="45.80915" lon="6.75633">
        <ele>1847.79</ele>
        <time>2018-09-11T14:17:57Z</time>
      </trkpt>
      <trkpt lat="45.80915" lon="6.75631">
        <ele>1846.83</ele>
        <time>2018-09-11T14:17:58Z</time>
      </trkpt>
      <trkpt lat="45.80915" lon="6.7563">
        <ele>1846.83</ele>
        <time>2018-09-11T14:17:59Z</time>
      </trkpt>
      <trkpt lat="45.80916" lon="6.75628">
        <ele>1846.35</ele>
        <time>2018-09-11T14:18:00Z</time>
      </trkpt>
      <trkpt lat="45.80917" lon="6.75628">
        <ele>1845.87</ele>
        <time>2018-09-11T14:18:01Z</time>
      </trkpt>
      <trkpt lat="45.80918" lon="6.75627">
        <ele>1845.39</ele>
        <time>2018-09-11T14:18:02Z</time>
      </trkpt>
      <trkpt lat="45.80919" lon="6.75626">
        <ele>1844.91</ele>
        <time>2018-09-11T14:18:03Z</time>
      </trkpt>
      <trkpt lat="45.80919" lon="6.75624">
        <ele>1844.43</ele>
        <time>2018-09-11T14:18:04Z</time>
      </trkpt>
      <trkpt lat="45.80919" lon="6.75622">
        <ele>1844.43</ele>
        <time>2018-09-11T14:18:05Z</time>
      </trkpt>
      <trkpt lat="45.80919" lon="6.7562">
        <ele>1843.47</ele>
        <time>2018-09-11T14:18:06Z</time>
      </trkpt>
      <trkpt lat="45.80919" lon="6.75618">
        <ele>1842.98</ele>
        <time>2018-09-11T14:18:07Z</time>
      </trkpt>
      <trkpt lat="45.8092" lon="6.75616">
        <ele>1842.98</ele>
        <time>2018-09-11T14:18:08Z</time>
      </trkpt>
      <trkpt lat="45.80921" lon="6.75615">
        <ele>1842.5</ele>
        <time>2018-09-11T14:18:09Z</time>
      </trkpt>
      <trkpt lat="45.80922" lon="6.75614">
        <ele>1842.02</ele>
        <time>2018-09-11T14:18:10Z</time>
      </trkpt>
      <trkpt lat="45.80922" lon="6.75612">
        <ele>1841.54</ele>
        <time>2018-09-11T14:18:11Z</time>
      </trkpt>
      <trkpt lat="45.80922" lon="6.7561">
        <ele>1841.06</ele>
        <time>2018-09-11T14:18:12Z</time>
      </trkpt>
      <trkpt lat="45.80923" lon="6.75608">
        <ele>1840.58</ele>
        <time>2018-09-11T14:18:13Z</time>
      </trkpt>
      <trkpt lat="45.80924" lon="6.75606">
        <ele>1840.1</ele>
        <time>2018-09-11T14:18:14Z</time>
      </trkpt>
      <trkpt lat="45.80927" lon="6.75594">
        <ele>1836.74</ele>
        <time>2018-09-11T14:18:20Z</time>
      </trkpt>
      <trkpt lat="45.80935" lon="6.75586">
        <ele>1832.89</ele>
        <time>2018-09-11T14:18:27Z</time>
      </trkpt>
      <trkpt lat="45.80936" lon="6.75584">
        <ele>1832.41</ele>
        <time>2018-09-11T14:18:28Z</time>
      </trkpt>
      <trkpt lat="45.80937" lon="6.75582">
        <ele>1832.41</ele>
        <time>2018-09-11T14:18:29Z</time>
      </trkpt>
      <trkpt lat="45.80938" lon="6.75581">
        <ele>1831.93</ele>
        <time>2018-09-11T14:18:30Z</time>
      </trkpt>
      <trkpt lat="45.80939" lon="6.7558">
        <ele>1830.97</ele>
        <time>2018-09-11T14:18:31Z</time>
      </trkpt>
      <trkpt lat="45.80941" lon="6.75579">
        <ele>1830.01</ele>
        <time>2018-09-11T14:18:32Z</time>
      </trkpt>
      <trkpt lat="45.80942" lon="6.75579">
        <ele>1830.01</ele>
        <time>2018-09-11T14:18:33Z</time>
      </trkpt>
      <trkpt lat="45.80943" lon="6.75578">
        <ele>1829.53</ele>
        <time>2018-09-11T14:18:34Z</time>
      </trkpt>
      <trkpt lat="45.80944" lon="6.75577">
        <ele>1829.05</ele>
        <time>2018-09-11T14:18:35Z</time>
      </trkpt>
      <trkpt lat="45.80945" lon="6.75576">
        <ele>1828.56</ele>
        <time>2018-09-11T14:18:36Z</time>
      </trkpt>
      <trkpt lat="45.80946" lon="6.75575">
        <ele>1827.6</ele>
        <time>2018-09-11T14:18:37Z</time>
      </trkpt>
      <trkpt lat="45.80948" lon="6.75576">
        <ele>1827.6</ele>
        <time>2018-09-11T14:18:38Z</time>
      </trkpt>
      <trkpt lat="45.80949" lon="6.75576">
        <ele>1827.12</ele>
        <time>2018-09-11T14:18:39Z</time>
      </trkpt>
      <trkpt lat="45.8095" lon="6.75576">
        <ele>1826.64</ele>
        <time>2018-09-11T14:18:40Z</time>
      </trkpt>
      <trkpt lat="45.80952" lon="6.75576">
        <ele>1826.64</ele>
        <time>2018-09-11T14:18:41Z</time>
      </trkpt>
      <trkpt lat="45.80953" lon="6.75576">
        <ele>1826.16</ele>
        <time>2018-09-11T14:18:42Z</time>
      </trkpt>
      <trkpt lat="45.80955" lon="6.75575">
        <ele>1825.2</ele>
        <time>2018-09-11T14:18:44Z</time>
      </trkpt>
      <trkpt lat="45.80957" lon="6.75575">
        <ele>1824.24</ele>
        <time>2018-09-11T14:18:45Z</time>
      </trkpt>
      <trkpt lat="45.80957" lon="6.75575">
        <ele>1823.76</ele>
        <time>2018-09-11T14:18:46Z</time>
      </trkpt>
      <trkpt lat="45.80959" lon="6.75574">
        <ele>1823.28</ele>
        <time>2018-09-11T14:18:47Z</time>
      </trkpt>
      <trkpt lat="45.8096" lon="6.75574">
        <ele>1823.28</ele>
        <time>2018-09-11T14:18:48Z</time>
      </trkpt>
      <trkpt lat="45.80962" lon="6.75574">
        <ele>1822.8</ele>
        <time>2018-09-11T14:18:49Z</time>
      </trkpt>
      <trkpt lat="45.80963" lon="6.75575">
        <ele>1822.32</ele>
        <time>2018-09-11T14:18:50Z</time>
      </trkpt>
      <trkpt lat="45.80964" lon="6.75576">
        <ele>1822.32</ele>
        <time>2018-09-11T14:18:51Z</time>
      </trkpt>
      <trkpt lat="45.80965" lon="6.75578">
        <ele>1821.84</ele>
        <time>2018-09-11T14:18:52Z</time>
      </trkpt>
      <trkpt lat="45.80981" lon="6.75586">
        <ele>1818.47</ele>
        <time>2018-09-11T14:19:02Z</time>
      </trkpt>
      <trkpt lat="45.80988" lon="6.75586">
        <ele>1816.07</ele>
        <time>2018-09-11T14:19:07Z</time>
      </trkpt>
      <trkpt lat="45.80993" lon="6.75591">
        <ele>1815.59</ele>
        <time>2018-09-11T14:19:10Z</time>
      </trkpt>
      <trkpt lat="45.81007" lon="6.75604">
        <ele>1812.22</ele>
        <time>2018-09-11T14:19:19Z</time>
      </trkpt>
      <trkpt lat="45.81021" lon="6.75615">
        <ele>1809.82</ele>
        <time>2018-09-11T14:19:27Z</time>
      </trkpt>
      <trkpt lat="45.81038" lon="6.75627">
        <ele>1806.94</ele>
        <time>2018-09-11T14:19:37Z</time>
      </trkpt>
      <trkpt lat="45.81059" lon="6.75627">
        <ele>1803.57</ele>
        <time>2018-09-11T14:19:46Z</time>
      </trkpt>
      <trkpt lat="45.81062" lon="6.75629">
        <ele>1803.09</ele>
        <time>2018-09-11T14:19:48Z</time>
      </trkpt>
      <trkpt lat="45.81063" lon="6.75631">
        <ele>1802.61</ele>
        <time>2018-09-11T14:19:49Z</time>
      </trkpt>
      <trkpt lat="45.81064" lon="6.75632">
        <ele>1802.61</ele>
        <time>2018-09-11T14:19:50Z</time>
      </trkpt>
      <trkpt lat="45.81065" lon="6.75633">
        <ele>1801.17</ele>
        <time>2018-09-11T14:19:53Z</time>
      </trkpt>
      <trkpt lat="45.81066" lon="6.75634">
        <ele>1801.17</ele>
        <time>2018-09-11T14:19:54Z</time>
      </trkpt>
      <trkpt lat="45.81067" lon="6.75635">
        <ele>1800.69</ele>
        <time>2018-09-11T14:19:55Z</time>
      </trkpt>
      <trkpt lat="45.81068" lon="6.75637">
        <ele>1800.69</ele>
        <time>2018-09-11T14:19:56Z</time>
      </trkpt>
      <trkpt lat="45.81069" lon="6.75638">
        <ele>1800.69</ele>
        <time>2018-09-11T14:19:57Z</time>
      </trkpt>
      <trkpt lat="45.81072" lon="6.75639">
        <ele>1800.21</ele>
        <time>2018-09-11T14:19:59Z</time>
      </trkpt>
      <trkpt lat="45.81083" lon="6.7563">
        <ele>1800.21</ele>
        <time>2018-09-11T14:20:06Z</time>
      </trkpt>
      <trkpt lat="45.81084" lon="6.75628">
        <ele>1799.73</ele>
        <time>2018-09-11T14:20:07Z</time>
      </trkpt>
      <trkpt lat="45.81086" lon="6.75627">
        <ele>1799.24</ele>
        <time>2018-09-11T14:20:08Z</time>
      </trkpt>
      <trkpt lat="45.81088" lon="6.75625">
        <ele>1798.76</ele>
        <time>2018-09-11T14:20:09Z</time>
      </trkpt>
      <trkpt lat="45.811" lon="6.75621">
        <ele>1795.4</ele>
        <time>2018-09-11T14:20:15Z</time>
      </trkpt>
      <trkpt lat="45.81121" lon="6.75614">
        <ele>1792.03</ele>
        <time>2018-09-11T14:20:24Z</time>
      </trkpt>
      <trkpt lat="45.81139" lon="6.75603">
        <ele>1788.67</ele>
        <time>2018-09-11T14:20:31Z</time>
      </trkpt>
      <trkpt lat="45.81157" lon="6.75594">
        <ele>1785.79</ele>
        <time>2018-09-11T14:20:39Z</time>
      </trkpt>
      <trkpt lat="45.81162" lon="6.7559">
        <ele>1784.82</ele>
        <time>2018-09-11T14:20:41Z</time>
      </trkpt>
      <trkpt lat="45.81164" lon="6.75588">
        <ele>1784.82</ele>
        <time>2018-09-11T14:20:42Z</time>
      </trkpt>
      <trkpt lat="45.81166" lon="6.75587">
        <ele>1784.34</ele>
        <time>2018-09-11T14:20:43Z</time>
      </trkpt>
      <trkpt lat="45.81169" lon="6.75586">
        <ele>1783.86</ele>
        <time>2018-09-11T14:20:44Z</time>
      </trkpt>
      <trkpt lat="45.81171" lon="6.75585">
        <ele>1783.38</ele>
        <time>2018-09-11T14:20:45Z</time>
      </trkpt>
      <trkpt lat="45.81173" lon="6.75583">
        <ele>1783.38</ele>
        <time>2018-09-11T14:20:46Z</time>
      </trkpt>
      <trkpt lat="45.81172" lon="6.75581">
        <ele>1782.42</ele>
        <time>2018-09-11T14:20:48Z</time>
      </trkpt>
      <trkpt lat="45.8117" lon="6.7558">
        <ele>1782.42</ele>
        <time>2018-09-11T14:20:49Z</time>
      </trkpt>
      <trkpt lat="45.81168" lon="6.75579">
        <ele>1781.46</ele>
        <time>2018-09-11T14:20:50Z</time>
      </trkpt>
      <trkpt lat="45.81166" lon="6.75577">
        <ele>1780.98</ele>
        <time>2018-09-11T14:20:51Z</time>
      </trkpt>
      <trkpt lat="45.81164" lon="6.75576">
        <ele>1780.98</ele>
        <time>2018-09-11T14:20:52Z</time>
      </trkpt>
      <trkpt lat="45.81162" lon="6.75574">
        <ele>1780.5</ele>
        <time>2018-09-11T14:20:53Z</time>
      </trkpt>
      <trkpt lat="45.8116" lon="6.75573">
        <ele>1780.02</ele>
        <time>2018-09-11T14:20:54Z</time>
      </trkpt>
      <trkpt lat="45.81157" lon="6.75571">
        <ele>1780.02</ele>
        <time>2018-09-11T14:20:55Z</time>
      </trkpt>
      <trkpt lat="45.81155" lon="6.7557">
        <ele>1779.54</ele>
        <time>2018-09-11T14:20:56Z</time>
      </trkpt>
      <trkpt lat="45.81139" lon="6.75557">
        <ele>1776.17</ele>
        <time>2018-09-11T14:21:04Z</time>
      </trkpt>
      <trkpt lat="45.81124" lon="6.75543">
        <ele>1773.29</ele>
        <time>2018-09-11T14:21:12Z</time>
      </trkpt>
      <trkpt lat="45.81123" lon="6.75541">
        <ele>1772.81</ele>
        <time>2018-09-11T14:21:13Z</time>
      </trkpt>
      <trkpt lat="45.81122" lon="6.7554">
        <ele>1772.33</ele>
        <time>2018-09-11T14:21:14Z</time>
      </trkpt>
      <trkpt lat="45.81124" lon="6.75539">
        <ele>1771.85</ele>
        <time>2018-09-11T14:21:15Z</time>
      </trkpt>
      <trkpt lat="45.81126" lon="6.75539">
        <ele>1771.37</ele>
        <time>2018-09-11T14:21:16Z</time>
      </trkpt>
      <trkpt lat="45.81128" lon="6.75538">
        <ele>1770.89</ele>
        <time>2018-09-11T14:21:17Z</time>
      </trkpt>
      <trkpt lat="45.81129" lon="6.75537">
        <ele>1770.41</ele>
        <time>2018-09-11T14:21:18Z</time>
      </trkpt>
      <trkpt lat="45.81131" lon="6.75536">
        <ele>1770.41</ele>
        <time>2018-09-11T14:21:19Z</time>
      </trkpt>
      <trkpt lat="45.81138" lon="6.7553">
        <ele>1768</ele>
        <time>2018-09-11T14:21:24Z</time>
      </trkpt>
      <trkpt lat="45.81139" lon="6.75528">
        <ele>1768</ele>
        <time>2018-09-11T14:21:25Z</time>
      </trkpt>
      <trkpt lat="45.8114" lon="6.75527">
        <ele>1767.52</ele>
        <time>2018-09-11T14:21:26Z</time>
      </trkpt>
      <trkpt lat="45.81148" lon="6.75519">
        <ele>1764.16</ele>
        <time>2018-09-11T14:21:32Z</time>
      </trkpt>
      <trkpt lat="45.81149" lon="6.75517">
        <ele>1763.68</ele>
        <time>2018-09-11T14:21:33Z</time>
      </trkpt>
      <trkpt lat="45.81149" lon="6.75514">
        <ele>1763.2</ele>
        <time>2018-09-11T14:21:34Z</time>
      </trkpt>
      <trkpt lat="45.81151" lon="6.75503">
        <ele>1759.83</ele>
        <time>2018-09-11T14:21:39Z</time>
      </trkpt>
      <trkpt lat="45.81153" lon="6.75503">
        <ele>1759.83</ele>
        <time>2018-09-11T14:21:40Z</time>
      </trkpt>
      <trkpt lat="45.81155" lon="6.75504">
        <ele>1759.35</ele>
        <time>2018-09-11T14:21:41Z</time>
      </trkpt>
      <trkpt lat="45.81157" lon="6.75504">
        <ele>1759.35</ele>
        <time>2018-09-11T14:21:42Z</time>
      </trkpt>
      <trkpt lat="45.81158" lon="6.75504">
        <ele>1758.87</ele>
        <time>2018-09-11T14:21:43Z</time>
      </trkpt>
      <trkpt lat="45.8116" lon="6.75505">
        <ele>1758.39</ele>
        <time>2018-09-11T14:21:44Z</time>
      </trkpt>
      <trkpt lat="45.81162" lon="6.75505">
        <ele>1758.39</ele>
        <time>2018-09-11T14:21:45Z</time>
      </trkpt>
      <trkpt lat="45.81166" lon="6.75503">
        <ele>1756.95</ele>
        <time>2018-09-11T14:21:49Z</time>
      </trkpt>
      <trkpt lat="45.81166" lon="6.75499">
        <ele>1755.5</ele>
        <time>2018-09-11T14:21:52Z</time>
      </trkpt>
      <trkpt lat="45.81165" lon="6.75496">
        <ele>1755.02</ele>
        <time>2018-09-11T14:21:53Z</time>
      </trkpt>
      <trkpt lat="45.81164" lon="6.75494">
        <ele>1755.02</ele>
        <time>2018-09-11T14:21:54Z</time>
      </trkpt>
      <trkpt lat="45.81164" lon="6.75493">
        <ele>1754.54</ele>
        <time>2018-09-11T14:21:55Z</time>
      </trkpt>
      <trkpt lat="45.81163" lon="6.75491">
        <ele>1754.06</ele>
        <time>2018-09-11T14:21:56Z</time>
      </trkpt>
      <trkpt lat="45.81163" lon="6.75488">
        <ele>1753.58</ele>
        <time>2018-09-11T14:21:57Z</time>
      </trkpt>
      <trkpt lat="45.81163" lon="6.75486">
        <ele>1753.1</ele>
        <time>2018-09-11T14:21:58Z</time>
      </trkpt>
      <trkpt lat="45.81164" lon="6.75485">
        <ele>1752.62</ele>
        <time>2018-09-11T14:21:59Z</time>
      </trkpt>
      <trkpt lat="45.81165" lon="6.75485">
        <ele>1752.14</ele>
        <time>2018-09-11T14:22:00Z</time>
      </trkpt>
      <trkpt lat="45.81167" lon="6.75485">
        <ele>1751.66</ele>
        <time>2018-09-11T14:22:01Z</time>
      </trkpt>
      <trkpt lat="45.81169" lon="6.75485">
        <ele>1751.18</ele>
        <time>2018-09-11T14:22:02Z</time>
      </trkpt>
      <trkpt lat="45.81172" lon="6.75485">
        <ele>1750.7</ele>
        <time>2018-09-11T14:22:03Z</time>
      </trkpt>
      <trkpt lat="45.81173" lon="6.75482">
        <ele>1750.7</ele>
        <time>2018-09-11T14:22:04Z</time>
      </trkpt>
      <trkpt lat="45.81174" lon="6.7548">
        <ele>1751.18</ele>
        <time>2018-09-11T14:22:05Z</time>
      </trkpt>
      <trkpt lat="45.81174" lon="6.75478">
        <ele>1751.18</ele>
        <time>2018-09-11T14:22:06Z</time>
      </trkpt>
      <trkpt lat="45.81174" lon="6.75476">
        <ele>1751.18</ele>
        <time>2018-09-11T14:22:07Z</time>
      </trkpt>
      <trkpt lat="45.81174" lon="6.75473">
        <ele>1751.18</ele>
        <time>2018-09-11T14:22:08Z</time>
      </trkpt>
      <trkpt lat="45.81175" lon="6.75471">
        <ele>1750.7</ele>
        <time>2018-09-11T14:22:09Z</time>
      </trkpt>
      <trkpt lat="45.81176" lon="6.75469">
        <ele>1750.22</ele>
        <time>2018-09-11T14:22:10Z</time>
      </trkpt>
      <trkpt lat="45.81176" lon="6.75467">
        <ele>1749.26</ele>
        <time>2018-09-11T14:22:11Z</time>
      </trkpt>
      <trkpt lat="45.81175" lon="6.75465">
        <ele>1748.78</ele>
        <time>2018-09-11T14:22:12Z</time>
      </trkpt>
      <trkpt lat="45.81175" lon="6.75462">
        <ele>1748.29</ele>
        <time>2018-09-11T14:22:13Z</time>
      </trkpt>
      <trkpt lat="45.81175" lon="6.7546">
        <ele>1747.81</ele>
        <time>2018-09-11T14:22:14Z</time>
      </trkpt>
      <trkpt lat="45.81176" lon="6.75458">
        <ele>1746.85</ele>
        <time>2018-09-11T14:22:15Z</time>
      </trkpt>
      <trkpt lat="45.81178" lon="6.75458">
        <ele>1746.85</ele>
        <time>2018-09-11T14:22:16Z</time>
      </trkpt>
      <trkpt lat="45.81179" lon="6.75458">
        <ele>1746.37</ele>
        <time>2018-09-11T14:22:17Z</time>
      </trkpt>
      <trkpt lat="45.8118" lon="6.75458">
        <ele>1745.89</ele>
        <time>2018-09-11T14:22:18Z</time>
      </trkpt>
      <trkpt lat="45.81181" lon="6.75456">
        <ele>1745.41</ele>
        <time>2018-09-11T14:22:19Z</time>
      </trkpt>
      <trkpt lat="45.81182" lon="6.75454">
        <ele>1745.41</ele>
        <time>2018-09-11T14:22:20Z</time>
      </trkpt>
      <trkpt lat="45.81183" lon="6.75452">
        <ele>1744.93</ele>
        <time>2018-09-11T14:22:21Z</time>
      </trkpt>
      <trkpt lat="45.81185" lon="6.75451">
        <ele>1744.45</ele>
        <time>2018-09-11T14:22:22Z</time>
      </trkpt>
      <trkpt lat="45.81186" lon="6.7545">
        <ele>1743.97</ele>
        <time>2018-09-11T14:22:23Z</time>
      </trkpt>
      <trkpt lat="45.81191" lon="6.75447">
        <ele>1743.01</ele>
        <time>2018-09-11T14:22:26Z</time>
      </trkpt>
      <trkpt lat="45.81192" lon="6.75447">
        <ele>1743.01</ele>
        <time>2018-09-11T14:22:27Z</time>
      </trkpt>
      <trkpt lat="45.81194" lon="6.75446">
        <ele>1742.53</ele>
        <time>2018-09-11T14:22:28Z</time>
      </trkpt>
      <trkpt lat="45.81195" lon="6.75447">
        <ele>1742.53</ele>
        <time>2018-09-11T14:22:29Z</time>
      </trkpt>
      <trkpt lat="45.81197" lon="6.75448">
        <ele>1742.05</ele>
        <time>2018-09-11T14:22:30Z</time>
      </trkpt>
      <trkpt lat="45.81198" lon="6.75449">
        <ele>1742.05</ele>
        <time>2018-09-11T14:22:31Z</time>
      </trkpt>
      <trkpt lat="45.81201" lon="6.7545">
        <ele>1741.57</ele>
        <time>2018-09-11T14:22:32Z</time>
      </trkpt>
      <trkpt lat="45.81203" lon="6.75452">
        <ele>1741.57</ele>
        <time>2018-09-11T14:22:33Z</time>
      </trkpt>
      <trkpt lat="45.81204" lon="6.75453">
        <ele>1742.05</ele>
        <time>2018-09-11T14:22:34Z</time>
      </trkpt>
      <trkpt lat="45.81205" lon="6.75454">
        <ele>1742.53</ele>
        <time>2018-09-11T14:22:35Z</time>
      </trkpt>
      <trkpt lat="45.81206" lon="6.75454">
        <ele>1742.53</ele>
        <time>2018-09-11T14:22:36Z</time>
      </trkpt>
      <trkpt lat="45.81208" lon="6.75455">
        <ele>1742.53</ele>
        <time>2018-09-11T14:22:37Z</time>
      </trkpt>
      <trkpt lat="45.81209" lon="6.75456">
        <ele>1742.53</ele>
        <time>2018-09-11T14:22:38Z</time>
      </trkpt>
      <trkpt lat="45.8121" lon="6.75458">
        <ele>1742.05</ele>
        <time>2018-09-11T14:22:39Z</time>
      </trkpt>
      <trkpt lat="45.81211" lon="6.75461">
        <ele>1741.57</ele>
        <time>2018-09-11T14:22:40Z</time>
      </trkpt>
      <trkpt lat="45.81213" lon="6.75464">
        <ele>1741.57</ele>
        <time>2018-09-11T14:22:41Z</time>
      </trkpt>
      <trkpt lat="45.81213" lon="6.75466">
        <ele>1741.57</ele>
        <time>2018-09-11T14:22:42Z</time>
      </trkpt>
      <trkpt lat="45.81214" lon="6.75467">
        <ele>1741.57</ele>
        <time>2018-09-11T14:22:43Z</time>
      </trkpt>
      <trkpt lat="45.81215" lon="6.75468">
        <ele>1741.57</ele>
        <time>2018-09-11T14:22:44Z</time>
      </trkpt>
      <trkpt lat="45.81216" lon="6.7547">
        <ele>1741.57</ele>
        <time>2018-09-11T14:22:45Z</time>
      </trkpt>
      <trkpt lat="45.81216" lon="6.75472">
        <ele>1741.57</ele>
        <time>2018-09-11T14:22:47Z</time>
      </trkpt>
      <trkpt lat="45.81222" lon="6.75471">
        <ele>1742.05</ele>
        <time>2018-09-11T14:23:06Z</time>
      </trkpt>
      <trkpt lat="45.81226" lon="6.75469">
        <ele>1743.01</ele>
        <time>2018-09-11T14:23:09Z</time>
      </trkpt>
      <trkpt lat="45.81227" lon="6.75468">
        <ele>1743.01</ele>
        <time>2018-09-11T14:23:10Z</time>
      </trkpt>
      <trkpt lat="45.81231" lon="6.75467">
        <ele>1743.01</ele>
        <time>2018-09-11T14:23:12Z</time>
      </trkpt>
      <trkpt lat="45.81232" lon="6.75468">
        <ele>1743.01</ele>
        <time>2018-09-11T14:23:13Z</time>
      </trkpt>
      <trkpt lat="45.81234" lon="6.75469">
        <ele>1743.01</ele>
        <time>2018-09-11T14:23:14Z</time>
      </trkpt>
      <trkpt lat="45.81248" lon="6.75471">
        <ele>1742.05</ele>
        <time>2018-09-11T14:23:21Z</time>
      </trkpt>
      <trkpt lat="45.8125" lon="6.7547">
        <ele>1741.57</ele>
        <time>2018-09-11T14:23:22Z</time>
      </trkpt>
      <trkpt lat="45.81252" lon="6.7547">
        <ele>1741.08</ele>
        <time>2018-09-11T14:23:23Z</time>
      </trkpt>
      <trkpt lat="45.81261" lon="6.75468">
        <ele>1739.16</ele>
        <time>2018-09-11T14:23:29Z</time>
      </trkpt>
      <trkpt lat="45.81262" lon="6.75466">
        <ele>1739.16</ele>
        <time>2018-09-11T14:23:30Z</time>
      </trkpt>
      <trkpt lat="45.81263" lon="6.75461">
        <ele>1737.72</ele>
        <time>2018-09-11T14:23:32Z</time>
      </trkpt>
      <trkpt lat="45.81271" lon="6.75454">
        <ele>1734.84</ele>
        <time>2018-09-11T14:23:39Z</time>
      </trkpt>
      <trkpt lat="45.81272" lon="6.75452">
        <ele>1734.36</ele>
        <time>2018-09-11T14:23:40Z</time>
      </trkpt>
      <trkpt lat="45.81272" lon="6.75448">
        <ele>1732.91</ele>
        <time>2018-09-11T14:23:42Z</time>
      </trkpt>
      <trkpt lat="45.81273" lon="6.75446">
        <ele>1731.95</ele>
        <time>2018-09-11T14:23:43Z</time>
      </trkpt>
      <trkpt lat="45.81274" lon="6.75445">
        <ele>1731.47</ele>
        <time>2018-09-11T14:23:44Z</time>
      </trkpt>
      <trkpt lat="45.81276" lon="6.75444">
        <ele>1730.99</ele>
        <time>2018-09-11T14:23:45Z</time>
      </trkpt>
      <trkpt lat="45.81277" lon="6.75444">
        <ele>1730.99</ele>
        <time>2018-09-11T14:23:46Z</time>
      </trkpt>
      <trkpt lat="45.81278" lon="6.75444">
        <ele>1730.51</ele>
        <time>2018-09-11T14:23:47Z</time>
      </trkpt>
      <trkpt lat="45.81278" lon="6.75445">
        <ele>1730.03</ele>
        <time>2018-09-11T14:23:48Z</time>
      </trkpt>
      <trkpt lat="45.8128" lon="6.75445">
        <ele>1730.03</ele>
        <time>2018-09-11T14:23:50Z</time>
      </trkpt>
      <trkpt lat="45.81281" lon="6.75445">
        <ele>1730.03</ele>
        <time>2018-09-11T14:23:51Z</time>
      </trkpt>
      <trkpt lat="45.81294" lon="6.75438">
        <ele>1726.67</ele>
        <time>2018-09-11T14:23:58Z</time>
      </trkpt>
      <trkpt lat="45.81314" lon="6.75436">
        <ele>1725.7</ele>
        <time>2018-09-11T14:24:07Z</time>
      </trkpt>
      <trkpt lat="45.81326" lon="6.75425">
        <ele>1722.34</ele>
        <time>2018-09-11T14:24:16Z</time>
      </trkpt>
      <trkpt lat="45.81326" lon="6.75423">
        <ele>1722.34</ele>
        <time>2018-09-11T14:24:17Z</time>
      </trkpt>
      <trkpt lat="45.81326" lon="6.75421">
        <ele>1721.86</ele>
        <time>2018-09-11T14:24:18Z</time>
      </trkpt>
      <trkpt lat="45.81326" lon="6.75419">
        <ele>1721.38</ele>
        <time>2018-09-11T14:24:19Z</time>
      </trkpt>
      <trkpt lat="45.81325" lon="6.75417">
        <ele>1720.9</ele>
        <time>2018-09-11T14:24:20Z</time>
      </trkpt>
      <trkpt lat="45.81325" lon="6.75414">
        <ele>1720.42</ele>
        <time>2018-09-11T14:24:21Z</time>
      </trkpt>
      <trkpt lat="45.81327" lon="6.75412">
        <ele>1719.94</ele>
        <time>2018-09-11T14:24:22Z</time>
      </trkpt>
      <trkpt lat="45.81328" lon="6.75412">
        <ele>1718.97</ele>
        <time>2018-09-11T14:24:23Z</time>
      </trkpt>
      <trkpt lat="45.8133" lon="6.75412">
        <ele>1718.49</ele>
        <time>2018-09-11T14:24:24Z</time>
      </trkpt>
      <trkpt lat="45.81332" lon="6.75412">
        <ele>1718.01</ele>
        <time>2018-09-11T14:24:25Z</time>
      </trkpt>
      <trkpt lat="45.81334" lon="6.75411">
        <ele>1718.01</ele>
        <time>2018-09-11T14:24:26Z</time>
      </trkpt>
      <trkpt lat="45.81336" lon="6.75411">
        <ele>1717.05</ele>
        <time>2018-09-11T14:24:27Z</time>
      </trkpt>
      <trkpt lat="45.81338" lon="6.75411">
        <ele>1716.57</ele>
        <time>2018-09-11T14:24:28Z</time>
      </trkpt>
      <trkpt lat="45.8134" lon="6.7541">
        <ele>1716.57</ele>
        <time>2018-09-11T14:24:29Z</time>
      </trkpt>
      <trkpt lat="45.81342" lon="6.75411">
        <ele>1716.09</ele>
        <time>2018-09-11T14:24:30Z</time>
      </trkpt>
      <trkpt lat="45.81344" lon="6.75411">
        <ele>1716.09</ele>
        <time>2018-09-11T14:24:31Z</time>
      </trkpt>
      <trkpt lat="45.81345" lon="6.75411">
        <ele>1715.61</ele>
        <time>2018-09-11T14:24:32Z</time>
      </trkpt>
      <trkpt lat="45.81347" lon="6.75411">
        <ele>1715.13</ele>
        <time>2018-09-11T14:24:33Z</time>
      </trkpt>
      <trkpt lat="45.81349" lon="6.75411">
        <ele>1714.65</ele>
        <time>2018-09-11T14:24:34Z</time>
      </trkpt>
      <trkpt lat="45.81351" lon="6.7541">
        <ele>1714.17</ele>
        <time>2018-09-11T14:24:35Z</time>
      </trkpt>
      <trkpt lat="45.81353" lon="6.75409">
        <ele>1713.69</ele>
        <time>2018-09-11T14:24:36Z</time>
      </trkpt>
      <trkpt lat="45.81354" lon="6.75409">
        <ele>1713.21</ele>
        <time>2018-09-11T14:24:37Z</time>
      </trkpt>
      <trkpt lat="45.81356" lon="6.75408">
        <ele>1712.73</ele>
        <time>2018-09-11T14:24:38Z</time>
      </trkpt>
      <trkpt lat="45.81357" lon="6.75408">
        <ele>1712.73</ele>
        <time>2018-09-11T14:24:39Z</time>
      </trkpt>
      <trkpt lat="45.81358" lon="6.75406">
        <ele>1712.25</ele>
        <time>2018-09-11T14:24:40Z</time>
      </trkpt>
      <trkpt lat="45.81359" lon="6.75405">
        <ele>1711.28</ele>
        <time>2018-09-11T14:24:41Z</time>
      </trkpt>
      <trkpt lat="45.81361" lon="6.75404">
        <ele>1710.8</ele>
        <time>2018-09-11T14:24:42Z</time>
      </trkpt>
      <trkpt lat="45.81362" lon="6.75403">
        <ele>1710.32</ele>
        <time>2018-09-11T14:24:43Z</time>
      </trkpt>
      <trkpt lat="45.81363" lon="6.75402">
        <ele>1709.36</ele>
        <time>2018-09-11T14:24:44Z</time>
      </trkpt>
      <trkpt lat="45.81364" lon="6.754">
        <ele>1708.88</ele>
        <time>2018-09-11T14:24:45Z</time>
      </trkpt>
      <trkpt lat="45.81366" lon="6.75399">
        <ele>1708.4</ele>
        <time>2018-09-11T14:24:46Z</time>
      </trkpt>
      <trkpt lat="45.81368" lon="6.75398">
        <ele>1707.92</ele>
        <time>2018-09-11T14:24:47Z</time>
      </trkpt>
      <trkpt lat="45.81369" lon="6.75397">
        <ele>1707.44</ele>
        <time>2018-09-11T14:24:48Z</time>
      </trkpt>
      <trkpt lat="45.8137" lon="6.75396">
        <ele>1706.96</ele>
        <time>2018-09-11T14:24:49Z</time>
      </trkpt>
      <trkpt lat="45.81371" lon="6.75394">
        <ele>1706.48</ele>
        <time>2018-09-11T14:24:50Z</time>
      </trkpt>
      <trkpt lat="45.81372" lon="6.75392">
        <ele>1706</ele>
        <time>2018-09-11T14:24:51Z</time>
      </trkpt>
      <trkpt lat="45.81373" lon="6.75391">
        <ele>1705.52</ele>
        <time>2018-09-11T14:24:52Z</time>
      </trkpt>
      <trkpt lat="45.81374" lon="6.75389">
        <ele>1705.04</ele>
        <time>2018-09-11T14:24:53Z</time>
      </trkpt>
      <trkpt lat="45.81374" lon="6.75387">
        <ele>1705.04</ele>
        <time>2018-09-11T14:24:54Z</time>
      </trkpt>
      <trkpt lat="45.81376" lon="6.75383">
        <ele>1704.07</ele>
        <time>2018-09-11T14:24:56Z</time>
      </trkpt>
      <trkpt lat="45.81377" lon="6.75383">
        <ele>1703.11</ele>
        <time>2018-09-11T14:24:57Z</time>
      </trkpt>
      <trkpt lat="45.8138" lon="6.75383">
        <ele>1702.63</ele>
        <time>2018-09-11T14:24:59Z</time>
      </trkpt>
      <trkpt lat="45.81381" lon="6.75382">
        <ele>1701.67</ele>
        <time>2018-09-11T14:25:00Z</time>
      </trkpt>
      <trkpt lat="45.81383" lon="6.75381">
        <ele>1701.19</ele>
        <time>2018-09-11T14:25:01Z</time>
      </trkpt>
      <trkpt lat="45.81384" lon="6.7538">
        <ele>1701.19</ele>
        <time>2018-09-11T14:25:02Z</time>
      </trkpt>
      <trkpt lat="45.81385" lon="6.75378">
        <ele>1700.23</ele>
        <time>2018-09-11T14:25:03Z</time>
      </trkpt>
      <trkpt lat="45.81386" lon="6.75377">
        <ele>1700.23</ele>
        <time>2018-09-11T14:25:04Z</time>
      </trkpt>
      <trkpt lat="45.81387" lon="6.75375">
        <ele>1700.23</ele>
        <time>2018-09-11T14:25:05Z</time>
      </trkpt>
      <trkpt lat="45.81388" lon="6.75372">
        <ele>1699.27</ele>
        <time>2018-09-11T14:25:06Z</time>
      </trkpt>
      <trkpt lat="45.81389" lon="6.7537">
        <ele>1698.79</ele>
        <time>2018-09-11T14:25:07Z</time>
      </trkpt>
      <trkpt lat="45.81389" lon="6.75367">
        <ele>1698.31</ele>
        <time>2018-09-11T14:25:08Z</time>
      </trkpt>
      <trkpt lat="45.8139" lon="6.75364">
        <ele>1697.34</ele>
        <time>2018-09-11T14:25:09Z</time>
      </trkpt>
      <trkpt lat="45.8139" lon="6.7536">
        <ele>1696.38</ele>
        <time>2018-09-11T14:25:10Z</time>
      </trkpt>
      <trkpt lat="45.81391" lon="6.75357">
        <ele>1695.9</ele>
        <time>2018-09-11T14:25:11Z</time>
      </trkpt>
      <trkpt lat="45.81391" lon="6.75355">
        <ele>1695.42</ele>
        <time>2018-09-11T14:25:12Z</time>
      </trkpt>
      <trkpt lat="45.81391" lon="6.75353">
        <ele>1694.94</ele>
        <time>2018-09-11T14:25:13Z</time>
      </trkpt>
      <trkpt lat="45.81391" lon="6.7535">
        <ele>1694.46</ele>
        <time>2018-09-11T14:25:14Z</time>
      </trkpt>
      <trkpt lat="45.81392" lon="6.75347">
        <ele>1693.98</ele>
        <time>2018-09-11T14:25:15Z</time>
      </trkpt>
      <trkpt lat="45.81394" lon="6.75345">
        <ele>1693.5</ele>
        <time>2018-09-11T14:25:16Z</time>
      </trkpt>
      <trkpt lat="45.81395" lon="6.75343">
        <ele>1692.54</ele>
        <time>2018-09-11T14:25:17Z</time>
      </trkpt>
      <trkpt lat="45.81398" lon="6.7533">
        <ele>1689.17</ele>
        <time>2018-09-11T14:25:23Z</time>
      </trkpt>
      <trkpt lat="45.814" lon="6.75329">
        <ele>1688.69</ele>
        <time>2018-09-11T14:25:24Z</time>
      </trkpt>
      <trkpt lat="45.81402" lon="6.75327">
        <ele>1688.21</ele>
        <time>2018-09-11T14:25:25Z</time>
      </trkpt>
      <trkpt lat="45.81403" lon="6.75325">
        <ele>1687.73</ele>
        <time>2018-09-11T14:25:26Z</time>
      </trkpt>
      <trkpt lat="45.81404" lon="6.75322">
        <ele>1687.25</ele>
        <time>2018-09-11T14:25:27Z</time>
      </trkpt>
      <trkpt lat="45.81404" lon="6.7532">
        <ele>1686.77</ele>
        <time>2018-09-11T14:25:28Z</time>
      </trkpt>
      <trkpt lat="45.81405" lon="6.75317">
        <ele>1686.29</ele>
        <time>2018-09-11T14:25:29Z</time>
      </trkpt>
      <trkpt lat="45.81406" lon="6.75307">
        <ele>1684.37</ele>
        <time>2018-09-11T14:25:33Z</time>
      </trkpt>
      <trkpt lat="45.81407" lon="6.75305">
        <ele>1683.89</ele>
        <time>2018-09-11T14:25:34Z</time>
      </trkpt>
      <trkpt lat="45.81407" lon="6.75303">
        <ele>1683.41</ele>
        <time>2018-09-11T14:25:35Z</time>
      </trkpt>
      <trkpt lat="45.81408" lon="6.75301">
        <ele>1683.41</ele>
        <time>2018-09-11T14:25:36Z</time>
      </trkpt>
      <trkpt lat="45.81408" lon="6.75299">
        <ele>1682.93</ele>
        <time>2018-09-11T14:25:37Z</time>
      </trkpt>
      <trkpt lat="45.81408" lon="6.75297">
        <ele>1682.44</ele>
        <time>2018-09-11T14:25:38Z</time>
      </trkpt>
      <trkpt lat="45.8141" lon="6.75292">
        <ele>1681.96</ele>
        <time>2018-09-11T14:25:40Z</time>
      </trkpt>
      <trkpt lat="45.81411" lon="6.7529">
        <ele>1681.48</ele>
        <time>2018-09-11T14:25:41Z</time>
      </trkpt>
      <trkpt lat="45.81412" lon="6.75286">
        <ele>1680.52</ele>
        <time>2018-09-11T14:25:43Z</time>
      </trkpt>
      <trkpt lat="45.81413" lon="6.75284">
        <ele>1680.04</ele>
        <time>2018-09-11T14:25:44Z</time>
      </trkpt>
      <trkpt lat="45.81414" lon="6.75282">
        <ele>1679.56</ele>
        <time>2018-09-11T14:25:45Z</time>
      </trkpt>
      <trkpt lat="45.81414" lon="6.75279">
        <ele>1679.08</ele>
        <time>2018-09-11T14:25:46Z</time>
      </trkpt>
      <trkpt lat="45.81414" lon="6.75277">
        <ele>1678.12</ele>
        <time>2018-09-11T14:25:47Z</time>
      </trkpt>
      <trkpt lat="45.81414" lon="6.75274">
        <ele>1677.64</ele>
        <time>2018-09-11T14:25:48Z</time>
      </trkpt>
      <trkpt lat="45.81415" lon="6.75272">
        <ele>1676.68</ele>
        <time>2018-09-11T14:25:49Z</time>
      </trkpt>
      <trkpt lat="45.81416" lon="6.75269">
        <ele>1676.2</ele>
        <time>2018-09-11T14:25:50Z</time>
      </trkpt>
      <trkpt lat="45.81417" lon="6.75267">
        <ele>1675.23</ele>
        <time>2018-09-11T14:25:51Z</time>
      </trkpt>
      <trkpt lat="45.8142" lon="6.75261">
        <ele>1674.27</ele>
        <time>2018-09-11T14:25:54Z</time>
      </trkpt>
      <trkpt lat="45.81421" lon="6.75259">
        <ele>1673.31</ele>
        <time>2018-09-11T14:25:55Z</time>
      </trkpt>
      <trkpt lat="45.81421" lon="6.75257">
        <ele>1672.83</ele>
        <time>2018-09-11T14:25:56Z</time>
      </trkpt>
      <trkpt lat="45.81422" lon="6.75254">
        <ele>1672.35</ele>
        <time>2018-09-11T14:25:57Z</time>
      </trkpt>
      <trkpt lat="45.81422" lon="6.75252">
        <ele>1671.87</ele>
        <time>2018-09-11T14:25:58Z</time>
      </trkpt>
      <trkpt lat="45.81423" lon="6.7525">
        <ele>1671.39</ele>
        <time>2018-09-11T14:25:59Z</time>
      </trkpt>
      <trkpt lat="45.81424" lon="6.75248">
        <ele>1670.91</ele>
        <time>2018-09-11T14:26:00Z</time>
      </trkpt>
      <trkpt lat="45.81426" lon="6.75246">
        <ele>1670.43</ele>
        <time>2018-09-11T14:26:01Z</time>
      </trkpt>
      <trkpt lat="45.81428" lon="6.75244">
        <ele>1669.95</ele>
        <time>2018-09-11T14:26:02Z</time>
      </trkpt>
      <trkpt lat="45.81434" lon="6.75229">
        <ele>1667.06</ele>
        <time>2018-09-11T14:26:08Z</time>
      </trkpt>
      <trkpt lat="45.81436" lon="6.75225">
        <ele>1666.1</ele>
        <time>2018-09-11T14:26:10Z</time>
      </trkpt>
      <trkpt lat="45.81438" lon="6.75223">
        <ele>1665.62</ele>
        <time>2018-09-11T14:26:11Z</time>
      </trkpt>
      <trkpt lat="45.8144" lon="6.75221">
        <ele>1665.14</ele>
        <time>2018-09-11T14:26:12Z</time>
      </trkpt>
      <trkpt lat="45.81442" lon="6.75218">
        <ele>1664.66</ele>
        <time>2018-09-11T14:26:13Z</time>
      </trkpt>
      <trkpt lat="45.81442" lon="6.75215">
        <ele>1664.66</ele>
        <time>2018-09-11T14:26:14Z</time>
      </trkpt>
      <trkpt lat="45.81443" lon="6.75212">
        <ele>1664.18</ele>
        <time>2018-09-11T14:26:15Z</time>
      </trkpt>
      <trkpt lat="45.81445" lon="6.75209">
        <ele>1663.22</ele>
        <time>2018-09-11T14:26:16Z</time>
      </trkpt>
      <trkpt lat="45.81446" lon="6.75207">
        <ele>1662.74</ele>
        <time>2018-09-11T14:26:17Z</time>
      </trkpt>
      <trkpt lat="45.81446" lon="6.75204">
        <ele>1662.74</ele>
        <time>2018-09-11T14:26:18Z</time>
      </trkpt>
      <trkpt lat="45.81448" lon="6.75202">
        <ele>1661.78</ele>
        <time>2018-09-11T14:26:19Z</time>
      </trkpt>
      <trkpt lat="45.8145" lon="6.75201">
        <ele>1661.3</ele>
        <time>2018-09-11T14:26:20Z</time>
      </trkpt>
      <trkpt lat="45.81453" lon="6.75201">
        <ele>1660.81</ele>
        <time>2018-09-11T14:26:21Z</time>
      </trkpt>
      <trkpt lat="45.81455" lon="6.752">
        <ele>1660.81</ele>
        <time>2018-09-11T14:26:22Z</time>
      </trkpt>
      <trkpt lat="45.81458" lon="6.75199">
        <ele>1660.81</ele>
        <time>2018-09-11T14:26:23Z</time>
      </trkpt>
      <trkpt lat="45.81466" lon="6.7519">
        <ele>1657.45</ele>
        <time>2018-09-11T14:26:28Z</time>
      </trkpt>
      <trkpt lat="45.81467" lon="6.75187">
        <ele>1656.97</ele>
        <time>2018-09-11T14:26:29Z</time>
      </trkpt>
      <trkpt lat="45.81468" lon="6.75185">
        <ele>1656.01</ele>
        <time>2018-09-11T14:26:30Z</time>
      </trkpt>
      <trkpt lat="45.81469" lon="6.75184">
        <ele>1656.01</ele>
        <time>2018-09-11T14:26:31Z</time>
      </trkpt>
      <trkpt lat="45.81471" lon="6.75182">
        <ele>1655.53</ele>
        <time>2018-09-11T14:26:32Z</time>
      </trkpt>
      <trkpt lat="45.81475" lon="6.75177">
        <ele>1654.09</ele>
        <time>2018-09-11T14:26:35Z</time>
      </trkpt>
      <trkpt lat="45.81477" lon="6.75177">
        <ele>1653.6</ele>
        <time>2018-09-11T14:26:36Z</time>
      </trkpt>
      <trkpt lat="45.81479" lon="6.75177">
        <ele>1653.6</ele>
        <time>2018-09-11T14:26:37Z</time>
      </trkpt>
      <trkpt lat="45.81481" lon="6.75177">
        <ele>1653.12</ele>
        <time>2018-09-11T14:26:38Z</time>
      </trkpt>
      <trkpt lat="45.81483" lon="6.75176">
        <ele>1652.64</ele>
        <time>2018-09-11T14:26:39Z</time>
      </trkpt>
      <trkpt lat="45.81484" lon="6.75175">
        <ele>1652.16</ele>
        <time>2018-09-11T14:26:40Z</time>
      </trkpt>
      <trkpt lat="45.81486" lon="6.75173">
        <ele>1651.68</ele>
        <time>2018-09-11T14:26:41Z</time>
      </trkpt>
      <trkpt lat="45.81487" lon="6.75171">
        <ele>1651.2</ele>
        <time>2018-09-11T14:26:42Z</time>
      </trkpt>
      <trkpt lat="45.81489" lon="6.7517">
        <ele>1650.72</ele>
        <time>2018-09-11T14:26:43Z</time>
      </trkpt>
      <trkpt lat="45.81491" lon="6.7517">
        <ele>1650.24</ele>
        <time>2018-09-11T14:26:44Z</time>
      </trkpt>
      <trkpt lat="45.81493" lon="6.75169">
        <ele>1649.76</ele>
        <time>2018-09-11T14:26:45Z</time>
      </trkpt>
      <trkpt lat="45.81495" lon="6.75167">
        <ele>1649.76</ele>
        <time>2018-09-11T14:26:46Z</time>
      </trkpt>
      <trkpt lat="45.81496" lon="6.75165">
        <ele>1649.28</ele>
        <time>2018-09-11T14:26:47Z</time>
      </trkpt>
      <trkpt lat="45.81497" lon="6.75162">
        <ele>1648.8</ele>
        <time>2018-09-11T14:26:48Z</time>
      </trkpt>
      <trkpt lat="45.81513" lon="6.75149">
        <ele>1645.91</ele>
        <time>2018-09-11T14:26:56Z</time>
      </trkpt>
      <trkpt lat="45.81534" lon="6.75146">
        <ele>1643.99</ele>
        <time>2018-09-11T14:27:04Z</time>
      </trkpt>
      <trkpt lat="45.81554" lon="6.7514">
        <ele>1643.99</ele>
        <time>2018-09-11T14:27:13Z</time>
      </trkpt>
      <trkpt lat="45.81564" lon="6.75139">
        <ele>1643.03</ele>
        <time>2018-09-11T14:27:19Z</time>
      </trkpt>
      <trkpt lat="45.81565" lon="6.7514">
        <ele>1643.03</ele>
        <time>2018-09-11T14:27:20Z</time>
      </trkpt>
      <trkpt lat="45.81566" lon="6.75142">
        <ele>1643.03</ele>
        <time>2018-09-11T14:27:21Z</time>
      </trkpt>
      <trkpt lat="45.81566" lon="6.75143">
        <ele>1643.03</ele>
        <time>2018-09-11T14:27:22Z</time>
      </trkpt>
      <trkpt lat="45.81566" lon="6.75145">
        <ele>1643.03</ele>
        <time>2018-09-11T14:27:23Z</time>
      </trkpt>
      <trkpt lat="45.81566" lon="6.75146">
        <ele>1643.51</ele>
        <time>2018-09-11T14:27:24Z</time>
      </trkpt>
      <trkpt lat="45.81566" lon="6.75148">
        <ele>1643.51</ele>
        <time>2018-09-11T14:27:25Z</time>
      </trkpt>
      <trkpt lat="45.81566" lon="6.75149">
        <ele>1643.99</ele>
        <time>2018-09-11T14:27:26Z</time>
      </trkpt>
      <trkpt lat="45.81565" lon="6.7515">
        <ele>1643.99</ele>
        <time>2018-09-11T14:27:27Z</time>
      </trkpt>
      <trkpt lat="45.81565" lon="6.75151">
        <ele>1643.99</ele>
        <time>2018-09-11T14:27:28Z</time>
      </trkpt>
      <trkpt lat="45.81564" lon="6.75153">
        <ele>1644.47</ele>
        <time>2018-09-11T14:27:29Z</time>
      </trkpt>
      <trkpt lat="45.81565" lon="6.75156">
        <ele>1644.95</ele>
        <time>2018-09-11T14:27:31Z</time>
      </trkpt>
      <trkpt lat="45.81565" lon="6.75158">
        <ele>1645.43</ele>
        <time>2018-09-11T14:27:32Z</time>
      </trkpt>
      <trkpt lat="45.81564" lon="6.7516">
        <ele>1645.43</ele>
        <time>2018-09-11T14:27:33Z</time>
      </trkpt>
      <trkpt lat="45.81564" lon="6.7517">
        <ele>1646.4</ele>
        <time>2018-09-11T14:27:39Z</time>
      </trkpt>
      <trkpt lat="45.81562" lon="6.75176">
        <ele>1647.36</ele>
        <time>2018-09-11T14:27:43Z</time>
      </trkpt>
      <trkpt lat="45.81561" lon="6.75178">
        <ele>1647.36</ele>
        <time>2018-09-11T14:27:44Z</time>
      </trkpt>
      <trkpt lat="45.8156" lon="6.7518">
        <ele>1647.36</ele>
        <time>2018-09-11T14:27:45Z</time>
      </trkpt>
      <trkpt lat="45.8156" lon="6.75183">
        <ele>1647.84</ele>
        <time>2018-09-11T14:27:47Z</time>
      </trkpt>
      <trkpt lat="45.8156" lon="6.75185">
        <ele>1647.84</ele>
        <time>2018-09-11T14:27:48Z</time>
      </trkpt>
      <trkpt lat="45.8156" lon="6.75186">
        <ele>1648.32</ele>
        <time>2018-09-11T14:27:49Z</time>
      </trkpt>
      <trkpt lat="45.81561" lon="6.75188">
        <ele>1648.8</ele>
        <time>2018-09-11T14:27:50Z</time>
      </trkpt>
      <trkpt lat="45.81561" lon="6.7519">
        <ele>1648.8</ele>
        <time>2018-09-11T14:27:51Z</time>
      </trkpt>
      <trkpt lat="45.81561" lon="6.75192">
        <ele>1649.28</ele>
        <time>2018-09-11T14:27:53Z</time>
      </trkpt>
      <trkpt lat="45.81561" lon="6.75193">
        <ele>1649.76</ele>
        <time>2018-09-11T14:27:54Z</time>
      </trkpt>
      <trkpt lat="45.81561" lon="6.75208">
        <ele>1652.64</ele>
        <time>2018-09-11T14:28:08Z</time>
      </trkpt>
      <trkpt lat="45.81564" lon="6.75214">
        <ele>1654.09</ele>
        <time>2018-09-11T14:28:14Z</time>
      </trkpt>
      <trkpt lat="45.81568" lon="6.75222">
        <ele>1656.97</ele>
        <time>2018-09-11T14:28:28Z</time>
      </trkpt>
      <trkpt lat="45.81568" lon="6.75222">
        <ele>1657.45</ele>
        <time>2018-09-11T14:28:29Z</time>
      </trkpt>
      <trkpt lat="45.81569" lon="6.75224">
        <ele>1657.45</ele>
        <time>2018-09-11T14:28:30Z</time>
      </trkpt>
      <trkpt lat="45.81581" lon="6.75235">
        <ele>1660.81</ele>
        <time>2018-09-11T14:28:48Z</time>
      </trkpt>
      <trkpt lat="45.81583" lon="6.75236">
        <ele>1661.3</ele>
        <time>2018-09-11T14:28:51Z</time>
      </trkpt>
      <trkpt lat="45.81588" lon="6.75233">
        <ele>1661.78</ele>
        <time>2018-09-11T14:29:19Z</time>
      </trkpt>
      <trkpt lat="45.81588" lon="6.75233">
        <ele>1661.78</ele>
        <time>2018-09-11T14:29:22Z</time>
      </trkpt>
      <trkpt lat="45.81582" lon="6.75233">
        <ele>1660.81</ele>
        <time>2018-09-11T14:30:20Z</time>
      </trkpt>
      <trkpt lat="45.81577" lon="6.75232">
        <ele>1660.81</ele>
        <time>2018-09-11T14:30:56Z</time>
      </trkpt>
      <trkpt lat="45.81573" lon="6.75229">
        <ele>1659.85</ele>
        <time>2018-09-11T14:30:59Z</time>
      </trkpt>
      <trkpt lat="45.81561" lon="6.75215">
        <ele>1656.49</ele>
        <time>2018-09-11T14:31:09Z</time>
      </trkpt>
      <trkpt lat="45.8156" lon="6.75214">
        <ele>1656.01</ele>
        <time>2018-09-11T14:31:10Z</time>
      </trkpt>
      <trkpt lat="45.81559" lon="6.75208">
        <ele>1654.57</ele>
        <time>2018-09-11T14:31:17Z</time>
      </trkpt>
      <trkpt lat="45.81558" lon="6.75203">
        <ele>1653.12</ele>
        <time>2018-09-11T14:31:21Z</time>
      </trkpt>
      <trkpt lat="45.81557" lon="6.75201">
        <ele>1652.64</ele>
        <time>2018-09-11T14:31:22Z</time>
      </trkpt>
      <trkpt lat="45.81556" lon="6.75199">
        <ele>1652.16</ele>
        <time>2018-09-11T14:31:23Z</time>
      </trkpt>
      <trkpt lat="45.81556" lon="6.75197">
        <ele>1651.68</ele>
        <time>2018-09-11T14:31:24Z</time>
      </trkpt>
      <trkpt lat="45.81557" lon="6.75195">
        <ele>1651.68</ele>
        <time>2018-09-11T14:31:25Z</time>
      </trkpt>
      <trkpt lat="45.81557" lon="6.75194">
        <ele>1651.2</ele>
        <time>2018-09-11T14:31:26Z</time>
      </trkpt>
      <trkpt lat="45.81556" lon="6.75191">
        <ele>1650.24</ele>
        <time>2018-09-11T14:31:28Z</time>
      </trkpt>
      <trkpt lat="45.81556" lon="6.75188">
        <ele>1649.76</ele>
        <time>2018-09-11T14:31:29Z</time>
      </trkpt>
      <trkpt lat="45.81555" lon="6.75185">
        <ele>1648.8</ele>
        <time>2018-09-11T14:31:30Z</time>
      </trkpt>
      <trkpt lat="45.81555" lon="6.75182">
        <ele>1648.8</ele>
        <time>2018-09-11T14:31:31Z</time>
      </trkpt>
      <trkpt lat="45.81555" lon="6.7518">
        <ele>1648.32</ele>
        <time>2018-09-11T14:31:32Z</time>
      </trkpt>
      <trkpt lat="45.8156" lon="6.75156">
        <ele>1645.91</ele>
        <time>2018-09-11T14:31:40Z</time>
      </trkpt>
      <trkpt lat="45.8156" lon="6.75154">
        <ele>1645.43</ele>
        <time>2018-09-11T14:31:41Z</time>
      </trkpt>
      <trkpt lat="45.8156" lon="6.75151">
        <ele>1644.95</ele>
        <time>2018-09-11T14:31:42Z</time>
      </trkpt>
      <trkpt lat="45.81561" lon="6.75146">
        <ele>1644.47</ele>
        <time>2018-09-11T14:31:44Z</time>
      </trkpt>
      <trkpt lat="45.81562" lon="6.75144">
        <ele>1643.99</ele>
        <time>2018-09-11T14:31:45Z</time>
      </trkpt>
      <trkpt lat="45.81563" lon="6.75142">
        <ele>1643.99</ele>
        <time>2018-09-11T14:31:46Z</time>
      </trkpt>
      <trkpt lat="45.81564" lon="6.7514">
        <ele>1643.51</ele>
        <time>2018-09-11T14:31:47Z</time>
      </trkpt>
      <trkpt lat="45.81564" lon="6.75137">
        <ele>1643.03</ele>
        <time>2018-09-11T14:31:48Z</time>
      </trkpt>
      <trkpt lat="45.81564" lon="6.75133">
        <ele>1643.03</ele>
        <time>2018-09-11T14:31:49Z</time>
      </trkpt>
      <trkpt lat="45.81565" lon="6.7513">
        <ele>1642.55</ele>
        <time>2018-09-11T14:31:50Z</time>
      </trkpt>
      <trkpt lat="45.81566" lon="6.75128">
        <ele>1642.07</ele>
        <time>2018-09-11T14:31:51Z</time>
      </trkpt>
      <trkpt lat="45.81566" lon="6.75125">
        <ele>1642.07</ele>
        <time>2018-09-11T14:31:52Z</time>
      </trkpt>
      <trkpt lat="45.81567" lon="6.75123">
        <ele>1641.59</ele>
        <time>2018-09-11T14:31:53Z</time>
      </trkpt>
      <trkpt lat="45.81567" lon="6.7512">
        <ele>1641.59</ele>
        <time>2018-09-11T14:31:54Z</time>
      </trkpt>
      <trkpt lat="45.81569" lon="6.75095">
        <ele>1638.22</ele>
        <time>2018-09-11T14:32:03Z</time>
      </trkpt>
      <trkpt lat="45.81569" lon="6.75091">
        <ele>1637.26</ele>
        <time>2018-09-11T14:32:05Z</time>
      </trkpt>
      <trkpt lat="45.81568" lon="6.75087">
        <ele>1636.3</ele>
        <time>2018-09-11T14:32:07Z</time>
      </trkpt>
      <trkpt lat="45.81569" lon="6.75085">
        <ele>1635.82</ele>
        <time>2018-09-11T14:32:08Z</time>
      </trkpt>
      <trkpt lat="45.8157" lon="6.75083">
        <ele>1635.34</ele>
        <time>2018-09-11T14:32:09Z</time>
      </trkpt>
      <trkpt lat="45.8157" lon="6.75081">
        <ele>1635.34</ele>
        <time>2018-09-11T14:32:10Z</time>
      </trkpt>
      <trkpt lat="45.81571" lon="6.75079">
        <ele>1635.34</ele>
        <time>2018-09-11T14:32:11Z</time>
      </trkpt>
      <trkpt lat="45.81571" lon="6.75075">
        <ele>1634.38</ele>
        <time>2018-09-11T14:32:13Z</time>
      </trkpt>
      <trkpt lat="45.81571" lon="6.75072">
        <ele>1634.38</ele>
        <time>2018-09-11T14:32:14Z</time>
      </trkpt>
      <trkpt lat="45.8157" lon="6.7507">
        <ele>1633.9</ele>
        <time>2018-09-11T14:32:15Z</time>
      </trkpt>
      <trkpt lat="45.8157" lon="6.75067">
        <ele>1633.42</ele>
        <time>2018-09-11T14:32:16Z</time>
      </trkpt>
      <trkpt lat="45.81569" lon="6.75064">
        <ele>1633.42</ele>
        <time>2018-09-11T14:32:17Z</time>
      </trkpt>
      <trkpt lat="45.81569" lon="6.75061">
        <ele>1633.42</ele>
        <time>2018-09-11T14:32:18Z</time>
      </trkpt>
      <trkpt lat="45.81571" lon="6.75033">
        <ele>1630.05</ele>
        <time>2018-09-11T14:32:27Z</time>
      </trkpt>
      <trkpt lat="45.81575" lon="6.75017">
        <ele>1628.61</ele>
        <time>2018-09-11T14:32:32Z</time>
      </trkpt>
      <trkpt lat="45.8158" lon="6.75">
        <ele>1625.25</ele>
        <time>2018-09-11T14:32:40Z</time>
      </trkpt>
      <trkpt lat="45.8158" lon="6.74998">
        <ele>1624.77</ele>
        <time>2018-09-11T14:32:41Z</time>
      </trkpt>
      <trkpt lat="45.81581" lon="6.74996">
        <ele>1624.28</ele>
        <time>2018-09-11T14:32:42Z</time>
      </trkpt>
      <trkpt lat="45.81582" lon="6.74994">
        <ele>1623.8</ele>
        <time>2018-09-11T14:32:43Z</time>
      </trkpt>
      <trkpt lat="45.81583" lon="6.74992">
        <ele>1623.32</ele>
        <time>2018-09-11T14:32:44Z</time>
      </trkpt>
      <trkpt lat="45.81584" lon="6.74989">
        <ele>1623.32</ele>
        <time>2018-09-11T14:32:45Z</time>
      </trkpt>
      <trkpt lat="45.81584" lon="6.74986">
        <ele>1622.36</ele>
        <time>2018-09-11T14:32:46Z</time>
      </trkpt>
      <trkpt lat="45.81584" lon="6.74983">
        <ele>1622.36</ele>
        <time>2018-09-11T14:32:47Z</time>
      </trkpt>
      <trkpt lat="45.81585" lon="6.74962">
        <ele>1619.48</ele>
        <time>2018-09-11T14:32:55Z</time>
      </trkpt>
      <trkpt lat="45.81585" lon="6.74961">
        <ele>1619</ele>
        <time>2018-09-11T14:32:56Z</time>
      </trkpt>
      <trkpt lat="45.8158" lon="6.74939">
        <ele>1615.63</ele>
        <time>2018-09-11T14:33:05Z</time>
      </trkpt>
      <trkpt lat="45.81579" lon="6.74935">
        <ele>1615.15</ele>
        <time>2018-09-11T14:33:07Z</time>
      </trkpt>
      <trkpt lat="45.81579" lon="6.74933">
        <ele>1615.15</ele>
        <time>2018-09-11T14:33:08Z</time>
      </trkpt>
      <trkpt lat="45.81579" lon="6.74931">
        <ele>1614.19</ele>
        <time>2018-09-11T14:33:09Z</time>
      </trkpt>
      <trkpt lat="45.81578" lon="6.74929">
        <ele>1614.19</ele>
        <time>2018-09-11T14:33:10Z</time>
      </trkpt>
      <trkpt lat="45.81577" lon="6.74928">
        <ele>1613.71</ele>
        <time>2018-09-11T14:33:11Z</time>
      </trkpt>
      <trkpt lat="45.81576" lon="6.74923">
        <ele>1611.31</ele>
        <time>2018-09-11T14:33:14Z</time>
      </trkpt>
      <trkpt lat="45.81575" lon="6.74921">
        <ele>1610.83</ele>
        <time>2018-09-11T14:33:15Z</time>
      </trkpt>
      <trkpt lat="45.81574" lon="6.74918">
        <ele>1610.83</ele>
        <time>2018-09-11T14:33:16Z</time>
      </trkpt>
      <trkpt lat="45.81573" lon="6.74916">
        <ele>1610.35</ele>
        <time>2018-09-11T14:33:17Z</time>
      </trkpt>
      <trkpt lat="45.81571" lon="6.74914">
        <ele>1609.86</ele>
        <time>2018-09-11T14:33:18Z</time>
      </trkpt>
      <trkpt lat="45.8157" lon="6.74912">
        <ele>1609.38</ele>
        <time>2018-09-11T14:33:19Z</time>
      </trkpt>
      <trkpt lat="45.81568" lon="6.74911">
        <ele>1609.38</ele>
        <time>2018-09-11T14:33:20Z</time>
      </trkpt>
      <trkpt lat="45.81566" lon="6.74909">
        <ele>1608.9</ele>
        <time>2018-09-11T14:33:21Z</time>
      </trkpt>
      <trkpt lat="45.81564" lon="6.74907">
        <ele>1608.42</ele>
        <time>2018-09-11T14:33:22Z</time>
      </trkpt>
      <trkpt lat="45.81563" lon="6.74906">
        <ele>1607.94</ele>
        <time>2018-09-11T14:33:23Z</time>
      </trkpt>
      <trkpt lat="45.81562" lon="6.74904">
        <ele>1607.94</ele>
        <time>2018-09-11T14:33:24Z</time>
      </trkpt>
      <trkpt lat="45.8156" lon="6.74905">
        <ele>1606.98</ele>
        <time>2018-09-11T14:33:26Z</time>
      </trkpt>
      <trkpt lat="45.81559" lon="6.74906">
        <ele>1606.5</ele>
        <time>2018-09-11T14:33:27Z</time>
      </trkpt>
      <trkpt lat="45.81558" lon="6.74906">
        <ele>1606.02</ele>
        <time>2018-09-11T14:33:28Z</time>
      </trkpt>
      <trkpt lat="45.81553" lon="6.74903">
        <ele>1604.58</ele>
        <time>2018-09-11T14:33:32Z</time>
      </trkpt>
      <trkpt lat="45.81553" lon="6.74902">
        <ele>1604.58</ele>
        <time>2018-09-11T14:33:33Z</time>
      </trkpt>
      <trkpt lat="45.81551" lon="6.74902">
        <ele>1604.1</ele>
        <time>2018-09-11T14:33:34Z</time>
      </trkpt>
      <trkpt lat="45.8155" lon="6.74902">
        <ele>1604.1</ele>
        <time>2018-09-11T14:33:35Z</time>
      </trkpt>
      <trkpt lat="45.81549" lon="6.74901">
        <ele>1603.62</ele>
        <time>2018-09-11T14:33:36Z</time>
      </trkpt>
      <trkpt lat="45.81549" lon="6.749">
        <ele>1602.66</ele>
        <time>2018-09-11T14:33:37Z</time>
      </trkpt>
      <trkpt lat="45.81549" lon="6.74899">
        <ele>1602.66</ele>
        <time>2018-09-11T14:33:38Z</time>
      </trkpt>
      <trkpt lat="45.81549" lon="6.74897">
        <ele>1602.17</ele>
        <time>2018-09-11T14:33:39Z</time>
      </trkpt>
      <trkpt lat="45.81548" lon="6.74895">
        <ele>1601.69</ele>
        <time>2018-09-11T14:33:40Z</time>
      </trkpt>
      <trkpt lat="45.81547" lon="6.74894">
        <ele>1601.21</ele>
        <time>2018-09-11T14:33:41Z</time>
      </trkpt>
      <trkpt lat="45.81546" lon="6.74894">
        <ele>1601.21</ele>
        <time>2018-09-11T14:33:42Z</time>
      </trkpt>
      <trkpt lat="45.81545" lon="6.74893">
        <ele>1600.25</ele>
        <time>2018-09-11T14:33:43Z</time>
      </trkpt>
      <trkpt lat="45.81543" lon="6.74892">
        <ele>1600.25</ele>
        <time>2018-09-11T14:33:44Z</time>
      </trkpt>
      <trkpt lat="45.81543" lon="6.74889">
        <ele>1599.77</ele>
        <time>2018-09-11T14:33:45Z</time>
      </trkpt>
      <trkpt lat="45.81542" lon="6.74886">
        <ele>1598.81</ele>
        <time>2018-09-11T14:33:46Z</time>
      </trkpt>
      <trkpt lat="45.81542" lon="6.74884">
        <ele>1598.81</ele>
        <time>2018-09-11T14:33:47Z</time>
      </trkpt>
      <trkpt lat="45.81541" lon="6.74881">
        <ele>1597.85</ele>
        <time>2018-09-11T14:33:49Z</time>
      </trkpt>
      <trkpt lat="45.8154" lon="6.74879">
        <ele>1597.85</ele>
        <time>2018-09-11T14:33:50Z</time>
      </trkpt>
      <trkpt lat="45.81539" lon="6.74878">
        <ele>1597.37</ele>
        <time>2018-09-11T14:33:51Z</time>
      </trkpt>
      <trkpt lat="45.81537" lon="6.74878">
        <ele>1597.37</ele>
        <time>2018-09-11T14:33:52Z</time>
      </trkpt>
      <trkpt lat="45.81536" lon="6.74876">
        <ele>1596.41</ele>
        <time>2018-09-11T14:33:53Z</time>
      </trkpt>
      <trkpt lat="45.81535" lon="6.74874">
        <ele>1596.41</ele>
        <time>2018-09-11T14:33:54Z</time>
      </trkpt>
      <trkpt lat="45.81534" lon="6.74873">
        <ele>1595.93</ele>
        <time>2018-09-11T14:33:55Z</time>
      </trkpt>
      <trkpt lat="45.81532" lon="6.7487">
        <ele>1595.45</ele>
        <time>2018-09-11T14:33:56Z</time>
      </trkpt>
      <trkpt lat="45.81529" lon="6.74869">
        <ele>1594.96</ele>
        <time>2018-09-11T14:33:57Z</time>
      </trkpt>
      <trkpt lat="45.81527" lon="6.74867">
        <ele>1594.96</ele>
        <time>2018-09-11T14:33:58Z</time>
      </trkpt>
      <trkpt lat="45.81526" lon="6.74865">
        <ele>1594.96</ele>
        <time>2018-09-11T14:33:59Z</time>
      </trkpt>
      <trkpt lat="45.81519" lon="6.74852">
        <ele>1594.48</ele>
        <time>2018-09-11T14:34:04Z</time>
      </trkpt>
      <trkpt lat="45.81518" lon="6.74848">
        <ele>1594</ele>
        <time>2018-09-11T14:34:05Z</time>
      </trkpt>
      <trkpt lat="45.81517" lon="6.74846">
        <ele>1593.52</ele>
        <time>2018-09-11T14:34:06Z</time>
      </trkpt>
      <trkpt lat="45.81516" lon="6.74843">
        <ele>1592.56</ele>
        <time>2018-09-11T14:34:07Z</time>
      </trkpt>
      <trkpt lat="45.81516" lon="6.7484">
        <ele>1592.56</ele>
        <time>2018-09-11T14:34:08Z</time>
      </trkpt>
      <trkpt lat="45.81515" lon="6.74837">
        <ele>1592.08</ele>
        <time>2018-09-11T14:34:09Z</time>
      </trkpt>
      <trkpt lat="45.81513" lon="6.74817">
        <ele>1589.2</ele>
        <time>2018-09-11T14:34:17Z</time>
      </trkpt>
      <trkpt lat="45.81513" lon="6.74814">
        <ele>1589.2</ele>
        <time>2018-09-11T14:34:18Z</time>
      </trkpt>
      <trkpt lat="45.81515" lon="6.748">
        <ele>1586.79</ele>
        <time>2018-09-11T14:34:24Z</time>
      </trkpt>
      <trkpt lat="45.81515" lon="6.74797">
        <ele>1585.83</ele>
        <time>2018-09-11T14:34:25Z</time>
      </trkpt>
      <trkpt lat="45.81514" lon="6.74794">
        <ele>1584.87</ele>
        <time>2018-09-11T14:34:26Z</time>
      </trkpt>
      <trkpt lat="45.81513" lon="6.74792">
        <ele>1584.39</ele>
        <time>2018-09-11T14:34:27Z</time>
      </trkpt>
      <trkpt lat="45.81511" lon="6.74789">
        <ele>1583.43</ele>
        <time>2018-09-11T14:34:28Z</time>
      </trkpt>
      <trkpt lat="45.8151" lon="6.74786">
        <ele>1583.43</ele>
        <time>2018-09-11T14:34:29Z</time>
      </trkpt>
      <trkpt lat="45.81509" lon="6.74783">
        <ele>1582.95</ele>
        <time>2018-09-11T14:34:30Z</time>
      </trkpt>
      <trkpt lat="45.81509" lon="6.74781">
        <ele>1582.47</ele>
        <time>2018-09-11T14:34:31Z</time>
      </trkpt>
      <trkpt lat="45.81508" lon="6.74764">
        <ele>1579.1</ele>
        <time>2018-09-11T14:34:37Z</time>
      </trkpt>
      <trkpt lat="45.81508" lon="6.74762">
        <ele>1579.1</ele>
        <time>2018-09-11T14:34:38Z</time>
      </trkpt>
      <trkpt lat="45.81507" lon="6.74743">
        <ele>1576.22</ele>
        <time>2018-09-11T14:34:45Z</time>
      </trkpt>
      <trkpt lat="45.81508" lon="6.74729">
        <ele>1573.82</ele>
        <time>2018-09-11T14:34:53Z</time>
      </trkpt>
      <trkpt lat="45.81508" lon="6.74727">
        <ele>1572.85</ele>
        <time>2018-09-11T14:34:54Z</time>
      </trkpt>
      <trkpt lat="45.81509" lon="6.74724">
        <ele>1572.37</ele>
        <time>2018-09-11T14:34:55Z</time>
      </trkpt>
      <trkpt lat="45.8151" lon="6.74721">
        <ele>1572.37</ele>
        <time>2018-09-11T14:34:56Z</time>
      </trkpt>
      <trkpt lat="45.81511" lon="6.74719">
        <ele>1571.89</ele>
        <time>2018-09-11T14:34:57Z</time>
      </trkpt>
      <trkpt lat="45.81512" lon="6.74716">
        <ele>1571.41</ele>
        <time>2018-09-11T14:34:58Z</time>
      </trkpt>
      <trkpt lat="45.81513" lon="6.74714">
        <ele>1570.93</ele>
        <time>2018-09-11T14:34:59Z</time>
      </trkpt>
      <trkpt lat="45.81513" lon="6.74711">
        <ele>1569.97</ele>
        <time>2018-09-11T14:35:00Z</time>
      </trkpt>
      <trkpt lat="45.81514" lon="6.74707">
        <ele>1569.49</ele>
        <time>2018-09-11T14:35:01Z</time>
      </trkpt>
      <trkpt lat="45.81514" lon="6.74704">
        <ele>1569.01</ele>
        <time>2018-09-11T14:35:02Z</time>
      </trkpt>
      <trkpt lat="45.81514" lon="6.74702">
        <ele>1568.53</ele>
        <time>2018-09-11T14:35:03Z</time>
      </trkpt>
      <trkpt lat="45.81514" lon="6.74699">
        <ele>1568.05</ele>
        <time>2018-09-11T14:35:04Z</time>
      </trkpt>
      <trkpt lat="45.81515" lon="6.74697">
        <ele>1567.57</ele>
        <time>2018-09-11T14:35:05Z</time>
      </trkpt>
      <trkpt lat="45.81517" lon="6.74697">
        <ele>1567.09</ele>
        <time>2018-09-11T14:35:06Z</time>
      </trkpt>
      <trkpt lat="45.81518" lon="6.74697">
        <ele>1566.61</ele>
        <time>2018-09-11T14:35:07Z</time>
      </trkpt>
      <trkpt lat="45.8152" lon="6.74698">
        <ele>1566.61</ele>
        <time>2018-09-11T14:35:08Z</time>
      </trkpt>
      <trkpt lat="45.81522" lon="6.74698">
        <ele>1566.12</ele>
        <time>2018-09-11T14:35:09Z</time>
      </trkpt>
      <trkpt lat="45.81523" lon="6.74697">
        <ele>1565.64</ele>
        <time>2018-09-11T14:35:10Z</time>
      </trkpt>
      <trkpt lat="45.81525" lon="6.74697">
        <ele>1565.64</ele>
        <time>2018-09-11T14:35:11Z</time>
      </trkpt>
      <trkpt lat="45.81527" lon="6.74697">
        <ele>1565.16</ele>
        <time>2018-09-11T14:35:12Z</time>
      </trkpt>
      <trkpt lat="45.81528" lon="6.74696">
        <ele>1564.68</ele>
        <time>2018-09-11T14:35:13Z</time>
      </trkpt>
      <trkpt lat="45.81529" lon="6.74695">
        <ele>1564.2</ele>
        <time>2018-09-11T14:35:14Z</time>
      </trkpt>
      <trkpt lat="45.8153" lon="6.74694">
        <ele>1563.72</ele>
        <time>2018-09-11T14:35:15Z</time>
      </trkpt>
      <trkpt lat="45.81531" lon="6.74694">
        <ele>1563.24</ele>
        <time>2018-09-11T14:35:16Z</time>
      </trkpt>
      <trkpt lat="45.81532" lon="6.74692">
        <ele>1562.76</ele>
        <time>2018-09-11T14:35:17Z</time>
      </trkpt>
      <trkpt lat="45.81532" lon="6.7469">
        <ele>1562.28</ele>
        <time>2018-09-11T14:35:18Z</time>
      </trkpt>
      <trkpt lat="45.81533" lon="6.74689">
        <ele>1561.8</ele>
        <time>2018-09-11T14:35:19Z</time>
      </trkpt>
      <trkpt lat="45.81535" lon="6.74684">
        <ele>1560.84</ele>
        <time>2018-09-11T14:35:22Z</time>
      </trkpt>
      <trkpt lat="45.81538" lon="6.74684">
        <ele>1560.36</ele>
        <time>2018-09-11T14:35:24Z</time>
      </trkpt>
      <trkpt lat="45.8154" lon="6.74683">
        <ele>1560.36</ele>
        <time>2018-09-11T14:35:25Z</time>
      </trkpt>
      <trkpt lat="45.81542" lon="6.74683">
        <ele>1560.36</ele>
        <time>2018-09-11T14:35:26Z</time>
      </trkpt>
      <trkpt lat="45.81543" lon="6.74682">
        <ele>1559.4</ele>
        <time>2018-09-11T14:35:27Z</time>
      </trkpt>
      <trkpt lat="45.81544" lon="6.74681">
        <ele>1558.92</ele>
        <time>2018-09-11T14:35:28Z</time>
      </trkpt>
      <trkpt lat="45.81545" lon="6.74679">
        <ele>1558.43</ele>
        <time>2018-09-11T14:35:29Z</time>
      </trkpt>
      <trkpt lat="45.81547" lon="6.74678">
        <ele>1557.95</ele>
        <time>2018-09-11T14:35:30Z</time>
      </trkpt>
      <trkpt lat="45.81548" lon="6.74675">
        <ele>1556.99</ele>
        <time>2018-09-11T14:35:31Z</time>
      </trkpt>
      <trkpt lat="45.81549" lon="6.74671">
        <ele>1556.51</ele>
        <time>2018-09-11T14:35:32Z</time>
      </trkpt>
      <trkpt lat="45.81549" lon="6.74666">
        <ele>1556.03</ele>
        <time>2018-09-11T14:35:33Z</time>
      </trkpt>
      <trkpt lat="45.81549" lon="6.74663">
        <ele>1556.03</ele>
        <time>2018-09-11T14:35:34Z</time>
      </trkpt>
      <trkpt lat="45.8155" lon="6.7466">
        <ele>1555.55</ele>
        <time>2018-09-11T14:35:35Z</time>
      </trkpt>
      <trkpt lat="45.81555" lon="6.74646">
        <ele>1552.67</ele>
        <time>2018-09-11T14:35:39Z</time>
      </trkpt>
      <trkpt lat="45.81558" lon="6.74645">
        <ele>1551.71</ele>
        <time>2018-09-11T14:35:40Z</time>
      </trkpt>
      <trkpt lat="45.8156" lon="6.74643">
        <ele>1551.22</ele>
        <time>2018-09-11T14:35:41Z</time>
      </trkpt>
      <trkpt lat="45.81562" lon="6.7464">
        <ele>1550.26</ele>
        <time>2018-09-11T14:35:42Z</time>
      </trkpt>
      <trkpt lat="45.81563" lon="6.74637">
        <ele>1549.78</ele>
        <time>2018-09-11T14:35:43Z</time>
      </trkpt>
      <trkpt lat="45.81564" lon="6.74634">
        <ele>1549.78</ele>
        <time>2018-09-11T14:35:44Z</time>
      </trkpt>
      <trkpt lat="45.81564" lon="6.74631">
        <ele>1548.82</ele>
        <time>2018-09-11T14:35:45Z</time>
      </trkpt>
      <trkpt lat="45.81565" lon="6.74628">
        <ele>1548.34</ele>
        <time>2018-09-11T14:35:46Z</time>
      </trkpt>
      <trkpt lat="45.81566" lon="6.74625">
        <ele>1547.86</ele>
        <time>2018-09-11T14:35:47Z</time>
      </trkpt>
      <trkpt lat="45.81569" lon="6.74623">
        <ele>1546.9</ele>
        <time>2018-09-11T14:35:48Z</time>
      </trkpt>
      <trkpt lat="45.81571" lon="6.7462">
        <ele>1546.42</ele>
        <time>2018-09-11T14:35:49Z</time>
      </trkpt>
      <trkpt lat="45.81573" lon="6.74617">
        <ele>1545.94</ele>
        <time>2018-09-11T14:35:50Z</time>
      </trkpt>
      <trkpt lat="45.81575" lon="6.74614">
        <ele>1545.46</ele>
        <time>2018-09-11T14:35:51Z</time>
      </trkpt>
      <trkpt lat="45.81582" lon="6.74597">
        <ele>1542.57</ele>
        <time>2018-09-11T14:35:55Z</time>
      </trkpt>
      <trkpt lat="45.81588" lon="6.74573">
        <ele>1538.73</ele>
        <time>2018-09-11T14:36:01Z</time>
      </trkpt>
      <trkpt lat="45.81591" lon="6.74548">
        <ele>1534.88</ele>
        <time>2018-09-11T14:36:08Z</time>
      </trkpt>
      <trkpt lat="45.81594" lon="6.7453">
        <ele>1531.04</ele>
        <time>2018-09-11T14:36:13Z</time>
      </trkpt>
      <trkpt lat="45.81595" lon="6.74513">
        <ele>1527.67</ele>
        <time>2018-09-11T14:36:18Z</time>
      </trkpt>
      <trkpt lat="45.81596" lon="6.74487">
        <ele>1524.31</ele>
        <time>2018-09-11T14:36:24Z</time>
      </trkpt>
      <trkpt lat="45.81597" lon="6.74475">
        <ele>1522.87</ele>
        <time>2018-09-11T14:36:27Z</time>
      </trkpt>
      <trkpt lat="45.81601" lon="6.7445">
        <ele>1519.5</ele>
        <time>2018-09-11T14:36:34Z</time>
      </trkpt>
      <trkpt lat="45.81605" lon="6.74441">
        <ele>1518.06</ele>
        <time>2018-09-11T14:36:37Z</time>
      </trkpt>
      <trkpt lat="45.81609" lon="6.74434">
        <ele>1516.62</ele>
        <time>2018-09-11T14:36:40Z</time>
      </trkpt>
      <trkpt lat="45.81608" lon="6.74431">
        <ele>1516.14</ele>
        <time>2018-09-11T14:36:41Z</time>
      </trkpt>
      <trkpt lat="45.81608" lon="6.74427">
        <ele>1515.66</ele>
        <time>2018-09-11T14:36:42Z</time>
      </trkpt>
      <trkpt lat="45.81608" lon="6.74423">
        <ele>1515.18</ele>
        <time>2018-09-11T14:36:43Z</time>
      </trkpt>
      <trkpt lat="45.81609" lon="6.7442">
        <ele>1514.69</ele>
        <time>2018-09-11T14:36:44Z</time>
      </trkpt>
      <trkpt lat="45.8161" lon="6.74404">
        <ele>1512.77</ele>
        <time>2018-09-11T14:36:49Z</time>
      </trkpt>
      <trkpt lat="45.8161" lon="6.74402">
        <ele>1512.77</ele>
        <time>2018-09-11T14:36:50Z</time>
      </trkpt>
      <trkpt lat="45.8161" lon="6.744">
        <ele>1512.77</ele>
        <time>2018-09-11T14:36:51Z</time>
      </trkpt>
      <trkpt lat="45.8161" lon="6.74399">
        <ele>1512.77</ele>
        <time>2018-09-11T14:36:52Z</time>
      </trkpt>
      <trkpt lat="45.81606" lon="6.74393">
        <ele>1512.77</ele>
        <time>2018-09-11T14:37:11Z</time>
      </trkpt>
      <trkpt lat="45.81589" lon="6.74383">
        <ele>1514.69</ele>
        <time>2018-09-11T14:37:30Z</time>
      </trkpt>
      <trkpt lat="45.81568" lon="6.74387">
        <ele>1516.62</ele>
        <time>2018-09-11T14:37:48Z</time>
      </trkpt>
      <trkpt lat="45.81566" lon="6.74388">
        <ele>1516.62</ele>
        <time>2018-09-11T14:37:50Z</time>
      </trkpt>
      <trkpt lat="45.81564" lon="6.7439">
        <ele>1516.62</ele>
        <time>2018-09-11T14:37:51Z</time>
      </trkpt>
      <trkpt lat="45.81563" lon="6.74391">
        <ele>1516.62</ele>
        <time>2018-09-11T14:37:52Z</time>
      </trkpt>
      <trkpt lat="45.81562" lon="6.74393">
        <ele>1516.62</ele>
        <time>2018-09-11T14:37:53Z</time>
      </trkpt>
      <trkpt lat="45.81561" lon="6.74395">
        <ele>1516.14</ele>
        <time>2018-09-11T14:37:54Z</time>
      </trkpt>
      <trkpt lat="45.8155" lon="6.74412">
        <ele>1514.21</ele>
        <time>2018-09-11T14:38:00Z</time>
      </trkpt>
      <trkpt lat="45.81549" lon="6.74416">
        <ele>1514.21</ele>
        <time>2018-09-11T14:38:01Z</time>
      </trkpt>
      <trkpt lat="45.81538" lon="6.74439">
        <ele>1514.69</ele>
        <time>2018-09-11T14:38:09Z</time>
      </trkpt>
      <trkpt lat="45.81535" lon="6.74446">
        <ele>1515.18</ele>
        <time>2018-09-11T14:38:12Z</time>
      </trkpt>
      <trkpt lat="45.81535" lon="6.74449">
        <ele>1515.18</ele>
        <time>2018-09-11T14:38:13Z</time>
      </trkpt>
      <trkpt lat="45.81527" lon="6.74476">
        <ele>1515.66</ele>
        <time>2018-09-11T14:38:22Z</time>
      </trkpt>
      <trkpt lat="45.81518" lon="6.74503">
        <ele>1515.18</ele>
        <time>2018-09-11T14:38:31Z</time>
      </trkpt>
      <trkpt lat="45.81517" lon="6.7451">
        <ele>1516.62</ele>
        <time>2018-09-11T14:38:35Z</time>
      </trkpt>
      <trkpt lat="45.81515" lon="6.74512">
        <ele>1517.58</ele>
        <time>2018-09-11T14:38:38Z</time>
      </trkpt>
      <trkpt lat="45.81514" lon="6.74513">
        <ele>1518.06</ele>
        <time>2018-09-11T14:38:40Z</time>
      </trkpt>
      <trkpt lat="45.81513" lon="6.74514">
        <ele>1518.06</ele>
        <time>2018-09-11T14:38:41Z</time>
      </trkpt>
      <trkpt lat="45.81511" lon="6.74514">
        <ele>1518.54</ele>
        <time>2018-09-11T14:38:42Z</time>
      </trkpt>
      <trkpt lat="45.81509" lon="6.74513">
        <ele>1518.54</ele>
        <time>2018-09-11T14:38:43Z</time>
      </trkpt>
      <trkpt lat="45.81507" lon="6.74513">
        <ele>1518.54</ele>
        <time>2018-09-11T14:38:44Z</time>
      </trkpt>
      <trkpt lat="45.81506" lon="6.74514">
        <ele>1518.54</ele>
        <time>2018-09-11T14:38:45Z</time>
      </trkpt>
      <trkpt lat="45.81505" lon="6.74515">
        <ele>1518.54</ele>
        <time>2018-09-11T14:38:46Z</time>
      </trkpt>
      <trkpt lat="45.81504" lon="6.74515">
        <ele>1518.54</ele>
        <time>2018-09-11T14:38:47Z</time>
      </trkpt>
      <trkpt lat="45.81503" lon="6.74516">
        <ele>1519.02</ele>
        <time>2018-09-11T14:38:48Z</time>
      </trkpt>
      <trkpt lat="45.81493" lon="6.74522">
        <ele>1519.02</ele>
        <time>2018-09-11T14:38:57Z</time>
      </trkpt>
      <trkpt lat="45.81492" lon="6.74523">
        <ele>1519.02</ele>
        <time>2018-09-11T14:38:58Z</time>
      </trkpt>
      <trkpt lat="45.81491" lon="6.74523">
        <ele>1519.02</ele>
        <time>2018-09-11T14:38:59Z</time>
      </trkpt>
      <trkpt lat="45.8149" lon="6.74523">
        <ele>1519.02</ele>
        <time>2018-09-11T14:39:00Z</time>
      </trkpt>
      <trkpt lat="45.81489" lon="6.74524">
        <ele>1519.5</ele>
        <time>2018-09-11T14:39:01Z</time>
      </trkpt>
      <trkpt lat="45.81488" lon="6.74524">
        <ele>1519.5</ele>
        <time>2018-09-11T14:39:02Z</time>
      </trkpt>
      <trkpt lat="45.81487" lon="6.74524">
        <ele>1519.5</ele>
        <time>2018-09-11T14:39:03Z</time>
      </trkpt>
      <trkpt lat="45.81485" lon="6.74525">
        <ele>1519.98</ele>
        <time>2018-09-11T14:39:04Z</time>
      </trkpt>
      <trkpt lat="45.81484" lon="6.74526">
        <ele>1519.98</ele>
        <time>2018-09-11T14:39:05Z</time>
      </trkpt>
      <trkpt lat="45.81483" lon="6.74527">
        <ele>1519.98</ele>
        <time>2018-09-11T14:39:06Z</time>
      </trkpt>
      <trkpt lat="45.81482" lon="6.74528">
        <ele>1520.46</ele>
        <time>2018-09-11T14:39:07Z</time>
      </trkpt>
      <trkpt lat="45.8148" lon="6.74528">
        <ele>1520.94</ele>
        <time>2018-09-11T14:39:08Z</time>
      </trkpt>
      <trkpt lat="45.81464" lon="6.74531">
        <ele>1523.35</ele>
        <time>2018-09-11T14:39:22Z</time>
      </trkpt>
      <trkpt lat="45.81463" lon="6.74532">
        <ele>1523.83</ele>
        <time>2018-09-11T14:39:23Z</time>
      </trkpt>
      <trkpt lat="45.81462" lon="6.74532">
        <ele>1523.83</ele>
        <time>2018-09-11T14:39:24Z</time>
      </trkpt>
      <trkpt lat="45.81448" lon="6.74555">
        <ele>1523.35</ele>
        <time>2018-09-11T14:39:40Z</time>
      </trkpt>
      <trkpt lat="45.81448" lon="6.74556">
        <ele>1522.87</ele>
        <time>2018-09-11T14:39:41Z</time>
      </trkpt>
      <trkpt lat="45.81441" lon="6.74559">
        <ele>1521.42</ele>
        <time>2018-09-11T14:40:09Z</time>
      </trkpt>
      <trkpt lat="45.81436" lon="6.74558">
        <ele>1521.42</ele>
        <time>2018-09-11T14:40:56Z</time>
      </trkpt>
      <trkpt lat="45.81434" lon="6.74557">
        <ele>1521.42</ele>
        <time>2018-09-11T14:40:57Z</time>
      </trkpt>
      <trkpt lat="45.81428" lon="6.74562">
        <ele>1521.42</ele>
        <time>2018-09-11T14:41:06Z</time>
      </trkpt>
      <trkpt lat="45.81425" lon="6.74567">
        <ele>1524.79</ele>
        <time>2018-09-11T14:41:20Z</time>
      </trkpt>
      <trkpt lat="45.81423" lon="6.74562">
        <ele>1525.75</ele>
        <time>2018-09-11T14:41:26Z</time>
      </trkpt>
      <trkpt lat="45.81414" lon="6.74538">
        <ele>1525.75</ele>
        <time>2018-09-11T14:41:38Z</time>
      </trkpt>
      <trkpt lat="45.8141" lon="6.74506">
        <ele>1528.15</ele>
        <time>2018-09-11T14:41:50Z</time>
      </trkpt>
      <trkpt lat="45.81406" lon="6.74479">
        <ele>1531.04</ele>
        <time>2018-09-11T14:42:01Z</time>
      </trkpt>
      <trkpt lat="45.81405" lon="6.74465">
        <ele>1533.44</ele>
        <time>2018-09-11T14:42:08Z</time>
      </trkpt>
      <trkpt lat="45.81404" lon="6.7446">
        <ele>1534.4</ele>
        <time>2018-09-11T14:42:13Z</time>
      </trkpt>
      <trkpt lat="45.81399" lon="6.74455">
        <ele>1534.4</ele>
        <time>2018-09-11T14:42:19Z</time>
      </trkpt>
      <trkpt lat="45.81397" lon="6.74455">
        <ele>1534.88</ele>
        <time>2018-09-11T14:42:22Z</time>
      </trkpt>
      <trkpt lat="45.81396" lon="6.74454">
        <ele>1534.88</ele>
        <time>2018-09-11T14:42:23Z</time>
      </trkpt>
      <trkpt lat="45.81396" lon="6.74454">
        <ele>1534.88</ele>
        <time>2018-09-11T14:42:24Z</time>
      </trkpt>
      <trkpt lat="45.81394" lon="6.74455">
        <ele>1535.36</ele>
        <time>2018-09-11T14:42:28Z</time>
      </trkpt>
      <trkpt lat="45.81393" lon="6.74454">
        <ele>1535.36</ele>
        <time>2018-09-11T14:42:29Z</time>
      </trkpt>
      <trkpt lat="45.81392" lon="6.74454">
        <ele>1535.84</ele>
        <time>2018-09-11T14:42:30Z</time>
      </trkpt>
      <trkpt lat="45.81388" lon="6.74452">
        <ele>1536.32</ele>
        <time>2018-09-11T14:42:34Z</time>
      </trkpt>
      <trkpt lat="45.81387" lon="6.74452">
        <ele>1536.32</ele>
        <time>2018-09-11T14:42:35Z</time>
      </trkpt>
      <trkpt lat="45.81386" lon="6.74451">
        <ele>1536.32</ele>
        <time>2018-09-11T14:42:36Z</time>
      </trkpt>
      <trkpt lat="45.81383" lon="6.74451">
        <ele>1536.8</ele>
        <time>2018-09-11T14:42:38Z</time>
      </trkpt>
      <trkpt lat="45.81381" lon="6.7445">
        <ele>1536.8</ele>
        <time>2018-09-11T14:42:39Z</time>
      </trkpt>
      <trkpt lat="45.81379" lon="6.74449">
        <ele>1536.8</ele>
        <time>2018-09-11T14:42:40Z</time>
      </trkpt>
      <trkpt lat="45.81377" lon="6.74449">
        <ele>1536.8</ele>
        <time>2018-09-11T14:42:41Z</time>
      </trkpt>
      <trkpt lat="45.81377" lon="6.74449">
        <ele>1536.8</ele>
        <time>2018-09-11T14:42:42Z</time>
      </trkpt>
      <trkpt lat="45.81376" lon="6.74449">
        <ele>1536.8</ele>
        <time>2018-09-11T14:42:43Z</time>
      </trkpt>
      <trkpt lat="45.81375" lon="6.7445">
        <ele>1537.29</ele>
        <time>2018-09-11T14:42:44Z</time>
      </trkpt>
      <trkpt lat="45.81373" lon="6.7445">
        <ele>1537.29</ele>
        <time>2018-09-11T14:42:46Z</time>
      </trkpt>
      <trkpt lat="45.81369" lon="6.74453">
        <ele>1537.77</ele>
        <time>2018-09-11T14:42:50Z</time>
      </trkpt>
      <trkpt lat="45.81365" lon="6.74453">
        <ele>1537.29</ele>
        <time>2018-09-11T14:42:56Z</time>
      </trkpt>
      <trkpt lat="45.81364" lon="6.74452">
        <ele>1537.29</ele>
        <time>2018-09-11T14:42:57Z</time>
      </trkpt>
      <trkpt lat="45.81363" lon="6.7445">
        <ele>1537.29</ele>
        <time>2018-09-11T14:43:01Z</time>
      </trkpt>
      <trkpt lat="45.81362" lon="6.74451">
        <ele>1537.29</ele>
        <time>2018-09-11T14:43:02Z</time>
      </trkpt>
      <trkpt lat="45.81349" lon="6.74448">
        <ele>1535.36</ele>
        <time>2018-09-11T14:43:15Z</time>
      </trkpt>
      <trkpt lat="45.81347" lon="6.74446">
        <ele>1535.36</ele>
        <time>2018-09-11T14:43:16Z</time>
      </trkpt>
      <trkpt lat="45.81343" lon="6.74445">
        <ele>1534.88</ele>
        <time>2018-09-11T14:43:17Z</time>
      </trkpt>
      <trkpt lat="45.81341" lon="6.74444">
        <ele>1534.4</ele>
        <time>2018-09-11T14:43:18Z</time>
      </trkpt>
      <trkpt lat="45.8134" lon="6.74444">
        <ele>1534.4</ele>
        <time>2018-09-11T14:43:19Z</time>
      </trkpt>
      <trkpt lat="45.81339" lon="6.74443">
        <ele>1533.92</ele>
        <time>2018-09-11T14:43:20Z</time>
      </trkpt>
      <trkpt lat="45.81339" lon="6.74442">
        <ele>1533.44</ele>
        <time>2018-09-11T14:43:21Z</time>
      </trkpt>
      <trkpt lat="45.8134" lon="6.7444">
        <ele>1533.44</ele>
        <time>2018-09-11T14:43:22Z</time>
      </trkpt>
      <trkpt lat="45.81341" lon="6.74439">
        <ele>1533.44</ele>
        <time>2018-09-11T14:43:23Z</time>
      </trkpt>
      <trkpt lat="45.81343" lon="6.74438">
        <ele>1532.96</ele>
        <time>2018-09-11T14:43:24Z</time>
      </trkpt>
      <trkpt lat="45.81352" lon="6.7442">
        <ele>1530.08</ele>
        <time>2018-09-11T14:43:33Z</time>
      </trkpt>
      <trkpt lat="45.81352" lon="6.74417">
        <ele>1530.08</ele>
        <time>2018-09-11T14:43:34Z</time>
      </trkpt>
      <trkpt lat="45.81346" lon="6.74388">
        <ele>1527.19</ele>
        <time>2018-09-11T14:43:45Z</time>
      </trkpt>
      <trkpt lat="45.81343" lon="6.74364">
        <ele>1523.83</ele>
        <time>2018-09-11T14:43:55Z</time>
      </trkpt>
      <trkpt lat="45.81339" lon="6.74338">
        <ele>1519.98</ele>
        <time>2018-09-11T14:44:05Z</time>
      </trkpt>
      <trkpt lat="45.81334" lon="6.74312">
        <ele>1517.58</ele>
        <time>2018-09-11T14:44:13Z</time>
      </trkpt>
      <trkpt lat="45.81329" lon="6.74297">
        <ele>1517.58</ele>
        <time>2018-09-11T14:44:20Z</time>
      </trkpt>
      <trkpt lat="45.81327" lon="6.74295">
        <ele>1517.1</ele>
        <time>2018-09-11T14:44:21Z</time>
      </trkpt>
      <trkpt lat="45.81325" lon="6.74292">
        <ele>1516.62</ele>
        <time>2018-09-11T14:44:22Z</time>
      </trkpt>
      <trkpt lat="45.81323" lon="6.74289">
        <ele>1516.62</ele>
        <time>2018-09-11T14:44:23Z</time>
      </trkpt>
      <trkpt lat="45.81322" lon="6.74288">
        <ele>1516.62</ele>
        <time>2018-09-11T14:44:24Z</time>
      </trkpt>
      <trkpt lat="45.8132" lon="6.74285">
        <ele>1516.62</ele>
        <time>2018-09-11T14:44:25Z</time>
      </trkpt>
      <trkpt lat="45.81319" lon="6.74283">
        <ele>1516.62</ele>
        <time>2018-09-11T14:44:26Z</time>
      </trkpt>
      <trkpt lat="45.81317" lon="6.7428">
        <ele>1516.62</ele>
        <time>2018-09-11T14:44:27Z</time>
      </trkpt>
      <trkpt lat="45.81316" lon="6.74276">
        <ele>1516.14</ele>
        <time>2018-09-11T14:44:28Z</time>
      </trkpt>
      <trkpt lat="45.81315" lon="6.74272">
        <ele>1516.14</ele>
        <time>2018-09-11T14:44:29Z</time>
      </trkpt>
      <trkpt lat="45.81314" lon="6.7427">
        <ele>1516.14</ele>
        <time>2018-09-11T14:44:30Z</time>
      </trkpt>
      <trkpt lat="45.81313" lon="6.74268">
        <ele>1516.14</ele>
        <time>2018-09-11T14:44:31Z</time>
      </trkpt>
      <trkpt lat="45.81312" lon="6.74265">
        <ele>1516.14</ele>
        <time>2018-09-11T14:44:32Z</time>
      </trkpt>
      <trkpt lat="45.81311" lon="6.74263">
        <ele>1515.66</ele>
        <time>2018-09-11T14:44:33Z</time>
      </trkpt>
      <trkpt lat="45.81298" lon="6.74239">
        <ele>1515.18</ele>
        <time>2018-09-11T14:44:44Z</time>
      </trkpt>
      <trkpt lat="45.81298" lon="6.74237">
        <ele>1515.18</ele>
        <time>2018-09-11T14:44:45Z</time>
      </trkpt>
      <trkpt lat="45.81298" lon="6.74235">
        <ele>1515.66</ele>
        <time>2018-09-11T14:44:46Z</time>
      </trkpt>
      <trkpt lat="45.81299" lon="6.74233">
        <ele>1516.14</ele>
        <time>2018-09-11T14:44:47Z</time>
      </trkpt>
      <trkpt lat="45.81299" lon="6.74231">
        <ele>1516.14</ele>
        <time>2018-09-11T14:44:48Z</time>
      </trkpt>
      <trkpt lat="45.813" lon="6.74228">
        <ele>1516.14</ele>
        <time>2018-09-11T14:44:49Z</time>
      </trkpt>
      <trkpt lat="45.813" lon="6.74225">
        <ele>1516.14</ele>
        <time>2018-09-11T14:44:50Z</time>
      </trkpt>
      <trkpt lat="45.813" lon="6.74223">
        <ele>1516.14</ele>
        <time>2018-09-11T14:44:51Z</time>
      </trkpt>
      <trkpt lat="45.813" lon="6.74221">
        <ele>1516.14</ele>
        <time>2018-09-11T14:44:52Z</time>
      </trkpt>
      <trkpt lat="45.813" lon="6.7422">
        <ele>1516.62</ele>
        <time>2018-09-11T14:44:53Z</time>
      </trkpt>
      <trkpt lat="45.81299" lon="6.74217">
        <ele>1516.62</ele>
        <time>2018-09-11T14:44:55Z</time>
      </trkpt>
      <trkpt lat="45.81299" lon="6.74214">
        <ele>1516.14</ele>
        <time>2018-09-11T14:44:56Z</time>
      </trkpt>
      <trkpt lat="45.81299" lon="6.74211">
        <ele>1516.14</ele>
        <time>2018-09-11T14:44:57Z</time>
      </trkpt>
      <trkpt lat="45.81298" lon="6.74208">
        <ele>1516.14</ele>
        <time>2018-09-11T14:44:58Z</time>
      </trkpt>
      <trkpt lat="45.81299" lon="6.74205">
        <ele>1516.14</ele>
        <time>2018-09-11T14:44:59Z</time>
      </trkpt>
      <trkpt lat="45.81299" lon="6.74203">
        <ele>1515.66</ele>
        <time>2018-09-11T14:45:00Z</time>
      </trkpt>
      <trkpt lat="45.813" lon="6.74191">
        <ele>1514.21</ele>
        <time>2018-09-11T14:45:05Z</time>
      </trkpt>
      <trkpt lat="45.81301" lon="6.74188">
        <ele>1514.21</ele>
        <time>2018-09-11T14:45:06Z</time>
      </trkpt>
      <trkpt lat="45.81305" lon="6.74168">
        <ele>1510.85</ele>
        <time>2018-09-11T14:45:13Z</time>
      </trkpt>
      <trkpt lat="45.81305" lon="6.74164">
        <ele>1510.37</ele>
        <time>2018-09-11T14:45:15Z</time>
      </trkpt>
      <trkpt lat="45.81305" lon="6.74162">
        <ele>1509.89</ele>
        <time>2018-09-11T14:45:16Z</time>
      </trkpt>
      <trkpt lat="45.81306" lon="6.7416">
        <ele>1509.89</ele>
        <time>2018-09-11T14:45:17Z</time>
      </trkpt>
      <trkpt lat="45.81307" lon="6.74159">
        <ele>1509.41</ele>
        <time>2018-09-11T14:45:18Z</time>
      </trkpt>
      <trkpt lat="45.81307" lon="6.74157">
        <ele>1508.93</ele>
        <time>2018-09-11T14:45:19Z</time>
      </trkpt>
      <trkpt lat="45.81308" lon="6.74156">
        <ele>1508.45</ele>
        <time>2018-09-11T14:45:20Z</time>
      </trkpt>
      <trkpt lat="45.81309" lon="6.74154">
        <ele>1507.97</ele>
        <time>2018-09-11T14:45:21Z</time>
      </trkpt>
      <trkpt lat="45.8131" lon="6.74153">
        <ele>1507.48</ele>
        <time>2018-09-11T14:45:22Z</time>
      </trkpt>
      <trkpt lat="45.8131" lon="6.7415">
        <ele>1507</ele>
        <time>2018-09-11T14:45:23Z</time>
      </trkpt>
      <trkpt lat="45.81311" lon="6.74147">
        <ele>1507</ele>
        <time>2018-09-11T14:45:24Z</time>
      </trkpt>
      <trkpt lat="45.81312" lon="6.7414">
        <ele>1505.56</ele>
        <time>2018-09-11T14:45:26Z</time>
      </trkpt>
      <trkpt lat="45.81312" lon="6.74138">
        <ele>1505.08</ele>
        <time>2018-09-11T14:45:27Z</time>
      </trkpt>
      <trkpt lat="45.81314" lon="6.74135">
        <ele>1504.6</ele>
        <time>2018-09-11T14:45:28Z</time>
      </trkpt>
      <trkpt lat="45.81314" lon="6.74132">
        <ele>1504.6</ele>
        <time>2018-09-11T14:45:29Z</time>
      </trkpt>
      <trkpt lat="45.81315" lon="6.74129">
        <ele>1504.12</ele>
        <time>2018-09-11T14:45:30Z</time>
      </trkpt>
      <trkpt lat="45.81317" lon="6.74127">
        <ele>1503.64</ele>
        <time>2018-09-11T14:45:31Z</time>
      </trkpt>
      <trkpt lat="45.81323" lon="6.74101">
        <ele>1500.27</ele>
        <time>2018-09-11T14:45:38Z</time>
      </trkpt>
      <trkpt lat="45.81324" lon="6.74091">
        <ele>1498.83</ele>
        <time>2018-09-11T14:45:41Z</time>
      </trkpt>
      <trkpt lat="45.81328" lon="6.74082">
        <ele>1497.87</ele>
        <time>2018-09-11T14:45:44Z</time>
      </trkpt>
      <trkpt lat="45.81329" lon="6.74079">
        <ele>1497.39</ele>
        <time>2018-09-11T14:45:45Z</time>
      </trkpt>
      <trkpt lat="45.81333" lon="6.74072">
        <ele>1495.47</ele>
        <time>2018-09-11T14:45:48Z</time>
      </trkpt>
      <trkpt lat="45.81333" lon="6.74068">
        <ele>1494.99</ele>
        <time>2018-09-11T14:45:49Z</time>
      </trkpt>
      <trkpt lat="45.81333" lon="6.74065">
        <ele>1494.51</ele>
        <time>2018-09-11T14:45:50Z</time>
      </trkpt>
      <trkpt lat="45.81334" lon="6.74061">
        <ele>1494.03</ele>
        <time>2018-09-11T14:45:51Z</time>
      </trkpt>
      <trkpt lat="45.81335" lon="6.74057">
        <ele>1493.55</ele>
        <time>2018-09-11T14:45:52Z</time>
      </trkpt>
      <trkpt lat="45.81338" lon="6.74026">
        <ele>1491.14</ele>
        <time>2018-09-11T14:46:00Z</time>
      </trkpt>
      <trkpt lat="45.81336" lon="6.73993">
        <ele>1489.7</ele>
        <time>2018-09-11T14:46:09Z</time>
      </trkpt>
      <trkpt lat="45.81334" lon="6.73963">
        <ele>1487.78</ele>
        <time>2018-09-11T14:46:17Z</time>
      </trkpt>
      <trkpt lat="45.81335" lon="6.73958">
        <ele>1487.78</ele>
        <time>2018-09-11T14:46:19Z</time>
      </trkpt>
      <trkpt lat="45.81335" lon="6.73955">
        <ele>1487.78</ele>
        <time>2018-09-11T14:46:20Z</time>
      </trkpt>
      <trkpt lat="45.81334" lon="6.73941">
        <ele>1485.85</ele>
        <time>2018-09-11T14:46:24Z</time>
      </trkpt>
      <trkpt lat="45.81334" lon="6.73937">
        <ele>1485.37</ele>
        <time>2018-09-11T14:46:25Z</time>
      </trkpt>
      <trkpt lat="45.81331" lon="6.73907">
        <ele>1482.97</ele>
        <time>2018-09-11T14:46:33Z</time>
      </trkpt>
      <trkpt lat="45.81332" lon="6.73905">
        <ele>1482.49</ele>
        <time>2018-09-11T14:46:34Z</time>
      </trkpt>
      <trkpt lat="45.81333" lon="6.73903">
        <ele>1482.01</ele>
        <time>2018-09-11T14:46:35Z</time>
      </trkpt>
      <trkpt lat="45.81334" lon="6.73901">
        <ele>1482.01</ele>
        <time>2018-09-11T14:46:36Z</time>
      </trkpt>
      <trkpt lat="45.81334" lon="6.73899">
        <ele>1481.05</ele>
        <time>2018-09-11T14:46:37Z</time>
      </trkpt>
      <trkpt lat="45.81335" lon="6.73897">
        <ele>1480.09</ele>
        <time>2018-09-11T14:46:38Z</time>
      </trkpt>
      <trkpt lat="45.81336" lon="6.73896">
        <ele>1479.61</ele>
        <time>2018-09-11T14:46:39Z</time>
      </trkpt>
      <trkpt lat="45.81337" lon="6.73894">
        <ele>1478.65</ele>
        <time>2018-09-11T14:46:40Z</time>
      </trkpt>
      <trkpt lat="45.81338" lon="6.73892">
        <ele>1478.16</ele>
        <time>2018-09-11T14:46:41Z</time>
      </trkpt>
      <trkpt lat="45.81338" lon="6.7389">
        <ele>1477.2</ele>
        <time>2018-09-11T14:46:42Z</time>
      </trkpt>
      <trkpt lat="45.81339" lon="6.73889">
        <ele>1476.72</ele>
        <time>2018-09-11T14:46:43Z</time>
      </trkpt>
      <trkpt lat="45.8134" lon="6.73887">
        <ele>1476.24</ele>
        <time>2018-09-11T14:46:44Z</time>
      </trkpt>
      <trkpt lat="45.8134" lon="6.73884">
        <ele>1475.28</ele>
        <time>2018-09-11T14:46:45Z</time>
      </trkpt>
      <trkpt lat="45.8134" lon="6.73882">
        <ele>1474.8</ele>
        <time>2018-09-11T14:46:46Z</time>
      </trkpt>
      <trkpt lat="45.81341" lon="6.7388">
        <ele>1473.84</ele>
        <time>2018-09-11T14:46:47Z</time>
      </trkpt>
      <trkpt lat="45.81342" lon="6.73878">
        <ele>1472.88</ele>
        <time>2018-09-11T14:46:48Z</time>
      </trkpt>
      <trkpt lat="45.81344" lon="6.73877">
        <ele>1472.4</ele>
        <time>2018-09-11T14:46:49Z</time>
      </trkpt>
      <trkpt lat="45.81346" lon="6.73876">
        <ele>1471.44</ele>
        <time>2018-09-11T14:46:50Z</time>
      </trkpt>
      <trkpt lat="45.81347" lon="6.73874">
        <ele>1470.95</ele>
        <time>2018-09-11T14:46:51Z</time>
      </trkpt>
      <trkpt lat="45.81348" lon="6.73872">
        <ele>1470.47</ele>
        <time>2018-09-11T14:46:52Z</time>
      </trkpt>
      <trkpt lat="45.81346" lon="6.73866">
        <ele>1469.51</ele>
        <time>2018-09-11T14:46:54Z</time>
      </trkpt>
      <trkpt lat="45.81346" lon="6.73863">
        <ele>1469.03</ele>
        <time>2018-09-11T14:46:55Z</time>
      </trkpt>
      <trkpt lat="45.81347" lon="6.73861">
        <ele>1468.07</ele>
        <time>2018-09-11T14:46:56Z</time>
      </trkpt>
      <trkpt lat="45.81352" lon="6.73845">
        <ele>1465.19</ele>
        <time>2018-09-11T14:47:02Z</time>
      </trkpt>
      <trkpt lat="45.81352" lon="6.73836">
        <ele>1462.78</ele>
        <time>2018-09-11T14:47:05Z</time>
      </trkpt>
      <trkpt lat="45.81352" lon="6.73833">
        <ele>1461.82</ele>
        <time>2018-09-11T14:47:06Z</time>
      </trkpt>
      <trkpt lat="45.81353" lon="6.7383">
        <ele>1460.86</ele>
        <time>2018-09-11T14:47:07Z</time>
      </trkpt>
      <trkpt lat="45.81354" lon="6.73828">
        <ele>1460.38</ele>
        <time>2018-09-11T14:47:08Z</time>
      </trkpt>
      <trkpt lat="45.81356" lon="6.73827">
        <ele>1459.9</ele>
        <time>2018-09-11T14:47:09Z</time>
      </trkpt>
      <trkpt lat="45.81357" lon="6.73825">
        <ele>1459.9</ele>
        <time>2018-09-11T14:47:10Z</time>
      </trkpt>
      <trkpt lat="45.81358" lon="6.73822">
        <ele>1459.42</ele>
        <time>2018-09-11T14:47:11Z</time>
      </trkpt>
      <trkpt lat="45.8136" lon="6.7382">
        <ele>1458.94</ele>
        <time>2018-09-11T14:47:12Z</time>
      </trkpt>
      <trkpt lat="45.81363" lon="6.7381">
        <ele>1456.53</ele>
        <time>2018-09-11T14:47:16Z</time>
      </trkpt>
      <trkpt lat="45.81362" lon="6.73805">
        <ele>1456.05</ele>
        <time>2018-09-11T14:47:17Z</time>
      </trkpt>
      <trkpt lat="45.81361" lon="6.73801">
        <ele>1455.57</ele>
        <time>2018-09-11T14:47:18Z</time>
      </trkpt>
      <trkpt lat="45.81361" lon="6.73798">
        <ele>1454.61</ele>
        <time>2018-09-11T14:47:19Z</time>
      </trkpt>
      <trkpt lat="45.81361" lon="6.73795">
        <ele>1454.13</ele>
        <time>2018-09-11T14:47:20Z</time>
      </trkpt>
      <trkpt lat="45.81362" lon="6.73785">
        <ele>1452.21</ele>
        <time>2018-09-11T14:47:24Z</time>
      </trkpt>
      <trkpt lat="45.81362" lon="6.73783">
        <ele>1451.25</ele>
        <time>2018-09-11T14:47:25Z</time>
      </trkpt>
      <trkpt lat="45.8136" lon="6.7378">
        <ele>1450.29</ele>
        <time>2018-09-11T14:47:27Z</time>
      </trkpt>
      <trkpt lat="45.81359" lon="6.7378">
        <ele>1449.81</ele>
        <time>2018-09-11T14:47:28Z</time>
      </trkpt>
      <trkpt lat="45.81354" lon="6.73779">
        <ele>1448.36</ele>
        <time>2018-09-11T14:47:31Z</time>
      </trkpt>
      <trkpt lat="45.81353" lon="6.73778">
        <ele>1448.36</ele>
        <time>2018-09-11T14:47:32Z</time>
      </trkpt>
      <trkpt lat="45.81351" lon="6.73778">
        <ele>1447.88</ele>
        <time>2018-09-11T14:47:33Z</time>
      </trkpt>
      <trkpt lat="45.81351" lon="6.73778">
        <ele>1447.88</ele>
        <time>2018-09-11T14:47:34Z</time>
      </trkpt>
      <trkpt lat="45.8135" lon="6.73777">
        <ele>1446.92</ele>
        <time>2018-09-11T14:47:35Z</time>
      </trkpt>
      <trkpt lat="45.81348" lon="6.73775">
        <ele>1445.96</ele>
        <time>2018-09-11T14:47:36Z</time>
      </trkpt>
      <trkpt lat="45.81347" lon="6.73773">
        <ele>1445.48</ele>
        <time>2018-09-11T14:47:37Z</time>
      </trkpt>
      <trkpt lat="45.81345" lon="6.73772">
        <ele>1445</ele>
        <time>2018-09-11T14:47:38Z</time>
      </trkpt>
      <trkpt lat="45.81342" lon="6.73771">
        <ele>1444.04</ele>
        <time>2018-09-11T14:47:39Z</time>
      </trkpt>
      <trkpt lat="45.8134" lon="6.7377">
        <ele>1443.08</ele>
        <time>2018-09-11T14:47:40Z</time>
      </trkpt>
      <trkpt lat="45.81334" lon="6.73768">
        <ele>1440.19</ele>
        <time>2018-09-11T14:47:44Z</time>
      </trkpt>
      <trkpt lat="45.81329" lon="6.73767">
        <ele>1438.75</ele>
        <time>2018-09-11T14:47:47Z</time>
      </trkpt>
      <trkpt lat="45.81324" lon="6.73763">
        <ele>1436.35</ele>
        <time>2018-09-11T14:47:49Z</time>
      </trkpt>
      <trkpt lat="45.81322" lon="6.73763">
        <ele>1435.39</ele>
        <time>2018-09-11T14:47:50Z</time>
      </trkpt>
      <trkpt lat="45.81319" lon="6.73761">
        <ele>1435.39</ele>
        <time>2018-09-11T14:47:51Z</time>
      </trkpt>
      <trkpt lat="45.81317" lon="6.7376">
        <ele>1433.94</ele>
        <time>2018-09-11T14:47:52Z</time>
      </trkpt>
      <trkpt lat="45.81315" lon="6.73759">
        <ele>1432.98</ele>
        <time>2018-09-11T14:47:53Z</time>
      </trkpt>
      <trkpt lat="45.81312" lon="6.73757">
        <ele>1432.5</ele>
        <time>2018-09-11T14:47:54Z</time>
      </trkpt>
      <trkpt lat="45.8131" lon="6.73756">
        <ele>1431.54</ele>
        <time>2018-09-11T14:47:55Z</time>
      </trkpt>
      <trkpt lat="45.81308" lon="6.73754">
        <ele>1430.58</ele>
        <time>2018-09-11T14:47:56Z</time>
      </trkpt>
      <trkpt lat="45.81306" lon="6.73752">
        <ele>1430.1</ele>
        <time>2018-09-11T14:47:57Z</time>
      </trkpt>
      <trkpt lat="45.81304" lon="6.73752">
        <ele>1429.62</ele>
        <time>2018-09-11T14:47:58Z</time>
      </trkpt>
      <trkpt lat="45.81302" lon="6.7375">
        <ele>1429.14</ele>
        <time>2018-09-11T14:47:59Z</time>
      </trkpt>
      <trkpt lat="45.81301" lon="6.73748">
        <ele>1428.18</ele>
        <time>2018-09-11T14:48:00Z</time>
      </trkpt>
      <trkpt lat="45.813" lon="6.73746">
        <ele>1427.7</ele>
        <time>2018-09-11T14:48:01Z</time>
      </trkpt>
      <trkpt lat="45.81299" lon="6.73745">
        <ele>1427.21</ele>
        <time>2018-09-11T14:48:02Z</time>
      </trkpt>
      <trkpt lat="45.81292" lon="6.73735">
        <ele>1424.81</ele>
        <time>2018-09-11T14:48:07Z</time>
      </trkpt>
      <trkpt lat="45.81282" lon="6.73719">
        <ele>1420.97</ele>
        <time>2018-09-11T14:48:14Z</time>
      </trkpt>
      <trkpt lat="45.81274" lon="6.73701">
        <ele>1418.56</ele>
        <time>2018-09-11T14:48:20Z</time>
      </trkpt>
      <trkpt lat="45.81269" lon="6.73689">
        <ele>1416.64</ele>
        <time>2018-09-11T14:48:24Z</time>
      </trkpt>
      <trkpt lat="45.81263" lon="6.73672">
        <ele>1414.24</ele>
        <time>2018-09-11T14:48:30Z</time>
      </trkpt>
      <trkpt lat="45.8126" lon="6.73656">
        <ele>1411.35</ele>
        <time>2018-09-11T14:48:36Z</time>
      </trkpt>
      <trkpt lat="45.81256" lon="6.73639">
        <ele>1407.99</ele>
        <time>2018-09-11T14:48:42Z</time>
      </trkpt>
      <trkpt lat="45.81254" lon="6.73629">
        <ele>1406.07</ele>
        <time>2018-09-11T14:48:46Z</time>
      </trkpt>
      <trkpt lat="45.81254" lon="6.73626">
        <ele>1405.58</ele>
        <time>2018-09-11T14:48:47Z</time>
      </trkpt>
      <trkpt lat="45.81256" lon="6.73629">
        <ele>1404.62</ele>
        <time>2018-09-11T14:48:49Z</time>
      </trkpt>
      <trkpt lat="45.8126" lon="6.73636">
        <ele>1402.22</ele>
        <time>2018-09-11T14:48:54Z</time>
      </trkpt>
      <trkpt lat="45.81261" lon="6.73637">
        <ele>1401.74</ele>
        <time>2018-09-11T14:48:55Z</time>
      </trkpt>
      <trkpt lat="45.81262" lon="6.73639">
        <ele>1401.26</ele>
        <time>2018-09-11T14:48:56Z</time>
      </trkpt>
      <trkpt lat="45.81263" lon="6.7364">
        <ele>1401.26</ele>
        <time>2018-09-11T14:48:57Z</time>
      </trkpt>
      <trkpt lat="45.81264" lon="6.73642">
        <ele>1400.78</ele>
        <time>2018-09-11T14:48:58Z</time>
      </trkpt>
      <trkpt lat="45.81264" lon="6.73644">
        <ele>1399.82</ele>
        <time>2018-09-11T14:48:59Z</time>
      </trkpt>
      <trkpt lat="45.81264" lon="6.73646">
        <ele>1399.34</ele>
        <time>2018-09-11T14:49:00Z</time>
      </trkpt>
      <trkpt lat="45.81265" lon="6.73647">
        <ele>1398.37</ele>
        <time>2018-09-11T14:49:01Z</time>
      </trkpt>
      <trkpt lat="45.81265" lon="6.73649">
        <ele>1397.89</ele>
        <time>2018-09-11T14:49:02Z</time>
      </trkpt>
      <trkpt lat="45.81268" lon="6.73649">
        <ele>1397.41</ele>
        <time>2018-09-11T14:49:03Z</time>
      </trkpt>
      <trkpt lat="45.81272" lon="6.73652">
        <ele>1396.45</ele>
        <time>2018-09-11T14:49:05Z</time>
      </trkpt>
      <trkpt lat="45.81274" lon="6.73653">
        <ele>1396.45</ele>
        <time>2018-09-11T14:49:06Z</time>
      </trkpt>
      <trkpt lat="45.81276" lon="6.73652">
        <ele>1395.97</ele>
        <time>2018-09-11T14:49:07Z</time>
      </trkpt>
      <trkpt lat="45.81278" lon="6.73651">
        <ele>1395.01</ele>
        <time>2018-09-11T14:49:09Z</time>
      </trkpt>
      <trkpt lat="45.81279" lon="6.73649">
        <ele>1394.05</ele>
        <time>2018-09-11T14:49:10Z</time>
      </trkpt>
      <trkpt lat="45.8128" lon="6.73648">
        <ele>1393.57</ele>
        <time>2018-09-11T14:49:11Z</time>
      </trkpt>
      <trkpt lat="45.8128" lon="6.73646">
        <ele>1393.09</ele>
        <time>2018-09-11T14:49:12Z</time>
      </trkpt>
      <trkpt lat="45.81281" lon="6.73644">
        <ele>1392.61</ele>
        <time>2018-09-11T14:49:13Z</time>
      </trkpt>
      <trkpt lat="45.8128" lon="6.73643">
        <ele>1392.61</ele>
        <time>2018-09-11T14:49:14Z</time>
      </trkpt>
      <trkpt lat="45.81279" lon="6.73641">
        <ele>1392.13</ele>
        <time>2018-09-11T14:49:15Z</time>
      </trkpt>
      <trkpt lat="45.81279" lon="6.73639">
        <ele>1391.65</ele>
        <time>2018-09-11T14:49:16Z</time>
      </trkpt>
      <trkpt lat="45.81277" lon="6.73635">
        <ele>1390.68</ele>
        <time>2018-09-11T14:49:17Z</time>
      </trkpt>
      <trkpt lat="45.81277" lon="6.73633">
        <ele>1390.2</ele>
        <time>2018-09-11T14:49:18Z</time>
      </trkpt>
      <trkpt lat="45.81276" lon="6.73615">
        <ele>1387.8</ele>
        <time>2018-09-11T14:49:24Z</time>
      </trkpt>
      <trkpt lat="45.81276" lon="6.73607">
        <ele>1386.36</ele>
        <time>2018-09-11T14:49:27Z</time>
      </trkpt>
      <trkpt lat="45.81276" lon="6.73598">
        <ele>1385.4</ele>
        <time>2018-09-11T14:49:30Z</time>
      </trkpt>
      <trkpt lat="45.81277" lon="6.73596">
        <ele>1384.92</ele>
        <time>2018-09-11T14:49:31Z</time>
      </trkpt>
      <trkpt lat="45.81277" lon="6.73593">
        <ele>1384.44</ele>
        <time>2018-09-11T14:49:32Z</time>
      </trkpt>
      <trkpt lat="45.81276" lon="6.73582">
        <ele>1383.96</ele>
        <time>2018-09-11T14:49:36Z</time>
      </trkpt>
      <trkpt lat="45.81276" lon="6.73579">
        <ele>1383.96</ele>
        <time>2018-09-11T14:49:37Z</time>
      </trkpt>
      <trkpt lat="45.81276" lon="6.73576">
        <ele>1383.47</ele>
        <time>2018-09-11T14:49:38Z</time>
      </trkpt>
      <trkpt lat="45.81276" lon="6.73573">
        <ele>1382.03</ele>
        <time>2018-09-11T14:49:39Z</time>
      </trkpt>
      <trkpt lat="45.81276" lon="6.7357">
        <ele>1380.59</ele>
        <time>2018-09-11T14:49:40Z</time>
      </trkpt>
      <trkpt lat="45.81276" lon="6.73567">
        <ele>1379.63</ele>
        <time>2018-09-11T14:49:41Z</time>
      </trkpt>
      <trkpt lat="45.81278" lon="6.73552">
        <ele>1376.26</ele>
        <time>2018-09-11T14:49:46Z</time>
      </trkpt>
      <trkpt lat="45.81277" lon="6.73544">
        <ele>1375.3</ele>
        <time>2018-09-11T14:49:49Z</time>
      </trkpt>
      <trkpt lat="45.81277" lon="6.73542">
        <ele>1374.82</ele>
        <time>2018-09-11T14:49:50Z</time>
      </trkpt>
      <trkpt lat="45.81278" lon="6.73541">
        <ele>1374.34</ele>
        <time>2018-09-11T14:49:51Z</time>
      </trkpt>
      <trkpt lat="45.81278" lon="6.73539">
        <ele>1373.38</ele>
        <time>2018-09-11T14:49:52Z</time>
      </trkpt>
      <trkpt lat="45.81278" lon="6.73536">
        <ele>1372.9</ele>
        <time>2018-09-11T14:49:53Z</time>
      </trkpt>
      <trkpt lat="45.81278" lon="6.73534">
        <ele>1372.42</ele>
        <time>2018-09-11T14:49:54Z</time>
      </trkpt>
      <trkpt lat="45.81279" lon="6.73531">
        <ele>1372.42</ele>
        <time>2018-09-11T14:49:55Z</time>
      </trkpt>
      <trkpt lat="45.81279" lon="6.73523">
        <ele>1370.98</ele>
        <time>2018-09-11T14:49:58Z</time>
      </trkpt>
      <trkpt lat="45.81279" lon="6.73501">
        <ele>1367.61</ele>
        <time>2018-09-11T14:50:05Z</time>
      </trkpt>
      <trkpt lat="45.8128" lon="6.73498">
        <ele>1367.61</ele>
        <time>2018-09-11T14:50:06Z</time>
      </trkpt>
      <trkpt lat="45.8128" lon="6.73494">
        <ele>1367.13</ele>
        <time>2018-09-11T14:50:07Z</time>
      </trkpt>
      <trkpt lat="45.8128" lon="6.73492">
        <ele>1366.65</ele>
        <time>2018-09-11T14:50:08Z</time>
      </trkpt>
      <trkpt lat="45.81279" lon="6.73489">
        <ele>1366.17</ele>
        <time>2018-09-11T14:50:09Z</time>
      </trkpt>
      <trkpt lat="45.81279" lon="6.73486">
        <ele>1365.21</ele>
        <time>2018-09-11T14:50:10Z</time>
      </trkpt>
      <trkpt lat="45.81279" lon="6.73483">
        <ele>1364.73</ele>
        <time>2018-09-11T14:50:11Z</time>
      </trkpt>
      <trkpt lat="45.81279" lon="6.7348">
        <ele>1364.25</ele>
        <time>2018-09-11T14:50:12Z</time>
      </trkpt>
      <trkpt lat="45.81277" lon="6.73478">
        <ele>1364.25</ele>
        <time>2018-09-11T14:50:13Z</time>
      </trkpt>
      <trkpt lat="45.81276" lon="6.73475">
        <ele>1363.77</ele>
        <time>2018-09-11T14:50:14Z</time>
      </trkpt>
      <trkpt lat="45.81276" lon="6.73473">
        <ele>1363.29</ele>
        <time>2018-09-11T14:50:15Z</time>
      </trkpt>
      <trkpt lat="45.81275" lon="6.73471">
        <ele>1363.29</ele>
        <time>2018-09-11T14:50:16Z</time>
      </trkpt>
      <trkpt lat="45.81274" lon="6.73468">
        <ele>1362.81</ele>
        <time>2018-09-11T14:50:17Z</time>
      </trkpt>
      <trkpt lat="45.81272" lon="6.73452">
        <ele>1359.44</ele>
        <time>2018-09-11T14:50:22Z</time>
      </trkpt>
      <trkpt lat="45.81267" lon="6.73427">
        <ele>1356.08</ele>
        <time>2018-09-11T14:50:30Z</time>
      </trkpt>
      <trkpt lat="45.81263" lon="6.73419">
        <ele>1353.19</ele>
        <time>2018-09-11T14:50:35Z</time>
      </trkpt>
      <trkpt lat="45.81259" lon="6.7341">
        <ele>1349.83</ele>
        <time>2018-09-11T14:50:41Z</time>
      </trkpt>
      <trkpt lat="45.81259" lon="6.73408">
        <ele>1349.83</ele>
        <time>2018-09-11T14:50:42Z</time>
      </trkpt>
      <trkpt lat="45.81261" lon="6.73408">
        <ele>1348.39</ele>
        <time>2018-09-11T14:50:44Z</time>
      </trkpt>
      <trkpt lat="45.81272" lon="6.73406">
        <ele>1345.02</ele>
        <time>2018-09-11T14:50:52Z</time>
      </trkpt>
      <trkpt lat="45.81273" lon="6.73406">
        <ele>1345.02</ele>
        <time>2018-09-11T14:50:53Z</time>
      </trkpt>
      <trkpt lat="45.81276" lon="6.73404">
        <ele>1344.06</ele>
        <time>2018-09-11T14:50:56Z</time>
      </trkpt>
      <trkpt lat="45.81277" lon="6.73404">
        <ele>1343.58</ele>
        <time>2018-09-11T14:50:57Z</time>
      </trkpt>
      <trkpt lat="45.81278" lon="6.73404">
        <ele>1343.1</ele>
        <time>2018-09-11T14:50:58Z</time>
      </trkpt>
      <trkpt lat="45.81279" lon="6.73401">
        <ele>1342.62</ele>
        <time>2018-09-11T14:51:00Z</time>
      </trkpt>
      <trkpt lat="45.81279" lon="6.73397">
        <ele>1341.66</ele>
        <time>2018-09-11T14:51:03Z</time>
      </trkpt>
      <trkpt lat="45.81279" lon="6.73396">
        <ele>1341.18</ele>
        <time>2018-09-11T14:51:04Z</time>
      </trkpt>
      <trkpt lat="45.81278" lon="6.73394">
        <ele>1340.7</ele>
        <time>2018-09-11T14:51:05Z</time>
      </trkpt>
      <trkpt lat="45.81277" lon="6.73392">
        <ele>1340.22</ele>
        <time>2018-09-11T14:51:06Z</time>
      </trkpt>
      <trkpt lat="45.81276" lon="6.7339">
        <ele>1340.22</ele>
        <time>2018-09-11T14:51:07Z</time>
      </trkpt>
      <trkpt lat="45.81275" lon="6.7339">
        <ele>1339.73</ele>
        <time>2018-09-11T14:51:08Z</time>
      </trkpt>
      <trkpt lat="45.81273" lon="6.73389">
        <ele>1339.73</ele>
        <time>2018-09-11T14:51:09Z</time>
      </trkpt>
      <trkpt lat="45.81271" lon="6.73388">
        <ele>1339.25</ele>
        <time>2018-09-11T14:51:10Z</time>
      </trkpt>
      <trkpt lat="45.8127" lon="6.73387">
        <ele>1338.77</ele>
        <time>2018-09-11T14:51:11Z</time>
      </trkpt>
      <trkpt lat="45.81269" lon="6.73384">
        <ele>1338.77</ele>
        <time>2018-09-11T14:51:12Z</time>
      </trkpt>
      <trkpt lat="45.81268" lon="6.73383">
        <ele>1338.29</ele>
        <time>2018-09-11T14:51:13Z</time>
      </trkpt>
      <trkpt lat="45.81266" lon="6.73382">
        <ele>1337.81</ele>
        <time>2018-09-11T14:51:14Z</time>
      </trkpt>
      <trkpt lat="45.81265" lon="6.73381">
        <ele>1337.81</ele>
        <time>2018-09-11T14:51:15Z</time>
      </trkpt>
      <trkpt lat="45.81264" lon="6.73381">
        <ele>1337.33</ele>
        <time>2018-09-11T14:51:16Z</time>
      </trkpt>
      <trkpt lat="45.81264" lon="6.7338">
        <ele>1336.85</ele>
        <time>2018-09-11T14:51:17Z</time>
      </trkpt>
      <trkpt lat="45.81264" lon="6.73379">
        <ele>1336.85</ele>
        <time>2018-09-11T14:51:18Z</time>
      </trkpt>
      <trkpt lat="45.81264" lon="6.73378">
        <ele>1335.89</ele>
        <time>2018-09-11T14:51:19Z</time>
      </trkpt>
      <trkpt lat="45.81267" lon="6.73378">
        <ele>1333.97</ele>
        <time>2018-09-11T14:51:22Z</time>
      </trkpt>
      <trkpt lat="45.81269" lon="6.73379">
        <ele>1333.97</ele>
        <time>2018-09-11T14:51:23Z</time>
      </trkpt>
      <trkpt lat="45.81271" lon="6.73379">
        <ele>1333.01</ele>
        <time>2018-09-11T14:51:24Z</time>
      </trkpt>
      <trkpt lat="45.81274" lon="6.73379">
        <ele>1332.52</ele>
        <time>2018-09-11T14:51:25Z</time>
      </trkpt>
      <trkpt lat="45.81277" lon="6.7338">
        <ele>1332.04</ele>
        <time>2018-09-11T14:51:26Z</time>
      </trkpt>
      <trkpt lat="45.81279" lon="6.73381">
        <ele>1332.04</ele>
        <time>2018-09-11T14:51:27Z</time>
      </trkpt>
      <trkpt lat="45.8129" lon="6.73379">
        <ele>1328.68</ele>
        <time>2018-09-11T14:51:34Z</time>
      </trkpt>
      <trkpt lat="45.81298" lon="6.73389">
        <ele>1325.31</ele>
        <time>2018-09-11T14:51:41Z</time>
      </trkpt>
      <trkpt lat="45.81306" lon="6.73407">
        <ele>1321.95</ele>
        <time>2018-09-11T14:51:49Z</time>
      </trkpt>
      <trkpt lat="45.81314" lon="6.73426">
        <ele>1318.1</ele>
        <time>2018-09-11T14:51:56Z</time>
      </trkpt>
      <trkpt lat="45.81323" lon="6.73436">
        <ele>1315.22</ele>
        <time>2018-09-11T14:52:01Z</time>
      </trkpt>
      <trkpt lat="45.81326" lon="6.73436">
        <ele>1314.74</ele>
        <time>2018-09-11T14:52:02Z</time>
      </trkpt>
      <trkpt lat="45.81328" lon="6.73436">
        <ele>1314.26</ele>
        <time>2018-09-11T14:52:03Z</time>
      </trkpt>
      <trkpt lat="45.81331" lon="6.73435">
        <ele>1313.78</ele>
        <time>2018-09-11T14:52:04Z</time>
      </trkpt>
      <trkpt lat="45.81335" lon="6.73435">
        <ele>1313.3</ele>
        <time>2018-09-11T14:52:05Z</time>
      </trkpt>
      <trkpt lat="45.81338" lon="6.73434">
        <ele>1312.82</ele>
        <time>2018-09-11T14:52:06Z</time>
      </trkpt>
      <trkpt lat="45.8134" lon="6.73432">
        <ele>1312.82</ele>
        <time>2018-09-11T14:52:07Z</time>
      </trkpt>
      <trkpt lat="45.81343" lon="6.73431">
        <ele>1312.34</ele>
        <time>2018-09-11T14:52:08Z</time>
      </trkpt>
      <trkpt lat="45.81346" lon="6.7343">
        <ele>1311.38</ele>
        <time>2018-09-11T14:52:09Z</time>
      </trkpt>
      <trkpt lat="45.81348" lon="6.73429">
        <ele>1311.38</ele>
        <time>2018-09-11T14:52:10Z</time>
      </trkpt>
      <trkpt lat="45.81356" lon="6.73425">
        <ele>1309.45</ele>
        <time>2018-09-11T14:52:13Z</time>
      </trkpt>
      <trkpt lat="45.81358" lon="6.73424">
        <ele>1308.97</ele>
        <time>2018-09-11T14:52:14Z</time>
      </trkpt>
      <trkpt lat="45.81359" lon="6.73422">
        <ele>1308.49</ele>
        <time>2018-09-11T14:52:15Z</time>
      </trkpt>
      <trkpt lat="45.81364" lon="6.73418">
        <ele>1307.05</ele>
        <time>2018-09-11T14:52:18Z</time>
      </trkpt>
      <trkpt lat="45.81367" lon="6.73417">
        <ele>1306.57</ele>
        <time>2018-09-11T14:52:19Z</time>
      </trkpt>
      <trkpt lat="45.8137" lon="6.73416">
        <ele>1306.09</ele>
        <time>2018-09-11T14:52:20Z</time>
      </trkpt>
      <trkpt lat="45.81373" lon="6.73415">
        <ele>1305.61</ele>
        <time>2018-09-11T14:52:21Z</time>
      </trkpt>
      <trkpt lat="45.81375" lon="6.73413">
        <ele>1305.13</ele>
        <time>2018-09-11T14:52:22Z</time>
      </trkpt>
      <trkpt lat="45.81377" lon="6.73412">
        <ele>1304.17</ele>
        <time>2018-09-11T14:52:24Z</time>
      </trkpt>
      <trkpt lat="45.81376" lon="6.73411">
        <ele>1303.69</ele>
        <time>2018-09-11T14:52:26Z</time>
      </trkpt>
      <trkpt lat="45.81374" lon="6.73411">
        <ele>1301.76</ele>
        <time>2018-09-11T14:52:29Z</time>
      </trkpt>
      <trkpt lat="45.81372" lon="6.7341">
        <ele>1301.76</ele>
        <time>2018-09-11T14:52:30Z</time>
      </trkpt>
      <trkpt lat="45.8137" lon="6.73409">
        <ele>1301.28</ele>
        <time>2018-09-11T14:52:31Z</time>
      </trkpt>
      <trkpt lat="45.81357" lon="6.73399">
        <ele>1297.92</ele>
        <time>2018-09-11T14:52:38Z</time>
      </trkpt>
      <trkpt lat="45.81346" lon="6.73382">
        <ele>1294.55</ele>
        <time>2018-09-11T14:52:48Z</time>
      </trkpt>
      <trkpt lat="45.81344" lon="6.73377">
        <ele>1293.59</ele>
        <time>2018-09-11T14:52:51Z</time>
      </trkpt>
      <trkpt lat="45.81344" lon="6.73375">
        <ele>1293.11</ele>
        <time>2018-09-11T14:52:52Z</time>
      </trkpt>
      <trkpt lat="45.81343" lon="6.73373">
        <ele>1292.63</ele>
        <time>2018-09-11T14:52:53Z</time>
      </trkpt>
      <trkpt lat="45.81342" lon="6.73371">
        <ele>1292.15</ele>
        <time>2018-09-11T14:52:54Z</time>
      </trkpt>
      <trkpt lat="45.8134" lon="6.73369">
        <ele>1291.67</ele>
        <time>2018-09-11T14:52:55Z</time>
      </trkpt>
      <trkpt lat="45.81339" lon="6.73366">
        <ele>1291.19</ele>
        <time>2018-09-11T14:52:56Z</time>
      </trkpt>
      <trkpt lat="45.81338" lon="6.73364">
        <ele>1290.71</ele>
        <time>2018-09-11T14:52:57Z</time>
      </trkpt>
      <trkpt lat="45.81337" lon="6.73362">
        <ele>1290.23</ele>
        <time>2018-09-11T14:52:58Z</time>
      </trkpt>
      <trkpt lat="45.81336" lon="6.73359">
        <ele>1290.23</ele>
        <time>2018-09-11T14:52:59Z</time>
      </trkpt>
      <trkpt lat="45.81334" lon="6.73356">
        <ele>1289.75</ele>
        <time>2018-09-11T14:53:00Z</time>
      </trkpt>
      <trkpt lat="45.81334" lon="6.73355">
        <ele>1289.75</ele>
        <time>2018-09-11T14:53:01Z</time>
      </trkpt>
      <trkpt lat="45.81327" lon="6.7334">
        <ele>1286.86</ele>
        <time>2018-09-11T14:53:07Z</time>
      </trkpt>
      <trkpt lat="45.81322" lon="6.73322">
        <ele>1283.5</ele>
        <time>2018-09-11T14:53:15Z</time>
      </trkpt>
      <trkpt lat="45.81312" lon="6.73308">
        <ele>1279.65</ele>
        <time>2018-09-11T14:53:22Z</time>
      </trkpt>
      <trkpt lat="45.81306" lon="6.73299">
        <ele>1276.77</ele>
        <time>2018-09-11T14:53:28Z</time>
      </trkpt>
      <trkpt lat="45.81299" lon="6.73289">
        <ele>1273.88</ele>
        <time>2018-09-11T14:53:33Z</time>
      </trkpt>
      <trkpt lat="45.8129" lon="6.73276">
        <ele>1270.52</ele>
        <time>2018-09-11T14:53:40Z</time>
      </trkpt>
      <trkpt lat="45.81285" lon="6.73269">
        <ele>1269.08</ele>
        <time>2018-09-11T14:53:44Z</time>
      </trkpt>
      <trkpt lat="45.81283" lon="6.73268">
        <ele>1268.6</ele>
        <time>2018-09-11T14:53:45Z</time>
      </trkpt>
      <trkpt lat="45.81282" lon="6.73267">
        <ele>1267.64</ele>
        <time>2018-09-11T14:53:46Z</time>
      </trkpt>
      <trkpt lat="45.8128" lon="6.73265">
        <ele>1267.16</ele>
        <time>2018-09-11T14:53:47Z</time>
      </trkpt>
      <trkpt lat="45.81278" lon="6.73263">
        <ele>1266.67</ele>
        <time>2018-09-11T14:53:48Z</time>
      </trkpt>
      <trkpt lat="45.81277" lon="6.73261">
        <ele>1266.19</ele>
        <time>2018-09-11T14:53:49Z</time>
      </trkpt>
      <trkpt lat="45.81275" lon="6.73259">
        <ele>1265.71</ele>
        <time>2018-09-11T14:53:50Z</time>
      </trkpt>
      <trkpt lat="45.81273" lon="6.73258">
        <ele>1265.23</ele>
        <time>2018-09-11T14:53:51Z</time>
      </trkpt>
      <trkpt lat="45.81272" lon="6.73257">
        <ele>1264.75</ele>
        <time>2018-09-11T14:53:52Z</time>
      </trkpt>
      <trkpt lat="45.8127" lon="6.73256">
        <ele>1263.79</ele>
        <time>2018-09-11T14:53:53Z</time>
      </trkpt>
      <trkpt lat="45.81257" lon="6.73247">
        <ele>1260.43</ele>
        <time>2018-09-11T14:54:00Z</time>
      </trkpt>
      <trkpt lat="45.81252" lon="6.73239">
        <ele>1258.5</ele>
        <time>2018-09-11T14:54:03Z</time>
      </trkpt>
      <trkpt lat="45.81247" lon="6.7323">
        <ele>1257.06</ele>
        <time>2018-09-11T14:54:06Z</time>
      </trkpt>
      <trkpt lat="45.81245" lon="6.73228">
        <ele>1256.58</ele>
        <time>2018-09-11T14:54:07Z</time>
      </trkpt>
      <trkpt lat="45.81236" lon="6.73211">
        <ele>1253.7</ele>
        <time>2018-09-11T14:54:14Z</time>
      </trkpt>
      <trkpt lat="45.81232" lon="6.73205">
        <ele>1252.25</ele>
        <time>2018-09-11T14:54:18Z</time>
      </trkpt>
      <trkpt lat="45.81231" lon="6.73203">
        <ele>1251.77</ele>
        <time>2018-09-11T14:54:19Z</time>
      </trkpt>
      <trkpt lat="45.8123" lon="6.732">
        <ele>1251.29</ele>
        <time>2018-09-11T14:54:20Z</time>
      </trkpt>
      <trkpt lat="45.81218" lon="6.73182">
        <ele>1247.93</ele>
        <time>2018-09-11T14:54:28Z</time>
      </trkpt>
      <trkpt lat="45.81216" lon="6.7318">
        <ele>1247.93</ele>
        <time>2018-09-11T14:54:29Z</time>
      </trkpt>
      <trkpt lat="45.81205" lon="6.73173">
        <ele>1244.56</ele>
        <time>2018-09-11T14:54:35Z</time>
      </trkpt>
      <trkpt lat="45.81197" lon="6.73164">
        <ele>1242.64</ele>
        <time>2018-09-11T14:54:40Z</time>
      </trkpt>
      <trkpt lat="45.81196" lon="6.73161">
        <ele>1242.16</ele>
        <time>2018-09-11T14:54:41Z</time>
      </trkpt>
      <trkpt lat="45.81194" lon="6.73159">
        <ele>1242.16</ele>
        <time>2018-09-11T14:54:42Z</time>
      </trkpt>
      <trkpt lat="45.81183" lon="6.73144">
        <ele>1238.8</ele>
        <time>2018-09-11T14:54:49Z</time>
      </trkpt>
      <trkpt lat="45.81171" lon="6.73131">
        <ele>1235.91</ele>
        <time>2018-09-11T14:54:57Z</time>
      </trkpt>
      <trkpt lat="45.81165" lon="6.73125">
        <ele>1233.99</ele>
        <time>2018-09-11T14:55:01Z</time>
      </trkpt>
      <trkpt lat="45.81164" lon="6.73123">
        <ele>1233.51</ele>
        <time>2018-09-11T14:55:02Z</time>
      </trkpt>
      <trkpt lat="45.81162" lon="6.73121">
        <ele>1233.03</ele>
        <time>2018-09-11T14:55:03Z</time>
      </trkpt>
      <trkpt lat="45.81159" lon="6.73118">
        <ele>1232.55</ele>
        <time>2018-09-11T14:55:04Z</time>
      </trkpt>
      <trkpt lat="45.81157" lon="6.73116">
        <ele>1232.07</ele>
        <time>2018-09-11T14:55:05Z</time>
      </trkpt>
      <trkpt lat="45.81143" lon="6.73093">
        <ele>1229.18</ele>
        <time>2018-09-11T14:55:12Z</time>
      </trkpt>
      <trkpt lat="45.81142" lon="6.7309">
        <ele>1228.7</ele>
        <time>2018-09-11T14:55:13Z</time>
      </trkpt>
      <trkpt lat="45.81141" lon="6.73088">
        <ele>1228.7</ele>
        <time>2018-09-11T14:55:14Z</time>
      </trkpt>
      <trkpt lat="45.81139" lon="6.73086">
        <ele>1228.7</ele>
        <time>2018-09-11T14:55:15Z</time>
      </trkpt>
      <trkpt lat="45.81137" lon="6.73084">
        <ele>1228.22</ele>
        <time>2018-09-11T14:55:16Z</time>
      </trkpt>
      <trkpt lat="45.81136" lon="6.73083">
        <ele>1227.26</ele>
        <time>2018-09-11T14:55:17Z</time>
      </trkpt>
      <trkpt lat="45.81133" lon="6.73081">
        <ele>1226.78</ele>
        <time>2018-09-11T14:55:19Z</time>
      </trkpt>
      <trkpt lat="45.8113" lon="6.73078">
        <ele>1225.82</ele>
        <time>2018-09-11T14:55:21Z</time>
      </trkpt>
      <trkpt lat="45.81132" lon="6.73078">
        <ele>1225.34</ele>
        <time>2018-09-11T14:55:23Z</time>
      </trkpt>
      <trkpt lat="45.81133" lon="6.73079">
        <ele>1224.86</ele>
        <time>2018-09-11T14:55:24Z</time>
      </trkpt>
      <trkpt lat="45.8114" lon="6.7308">
        <ele>1221.97</ele>
        <time>2018-09-11T14:55:29Z</time>
      </trkpt>
      <trkpt lat="45.81146" lon="6.73078">
        <ele>1219.57</ele>
        <time>2018-09-11T14:55:35Z</time>
      </trkpt>
      <trkpt lat="45.81146" lon="6.73079">
        <ele>1219.09</ele>
        <time>2018-09-11T14:55:36Z</time>
      </trkpt>
      <trkpt lat="45.81147" lon="6.73079">
        <ele>1218.61</ele>
        <time>2018-09-11T14:55:37Z</time>
      </trkpt>
      <trkpt lat="45.81148" lon="6.7308">
        <ele>1218.13</ele>
        <time>2018-09-11T14:55:38Z</time>
      </trkpt>
      <trkpt lat="45.81149" lon="6.7308">
        <ele>1217.65</ele>
        <time>2018-09-11T14:55:39Z</time>
      </trkpt>
      <trkpt lat="45.81164" lon="6.73082">
        <ele>1214.76</ele>
        <time>2018-09-11T14:55:48Z</time>
      </trkpt>
      <trkpt lat="45.81177" lon="6.73083">
        <ele>1211.4</ele>
        <time>2018-09-11T14:55:55Z</time>
      </trkpt>
      <trkpt lat="45.81182" lon="6.73084">
        <ele>1209.96</ele>
        <time>2018-09-11T14:55:58Z</time>
      </trkpt>
      <trkpt lat="45.81197" lon="6.73083">
        <ele>1206.59</ele>
        <time>2018-09-11T14:56:06Z</time>
      </trkpt>
      <trkpt lat="45.81212" lon="6.73079">
        <ele>1203.23</ele>
        <time>2018-09-11T14:56:14Z</time>
      </trkpt>
      <trkpt lat="45.81214" lon="6.73078">
        <ele>1203.23</ele>
        <time>2018-09-11T14:56:15Z</time>
      </trkpt>
      <trkpt lat="45.81215" lon="6.73079">
        <ele>1202.75</ele>
        <time>2018-09-11T14:56:16Z</time>
      </trkpt>
      <trkpt lat="45.81225" lon="6.73078">
        <ele>1200.82</ele>
        <time>2018-09-11T14:56:21Z</time>
      </trkpt>
      <trkpt lat="45.81227" lon="6.73076">
        <ele>1200.34</ele>
        <time>2018-09-11T14:56:22Z</time>
      </trkpt>
      <trkpt lat="45.81228" lon="6.73072">
        <ele>1199.86</ele>
        <time>2018-09-11T14:56:23Z</time>
      </trkpt>
      <trkpt lat="45.81227" lon="6.73068">
        <ele>1199.38</ele>
        <time>2018-09-11T14:56:24Z</time>
      </trkpt>
      <trkpt lat="45.81226" lon="6.73066">
        <ele>1199.38</ele>
        <time>2018-09-11T14:56:25Z</time>
      </trkpt>
      <trkpt lat="45.81224" lon="6.73064">
        <ele>1198.9</ele>
        <time>2018-09-11T14:56:26Z</time>
      </trkpt>
      <trkpt lat="45.81207" lon="6.73055">
        <ele>1197.94</ele>
        <time>2018-09-11T14:56:34Z</time>
      </trkpt>
      <trkpt lat="45.81187" lon="6.73042">
        <ele>1196.5</ele>
        <time>2018-09-11T14:56:42Z</time>
      </trkpt>
      <trkpt lat="45.81168" lon="6.73025">
        <ele>1194.09</ele>
        <time>2018-09-11T14:56:50Z</time>
      </trkpt>
      <trkpt lat="45.81151" lon="6.73008">
        <ele>1191.21</ele>
        <time>2018-09-11T14:56:58Z</time>
      </trkpt>
      <trkpt lat="45.81134" lon="6.72993">
        <ele>1188.33</ele>
        <time>2018-09-11T14:57:06Z</time>
      </trkpt>
      <trkpt lat="45.81116" lon="6.72977">
        <ele>1185.92</ele>
        <time>2018-09-11T14:57:13Z</time>
      </trkpt>
      <trkpt lat="45.81096" lon="6.72967">
        <ele>1183.52</ele>
        <time>2018-09-11T14:57:20Z</time>
      </trkpt>
      <trkpt lat="45.81076" lon="6.72955">
        <ele>1181.6</ele>
        <time>2018-09-11T14:57:28Z</time>
      </trkpt>
      <trkpt lat="45.81056" lon="6.72939">
        <ele>1179.67</ele>
        <time>2018-09-11T14:57:36Z</time>
      </trkpt>
      <trkpt lat="45.81037" lon="6.72927">
        <ele>1177.75</ele>
        <time>2018-09-11T14:57:44Z</time>
      </trkpt>
      <trkpt lat="45.81017" lon="6.72917">
        <ele>1174.39</ele>
        <time>2018-09-11T14:57:53Z</time>
      </trkpt>
      <trkpt lat="45.80997" lon="6.72905">
        <ele>1172.95</ele>
        <time>2018-09-11T14:58:03Z</time>
      </trkpt>
    </trkseg>
  </trk>
</gpx>